<?xml version="1.0" encoding="UTF-8" standalone="no" ?>
<gpx xmlns="http://www.topografix.com/GPX/1/1" xmlns:xsi="http://www.w3.org/2001/XMLSchema-instance" xsi:schemaLocation="http://www.topografix.com/GPX/1/1 http://www.topografix.com/GPX/1/1/gpx.xsd" version="1.1" creator="VisuGPX - https://www.visugpx.com">
  <metadata>
    <name>la viree des grands duc 2017 </name>
    <desc><![CDATA[randonnée dans les monts du lyonnais ]]></desc>
  </metadata>
  <trk>
    <name><![CDATA[la viree des grands duc 2017 _1]]></name>
    <trkseg>
      <trkpt lat="45.70981" lon="4.49186">
        <ele>489</ele>
        <time>2017-05-14T05:13:31Z</time>
      </trkpt>
      <trkpt lat="45.70971" lon="4.49193">
        <ele>489</ele>
        <time>2017-05-14T05:13:35Z</time>
      </trkpt>
      <trkpt lat="45.70962" lon="4.49204">
        <ele>490</ele>
        <time>2017-05-14T05:13:39Z</time>
      </trkpt>
      <trkpt lat="45.70948" lon="4.49213">
        <ele>490</ele>
        <time>2017-05-14T05:13:43Z</time>
      </trkpt>
      <trkpt lat="45.70937" lon="4.49219">
        <ele>490</ele>
        <time>2017-05-14T05:13:47Z</time>
      </trkpt>
      <trkpt lat="45.70932" lon="4.49226">
        <ele>492</ele>
        <time>2017-05-14T05:13:52Z</time>
      </trkpt>
      <trkpt lat="45.70943" lon="4.49238">
        <ele>493</ele>
        <time>2017-05-14T05:13:55Z</time>
      </trkpt>
      <trkpt lat="45.70946" lon="4.49253">
        <ele>494</ele>
        <time>2017-05-14T05:14:00Z</time>
      </trkpt>
      <trkpt lat="45.70958" lon="4.49263">
        <ele>494</ele>
        <time>2017-05-14T05:14:03Z</time>
      </trkpt>
      <trkpt lat="45.70967" lon="4.49271">
        <ele>496</ele>
        <time>2017-05-14T05:14:07Z</time>
      </trkpt>
      <trkpt lat="45.70975" lon="4.4928">
        <ele>498</ele>
        <time>2017-05-14T05:14:12Z</time>
      </trkpt>
      <trkpt lat="45.70973" lon="4.49279">
        <ele>499</ele>
        <time>2017-05-14T05:14:15Z</time>
      </trkpt>
      <trkpt lat="45.70978" lon="4.49284">
        <ele>499</ele>
        <time>2017-05-14T05:14:19Z</time>
      </trkpt>
      <trkpt lat="45.70988" lon="4.49294">
        <ele>501</ele>
        <time>2017-05-14T05:14:23Z</time>
      </trkpt>
      <trkpt lat="45.70992" lon="4.49306">
        <ele>501</ele>
        <time>2017-05-14T05:14:27Z</time>
      </trkpt>
      <trkpt lat="45.70988" lon="4.49311">
        <ele>503</ele>
        <time>2017-05-14T05:14:31Z</time>
      </trkpt>
      <trkpt lat="45.70988" lon="4.49317">
        <ele>504</ele>
        <time>2017-05-14T05:14:35Z</time>
      </trkpt>
      <trkpt lat="45.70986" lon="4.49319">
        <ele>505</ele>
        <time>2017-05-14T05:14:39Z</time>
      </trkpt>
      <trkpt lat="45.70987" lon="4.49328">
        <ele>506</ele>
        <time>2017-05-14T05:14:43Z</time>
      </trkpt>
      <trkpt lat="45.71008" lon="4.4935">
        <ele>507</ele>
        <time>2017-05-14T05:14:47Z</time>
      </trkpt>
      <trkpt lat="45.71025" lon="4.49371">
        <ele>508</ele>
        <time>2017-05-14T05:14:51Z</time>
      </trkpt>
      <trkpt lat="45.71043" lon="4.49392">
        <ele>509</ele>
        <time>2017-05-14T05:14:55Z</time>
      </trkpt>
      <trkpt lat="45.71061" lon="4.4941">
        <ele>509</ele>
        <time>2017-05-14T05:14:59Z</time>
      </trkpt>
      <trkpt lat="45.7108" lon="4.49428">
        <ele>509</ele>
        <time>2017-05-14T05:15:03Z</time>
      </trkpt>
      <trkpt lat="45.71104" lon="4.49454">
        <ele>507</ele>
        <time>2017-05-14T05:15:07Z</time>
      </trkpt>
      <trkpt lat="45.7113" lon="4.49481">
        <ele>505</ele>
        <time>2017-05-14T05:15:11Z</time>
      </trkpt>
      <trkpt lat="45.71153" lon="4.49509">
        <ele>502</ele>
        <time>2017-05-14T05:15:15Z</time>
      </trkpt>
      <trkpt lat="45.71167" lon="4.49527">
        <ele>500</ele>
        <time>2017-05-14T05:15:21Z</time>
      </trkpt>
      <trkpt lat="45.71177" lon="4.49535">
        <ele>500</ele>
        <time>2017-05-14T05:15:23Z</time>
      </trkpt>
      <trkpt lat="45.71191" lon="4.49544">
        <ele>495</ele>
        <time>2017-05-14T05:15:27Z</time>
      </trkpt>
      <trkpt lat="45.71205" lon="4.49544">
        <ele>491</ele>
        <time>2017-05-14T05:15:31Z</time>
      </trkpt>
      <trkpt lat="45.71216" lon="4.49539">
        <ele>487</ele>
        <time>2017-05-14T05:15:35Z</time>
      </trkpt>
      <trkpt lat="45.71242" lon="4.49528">
        <ele>486</ele>
        <time>2017-05-14T05:15:39Z</time>
      </trkpt>
      <trkpt lat="45.71269" lon="4.49524">
        <ele>475</ele>
        <time>2017-05-14T05:15:43Z</time>
      </trkpt>
      <trkpt lat="45.71285" lon="4.4952">
        <ele>474</ele>
        <time>2017-05-14T05:15:47Z</time>
      </trkpt>
      <trkpt lat="45.71296" lon="4.49515">
        <ele>471</ele>
        <time>2017-05-14T05:15:51Z</time>
      </trkpt>
      <trkpt lat="45.71307" lon="4.49509">
        <ele>466</ele>
        <time>2017-05-14T05:15:55Z</time>
      </trkpt>
      <trkpt lat="45.71318" lon="4.495">
        <ele>465</ele>
        <time>2017-05-14T05:15:59Z</time>
      </trkpt>
      <trkpt lat="45.71323" lon="4.49494">
        <ele>462</ele>
        <time>2017-05-14T05:16:03Z</time>
      </trkpt>
      <trkpt lat="45.71327" lon="4.4949">
        <ele>462</ele>
        <time>2017-05-14T05:16:07Z</time>
      </trkpt>
      <trkpt lat="45.7136" lon="4.4947">
        <ele>462</ele>
        <time>2017-05-14T05:16:59Z</time>
      </trkpt>
      <trkpt lat="45.71368" lon="4.49471">
        <ele>463</ele>
        <time>2017-05-14T05:17:03Z</time>
      </trkpt>
      <trkpt lat="45.71375" lon="4.4947">
        <ele>465</ele>
        <time>2017-05-14T05:17:07Z</time>
      </trkpt>
      <trkpt lat="45.7138" lon="4.49467">
        <ele>466</ele>
        <time>2017-05-14T05:17:11Z</time>
      </trkpt>
      <trkpt lat="45.71386" lon="4.4946">
        <ele>467</ele>
        <time>2017-05-14T05:17:16Z</time>
      </trkpt>
      <trkpt lat="45.71395" lon="4.49445">
        <ele>468</ele>
        <time>2017-05-14T05:17:19Z</time>
      </trkpt>
      <trkpt lat="45.71405" lon="4.49432">
        <ele>468</ele>
        <time>2017-05-14T05:17:23Z</time>
      </trkpt>
      <trkpt lat="45.71413" lon="4.49421">
        <ele>469</ele>
        <time>2017-05-14T05:17:28Z</time>
      </trkpt>
      <trkpt lat="45.71418" lon="4.49413">
        <ele>470</ele>
        <time>2017-05-14T05:17:31Z</time>
      </trkpt>
      <trkpt lat="45.71422" lon="4.49406">
        <ele>472</ele>
        <time>2017-05-14T05:17:35Z</time>
      </trkpt>
      <trkpt lat="45.71427" lon="4.49397">
        <ele>474</ele>
        <time>2017-05-14T05:17:40Z</time>
      </trkpt>
      <trkpt lat="45.71434" lon="4.49383">
        <ele>474</ele>
        <time>2017-05-14T05:17:43Z</time>
      </trkpt>
      <trkpt lat="45.71441" lon="4.49371">
        <ele>475</ele>
        <time>2017-05-14T05:17:47Z</time>
      </trkpt>
      <trkpt lat="45.71448" lon="4.4936">
        <ele>475</ele>
        <time>2017-05-14T05:17:51Z</time>
      </trkpt>
      <trkpt lat="45.71457" lon="4.49348">
        <ele>476</ele>
        <time>2017-05-14T05:17:55Z</time>
      </trkpt>
      <trkpt lat="45.71467" lon="4.49338">
        <ele>477</ele>
        <time>2017-05-14T05:17:59Z</time>
      </trkpt>
      <trkpt lat="45.71475" lon="4.4933">
        <ele>478</ele>
        <time>2017-05-14T05:18:03Z</time>
      </trkpt>
      <trkpt lat="45.7148" lon="4.49327">
        <ele>479</ele>
        <time>2017-05-14T05:18:07Z</time>
      </trkpt>
      <trkpt lat="45.71486" lon="4.49324">
        <ele>479</ele>
        <time>2017-05-14T05:18:11Z</time>
      </trkpt>
      <trkpt lat="45.71494" lon="4.49321">
        <ele>480</ele>
        <time>2017-05-14T05:18:15Z</time>
      </trkpt>
      <trkpt lat="45.71506" lon="4.49314">
        <ele>479</ele>
        <time>2017-05-14T05:18:20Z</time>
      </trkpt>
      <trkpt lat="45.71519" lon="4.49306">
        <ele>479</ele>
        <time>2017-05-14T05:18:23Z</time>
      </trkpt>
      <trkpt lat="45.71534" lon="4.49295">
        <ele>480</ele>
        <time>2017-05-14T05:18:27Z</time>
      </trkpt>
      <trkpt lat="45.71546" lon="4.49288">
        <ele>481</ele>
        <time>2017-05-14T05:18:31Z</time>
      </trkpt>
      <trkpt lat="45.7156" lon="4.49278">
        <ele>481</ele>
        <time>2017-05-14T05:18:35Z</time>
      </trkpt>
      <trkpt lat="45.71574" lon="4.49267">
        <ele>482</ele>
        <time>2017-05-14T05:18:39Z</time>
      </trkpt>
      <trkpt lat="45.71587" lon="4.49254">
        <ele>482</ele>
        <time>2017-05-14T05:18:43Z</time>
      </trkpt>
      <trkpt lat="45.716" lon="4.49242">
        <ele>484</ele>
        <time>2017-05-14T05:18:47Z</time>
      </trkpt>
      <trkpt lat="45.71611" lon="4.49232">
        <ele>484</ele>
        <time>2017-05-14T05:18:51Z</time>
      </trkpt>
      <trkpt lat="45.71625" lon="4.49221">
        <ele>485</ele>
        <time>2017-05-14T05:18:56Z</time>
      </trkpt>
      <trkpt lat="45.71643" lon="4.49209">
        <ele>485</ele>
        <time>2017-05-14T05:18:59Z</time>
      </trkpt>
      <trkpt lat="45.71661" lon="4.49198">
        <ele>485</ele>
        <time>2017-05-14T05:19:03Z</time>
      </trkpt>
      <trkpt lat="45.7168" lon="4.4919">
        <ele>485</ele>
        <time>2017-05-14T05:19:07Z</time>
      </trkpt>
      <trkpt lat="45.717" lon="4.49182">
        <ele>485</ele>
        <time>2017-05-14T05:19:11Z</time>
      </trkpt>
      <trkpt lat="45.71719" lon="4.49176">
        <ele>485</ele>
        <time>2017-05-14T05:19:15Z</time>
      </trkpt>
      <trkpt lat="45.71738" lon="4.49165">
        <ele>484</ele>
        <time>2017-05-14T05:19:19Z</time>
      </trkpt>
      <trkpt lat="45.71756" lon="4.49147">
        <ele>480</ele>
        <time>2017-05-14T05:19:23Z</time>
      </trkpt>
      <trkpt lat="45.7176" lon="4.49138">
        <ele>477</ele>
        <time>2017-05-14T05:19:27Z</time>
      </trkpt>
      <trkpt lat="45.71754" lon="4.49133">
        <ele>476</ele>
        <time>2017-05-14T05:19:35Z</time>
      </trkpt>
      <trkpt lat="45.71742" lon="4.49119">
        <ele>474</ele>
        <time>2017-05-14T05:19:39Z</time>
      </trkpt>
      <trkpt lat="45.71693" lon="4.4908">
        <ele>466</ele>
        <time>2017-05-14T05:19:48Z</time>
      </trkpt>
      <trkpt lat="45.71672" lon="4.49062">
        <ele>466</ele>
        <time>2017-05-14T05:19:50Z</time>
      </trkpt>
      <trkpt lat="45.71656" lon="4.49044">
        <ele>460</ele>
        <time>2017-05-14T05:19:55Z</time>
      </trkpt>
      <trkpt lat="45.7165" lon="4.49011">
        <ele>456</ele>
        <time>2017-05-14T05:19:59Z</time>
      </trkpt>
      <trkpt lat="45.71639" lon="4.48932">
        <ele>447</ele>
        <time>2017-05-14T05:20:04Z</time>
      </trkpt>
      <trkpt lat="45.71625" lon="4.48908">
        <ele>442</ele>
        <time>2017-05-14T05:20:08Z</time>
      </trkpt>
      <trkpt lat="45.71604" lon="4.48885">
        <ele>435</ele>
        <time>2017-05-14T05:20:15Z</time>
      </trkpt>
      <trkpt lat="45.71587" lon="4.48864">
        <ele>431</ele>
        <time>2017-05-14T05:20:19Z</time>
      </trkpt>
      <trkpt lat="45.7159" lon="4.48828">
        <ele>430</ele>
        <time>2017-05-14T05:20:24Z</time>
      </trkpt>
      <trkpt lat="45.71582" lon="4.48821">
        <ele>431</ele>
        <time>2017-05-14T05:20:31Z</time>
      </trkpt>
      <trkpt lat="45.71572" lon="4.48804">
        <ele>432</ele>
        <time>2017-05-14T05:20:35Z</time>
      </trkpt>
      <trkpt lat="45.7156" lon="4.48784">
        <ele>431</ele>
        <time>2017-05-14T05:20:39Z</time>
      </trkpt>
      <trkpt lat="45.71544" lon="4.48769">
        <ele>431</ele>
        <time>2017-05-14T05:20:43Z</time>
      </trkpt>
      <trkpt lat="45.7153" lon="4.48758">
        <ele>431</ele>
        <time>2017-05-14T05:20:47Z</time>
      </trkpt>
      <trkpt lat="45.7152" lon="4.48742">
        <ele>433</ele>
        <time>2017-05-14T05:20:51Z</time>
      </trkpt>
      <trkpt lat="45.71512" lon="4.48731">
        <ele>433</ele>
        <time>2017-05-14T05:20:55Z</time>
      </trkpt>
      <trkpt lat="45.71498" lon="4.48709">
        <ele>435</ele>
        <time>2017-05-14T05:20:59Z</time>
      </trkpt>
      <trkpt lat="45.71492" lon="4.48692">
        <ele>435</ele>
        <time>2017-05-14T05:21:07Z</time>
      </trkpt>
      <trkpt lat="45.71482" lon="4.48677">
        <ele>435</ele>
        <time>2017-05-14T05:21:11Z</time>
      </trkpt>
      <trkpt lat="45.71473" lon="4.48657">
        <ele>435</ele>
        <time>2017-05-14T05:21:15Z</time>
      </trkpt>
      <trkpt lat="45.71457" lon="4.48614">
        <ele>434</ele>
        <time>2017-05-14T05:21:19Z</time>
      </trkpt>
      <trkpt lat="45.71451" lon="4.48581">
        <ele>429</ele>
        <time>2017-05-14T05:21:27Z</time>
      </trkpt>
      <trkpt lat="45.71437" lon="4.48549">
        <ele>428</ele>
        <time>2017-05-14T05:21:31Z</time>
      </trkpt>
      <trkpt lat="45.71418" lon="4.48526">
        <ele>428</ele>
        <time>2017-05-14T05:21:35Z</time>
      </trkpt>
      <trkpt lat="45.71399" lon="4.48503">
        <ele>430</ele>
        <time>2017-05-14T05:21:39Z</time>
      </trkpt>
      <trkpt lat="45.71393" lon="4.48481">
        <ele>430</ele>
        <time>2017-05-14T05:21:43Z</time>
      </trkpt>
      <trkpt lat="45.71417" lon="4.48442">
        <ele>430</ele>
        <time>2017-05-14T05:21:48Z</time>
      </trkpt>
      <trkpt lat="45.71434" lon="4.48421">
        <ele>431</ele>
        <time>2017-05-14T05:21:55Z</time>
      </trkpt>
      <trkpt lat="45.7144" lon="4.48403">
        <ele>431</ele>
        <time>2017-05-14T05:21:59Z</time>
      </trkpt>
      <trkpt lat="45.71438" lon="4.48389">
        <ele>433</ele>
        <time>2017-05-14T05:22:03Z</time>
      </trkpt>
      <trkpt lat="45.71437" lon="4.48375">
        <ele>434</ele>
        <time>2017-05-14T05:22:07Z</time>
      </trkpt>
      <trkpt lat="45.71452" lon="4.48373">
        <ele>435</ele>
        <time>2017-05-14T05:22:12Z</time>
      </trkpt>
      <trkpt lat="45.71459" lon="4.48379">
        <ele>435</ele>
        <time>2017-05-14T05:22:19Z</time>
      </trkpt>
      <trkpt lat="45.71467" lon="4.48384">
        <ele>434</ele>
        <time>2017-05-14T05:22:23Z</time>
      </trkpt>
      <trkpt lat="45.71491" lon="4.48382">
        <ele>437</ele>
        <time>2017-05-14T05:22:28Z</time>
      </trkpt>
      <trkpt lat="45.715" lon="4.4838">
        <ele>439</ele>
        <time>2017-05-14T05:22:35Z</time>
      </trkpt>
      <trkpt lat="45.71505" lon="4.4837">
        <ele>441</ele>
        <time>2017-05-14T05:22:43Z</time>
      </trkpt>
      <trkpt lat="45.71504" lon="4.48335">
        <ele>441</ele>
        <time>2017-05-14T05:22:44Z</time>
      </trkpt>
      <trkpt lat="45.71503" lon="4.48316">
        <ele>441</ele>
        <time>2017-05-14T05:22:51Z</time>
      </trkpt>
      <trkpt lat="45.71505" lon="4.48301">
        <ele>441</ele>
        <time>2017-05-14T05:22:55Z</time>
      </trkpt>
      <trkpt lat="45.71515" lon="4.48294">
        <ele>442</ele>
        <time>2017-05-14T05:22:59Z</time>
      </trkpt>
      <trkpt lat="45.71528" lon="4.483">
        <ele>444</ele>
        <time>2017-05-14T05:23:03Z</time>
      </trkpt>
      <trkpt lat="45.71537" lon="4.48297">
        <ele>445</ele>
        <time>2017-05-14T05:23:11Z</time>
      </trkpt>
      <trkpt lat="45.71544" lon="4.48294">
        <ele>446</ele>
        <time>2017-05-14T05:23:15Z</time>
      </trkpt>
      <trkpt lat="45.7155" lon="4.48296">
        <ele>448</ele>
        <time>2017-05-14T05:23:19Z</time>
      </trkpt>
      <trkpt lat="45.71553" lon="4.48298">
        <ele>450</ele>
        <time>2017-05-14T05:23:23Z</time>
      </trkpt>
      <trkpt lat="45.71557" lon="4.48305">
        <ele>451</ele>
        <time>2017-05-14T05:23:27Z</time>
      </trkpt>
      <trkpt lat="45.7156" lon="4.48314">
        <ele>452</ele>
        <time>2017-05-14T05:23:31Z</time>
      </trkpt>
      <trkpt lat="45.71567" lon="4.48323">
        <ele>453</ele>
        <time>2017-05-14T05:23:35Z</time>
      </trkpt>
      <trkpt lat="45.71579" lon="4.48326">
        <ele>453</ele>
        <time>2017-05-14T05:23:39Z</time>
      </trkpt>
      <trkpt lat="45.71583" lon="4.48321">
        <ele>455</ele>
        <time>2017-05-14T05:23:43Z</time>
      </trkpt>
      <trkpt lat="45.71592" lon="4.48317">
        <ele>456</ele>
        <time>2017-05-14T05:23:47Z</time>
      </trkpt>
      <trkpt lat="45.71608" lon="4.483">
        <ele>457</ele>
        <time>2017-05-14T05:23:52Z</time>
      </trkpt>
      <trkpt lat="45.71616" lon="4.48286">
        <ele>458</ele>
        <time>2017-05-14T05:23:59Z</time>
      </trkpt>
      <trkpt lat="45.71621" lon="4.48273">
        <ele>459</ele>
        <time>2017-05-14T05:24:03Z</time>
      </trkpt>
      <trkpt lat="45.71631" lon="4.4824">
        <ele>460</ele>
        <time>2017-05-14T05:24:08Z</time>
      </trkpt>
      <trkpt lat="45.71636" lon="4.48222">
        <ele>460</ele>
        <time>2017-05-14T05:24:11Z</time>
      </trkpt>
      <trkpt lat="45.7164" lon="4.48207">
        <ele>461</ele>
        <time>2017-05-14T05:24:16Z</time>
      </trkpt>
      <trkpt lat="45.71643" lon="4.48188">
        <ele>462</ele>
        <time>2017-05-14T05:24:23Z</time>
      </trkpt>
      <trkpt lat="45.71645" lon="4.48166">
        <ele>461</ele>
        <time>2017-05-14T05:24:27Z</time>
      </trkpt>
      <trkpt lat="45.71661" lon="4.48117">
        <ele>461</ele>
        <time>2017-05-14T05:24:32Z</time>
      </trkpt>
      <trkpt lat="45.71671" lon="4.48099">
        <ele>462</ele>
        <time>2017-05-14T05:24:35Z</time>
      </trkpt>
      <trkpt lat="45.7168" lon="4.48083">
        <ele>462</ele>
        <time>2017-05-14T05:24:43Z</time>
      </trkpt>
      <trkpt lat="45.71688" lon="4.48068">
        <ele>463</ele>
        <time>2017-05-14T05:24:47Z</time>
      </trkpt>
      <trkpt lat="45.71697" lon="4.48052">
        <ele>463</ele>
        <time>2017-05-14T05:24:51Z</time>
      </trkpt>
      <trkpt lat="45.71707" lon="4.48036">
        <ele>464</ele>
        <time>2017-05-14T05:24:55Z</time>
      </trkpt>
      <trkpt lat="45.71718" lon="4.48023">
        <ele>465</ele>
        <time>2017-05-14T05:24:59Z</time>
      </trkpt>
      <trkpt lat="45.71727" lon="4.48011">
        <ele>465</ele>
        <time>2017-05-14T05:25:03Z</time>
      </trkpt>
      <trkpt lat="45.71747" lon="4.47988">
        <ele>466</ele>
        <time>2017-05-14T05:25:07Z</time>
      </trkpt>
      <trkpt lat="45.71754" lon="4.4798">
        <ele>467</ele>
        <time>2017-05-14T05:25:15Z</time>
      </trkpt>
      <trkpt lat="45.71763" lon="4.47971">
        <ele>468</ele>
        <time>2017-05-14T05:25:19Z</time>
      </trkpt>
      <trkpt lat="45.71773" lon="4.47961">
        <ele>469</ele>
        <time>2017-05-14T05:25:23Z</time>
      </trkpt>
      <trkpt lat="45.71781" lon="4.4795">
        <ele>470</ele>
        <time>2017-05-14T05:25:27Z</time>
      </trkpt>
      <trkpt lat="45.7179" lon="4.47941">
        <ele>470</ele>
        <time>2017-05-14T05:25:31Z</time>
      </trkpt>
      <trkpt lat="45.718" lon="4.4793">
        <ele>471</ele>
        <time>2017-05-14T05:25:35Z</time>
      </trkpt>
      <trkpt lat="45.71807" lon="4.47923">
        <ele>472</ele>
        <time>2017-05-14T05:25:39Z</time>
      </trkpt>
      <trkpt lat="45.71819" lon="4.4791">
        <ele>472</ele>
        <time>2017-05-14T05:25:43Z</time>
      </trkpt>
      <trkpt lat="45.71825" lon="4.47902">
        <ele>473</ele>
        <time>2017-05-14T05:25:47Z</time>
      </trkpt>
      <trkpt lat="45.71831" lon="4.47892">
        <ele>475</ele>
        <time>2017-05-14T05:25:51Z</time>
      </trkpt>
      <trkpt lat="45.71842" lon="4.47868">
        <ele>474</ele>
        <time>2017-05-14T05:25:56Z</time>
      </trkpt>
      <trkpt lat="45.7185" lon="4.47846">
        <ele>473</ele>
        <time>2017-05-14T05:26:03Z</time>
      </trkpt>
      <trkpt lat="45.71857" lon="4.47829">
        <ele>474</ele>
        <time>2017-05-14T05:26:07Z</time>
      </trkpt>
      <trkpt lat="45.71865" lon="4.47807">
        <ele>475</ele>
        <time>2017-05-14T05:26:12Z</time>
      </trkpt>
      <trkpt lat="45.71871" lon="4.47798">
        <ele>475</ele>
        <time>2017-05-14T05:26:16Z</time>
      </trkpt>
      <trkpt lat="45.71876" lon="4.47791">
        <ele>475</ele>
        <time>2017-05-14T05:26:20Z</time>
      </trkpt>
      <trkpt lat="45.71879" lon="4.47783">
        <ele>476</ele>
        <time>2017-05-14T05:26:27Z</time>
      </trkpt>
      <trkpt lat="45.71883" lon="4.47775">
        <ele>478</ele>
        <time>2017-05-14T05:26:31Z</time>
      </trkpt>
      <trkpt lat="45.71889" lon="4.47765">
        <ele>479</ele>
        <time>2017-05-14T05:26:35Z</time>
      </trkpt>
      <trkpt lat="45.71894" lon="4.47756">
        <ele>479</ele>
        <time>2017-05-14T05:26:39Z</time>
      </trkpt>
      <trkpt lat="45.71902" lon="4.47748">
        <ele>480</ele>
        <time>2017-05-14T05:26:43Z</time>
      </trkpt>
      <trkpt lat="45.71912" lon="4.47731">
        <ele>481</ele>
        <time>2017-05-14T05:26:48Z</time>
      </trkpt>
      <trkpt lat="45.71917" lon="4.47725">
        <ele>482</ele>
        <time>2017-05-14T05:26:55Z</time>
      </trkpt>
      <trkpt lat="45.71927" lon="4.47711">
        <ele>482</ele>
        <time>2017-05-14T05:26:59Z</time>
      </trkpt>
      <trkpt lat="45.71933" lon="4.47703">
        <ele>483</ele>
        <time>2017-05-14T05:27:07Z</time>
      </trkpt>
      <trkpt lat="45.71944" lon="4.47684">
        <ele>485</ele>
        <time>2017-05-14T05:27:11Z</time>
      </trkpt>
      <trkpt lat="45.71949" lon="4.47676">
        <ele>485</ele>
        <time>2017-05-14T05:27:19Z</time>
      </trkpt>
      <trkpt lat="45.71954" lon="4.47667">
        <ele>488</ele>
        <time>2017-05-14T05:27:23Z</time>
      </trkpt>
      <trkpt lat="45.71958" lon="4.47657">
        <ele>488</ele>
        <time>2017-05-14T05:27:27Z</time>
      </trkpt>
      <trkpt lat="45.71968" lon="4.47638">
        <ele>489</ele>
        <time>2017-05-14T05:27:31Z</time>
      </trkpt>
      <trkpt lat="45.71972" lon="4.4763">
        <ele>491</ele>
        <time>2017-05-14T05:27:39Z</time>
      </trkpt>
      <trkpt lat="45.71976" lon="4.47623">
        <ele>492</ele>
        <time>2017-05-14T05:27:43Z</time>
      </trkpt>
      <trkpt lat="45.7198" lon="4.47615">
        <ele>493</ele>
        <time>2017-05-14T05:27:47Z</time>
      </trkpt>
      <trkpt lat="45.71985" lon="4.47605">
        <ele>493</ele>
        <time>2017-05-14T05:27:51Z</time>
      </trkpt>
      <trkpt lat="45.7199" lon="4.47598">
        <ele>495</ele>
        <time>2017-05-14T05:27:55Z</time>
      </trkpt>
      <trkpt lat="45.71999" lon="4.47581">
        <ele>496</ele>
        <time>2017-05-14T05:28:00Z</time>
      </trkpt>
      <trkpt lat="45.72003" lon="4.47572">
        <ele>498</ele>
        <time>2017-05-14T05:28:07Z</time>
      </trkpt>
      <trkpt lat="45.72007" lon="4.47565">
        <ele>499</ele>
        <time>2017-05-14T05:28:11Z</time>
      </trkpt>
      <trkpt lat="45.72012" lon="4.4756">
        <ele>500</ele>
        <time>2017-05-14T05:28:15Z</time>
      </trkpt>
      <trkpt lat="45.72016" lon="4.47553">
        <ele>501</ele>
        <time>2017-05-14T05:28:19Z</time>
      </trkpt>
      <trkpt lat="45.72022" lon="4.47539">
        <ele>502</ele>
        <time>2017-05-14T05:28:24Z</time>
      </trkpt>
      <trkpt lat="45.72029" lon="4.47521">
        <ele>505</ele>
        <time>2017-05-14T05:28:35Z</time>
      </trkpt>
      <trkpt lat="45.72032" lon="4.47511">
        <ele>505</ele>
        <time>2017-05-14T05:28:39Z</time>
      </trkpt>
      <trkpt lat="45.72036" lon="4.47501">
        <ele>507</ele>
        <time>2017-05-14T05:28:43Z</time>
      </trkpt>
      <trkpt lat="45.72039" lon="4.47492">
        <ele>507</ele>
        <time>2017-05-14T05:28:47Z</time>
      </trkpt>
      <trkpt lat="45.72047" lon="4.47475">
        <ele>509</ele>
        <time>2017-05-14T05:28:55Z</time>
      </trkpt>
      <trkpt lat="45.72052" lon="4.47469">
        <ele>509</ele>
        <time>2017-05-14T05:28:59Z</time>
      </trkpt>
      <trkpt lat="45.72057" lon="4.47463">
        <ele>511</ele>
        <time>2017-05-14T05:29:03Z</time>
      </trkpt>
      <trkpt lat="45.72061" lon="4.47456">
        <ele>511</ele>
        <time>2017-05-14T05:29:07Z</time>
      </trkpt>
      <trkpt lat="45.72066" lon="4.47452">
        <ele>512</ele>
        <time>2017-05-14T05:29:11Z</time>
      </trkpt>
      <trkpt lat="45.72071" lon="4.47446">
        <ele>514</ele>
        <time>2017-05-14T05:29:15Z</time>
      </trkpt>
      <trkpt lat="45.72077" lon="4.47441">
        <ele>514</ele>
        <time>2017-05-14T05:29:19Z</time>
      </trkpt>
      <trkpt lat="45.72082" lon="4.47435">
        <ele>515</ele>
        <time>2017-05-14T05:29:23Z</time>
      </trkpt>
      <trkpt lat="45.72087" lon="4.47424">
        <ele>514</ele>
        <time>2017-05-14T05:29:27Z</time>
      </trkpt>
      <trkpt lat="45.721" lon="4.47412">
        <ele>513</ele>
        <time>2017-05-14T05:29:31Z</time>
      </trkpt>
      <trkpt lat="45.72113" lon="4.47399">
        <ele>512</ele>
        <time>2017-05-14T05:29:35Z</time>
      </trkpt>
      <trkpt lat="45.72124" lon="4.47388">
        <ele>511</ele>
        <time>2017-05-14T05:29:39Z</time>
      </trkpt>
      <trkpt lat="45.72131" lon="4.47381">
        <ele>512</ele>
        <time>2017-05-14T05:29:43Z</time>
      </trkpt>
      <trkpt lat="45.72136" lon="4.47376">
        <ele>515</ele>
        <time>2017-05-14T05:29:47Z</time>
      </trkpt>
      <trkpt lat="45.7214" lon="4.47369">
        <ele>515</ele>
        <time>2017-05-14T05:29:51Z</time>
      </trkpt>
      <trkpt lat="45.72165" lon="4.47339">
        <ele>522</ele>
        <time>2017-05-14T05:30:19Z</time>
      </trkpt>
      <trkpt lat="45.7217" lon="4.4734">
        <ele>522</ele>
        <time>2017-05-14T05:30:23Z</time>
      </trkpt>
      <trkpt lat="45.72175" lon="4.4734">
        <ele>523</ele>
        <time>2017-05-14T05:30:27Z</time>
      </trkpt>
      <trkpt lat="45.72179" lon="4.47339">
        <ele>524</ele>
        <time>2017-05-14T05:30:32Z</time>
      </trkpt>
      <trkpt lat="45.72199" lon="4.47351">
        <ele>529</ele>
        <time>2017-05-14T05:30:51Z</time>
      </trkpt>
      <trkpt lat="45.72211" lon="4.47362">
        <ele>531</ele>
        <time>2017-05-14T05:31:03Z</time>
      </trkpt>
      <trkpt lat="45.72222" lon="4.47368">
        <ele>531</ele>
        <time>2017-05-14T05:31:07Z</time>
      </trkpt>
      <trkpt lat="45.72236" lon="4.47376">
        <ele>534</ele>
        <time>2017-05-14T05:31:19Z</time>
      </trkpt>
      <trkpt lat="45.72243" lon="4.47377">
        <ele>534</ele>
        <time>2017-05-14T05:31:23Z</time>
      </trkpt>
      <trkpt lat="45.7225" lon="4.47376">
        <ele>535</ele>
        <time>2017-05-14T05:31:27Z</time>
      </trkpt>
      <trkpt lat="45.72257" lon="4.47379">
        <ele>536</ele>
        <time>2017-05-14T05:31:31Z</time>
      </trkpt>
      <trkpt lat="45.72262" lon="4.47382">
        <ele>536</ele>
        <time>2017-05-14T05:31:35Z</time>
      </trkpt>
      <trkpt lat="45.7228" lon="4.47385">
        <ele>537</ele>
        <time>2017-05-14T05:31:43Z</time>
      </trkpt>
      <trkpt lat="45.7229" lon="4.47385">
        <ele>537</ele>
        <time>2017-05-14T05:31:48Z</time>
      </trkpt>
      <trkpt lat="45.72299" lon="4.47383">
        <ele>537</ele>
        <time>2017-05-14T05:31:51Z</time>
      </trkpt>
      <trkpt lat="45.72316" lon="4.47385">
        <ele>537</ele>
        <time>2017-05-14T05:31:55Z</time>
      </trkpt>
      <trkpt lat="45.72325" lon="4.47382">
        <ele>538</ele>
        <time>2017-05-14T05:31:59Z</time>
      </trkpt>
      <trkpt lat="45.7233" lon="4.47376">
        <ele>538</ele>
        <time>2017-05-14T05:32:03Z</time>
      </trkpt>
      <trkpt lat="45.72338" lon="4.47371">
        <ele>539</ele>
        <time>2017-05-14T05:32:07Z</time>
      </trkpt>
      <trkpt lat="45.72343" lon="4.47367">
        <ele>539</ele>
        <time>2017-05-14T05:32:13Z</time>
      </trkpt>
      <trkpt lat="45.7235" lon="4.4735">
        <ele>540</ele>
        <time>2017-05-14T05:32:19Z</time>
      </trkpt>
      <trkpt lat="45.72351" lon="4.47331">
        <ele>539</ele>
        <time>2017-05-14T05:32:23Z</time>
      </trkpt>
      <trkpt lat="45.72345" lon="4.47327">
        <ele>539</ele>
        <time>2017-05-14T05:32:27Z</time>
      </trkpt>
      <trkpt lat="45.72337" lon="4.47326">
        <ele>539</ele>
        <time>2017-05-14T05:32:31Z</time>
      </trkpt>
      <trkpt lat="45.72332" lon="4.47323">
        <ele>540</ele>
        <time>2017-05-14T05:32:36Z</time>
      </trkpt>
      <trkpt lat="45.72329" lon="4.4732">
        <ele>541</ele>
        <time>2017-05-14T05:32:39Z</time>
      </trkpt>
      <trkpt lat="45.72328" lon="4.47317">
        <ele>542</ele>
        <time>2017-05-14T05:32:43Z</time>
      </trkpt>
      <trkpt lat="45.72327" lon="4.47312">
        <ele>543</ele>
        <time>2017-05-14T05:32:47Z</time>
      </trkpt>
      <trkpt lat="45.72328" lon="4.47307">
        <ele>544</ele>
        <time>2017-05-14T05:32:51Z</time>
      </trkpt>
      <trkpt lat="45.72329" lon="4.473">
        <ele>545</ele>
        <time>2017-05-14T05:32:55Z</time>
      </trkpt>
      <trkpt lat="45.72329" lon="4.47294">
        <ele>546</ele>
        <time>2017-05-14T05:32:59Z</time>
      </trkpt>
      <trkpt lat="45.72334" lon="4.47285">
        <ele>547</ele>
        <time>2017-05-14T05:33:07Z</time>
      </trkpt>
      <trkpt lat="45.72338" lon="4.4728">
        <ele>548</ele>
        <time>2017-05-14T05:33:11Z</time>
      </trkpt>
      <trkpt lat="45.72342" lon="4.47271">
        <ele>549</ele>
        <time>2017-05-14T05:33:15Z</time>
      </trkpt>
      <trkpt lat="45.72346" lon="4.47262">
        <ele>549</ele>
        <time>2017-05-14T05:33:19Z</time>
      </trkpt>
      <trkpt lat="45.72349" lon="4.47252">
        <ele>552</ele>
        <time>2017-05-14T05:33:24Z</time>
      </trkpt>
      <trkpt lat="45.7235" lon="4.4724">
        <ele>552</ele>
        <time>2017-05-14T05:33:27Z</time>
      </trkpt>
      <trkpt lat="45.72351" lon="4.47225">
        <ele>553</ele>
        <time>2017-05-14T05:33:31Z</time>
      </trkpt>
      <trkpt lat="45.72354" lon="4.47216">
        <ele>554</ele>
        <time>2017-05-14T05:33:35Z</time>
      </trkpt>
      <trkpt lat="45.72352" lon="4.47211">
        <ele>554</ele>
        <time>2017-05-14T05:33:39Z</time>
      </trkpt>
      <trkpt lat="45.72347" lon="4.47211">
        <ele>555</ele>
        <time>2017-05-14T05:33:43Z</time>
      </trkpt>
      <trkpt lat="45.7234" lon="4.47213">
        <ele>556</ele>
        <time>2017-05-14T05:33:47Z</time>
      </trkpt>
      <trkpt lat="45.72335" lon="4.47214">
        <ele>556</ele>
        <time>2017-05-14T05:33:51Z</time>
      </trkpt>
      <trkpt lat="45.72328" lon="4.47213">
        <ele>557</ele>
        <time>2017-05-14T05:33:55Z</time>
      </trkpt>
      <trkpt lat="45.72323" lon="4.4721">
        <ele>558</ele>
        <time>2017-05-14T05:33:59Z</time>
      </trkpt>
      <trkpt lat="45.72317" lon="4.47206">
        <ele>559</ele>
        <time>2017-05-14T05:34:03Z</time>
      </trkpt>
      <trkpt lat="45.72314" lon="4.47201">
        <ele>560</ele>
        <time>2017-05-14T05:34:07Z</time>
      </trkpt>
      <trkpt lat="45.72311" lon="4.47197">
        <ele>561</ele>
        <time>2017-05-14T05:34:11Z</time>
      </trkpt>
      <trkpt lat="45.7231" lon="4.47191">
        <ele>563</ele>
        <time>2017-05-14T05:34:16Z</time>
      </trkpt>
      <trkpt lat="45.72309" lon="4.47185">
        <ele>564</ele>
        <time>2017-05-14T05:34:19Z</time>
      </trkpt>
      <trkpt lat="45.72307" lon="4.47177">
        <ele>565</ele>
        <time>2017-05-14T05:34:24Z</time>
      </trkpt>
      <trkpt lat="45.72305" lon="4.47171">
        <ele>566</ele>
        <time>2017-05-14T05:34:28Z</time>
      </trkpt>
      <trkpt lat="45.72304" lon="4.47165">
        <ele>566</ele>
        <time>2017-05-14T05:34:31Z</time>
      </trkpt>
      <trkpt lat="45.72304" lon="4.47157">
        <ele>567</ele>
        <time>2017-05-14T05:34:35Z</time>
      </trkpt>
      <trkpt lat="45.72304" lon="4.47148">
        <ele>567</ele>
        <time>2017-05-14T05:34:39Z</time>
      </trkpt>
      <trkpt lat="45.72304" lon="4.47142">
        <ele>569</ele>
        <time>2017-05-14T05:34:43Z</time>
      </trkpt>
      <trkpt lat="45.72305" lon="4.47135">
        <ele>569</ele>
        <time>2017-05-14T05:34:47Z</time>
      </trkpt>
      <trkpt lat="45.72306" lon="4.47127">
        <ele>569</ele>
        <time>2017-05-14T05:34:51Z</time>
      </trkpt>
      <trkpt lat="45.72308" lon="4.47118">
        <ele>570</ele>
        <time>2017-05-14T05:34:55Z</time>
      </trkpt>
      <trkpt lat="45.7231" lon="4.4711">
        <ele>571</ele>
        <time>2017-05-14T05:34:59Z</time>
      </trkpt>
      <trkpt lat="45.72311" lon="4.47102">
        <ele>571</ele>
        <time>2017-05-14T05:35:03Z</time>
      </trkpt>
      <trkpt lat="45.72312" lon="4.47095">
        <ele>573</ele>
        <time>2017-05-14T05:35:08Z</time>
      </trkpt>
      <trkpt lat="45.72313" lon="4.47088">
        <ele>574</ele>
        <time>2017-05-14T05:35:11Z</time>
      </trkpt>
      <trkpt lat="45.72315" lon="4.4708">
        <ele>574</ele>
        <time>2017-05-14T05:35:15Z</time>
      </trkpt>
      <trkpt lat="45.72317" lon="4.47072">
        <ele>575</ele>
        <time>2017-05-14T05:35:19Z</time>
      </trkpt>
      <trkpt lat="45.72319" lon="4.47064">
        <ele>576</ele>
        <time>2017-05-14T05:35:23Z</time>
      </trkpt>
      <trkpt lat="45.7232" lon="4.47057">
        <ele>578</ele>
        <time>2017-05-14T05:35:28Z</time>
      </trkpt>
      <trkpt lat="45.72322" lon="4.4705">
        <ele>579</ele>
        <time>2017-05-14T05:35:31Z</time>
      </trkpt>
      <trkpt lat="45.72324" lon="4.47041">
        <ele>579</ele>
        <time>2017-05-14T05:35:35Z</time>
      </trkpt>
      <trkpt lat="45.72325" lon="4.47032">
        <ele>581</ele>
        <time>2017-05-14T05:35:39Z</time>
      </trkpt>
      <trkpt lat="45.72326" lon="4.47023">
        <ele>581</ele>
        <time>2017-05-14T05:35:43Z</time>
      </trkpt>
      <trkpt lat="45.72327" lon="4.47015">
        <ele>581</ele>
        <time>2017-05-14T05:35:49Z</time>
      </trkpt>
      <trkpt lat="45.72327" lon="4.47008">
        <ele>581</ele>
        <time>2017-05-14T05:35:51Z</time>
      </trkpt>
      <trkpt lat="45.72328" lon="4.47001">
        <ele>582</ele>
        <time>2017-05-14T05:35:55Z</time>
      </trkpt>
      <trkpt lat="45.72329" lon="4.46994">
        <ele>583</ele>
        <time>2017-05-14T05:35:59Z</time>
      </trkpt>
      <trkpt lat="45.72331" lon="4.46986">
        <ele>584</ele>
        <time>2017-05-14T05:36:03Z</time>
      </trkpt>
      <trkpt lat="45.72333" lon="4.46978">
        <ele>585</ele>
        <time>2017-05-14T05:36:07Z</time>
      </trkpt>
      <trkpt lat="45.72333" lon="4.4697">
        <ele>585</ele>
        <time>2017-05-14T05:36:11Z</time>
      </trkpt>
      <trkpt lat="45.72335" lon="4.46962">
        <ele>586</ele>
        <time>2017-05-14T05:36:15Z</time>
      </trkpt>
      <trkpt lat="45.72338" lon="4.46952">
        <ele>587</ele>
        <time>2017-05-14T05:36:20Z</time>
      </trkpt>
      <trkpt lat="45.7234" lon="4.46943">
        <ele>588</ele>
        <time>2017-05-14T05:36:23Z</time>
      </trkpt>
      <trkpt lat="45.72342" lon="4.46931">
        <ele>587</ele>
        <time>2017-05-14T05:36:27Z</time>
      </trkpt>
      <trkpt lat="45.72341" lon="4.46912">
        <ele>586</ele>
        <time>2017-05-14T05:36:31Z</time>
      </trkpt>
      <trkpt lat="45.7234" lon="4.46891">
        <ele>586</ele>
        <time>2017-05-14T05:36:35Z</time>
      </trkpt>
      <trkpt lat="45.72333" lon="4.46858">
        <ele>586</ele>
        <time>2017-05-14T05:36:39Z</time>
      </trkpt>
      <trkpt lat="45.72329" lon="4.46824">
        <ele>585</ele>
        <time>2017-05-14T05:36:43Z</time>
      </trkpt>
      <trkpt lat="45.72332" lon="4.46797">
        <ele>583</ele>
        <time>2017-05-14T05:36:47Z</time>
      </trkpt>
      <trkpt lat="45.72329" lon="4.46779">
        <ele>583</ele>
        <time>2017-05-14T05:36:51Z</time>
      </trkpt>
      <trkpt lat="45.72329" lon="4.46761">
        <ele>583</ele>
        <time>2017-05-14T05:36:55Z</time>
      </trkpt>
      <trkpt lat="45.72331" lon="4.46742">
        <ele>582</ele>
        <time>2017-05-14T05:36:59Z</time>
      </trkpt>
      <trkpt lat="45.7233" lon="4.46721">
        <ele>583</ele>
        <time>2017-05-14T05:37:03Z</time>
      </trkpt>
      <trkpt lat="45.72329" lon="4.46703">
        <ele>583</ele>
        <time>2017-05-14T05:37:08Z</time>
      </trkpt>
      <trkpt lat="45.72325" lon="4.46686">
        <ele>583</ele>
        <time>2017-05-14T05:37:11Z</time>
      </trkpt>
      <trkpt lat="45.7232" lon="4.46672">
        <ele>583</ele>
        <time>2017-05-14T05:37:16Z</time>
      </trkpt>
      <trkpt lat="45.72313" lon="4.4666">
        <ele>583</ele>
        <time>2017-05-14T05:37:19Z</time>
      </trkpt>
      <trkpt lat="45.72306" lon="4.46647">
        <ele>583</ele>
        <time>2017-05-14T05:37:23Z</time>
      </trkpt>
      <trkpt lat="45.72301" lon="4.46637">
        <ele>584</ele>
        <time>2017-05-14T05:37:27Z</time>
      </trkpt>
      <trkpt lat="45.72295" lon="4.46627">
        <ele>585</ele>
        <time>2017-05-14T05:37:32Z</time>
      </trkpt>
      <trkpt lat="45.7229" lon="4.46619">
        <ele>585</ele>
        <time>2017-05-14T05:37:35Z</time>
      </trkpt>
      <trkpt lat="45.72285" lon="4.46612">
        <ele>585</ele>
        <time>2017-05-14T05:37:39Z</time>
      </trkpt>
      <trkpt lat="45.72278" lon="4.46605">
        <ele>587</ele>
        <time>2017-05-14T05:37:43Z</time>
      </trkpt>
      <trkpt lat="45.72273" lon="4.46599">
        <ele>587</ele>
        <time>2017-05-14T05:37:47Z</time>
      </trkpt>
      <trkpt lat="45.72269" lon="4.46591">
        <ele>588</ele>
        <time>2017-05-14T05:37:51Z</time>
      </trkpt>
      <trkpt lat="45.72267" lon="4.46581">
        <ele>589</ele>
        <time>2017-05-14T05:37:55Z</time>
      </trkpt>
      <trkpt lat="45.72259" lon="4.46578">
        <ele>593</ele>
        <time>2017-05-14T05:38:07Z</time>
      </trkpt>
      <trkpt lat="45.72208" lon="4.46591">
        <ele>603</ele>
        <time>2017-05-14T05:38:52Z</time>
      </trkpt>
      <trkpt lat="45.72193" lon="4.46586">
        <ele>605</ele>
        <time>2017-05-14T05:39:03Z</time>
      </trkpt>
      <trkpt lat="45.72182" lon="4.46587">
        <ele>605</ele>
        <time>2017-05-14T05:39:07Z</time>
      </trkpt>
      <trkpt lat="45.72171" lon="4.46588">
        <ele>606</ele>
        <time>2017-05-14T05:39:11Z</time>
      </trkpt>
      <trkpt lat="45.72164" lon="4.46586">
        <ele>607</ele>
        <time>2017-05-14T05:39:16Z</time>
      </trkpt>
      <trkpt lat="45.72161" lon="4.46579">
        <ele>608</ele>
        <time>2017-05-14T05:39:19Z</time>
      </trkpt>
      <trkpt lat="45.72156" lon="4.4658">
        <ele>609</ele>
        <time>2017-05-14T05:39:23Z</time>
      </trkpt>
      <trkpt lat="45.72149" lon="4.46579">
        <ele>610</ele>
        <time>2017-05-14T05:39:27Z</time>
      </trkpt>
      <trkpt lat="45.72145" lon="4.46577">
        <ele>610</ele>
        <time>2017-05-14T05:39:31Z</time>
      </trkpt>
      <trkpt lat="45.72139" lon="4.46576">
        <ele>611</ele>
        <time>2017-05-14T05:39:36Z</time>
      </trkpt>
      <trkpt lat="45.72134" lon="4.46572">
        <ele>612</ele>
        <time>2017-05-14T05:39:39Z</time>
      </trkpt>
      <trkpt lat="45.72128" lon="4.46568">
        <ele>613</ele>
        <time>2017-05-14T05:39:43Z</time>
      </trkpt>
      <trkpt lat="45.72124" lon="4.46565">
        <ele>613</ele>
        <time>2017-05-14T05:39:47Z</time>
      </trkpt>
      <trkpt lat="45.72122" lon="4.46562">
        <ele>614</ele>
        <time>2017-05-14T05:39:51Z</time>
      </trkpt>
      <trkpt lat="45.72095" lon="4.46546">
        <ele>626</ele>
        <time>2017-05-14T05:40:43Z</time>
      </trkpt>
      <trkpt lat="45.72089" lon="4.46551">
        <ele>627</ele>
        <time>2017-05-14T05:40:44Z</time>
      </trkpt>
      <trkpt lat="45.72083" lon="4.46566">
        <ele>631</ele>
        <time>2017-05-14T05:41:00Z</time>
      </trkpt>
      <trkpt lat="45.72082" lon="4.46566">
        <ele>632</ele>
        <time>2017-05-14T05:41:07Z</time>
      </trkpt>
      <trkpt lat="45.72078" lon="4.46564">
        <ele>633</ele>
        <time>2017-05-14T05:41:11Z</time>
      </trkpt>
      <trkpt lat="45.72066" lon="4.46563">
        <ele>635</ele>
        <time>2017-05-14T05:41:16Z</time>
      </trkpt>
      <trkpt lat="45.72061" lon="4.46563">
        <ele>636</ele>
        <time>2017-05-14T05:41:24Z</time>
      </trkpt>
      <trkpt lat="45.72048" lon="4.4656">
        <ele>636</ele>
        <time>2017-05-14T05:41:27Z</time>
      </trkpt>
      <trkpt lat="45.72044" lon="4.46556">
        <ele>636</ele>
        <time>2017-05-14T05:41:31Z</time>
      </trkpt>
      <trkpt lat="45.7204" lon="4.46552">
        <ele>635</ele>
        <time>2017-05-14T05:41:35Z</time>
      </trkpt>
      <trkpt lat="45.72037" lon="4.46545">
        <ele>635</ele>
        <time>2017-05-14T05:41:40Z</time>
      </trkpt>
      <trkpt lat="45.72033" lon="4.46533">
        <ele>635</ele>
        <time>2017-05-14T05:41:43Z</time>
      </trkpt>
      <trkpt lat="45.72027" lon="4.46527">
        <ele>633</ele>
        <time>2017-05-14T05:41:47Z</time>
      </trkpt>
      <trkpt lat="45.7202" lon="4.46517">
        <ele>631</ele>
        <time>2017-05-14T05:41:51Z</time>
      </trkpt>
      <trkpt lat="45.72011" lon="4.46517">
        <ele>627</ele>
        <time>2017-05-14T05:41:55Z</time>
      </trkpt>
      <trkpt lat="45.72001" lon="4.46504">
        <ele>623</ele>
        <time>2017-05-14T05:41:59Z</time>
      </trkpt>
      <trkpt lat="45.71994" lon="4.46491">
        <ele>618</ele>
        <time>2017-05-14T05:42:03Z</time>
      </trkpt>
      <trkpt lat="45.71991" lon="4.46467">
        <ele>616</ele>
        <time>2017-05-14T05:42:07Z</time>
      </trkpt>
      <trkpt lat="45.71985" lon="4.46441">
        <ele>607</ele>
        <time>2017-05-14T05:42:11Z</time>
      </trkpt>
      <trkpt lat="45.7198" lon="4.46418">
        <ele>603</ele>
        <time>2017-05-14T05:42:16Z</time>
      </trkpt>
      <trkpt lat="45.71975" lon="4.46403">
        <ele>602</ele>
        <time>2017-05-14T05:42:19Z</time>
      </trkpt>
      <trkpt lat="45.71966" lon="4.46371">
        <ele>606</ele>
        <time>2017-05-14T05:42:43Z</time>
      </trkpt>
      <trkpt lat="45.71966" lon="4.46361">
        <ele>607</ele>
        <time>2017-05-14T05:42:47Z</time>
      </trkpt>
      <trkpt lat="45.71968" lon="4.46355">
        <ele>608</ele>
        <time>2017-05-14T05:42:51Z</time>
      </trkpt>
      <trkpt lat="45.71972" lon="4.46349">
        <ele>609</ele>
        <time>2017-05-14T05:42:55Z</time>
      </trkpt>
      <trkpt lat="45.71976" lon="4.46342">
        <ele>610</ele>
        <time>2017-05-14T05:42:59Z</time>
      </trkpt>
      <trkpt lat="45.71983" lon="4.4633">
        <ele>612</ele>
        <time>2017-05-14T05:43:04Z</time>
      </trkpt>
      <trkpt lat="45.71988" lon="4.46324">
        <ele>613</ele>
        <time>2017-05-14T05:43:11Z</time>
      </trkpt>
      <trkpt lat="45.71993" lon="4.46319">
        <ele>614</ele>
        <time>2017-05-14T05:43:15Z</time>
      </trkpt>
      <trkpt lat="45.72" lon="4.46305">
        <ele>616</ele>
        <time>2017-05-14T05:43:20Z</time>
      </trkpt>
      <trkpt lat="45.7201" lon="4.46291">
        <ele>618</ele>
        <time>2017-05-14T05:43:28Z</time>
      </trkpt>
      <trkpt lat="45.72014" lon="4.46284">
        <ele>618</ele>
        <time>2017-05-14T05:43:35Z</time>
      </trkpt>
      <trkpt lat="45.72016" lon="4.46276">
        <ele>620</ele>
        <time>2017-05-14T05:43:39Z</time>
      </trkpt>
      <trkpt lat="45.72022" lon="4.46261">
        <ele>620</ele>
        <time>2017-05-14T05:43:44Z</time>
      </trkpt>
      <trkpt lat="45.72028" lon="4.46257">
        <ele>621</ele>
        <time>2017-05-14T05:43:52Z</time>
      </trkpt>
      <trkpt lat="45.72032" lon="4.46249">
        <ele>621</ele>
        <time>2017-05-14T05:43:53Z</time>
      </trkpt>
      <trkpt lat="45.72038" lon="4.46242">
        <ele>622</ele>
        <time>2017-05-14T05:43:56Z</time>
      </trkpt>
      <trkpt lat="45.72044" lon="4.46235">
        <ele>623</ele>
        <time>2017-05-14T05:44:03Z</time>
      </trkpt>
      <trkpt lat="45.72049" lon="4.46226">
        <ele>624</ele>
        <time>2017-05-14T05:44:07Z</time>
      </trkpt>
      <trkpt lat="45.72054" lon="4.46218">
        <ele>624</ele>
        <time>2017-05-14T05:44:11Z</time>
      </trkpt>
      <trkpt lat="45.72058" lon="4.46213">
        <ele>625</ele>
        <time>2017-05-14T05:44:15Z</time>
      </trkpt>
      <trkpt lat="45.72067" lon="4.46202">
        <ele>626</ele>
        <time>2017-05-14T05:44:20Z</time>
      </trkpt>
      <trkpt lat="45.72074" lon="4.46199">
        <ele>628</ele>
        <time>2017-05-14T05:44:27Z</time>
      </trkpt>
      <trkpt lat="45.72079" lon="4.46196">
        <ele>629</ele>
        <time>2017-05-14T05:44:31Z</time>
      </trkpt>
      <trkpt lat="45.72083" lon="4.46194">
        <ele>630</ele>
        <time>2017-05-14T05:44:35Z</time>
      </trkpt>
      <trkpt lat="45.72096" lon="4.4619">
        <ele>631</ele>
        <time>2017-05-14T05:44:40Z</time>
      </trkpt>
      <trkpt lat="45.72114" lon="4.46183">
        <ele>636</ele>
        <time>2017-05-14T05:44:59Z</time>
      </trkpt>
      <trkpt lat="45.72124" lon="4.4618">
        <ele>638</ele>
        <time>2017-05-14T05:45:08Z</time>
      </trkpt>
      <trkpt lat="45.72133" lon="4.46179">
        <ele>638</ele>
        <time>2017-05-14T05:45:11Z</time>
      </trkpt>
      <trkpt lat="45.72138" lon="4.46176">
        <ele>639</ele>
        <time>2017-05-14T05:45:15Z</time>
      </trkpt>
      <trkpt lat="45.72141" lon="4.46175">
        <ele>639</ele>
        <time>2017-05-14T05:45:19Z</time>
      </trkpt>
      <trkpt lat="45.72146" lon="4.46174">
        <ele>641</ele>
        <time>2017-05-14T05:45:24Z</time>
      </trkpt>
      <trkpt lat="45.72151" lon="4.46172">
        <ele>641</ele>
        <time>2017-05-14T05:45:27Z</time>
      </trkpt>
      <trkpt lat="45.72156" lon="4.4617">
        <ele>642</ele>
        <time>2017-05-14T05:45:32Z</time>
      </trkpt>
      <trkpt lat="45.72168" lon="4.46169">
        <ele>643</ele>
        <time>2017-05-14T05:45:39Z</time>
      </trkpt>
      <trkpt lat="45.72188" lon="4.46171">
        <ele>643</ele>
        <time>2017-05-14T05:45:43Z</time>
      </trkpt>
      <trkpt lat="45.72211" lon="4.46168">
        <ele>644</ele>
        <time>2017-05-14T05:45:48Z</time>
      </trkpt>
      <trkpt lat="45.72219" lon="4.4617">
        <ele>645</ele>
        <time>2017-05-14T05:45:52Z</time>
      </trkpt>
      <trkpt lat="45.72243" lon="4.46179">
        <ele>646</ele>
        <time>2017-05-14T05:46:00Z</time>
      </trkpt>
      <trkpt lat="45.72258" lon="4.46185">
        <ele>646</ele>
        <time>2017-05-14T05:46:07Z</time>
      </trkpt>
      <trkpt lat="45.72283" lon="4.46195">
        <ele>646</ele>
        <time>2017-05-14T05:46:11Z</time>
      </trkpt>
      <trkpt lat="45.72295" lon="4.46195">
        <ele>647</ele>
        <time>2017-05-14T05:46:19Z</time>
      </trkpt>
      <trkpt lat="45.72316" lon="4.46199">
        <ele>650</ele>
        <time>2017-05-14T05:46:24Z</time>
      </trkpt>
      <trkpt lat="45.72321" lon="4.46201">
        <ele>650</ele>
        <time>2017-05-14T05:46:31Z</time>
      </trkpt>
      <trkpt lat="45.72333" lon="4.46201">
        <ele>651</ele>
        <time>2017-05-14T05:46:35Z</time>
      </trkpt>
      <trkpt lat="45.72346" lon="4.46201">
        <ele>651</ele>
        <time>2017-05-14T05:46:39Z</time>
      </trkpt>
      <trkpt lat="45.72359" lon="4.46203">
        <ele>651</ele>
        <time>2017-05-14T05:46:43Z</time>
      </trkpt>
      <trkpt lat="45.72374" lon="4.46203">
        <ele>651</ele>
        <time>2017-05-14T05:46:47Z</time>
      </trkpt>
      <trkpt lat="45.72389" lon="4.46199">
        <ele>651</ele>
        <time>2017-05-14T05:46:55Z</time>
      </trkpt>
      <trkpt lat="45.72412" lon="4.46185">
        <ele>651</ele>
        <time>2017-05-14T05:46:57Z</time>
      </trkpt>
      <trkpt lat="45.72421" lon="4.46176">
        <ele>652</ele>
        <time>2017-05-14T05:47:03Z</time>
      </trkpt>
      <trkpt lat="45.72431" lon="4.46166">
        <ele>652</ele>
        <time>2017-05-14T05:47:07Z</time>
      </trkpt>
      <trkpt lat="45.7244" lon="4.46157">
        <ele>652</ele>
        <time>2017-05-14T05:47:11Z</time>
      </trkpt>
      <trkpt lat="45.7245" lon="4.46148">
        <ele>652</ele>
        <time>2017-05-14T05:47:15Z</time>
      </trkpt>
      <trkpt lat="45.72464" lon="4.46138">
        <ele>652</ele>
        <time>2017-05-14T05:47:19Z</time>
      </trkpt>
      <trkpt lat="45.7248" lon="4.4613">
        <ele>651</ele>
        <time>2017-05-14T05:47:23Z</time>
      </trkpt>
      <trkpt lat="45.72495" lon="4.46124">
        <ele>651</ele>
        <time>2017-05-14T05:47:27Z</time>
      </trkpt>
      <trkpt lat="45.72509" lon="4.46118">
        <ele>651</ele>
        <time>2017-05-14T05:47:31Z</time>
      </trkpt>
      <trkpt lat="45.72542" lon="4.46097">
        <ele>651</ele>
        <time>2017-05-14T05:47:36Z</time>
      </trkpt>
      <trkpt lat="45.72557" lon="4.46084">
        <ele>650</ele>
        <time>2017-05-14T05:47:43Z</time>
      </trkpt>
      <trkpt lat="45.72571" lon="4.46072">
        <ele>651</ele>
        <time>2017-05-14T05:47:47Z</time>
      </trkpt>
      <trkpt lat="45.72582" lon="4.46063">
        <ele>652</ele>
        <time>2017-05-14T05:47:51Z</time>
      </trkpt>
      <trkpt lat="45.72586" lon="4.4605">
        <ele>653</ele>
        <time>2017-05-14T05:47:55Z</time>
      </trkpt>
      <trkpt lat="45.72575" lon="4.46024">
        <ele>654</ele>
        <time>2017-05-14T05:48:00Z</time>
      </trkpt>
      <trkpt lat="45.72559" lon="4.4601">
        <ele>652</ele>
        <time>2017-05-14T05:48:07Z</time>
      </trkpt>
      <trkpt lat="45.72542" lon="4.4599">
        <ele>650</ele>
        <time>2017-05-14T05:48:11Z</time>
      </trkpt>
      <trkpt lat="45.72534" lon="4.45958">
        <ele>649</ele>
        <time>2017-05-14T05:48:15Z</time>
      </trkpt>
      <trkpt lat="45.72526" lon="4.45884">
        <ele>647</ele>
        <time>2017-05-14T05:48:20Z</time>
      </trkpt>
      <trkpt lat="45.72524" lon="4.45806">
        <ele>643</ele>
        <time>2017-05-14T05:48:28Z</time>
      </trkpt>
      <trkpt lat="45.72521" lon="4.45771">
        <ele>638</ele>
        <time>2017-05-14T05:48:35Z</time>
      </trkpt>
      <trkpt lat="45.72513" lon="4.45752">
        <ele>637</ele>
        <time>2017-05-14T05:48:39Z</time>
      </trkpt>
      <trkpt lat="45.72503" lon="4.45746">
        <ele>638</ele>
        <time>2017-05-14T05:48:43Z</time>
      </trkpt>
      <trkpt lat="45.72491" lon="4.45739">
        <ele>638</ele>
        <time>2017-05-14T05:48:47Z</time>
      </trkpt>
      <trkpt lat="45.72482" lon="4.45726">
        <ele>639</ele>
        <time>2017-05-14T05:48:51Z</time>
      </trkpt>
      <trkpt lat="45.72476" lon="4.45712">
        <ele>640</ele>
        <time>2017-05-14T05:48:55Z</time>
      </trkpt>
      <trkpt lat="45.72471" lon="4.45699">
        <ele>640</ele>
        <time>2017-05-14T05:48:59Z</time>
      </trkpt>
      <trkpt lat="45.72464" lon="4.45688">
        <ele>641</ele>
        <time>2017-05-14T05:49:03Z</time>
      </trkpt>
      <trkpt lat="45.72461" lon="4.45679">
        <ele>642</ele>
        <time>2017-05-14T05:49:07Z</time>
      </trkpt>
      <trkpt lat="45.72461" lon="4.45669">
        <ele>643</ele>
        <time>2017-05-14T05:49:11Z</time>
      </trkpt>
      <trkpt lat="45.7246" lon="4.45651">
        <ele>644</ele>
        <time>2017-05-14T05:49:16Z</time>
      </trkpt>
      <trkpt lat="45.72459" lon="4.45641">
        <ele>645</ele>
        <time>2017-05-14T05:49:23Z</time>
      </trkpt>
      <trkpt lat="45.72457" lon="4.45633">
        <ele>646</ele>
        <time>2017-05-14T05:49:27Z</time>
      </trkpt>
      <trkpt lat="45.72453" lon="4.45626">
        <ele>646</ele>
        <time>2017-05-14T05:49:31Z</time>
      </trkpt>
      <trkpt lat="45.72449" lon="4.45615">
        <ele>646</ele>
        <time>2017-05-14T05:49:35Z</time>
      </trkpt>
      <trkpt lat="45.72446" lon="4.45607">
        <ele>647</ele>
        <time>2017-05-14T05:49:39Z</time>
      </trkpt>
      <trkpt lat="45.72439" lon="4.45583">
        <ele>649</ele>
        <time>2017-05-14T05:49:44Z</time>
      </trkpt>
      <trkpt lat="45.72435" lon="4.4556">
        <ele>650</ele>
        <time>2017-05-14T05:49:52Z</time>
      </trkpt>
      <trkpt lat="45.72433" lon="4.45553">
        <ele>652</ele>
        <time>2017-05-14T05:49:59Z</time>
      </trkpt>
      <trkpt lat="45.7243" lon="4.45543">
        <ele>652</ele>
        <time>2017-05-14T05:50:03Z</time>
      </trkpt>
      <trkpt lat="45.72425" lon="4.45519">
        <ele>654</ele>
        <time>2017-05-14T05:50:08Z</time>
      </trkpt>
      <trkpt lat="45.72423" lon="4.45507">
        <ele>655</ele>
        <time>2017-05-14T05:50:15Z</time>
      </trkpt>
      <trkpt lat="45.72423" lon="4.45487">
        <ele>655</ele>
        <time>2017-05-14T05:50:19Z</time>
      </trkpt>
      <trkpt lat="45.72427" lon="4.45477">
        <ele>657</ele>
        <time>2017-05-14T05:50:27Z</time>
      </trkpt>
      <trkpt lat="45.7244" lon="4.4545">
        <ele>657</ele>
        <time>2017-05-14T05:50:31Z</time>
      </trkpt>
      <trkpt lat="45.72447" lon="4.45439">
        <ele>659</ele>
        <time>2017-05-14T05:50:39Z</time>
      </trkpt>
      <trkpt lat="45.72437" lon="4.45405">
        <ele>659</ele>
        <time>2017-05-14T05:50:43Z</time>
      </trkpt>
      <trkpt lat="45.7243" lon="4.45386">
        <ele>657</ele>
        <time>2017-05-14T05:50:51Z</time>
      </trkpt>
      <trkpt lat="45.72423" lon="4.45355">
        <ele>656</ele>
        <time>2017-05-14T05:50:55Z</time>
      </trkpt>
      <trkpt lat="45.72424" lon="4.45323">
        <ele>655</ele>
        <time>2017-05-14T05:50:59Z</time>
      </trkpt>
      <trkpt lat="45.72425" lon="4.45298">
        <ele>656</ele>
        <time>2017-05-14T05:51:03Z</time>
      </trkpt>
      <trkpt lat="45.72426" lon="4.45276">
        <ele>657</ele>
        <time>2017-05-14T05:51:07Z</time>
      </trkpt>
      <trkpt lat="45.72427" lon="4.45255">
        <ele>657</ele>
        <time>2017-05-14T05:51:11Z</time>
      </trkpt>
      <trkpt lat="45.72427" lon="4.45234">
        <ele>660</ele>
        <time>2017-05-14T05:51:19Z</time>
      </trkpt>
      <trkpt lat="45.72427" lon="4.45194">
        <ele>660</ele>
        <time>2017-05-14T05:51:21Z</time>
      </trkpt>
      <trkpt lat="45.72429" lon="4.4517">
        <ele>660</ele>
        <time>2017-05-14T05:51:27Z</time>
      </trkpt>
      <trkpt lat="45.72429" lon="4.45147">
        <ele>659</ele>
        <time>2017-05-14T05:51:31Z</time>
      </trkpt>
      <trkpt lat="45.72428" lon="4.45121">
        <ele>658</ele>
        <time>2017-05-14T05:51:35Z</time>
      </trkpt>
      <trkpt lat="45.72429" lon="4.45097">
        <ele>657</ele>
        <time>2017-05-14T05:51:39Z</time>
      </trkpt>
      <trkpt lat="45.72434" lon="4.45084">
        <ele>656</ele>
        <time>2017-05-14T05:51:43Z</time>
      </trkpt>
      <trkpt lat="45.72442" lon="4.45084">
        <ele>658</ele>
        <time>2017-05-14T05:51:47Z</time>
      </trkpt>
      <trkpt lat="45.7245" lon="4.45088">
        <ele>659</ele>
        <time>2017-05-14T05:51:51Z</time>
      </trkpt>
      <trkpt lat="45.72467" lon="4.45093">
        <ele>660</ele>
        <time>2017-05-14T05:51:55Z</time>
      </trkpt>
      <trkpt lat="45.72474" lon="4.45091">
        <ele>661</ele>
        <time>2017-05-14T05:52:03Z</time>
      </trkpt>
      <trkpt lat="45.72481" lon="4.45089">
        <ele>662</ele>
        <time>2017-05-14T05:52:07Z</time>
      </trkpt>
      <trkpt lat="45.72487" lon="4.4509">
        <ele>662</ele>
        <time>2017-05-14T05:52:11Z</time>
      </trkpt>
      <trkpt lat="45.72492" lon="4.45088">
        <ele>663</ele>
        <time>2017-05-14T05:52:15Z</time>
      </trkpt>
      <trkpt lat="45.72498" lon="4.4509">
        <ele>663</ele>
        <time>2017-05-14T05:52:19Z</time>
      </trkpt>
      <trkpt lat="45.72507" lon="4.45091">
        <ele>664</ele>
        <time>2017-05-14T05:52:23Z</time>
      </trkpt>
      <trkpt lat="45.72516" lon="4.45089">
        <ele>665</ele>
        <time>2017-05-14T05:52:27Z</time>
      </trkpt>
      <trkpt lat="45.72525" lon="4.45093">
        <ele>665</ele>
        <time>2017-05-14T05:52:31Z</time>
      </trkpt>
      <trkpt lat="45.7254" lon="4.45103">
        <ele>666</ele>
        <time>2017-05-14T05:52:36Z</time>
      </trkpt>
      <trkpt lat="45.72559" lon="4.45109">
        <ele>668</ele>
        <time>2017-05-14T05:52:45Z</time>
      </trkpt>
      <trkpt lat="45.72569" lon="4.45112">
        <ele>669</ele>
        <time>2017-05-14T05:52:51Z</time>
      </trkpt>
      <trkpt lat="45.72589" lon="4.45133">
        <ele>670</ele>
        <time>2017-05-14T05:52:55Z</time>
      </trkpt>
      <trkpt lat="45.72601" lon="4.45139">
        <ele>670</ele>
        <time>2017-05-14T05:53:03Z</time>
      </trkpt>
      <trkpt lat="45.72615" lon="4.45145">
        <ele>671</ele>
        <time>2017-05-14T05:53:07Z</time>
      </trkpt>
      <trkpt lat="45.72625" lon="4.45151">
        <ele>671</ele>
        <time>2017-05-14T05:53:11Z</time>
      </trkpt>
      <trkpt lat="45.72636" lon="4.45156">
        <ele>671</ele>
        <time>2017-05-14T05:53:15Z</time>
      </trkpt>
      <trkpt lat="45.72647" lon="4.4516">
        <ele>672</ele>
        <time>2017-05-14T05:53:19Z</time>
      </trkpt>
      <trkpt lat="45.72655" lon="4.4516">
        <ele>672</ele>
        <time>2017-05-14T05:53:23Z</time>
      </trkpt>
      <trkpt lat="45.72664" lon="4.45163">
        <ele>673</ele>
        <time>2017-05-14T05:53:28Z</time>
      </trkpt>
      <trkpt lat="45.72669" lon="4.45165">
        <ele>674</ele>
        <time>2017-05-14T05:53:31Z</time>
      </trkpt>
      <trkpt lat="45.72673" lon="4.45166">
        <ele>675</ele>
        <time>2017-05-14T05:53:35Z</time>
      </trkpt>
      <trkpt lat="45.72738" lon="4.45188">
        <ele>683</ele>
        <time>2017-05-14T05:54:11Z</time>
      </trkpt>
      <trkpt lat="45.72746" lon="4.45188">
        <ele>683</ele>
        <time>2017-05-14T05:54:15Z</time>
      </trkpt>
      <trkpt lat="45.72756" lon="4.45187">
        <ele>684</ele>
        <time>2017-05-14T05:54:19Z</time>
      </trkpt>
      <trkpt lat="45.72774" lon="4.45191">
        <ele>685</ele>
        <time>2017-05-14T05:54:23Z</time>
      </trkpt>
      <trkpt lat="45.72787" lon="4.45193">
        <ele>685</ele>
        <time>2017-05-14T05:54:27Z</time>
      </trkpt>
      <trkpt lat="45.72792" lon="4.45197">
        <ele>685</ele>
        <time>2017-05-14T05:54:31Z</time>
      </trkpt>
      <trkpt lat="45.72799" lon="4.45203">
        <ele>686</ele>
        <time>2017-05-14T05:54:35Z</time>
      </trkpt>
      <trkpt lat="45.72807" lon="4.45205">
        <ele>687</ele>
        <time>2017-05-14T05:54:40Z</time>
      </trkpt>
      <trkpt lat="45.72817" lon="4.45207">
        <ele>688</ele>
        <time>2017-05-14T05:54:43Z</time>
      </trkpt>
      <trkpt lat="45.7283" lon="4.45207">
        <ele>688</ele>
        <time>2017-05-14T05:54:47Z</time>
      </trkpt>
      <trkpt lat="45.72844" lon="4.45207">
        <ele>688</ele>
        <time>2017-05-14T05:54:51Z</time>
      </trkpt>
      <trkpt lat="45.7286" lon="4.45202">
        <ele>688</ele>
        <time>2017-05-14T05:54:55Z</time>
      </trkpt>
      <trkpt lat="45.72875" lon="4.45195">
        <ele>687</ele>
        <time>2017-05-14T05:54:59Z</time>
      </trkpt>
      <trkpt lat="45.7289" lon="4.45188">
        <ele>687</ele>
        <time>2017-05-14T05:55:03Z</time>
      </trkpt>
      <trkpt lat="45.72908" lon="4.45185">
        <ele>686</ele>
        <time>2017-05-14T05:55:07Z</time>
      </trkpt>
      <trkpt lat="45.72928" lon="4.4518">
        <ele>685</ele>
        <time>2017-05-14T05:55:11Z</time>
      </trkpt>
      <trkpt lat="45.72951" lon="4.45175">
        <ele>683</ele>
        <time>2017-05-14T05:55:15Z</time>
      </trkpt>
      <trkpt lat="45.72971" lon="4.45169">
        <ele>681</ele>
        <time>2017-05-14T05:55:19Z</time>
      </trkpt>
      <trkpt lat="45.72988" lon="4.45166">
        <ele>678</ele>
        <time>2017-05-14T05:55:23Z</time>
      </trkpt>
      <trkpt lat="45.73012" lon="4.45163">
        <ele>677</ele>
        <time>2017-05-14T05:55:27Z</time>
      </trkpt>
      <trkpt lat="45.73041" lon="4.45148">
        <ele>675</ele>
        <time>2017-05-14T05:55:32Z</time>
      </trkpt>
      <trkpt lat="45.73063" lon="4.45133">
        <ele>674</ele>
        <time>2017-05-14T05:55:35Z</time>
      </trkpt>
      <trkpt lat="45.73087" lon="4.45115">
        <ele>673</ele>
        <time>2017-05-14T05:55:39Z</time>
      </trkpt>
      <trkpt lat="45.73133" lon="4.45071">
        <ele>671</ele>
        <time>2017-05-14T05:55:44Z</time>
      </trkpt>
      <trkpt lat="45.73153" lon="4.45051">
        <ele>670</ele>
        <time>2017-05-14T05:55:51Z</time>
      </trkpt>
      <trkpt lat="45.73171" lon="4.45033">
        <ele>670</ele>
        <time>2017-05-14T05:55:55Z</time>
      </trkpt>
      <trkpt lat="45.7318" lon="4.45012">
        <ele>669</ele>
        <time>2017-05-14T05:55:59Z</time>
      </trkpt>
      <trkpt lat="45.73178" lon="4.44987">
        <ele>669</ele>
        <time>2017-05-14T05:56:04Z</time>
      </trkpt>
      <trkpt lat="45.73181" lon="4.44958">
        <ele>667</ele>
        <time>2017-05-14T05:56:08Z</time>
      </trkpt>
      <trkpt lat="45.73188" lon="4.44922">
        <ele>666</ele>
        <time>2017-05-14T05:56:11Z</time>
      </trkpt>
      <trkpt lat="45.73196" lon="4.44883">
        <ele>665</ele>
        <time>2017-05-14T05:56:15Z</time>
      </trkpt>
      <trkpt lat="45.73199" lon="4.44842">
        <ele>664</ele>
        <time>2017-05-14T05:56:19Z</time>
      </trkpt>
      <trkpt lat="45.732" lon="4.44809">
        <ele>664</ele>
        <time>2017-05-14T05:56:23Z</time>
      </trkpt>
      <trkpt lat="45.73197" lon="4.44778">
        <ele>663</ele>
        <time>2017-05-14T05:56:28Z</time>
      </trkpt>
      <trkpt lat="45.73199" lon="4.44744">
        <ele>662</ele>
        <time>2017-05-14T05:56:31Z</time>
      </trkpt>
      <trkpt lat="45.732" lon="4.44716">
        <ele>662</ele>
        <time>2017-05-14T05:56:35Z</time>
      </trkpt>
      <trkpt lat="45.73194" lon="4.44692">
        <ele>663</ele>
        <time>2017-05-14T05:56:39Z</time>
      </trkpt>
      <trkpt lat="45.73189" lon="4.44667">
        <ele>663</ele>
        <time>2017-05-14T05:56:44Z</time>
      </trkpt>
      <trkpt lat="45.73185" lon="4.44648">
        <ele>663</ele>
        <time>2017-05-14T05:56:47Z</time>
      </trkpt>
      <trkpt lat="45.73183" lon="4.44629">
        <ele>664</ele>
        <time>2017-05-14T05:56:51Z</time>
      </trkpt>
      <trkpt lat="45.73182" lon="4.44609">
        <ele>665</ele>
        <time>2017-05-14T05:56:55Z</time>
      </trkpt>
      <trkpt lat="45.73183" lon="4.44587">
        <ele>666</ele>
        <time>2017-05-14T05:56:59Z</time>
      </trkpt>
      <trkpt lat="45.73183" lon="4.44571">
        <ele>667</ele>
        <time>2017-05-14T05:57:03Z</time>
      </trkpt>
      <trkpt lat="45.73184" lon="4.44555">
        <ele>668</ele>
        <time>2017-05-14T05:57:07Z</time>
      </trkpt>
      <trkpt lat="45.73188" lon="4.44535">
        <ele>669</ele>
        <time>2017-05-14T05:57:11Z</time>
      </trkpt>
      <trkpt lat="45.73192" lon="4.44517">
        <ele>670</ele>
        <time>2017-05-14T05:57:15Z</time>
      </trkpt>
      <trkpt lat="45.73196" lon="4.44504">
        <ele>670</ele>
        <time>2017-05-14T05:57:20Z</time>
      </trkpt>
      <trkpt lat="45.73201" lon="4.4449">
        <ele>671</ele>
        <time>2017-05-14T05:57:23Z</time>
      </trkpt>
      <trkpt lat="45.73205" lon="4.44474">
        <ele>671</ele>
        <time>2017-05-14T05:57:27Z</time>
      </trkpt>
      <trkpt lat="45.73211" lon="4.44454">
        <ele>670</ele>
        <time>2017-05-14T05:57:31Z</time>
      </trkpt>
      <trkpt lat="45.7322" lon="4.44433">
        <ele>670</ele>
        <time>2017-05-14T05:57:36Z</time>
      </trkpt>
      <trkpt lat="45.73234" lon="4.44413">
        <ele>669</ele>
        <time>2017-05-14T05:57:39Z</time>
      </trkpt>
      <trkpt lat="45.7325" lon="4.44389">
        <ele>667</ele>
        <time>2017-05-14T05:57:43Z</time>
      </trkpt>
      <trkpt lat="45.73262" lon="4.4436">
        <ele>666</ele>
        <time>2017-05-14T05:57:47Z</time>
      </trkpt>
      <trkpt lat="45.73274" lon="4.44334">
        <ele>665</ele>
        <time>2017-05-14T05:57:51Z</time>
      </trkpt>
      <trkpt lat="45.73285" lon="4.44307">
        <ele>666</ele>
        <time>2017-05-14T05:57:55Z</time>
      </trkpt>
      <trkpt lat="45.73297" lon="4.4428">
        <ele>667</ele>
        <time>2017-05-14T05:57:59Z</time>
      </trkpt>
      <trkpt lat="45.73309" lon="4.44248">
        <ele>666</ele>
        <time>2017-05-14T05:58:03Z</time>
      </trkpt>
      <trkpt lat="45.73323" lon="4.44214">
        <ele>665</ele>
        <time>2017-05-14T05:58:08Z</time>
      </trkpt>
      <trkpt lat="45.73331" lon="4.44178">
        <ele>665</ele>
        <time>2017-05-14T05:58:11Z</time>
      </trkpt>
      <trkpt lat="45.73333" lon="4.44142">
        <ele>664</ele>
        <time>2017-05-14T05:58:15Z</time>
      </trkpt>
      <trkpt lat="45.73329" lon="4.44107">
        <ele>664</ele>
        <time>2017-05-14T05:58:19Z</time>
      </trkpt>
      <trkpt lat="45.73319" lon="4.44077">
        <ele>664</ele>
        <time>2017-05-14T05:58:24Z</time>
      </trkpt>
      <trkpt lat="45.7331" lon="4.44052">
        <ele>664</ele>
        <time>2017-05-14T05:58:27Z</time>
      </trkpt>
      <trkpt lat="45.73302" lon="4.44028">
        <ele>665</ele>
        <time>2017-05-14T05:58:31Z</time>
      </trkpt>
      <trkpt lat="45.73294" lon="4.44004">
        <ele>666</ele>
        <time>2017-05-14T05:58:35Z</time>
      </trkpt>
      <trkpt lat="45.73286" lon="4.4398">
        <ele>666</ele>
        <time>2017-05-14T05:58:39Z</time>
      </trkpt>
      <trkpt lat="45.73277" lon="4.43953">
        <ele>666</ele>
        <time>2017-05-14T05:58:43Z</time>
      </trkpt>
      <trkpt lat="45.73266" lon="4.43925">
        <ele>665</ele>
        <time>2017-05-14T05:58:48Z</time>
      </trkpt>
      <trkpt lat="45.73253" lon="4.43896">
        <ele>665</ele>
        <time>2017-05-14T05:58:51Z</time>
      </trkpt>
      <trkpt lat="45.73236" lon="4.43869">
        <ele>664</ele>
        <time>2017-05-14T05:58:56Z</time>
      </trkpt>
      <trkpt lat="45.73216" lon="4.43851">
        <ele>663</ele>
        <time>2017-05-14T05:58:59Z</time>
      </trkpt>
      <trkpt lat="45.73199" lon="4.43831">
        <ele>662</ele>
        <time>2017-05-14T05:59:03Z</time>
      </trkpt>
      <trkpt lat="45.73203" lon="4.43806">
        <ele>661</ele>
        <time>2017-05-14T05:59:07Z</time>
      </trkpt>
      <trkpt lat="45.73212" lon="4.43782">
        <ele>660</ele>
        <time>2017-05-14T05:59:11Z</time>
      </trkpt>
      <trkpt lat="45.73222" lon="4.43759">
        <ele>659</ele>
        <time>2017-05-14T05:59:15Z</time>
      </trkpt>
      <trkpt lat="45.73246" lon="4.43731">
        <ele>658</ele>
        <time>2017-05-14T05:59:19Z</time>
      </trkpt>
      <trkpt lat="45.73265" lon="4.43697">
        <ele>656</ele>
        <time>2017-05-14T05:59:24Z</time>
      </trkpt>
      <trkpt lat="45.73288" lon="4.43655">
        <ele>652</ele>
        <time>2017-05-14T05:59:27Z</time>
      </trkpt>
      <trkpt lat="45.73312" lon="4.43625">
        <ele>650</ele>
        <time>2017-05-14T05:59:31Z</time>
      </trkpt>
      <trkpt lat="45.73339" lon="4.43599">
        <ele>647</ele>
        <time>2017-05-14T05:59:35Z</time>
      </trkpt>
      <trkpt lat="45.73365" lon="4.43573">
        <ele>645</ele>
        <time>2017-05-14T05:59:39Z</time>
      </trkpt>
      <trkpt lat="45.73392" lon="4.43512">
        <ele>641</ele>
        <time>2017-05-14T05:59:45Z</time>
      </trkpt>
      <trkpt lat="45.73402" lon="4.43482">
        <ele>636</ele>
        <time>2017-05-14T05:59:51Z</time>
      </trkpt>
      <trkpt lat="45.73417" lon="4.43454">
        <ele>633</ele>
        <time>2017-05-14T05:59:55Z</time>
      </trkpt>
      <trkpt lat="45.73429" lon="4.4343">
        <ele>629</ele>
        <time>2017-05-14T05:59:59Z</time>
      </trkpt>
      <trkpt lat="45.73426" lon="4.43391">
        <ele>621</ele>
        <time>2017-05-14T06:00:04Z</time>
      </trkpt>
      <trkpt lat="45.73418" lon="4.43346">
        <ele>620</ele>
        <time>2017-05-14T06:00:07Z</time>
      </trkpt>
      <trkpt lat="45.73416" lon="4.43311">
        <ele>616</ele>
        <time>2017-05-14T06:00:11Z</time>
      </trkpt>
      <trkpt lat="45.73411" lon="4.43301">
        <ele>614</ele>
        <time>2017-05-14T06:00:15Z</time>
      </trkpt>
      <trkpt lat="45.73411" lon="4.433">
        <ele>613</ele>
        <time>2017-05-14T06:06:19Z</time>
      </trkpt>
      <trkpt lat="45.7342" lon="4.43298">
        <ele>614</ele>
        <time>2017-05-14T06:06:24Z</time>
      </trkpt>
      <trkpt lat="45.7343" lon="4.43293">
        <ele>614</ele>
        <time>2017-05-14T06:06:27Z</time>
      </trkpt>
      <trkpt lat="45.7344" lon="4.43287">
        <ele>614</ele>
        <time>2017-05-14T06:06:31Z</time>
      </trkpt>
      <trkpt lat="45.73442" lon="4.43286">
        <ele>614</ele>
        <time>2017-05-14T06:06:43Z</time>
      </trkpt>
      <trkpt lat="45.7343" lon="4.43294">
        <ele>614</ele>
        <time>2017-05-14T06:06:48Z</time>
      </trkpt>
      <trkpt lat="45.7342" lon="4.43301">
        <ele>614</ele>
        <time>2017-05-14T06:06:51Z</time>
      </trkpt>
      <trkpt lat="45.73416" lon="4.43301">
        <ele>613</ele>
        <time>2017-05-14T06:06:55Z</time>
      </trkpt>
      <trkpt lat="45.73413" lon="4.43298">
        <ele>613</ele>
        <time>2017-05-14T06:06:59Z</time>
      </trkpt>
      <trkpt lat="45.73408" lon="4.43292">
        <ele>614</ele>
        <time>2017-05-14T06:07:03Z</time>
      </trkpt>
      <trkpt lat="45.734" lon="4.43286">
        <ele>614</ele>
        <time>2017-05-14T06:07:07Z</time>
      </trkpt>
      <trkpt lat="45.73391" lon="4.43279">
        <ele>615</ele>
        <time>2017-05-14T06:07:14Z</time>
      </trkpt>
      <trkpt lat="45.73381" lon="4.43273">
        <ele>615</ele>
        <time>2017-05-14T06:07:16Z</time>
      </trkpt>
      <trkpt lat="45.73372" lon="4.43266">
        <ele>617</ele>
        <time>2017-05-14T06:07:19Z</time>
      </trkpt>
      <trkpt lat="45.73364" lon="4.4326">
        <ele>617</ele>
        <time>2017-05-14T06:07:23Z</time>
      </trkpt>
      <trkpt lat="45.73356" lon="4.43254">
        <ele>619</ele>
        <time>2017-05-14T06:07:27Z</time>
      </trkpt>
      <trkpt lat="45.7335" lon="4.43246">
        <ele>619</ele>
        <time>2017-05-14T06:07:31Z</time>
      </trkpt>
      <trkpt lat="45.73347" lon="4.43232">
        <ele>620</ele>
        <time>2017-05-14T06:07:35Z</time>
      </trkpt>
      <trkpt lat="45.7334" lon="4.43216">
        <ele>621</ele>
        <time>2017-05-14T06:07:40Z</time>
      </trkpt>
      <trkpt lat="45.73333" lon="4.43201">
        <ele>622</ele>
        <time>2017-05-14T06:07:43Z</time>
      </trkpt>
      <trkpt lat="45.73324" lon="4.43186">
        <ele>622</ele>
        <time>2017-05-14T06:07:47Z</time>
      </trkpt>
      <trkpt lat="45.73316" lon="4.4317">
        <ele>623</ele>
        <time>2017-05-14T06:07:51Z</time>
      </trkpt>
      <trkpt lat="45.73307" lon="4.43154">
        <ele>623</ele>
        <time>2017-05-14T06:07:55Z</time>
      </trkpt>
      <trkpt lat="45.73298" lon="4.43139">
        <ele>623</ele>
        <time>2017-05-14T06:07:59Z</time>
      </trkpt>
      <trkpt lat="45.73285" lon="4.43123">
        <ele>624</ele>
        <time>2017-05-14T06:08:03Z</time>
      </trkpt>
      <trkpt lat="45.73272" lon="4.43108">
        <ele>624</ele>
        <time>2017-05-14T06:08:07Z</time>
      </trkpt>
      <trkpt lat="45.73257" lon="4.43095">
        <ele>623</ele>
        <time>2017-05-14T06:08:11Z</time>
      </trkpt>
      <trkpt lat="45.73238" lon="4.43083">
        <ele>623</ele>
        <time>2017-05-14T06:08:15Z</time>
      </trkpt>
      <trkpt lat="45.73218" lon="4.4307">
        <ele>622</ele>
        <time>2017-05-14T06:08:19Z</time>
      </trkpt>
      <trkpt lat="45.73199" lon="4.43061">
        <ele>622</ele>
        <time>2017-05-14T06:08:23Z</time>
      </trkpt>
      <trkpt lat="45.73176" lon="4.43059">
        <ele>620</ele>
        <time>2017-05-14T06:08:28Z</time>
      </trkpt>
      <trkpt lat="45.73161" lon="4.43068">
        <ele>618</ele>
        <time>2017-05-14T06:08:31Z</time>
      </trkpt>
      <trkpt lat="45.73157" lon="4.43087">
        <ele>617</ele>
        <time>2017-05-14T06:08:35Z</time>
      </trkpt>
      <trkpt lat="45.73155" lon="4.43099">
        <ele>617</ele>
        <time>2017-05-14T06:08:39Z</time>
      </trkpt>
      <trkpt lat="45.73153" lon="4.43109">
        <ele>618</ele>
        <time>2017-05-14T06:08:43Z</time>
      </trkpt>
      <trkpt lat="45.7315" lon="4.43114">
        <ele>619</ele>
        <time>2017-05-14T06:08:47Z</time>
      </trkpt>
      <trkpt lat="45.73147" lon="4.43125">
        <ele>619</ele>
        <time>2017-05-14T06:08:51Z</time>
      </trkpt>
      <trkpt lat="45.73143" lon="4.43137">
        <ele>621</ele>
        <time>2017-05-14T06:08:56Z</time>
      </trkpt>
      <trkpt lat="45.7314" lon="4.43155">
        <ele>621</ele>
        <time>2017-05-14T06:08:59Z</time>
      </trkpt>
      <trkpt lat="45.73134" lon="4.4317">
        <ele>622</ele>
        <time>2017-05-14T06:09:04Z</time>
      </trkpt>
      <trkpt lat="45.73122" lon="4.43187">
        <ele>621</ele>
        <time>2017-05-14T06:09:07Z</time>
      </trkpt>
      <trkpt lat="45.73107" lon="4.43192">
        <ele>621</ele>
        <time>2017-05-14T06:09:11Z</time>
      </trkpt>
      <trkpt lat="45.73101" lon="4.43192">
        <ele>620</ele>
        <time>2017-05-14T06:09:15Z</time>
      </trkpt>
      <trkpt lat="45.7309" lon="4.43177">
        <ele>621</ele>
        <time>2017-05-14T06:09:20Z</time>
      </trkpt>
      <trkpt lat="45.73082" lon="4.43163">
        <ele>621</ele>
        <time>2017-05-14T06:09:23Z</time>
      </trkpt>
      <trkpt lat="45.73076" lon="4.43144">
        <ele>622</ele>
        <time>2017-05-14T06:09:27Z</time>
      </trkpt>
      <trkpt lat="45.7307" lon="4.43123">
        <ele>622</ele>
        <time>2017-05-14T06:09:32Z</time>
      </trkpt>
      <trkpt lat="45.73064" lon="4.43102">
        <ele>622</ele>
        <time>2017-05-14T06:09:35Z</time>
      </trkpt>
      <trkpt lat="45.73058" lon="4.43083">
        <ele>622</ele>
        <time>2017-05-14T06:09:39Z</time>
      </trkpt>
      <trkpt lat="45.73052" lon="4.43063">
        <ele>623</ele>
        <time>2017-05-14T06:09:44Z</time>
      </trkpt>
      <trkpt lat="45.73046" lon="4.43045">
        <ele>623</ele>
        <time>2017-05-14T06:09:47Z</time>
      </trkpt>
      <trkpt lat="45.7304" lon="4.43027">
        <ele>624</ele>
        <time>2017-05-14T06:09:52Z</time>
      </trkpt>
      <trkpt lat="45.73036" lon="4.43009">
        <ele>624</ele>
        <time>2017-05-14T06:09:55Z</time>
      </trkpt>
      <trkpt lat="45.73033" lon="4.42991">
        <ele>625</ele>
        <time>2017-05-14T06:09:59Z</time>
      </trkpt>
      <trkpt lat="45.73029" lon="4.42976">
        <ele>625</ele>
        <time>2017-05-14T06:10:03Z</time>
      </trkpt>
      <trkpt lat="45.73022" lon="4.42973">
        <ele>626</ele>
        <time>2017-05-14T06:10:07Z</time>
      </trkpt>
      <trkpt lat="45.73018" lon="4.42981">
        <ele>626</ele>
        <time>2017-05-14T06:10:11Z</time>
      </trkpt>
      <trkpt lat="45.73014" lon="4.42989">
        <ele>627</ele>
        <time>2017-05-14T06:10:15Z</time>
      </trkpt>
      <trkpt lat="45.7301" lon="4.42997">
        <ele>629</ele>
        <time>2017-05-14T06:10:19Z</time>
      </trkpt>
      <trkpt lat="45.73008" lon="4.43006">
        <ele>629</ele>
        <time>2017-05-14T06:10:23Z</time>
      </trkpt>
      <trkpt lat="45.73005" lon="4.43014">
        <ele>630</ele>
        <time>2017-05-14T06:10:27Z</time>
      </trkpt>
      <trkpt lat="45.72999" lon="4.43018">
        <ele>630</ele>
        <time>2017-05-14T06:10:31Z</time>
      </trkpt>
      <trkpt lat="45.72994" lon="4.43021">
        <ele>632</ele>
        <time>2017-05-14T06:10:37Z</time>
      </trkpt>
      <trkpt lat="45.7299" lon="4.43026">
        <ele>632</ele>
        <time>2017-05-14T06:10:39Z</time>
      </trkpt>
      <trkpt lat="45.72993" lon="4.43034">
        <ele>633</ele>
        <time>2017-05-14T06:10:43Z</time>
      </trkpt>
      <trkpt lat="45.72994" lon="4.43039">
        <ele>634</ele>
        <time>2017-05-14T06:10:48Z</time>
      </trkpt>
      <trkpt lat="45.72991" lon="4.43036">
        <ele>634</ele>
        <time>2017-05-14T06:10:51Z</time>
      </trkpt>
      <trkpt lat="45.72987" lon="4.43031">
        <ele>635</ele>
        <time>2017-05-14T06:10:55Z</time>
      </trkpt>
      <trkpt lat="45.72984" lon="4.43027">
        <ele>637</ele>
        <time>2017-05-14T06:11:00Z</time>
      </trkpt>
      <trkpt lat="45.72966" lon="4.43016">
        <ele>639</ele>
        <time>2017-05-14T06:11:12Z</time>
      </trkpt>
      <trkpt lat="45.7296" lon="4.43014">
        <ele>639</ele>
        <time>2017-05-14T06:11:16Z</time>
      </trkpt>
      <trkpt lat="45.72953" lon="4.43012">
        <ele>640</ele>
        <time>2017-05-14T06:11:23Z</time>
      </trkpt>
      <trkpt lat="45.72945" lon="4.43008">
        <ele>638</ele>
        <time>2017-05-14T06:11:27Z</time>
      </trkpt>
      <trkpt lat="45.72933" lon="4.43005">
        <ele>638</ele>
        <time>2017-05-14T06:11:31Z</time>
      </trkpt>
      <trkpt lat="45.72904" lon="4.42988">
        <ele>639</ele>
        <time>2017-05-14T06:11:35Z</time>
      </trkpt>
      <trkpt lat="45.72885" lon="4.42981">
        <ele>640</ele>
        <time>2017-05-14T06:11:43Z</time>
      </trkpt>
      <trkpt lat="45.72853" lon="4.4298">
        <ele>641</ele>
        <time>2017-05-14T06:11:48Z</time>
      </trkpt>
      <trkpt lat="45.72834" lon="4.42979">
        <ele>642</ele>
        <time>2017-05-14T06:11:51Z</time>
      </trkpt>
      <trkpt lat="45.72804" lon="4.42974">
        <ele>643</ele>
        <time>2017-05-14T06:11:59Z</time>
      </trkpt>
      <trkpt lat="45.72788" lon="4.42974">
        <ele>645</ele>
        <time>2017-05-14T06:12:07Z</time>
      </trkpt>
      <trkpt lat="45.72774" lon="4.42974">
        <ele>645</ele>
        <time>2017-05-14T06:12:11Z</time>
      </trkpt>
      <trkpt lat="45.7276" lon="4.42977">
        <ele>646</ele>
        <time>2017-05-14T06:12:15Z</time>
      </trkpt>
      <trkpt lat="45.72746" lon="4.42978">
        <ele>647</ele>
        <time>2017-05-14T06:12:19Z</time>
      </trkpt>
      <trkpt lat="45.72733" lon="4.42978">
        <ele>648</ele>
        <time>2017-05-14T06:12:23Z</time>
      </trkpt>
      <trkpt lat="45.7272" lon="4.42976">
        <ele>648</ele>
        <time>2017-05-14T06:12:27Z</time>
      </trkpt>
      <trkpt lat="45.72706" lon="4.42973">
        <ele>648</ele>
        <time>2017-05-14T06:12:31Z</time>
      </trkpt>
      <trkpt lat="45.72691" lon="4.4297">
        <ele>649</ele>
        <time>2017-05-14T06:12:35Z</time>
      </trkpt>
      <trkpt lat="45.72663" lon="4.42956">
        <ele>649</ele>
        <time>2017-05-14T06:12:40Z</time>
      </trkpt>
      <trkpt lat="45.72652" lon="4.42946">
        <ele>650</ele>
        <time>2017-05-14T06:12:45Z</time>
      </trkpt>
      <trkpt lat="45.72641" lon="4.42937">
        <ele>652</ele>
        <time>2017-05-14T06:12:51Z</time>
      </trkpt>
      <trkpt lat="45.72632" lon="4.42928">
        <ele>652</ele>
        <time>2017-05-14T06:12:55Z</time>
      </trkpt>
      <trkpt lat="45.72624" lon="4.4292">
        <ele>652</ele>
        <time>2017-05-14T06:12:59Z</time>
      </trkpt>
      <trkpt lat="45.72631" lon="4.42913">
        <ele>652</ele>
        <time>2017-05-14T06:13:03Z</time>
      </trkpt>
      <trkpt lat="45.72646" lon="4.42904">
        <ele>650</ele>
        <time>2017-05-14T06:13:07Z</time>
      </trkpt>
      <trkpt lat="45.72669" lon="4.4289">
        <ele>647</ele>
        <time>2017-05-14T06:13:11Z</time>
      </trkpt>
      <trkpt lat="45.72695" lon="4.42869">
        <ele>644</ele>
        <time>2017-05-14T06:13:15Z</time>
      </trkpt>
      <trkpt lat="45.72725" lon="4.42848">
        <ele>639</ele>
        <time>2017-05-14T06:13:19Z</time>
      </trkpt>
      <trkpt lat="45.72747" lon="4.42837">
        <ele>633</ele>
        <time>2017-05-14T06:13:23Z</time>
      </trkpt>
      <trkpt lat="45.72748" lon="4.4282">
        <ele>633</ele>
        <time>2017-05-14T06:13:27Z</time>
      </trkpt>
      <trkpt lat="45.7274" lon="4.42795">
        <ele>633</ele>
        <time>2017-05-14T06:13:31Z</time>
      </trkpt>
      <trkpt lat="45.72727" lon="4.42769">
        <ele>630</ele>
        <time>2017-05-14T06:13:35Z</time>
      </trkpt>
      <trkpt lat="45.72719" lon="4.42715">
        <ele>627</ele>
        <time>2017-05-14T06:13:39Z</time>
      </trkpt>
      <trkpt lat="45.72726" lon="4.42679">
        <ele>624</ele>
        <time>2017-05-14T06:13:47Z</time>
      </trkpt>
      <trkpt lat="45.72711" lon="4.42605">
        <ele>620</ele>
        <time>2017-05-14T06:13:52Z</time>
      </trkpt>
      <trkpt lat="45.72699" lon="4.42576">
        <ele>620</ele>
        <time>2017-05-14T06:13:55Z</time>
      </trkpt>
      <trkpt lat="45.72725" lon="4.42527">
        <ele>616</ele>
        <time>2017-05-14T06:14:03Z</time>
      </trkpt>
      <trkpt lat="45.72747" lon="4.42501">
        <ele>614</ele>
        <time>2017-05-14T06:14:08Z</time>
      </trkpt>
      <trkpt lat="45.7276" lon="4.42478">
        <ele>616</ele>
        <time>2017-05-14T06:14:15Z</time>
      </trkpt>
      <trkpt lat="45.72766" lon="4.42461">
        <ele>617</ele>
        <time>2017-05-14T06:14:19Z</time>
      </trkpt>
      <trkpt lat="45.7277" lon="4.42445">
        <ele>618</ele>
        <time>2017-05-14T06:14:23Z</time>
      </trkpt>
      <trkpt lat="45.72773" lon="4.4243">
        <ele>618</ele>
        <time>2017-05-14T06:14:27Z</time>
      </trkpt>
      <trkpt lat="45.72776" lon="4.42415">
        <ele>619</ele>
        <time>2017-05-14T06:14:31Z</time>
      </trkpt>
      <trkpt lat="45.72778" lon="4.42401">
        <ele>620</ele>
        <time>2017-05-14T06:14:35Z</time>
      </trkpt>
      <trkpt lat="45.7278" lon="4.42387">
        <ele>620</ele>
        <time>2017-05-14T06:14:39Z</time>
      </trkpt>
      <trkpt lat="45.72784" lon="4.42359">
        <ele>621</ele>
        <time>2017-05-14T06:14:44Z</time>
      </trkpt>
      <trkpt lat="45.72784" lon="4.42345">
        <ele>622</ele>
        <time>2017-05-14T06:14:47Z</time>
      </trkpt>
      <trkpt lat="45.72784" lon="4.42331">
        <ele>625</ele>
        <time>2017-05-14T06:14:55Z</time>
      </trkpt>
      <trkpt lat="45.72784" lon="4.42319">
        <ele>626</ele>
        <time>2017-05-14T06:14:59Z</time>
      </trkpt>
      <trkpt lat="45.72784" lon="4.42309">
        <ele>626</ele>
        <time>2017-05-14T06:15:03Z</time>
      </trkpt>
      <trkpt lat="45.72784" lon="4.42301">
        <ele>627</ele>
        <time>2017-05-14T06:15:07Z</time>
      </trkpt>
      <trkpt lat="45.72782" lon="4.42295">
        <ele>628</ele>
        <time>2017-05-14T06:15:11Z</time>
      </trkpt>
      <trkpt lat="45.7278" lon="4.4227">
        <ele>629</ele>
        <time>2017-05-14T06:15:16Z</time>
      </trkpt>
      <trkpt lat="45.72777" lon="4.42257">
        <ele>630</ele>
        <time>2017-05-14T06:15:20Z</time>
      </trkpt>
      <trkpt lat="45.72775" lon="4.42248">
        <ele>631</ele>
        <time>2017-05-14T06:15:27Z</time>
      </trkpt>
      <trkpt lat="45.72771" lon="4.42239">
        <ele>632</ele>
        <time>2017-05-14T06:15:32Z</time>
      </trkpt>
      <trkpt lat="45.72761" lon="4.42211">
        <ele>632</ele>
        <time>2017-05-14T06:15:35Z</time>
      </trkpt>
      <trkpt lat="45.72758" lon="4.4219">
        <ele>633</ele>
        <time>2017-05-14T06:15:40Z</time>
      </trkpt>
      <trkpt lat="45.72751" lon="4.42173">
        <ele>634</ele>
        <time>2017-05-14T06:15:43Z</time>
      </trkpt>
      <trkpt lat="45.72744" lon="4.42159">
        <ele>634</ele>
        <time>2017-05-14T06:15:51Z</time>
      </trkpt>
      <trkpt lat="45.72724" lon="4.4214">
        <ele>635</ele>
        <time>2017-05-14T06:15:56Z</time>
      </trkpt>
      <trkpt lat="45.72714" lon="4.42135">
        <ele>637</ele>
        <time>2017-05-14T06:16:03Z</time>
      </trkpt>
      <trkpt lat="45.72704" lon="4.42131">
        <ele>638</ele>
        <time>2017-05-14T06:16:07Z</time>
      </trkpt>
      <trkpt lat="45.72693" lon="4.4213">
        <ele>638</ele>
        <time>2017-05-14T06:16:11Z</time>
      </trkpt>
      <trkpt lat="45.72682" lon="4.42131">
        <ele>639</ele>
        <time>2017-05-14T06:16:15Z</time>
      </trkpt>
      <trkpt lat="45.7267" lon="4.42135">
        <ele>640</ele>
        <time>2017-05-14T06:16:19Z</time>
      </trkpt>
      <trkpt lat="45.72659" lon="4.42139">
        <ele>640</ele>
        <time>2017-05-14T06:16:23Z</time>
      </trkpt>
      <trkpt lat="45.72648" lon="4.42141">
        <ele>641</ele>
        <time>2017-05-14T06:16:27Z</time>
      </trkpt>
      <trkpt lat="45.7263" lon="4.42145">
        <ele>642</ele>
        <time>2017-05-14T06:16:32Z</time>
      </trkpt>
      <trkpt lat="45.72622" lon="4.42151">
        <ele>643</ele>
        <time>2017-05-14T06:16:39Z</time>
      </trkpt>
      <trkpt lat="45.72612" lon="4.42155">
        <ele>644</ele>
        <time>2017-05-14T06:16:43Z</time>
      </trkpt>
      <trkpt lat="45.72593" lon="4.42161">
        <ele>645</ele>
        <time>2017-05-14T06:16:47Z</time>
      </trkpt>
      <trkpt lat="45.72584" lon="4.42166">
        <ele>646</ele>
        <time>2017-05-14T06:16:51Z</time>
      </trkpt>
      <trkpt lat="45.72575" lon="4.42176">
        <ele>648</ele>
        <time>2017-05-14T06:17:03Z</time>
      </trkpt>
      <trkpt lat="45.72554" lon="4.42194">
        <ele>648</ele>
        <time>2017-05-14T06:17:04Z</time>
      </trkpt>
      <trkpt lat="45.72543" lon="4.42206">
        <ele>649</ele>
        <time>2017-05-14T06:17:11Z</time>
      </trkpt>
      <trkpt lat="45.72531" lon="4.42219">
        <ele>649</ele>
        <time>2017-05-14T06:17:15Z</time>
      </trkpt>
      <trkpt lat="45.72503" lon="4.42246">
        <ele>649</ele>
        <time>2017-05-14T06:17:20Z</time>
      </trkpt>
      <trkpt lat="45.72486" lon="4.42261">
        <ele>650</ele>
        <time>2017-05-14T06:17:27Z</time>
      </trkpt>
      <trkpt lat="45.72468" lon="4.42277">
        <ele>649</ele>
        <time>2017-05-14T06:17:31Z</time>
      </trkpt>
      <trkpt lat="45.7245" lon="4.42293">
        <ele>649</ele>
        <time>2017-05-14T06:17:35Z</time>
      </trkpt>
      <trkpt lat="45.7243" lon="4.42308">
        <ele>647</ele>
        <time>2017-05-14T06:17:39Z</time>
      </trkpt>
      <trkpt lat="45.72401" lon="4.42296">
        <ele>646</ele>
        <time>2017-05-14T06:17:44Z</time>
      </trkpt>
      <trkpt lat="45.72391" lon="4.42266">
        <ele>644</ele>
        <time>2017-05-14T06:17:51Z</time>
      </trkpt>
      <trkpt lat="45.72381" lon="4.42233">
        <ele>642</ele>
        <time>2017-05-14T06:17:55Z</time>
      </trkpt>
      <trkpt lat="45.72361" lon="4.42171">
        <ele>641</ele>
        <time>2017-05-14T06:18:00Z</time>
      </trkpt>
      <trkpt lat="45.72351" lon="4.42145">
        <ele>638</ele>
        <time>2017-05-14T06:18:07Z</time>
      </trkpt>
      <trkpt lat="45.72346" lon="4.42131">
        <ele>636</ele>
        <time>2017-05-14T06:18:11Z</time>
      </trkpt>
      <trkpt lat="45.72342" lon="4.42111">
        <ele>635</ele>
        <time>2017-05-14T06:18:15Z</time>
      </trkpt>
      <trkpt lat="45.72334" lon="4.42089">
        <ele>635</ele>
        <time>2017-05-14T06:18:19Z</time>
      </trkpt>
      <trkpt lat="45.72331" lon="4.42071">
        <ele>635</ele>
        <time>2017-05-14T06:18:23Z</time>
      </trkpt>
      <trkpt lat="45.72326" lon="4.4205">
        <ele>635</ele>
        <time>2017-05-14T06:18:32Z</time>
      </trkpt>
      <trkpt lat="45.72331" lon="4.42013">
        <ele>635</ele>
        <time>2017-05-14T06:18:33Z</time>
      </trkpt>
      <trkpt lat="45.72332" lon="4.41998">
        <ele>636</ele>
        <time>2017-05-14T06:18:36Z</time>
      </trkpt>
      <trkpt lat="45.7233" lon="4.41986">
        <ele>637</ele>
        <time>2017-05-14T06:18:43Z</time>
      </trkpt>
      <trkpt lat="45.72324" lon="4.41976">
        <ele>637</ele>
        <time>2017-05-14T06:18:47Z</time>
      </trkpt>
      <trkpt lat="45.72324" lon="4.41959">
        <ele>639</ele>
        <time>2017-05-14T06:18:52Z</time>
      </trkpt>
      <trkpt lat="45.72324" lon="4.41948">
        <ele>640</ele>
        <time>2017-05-14T06:18:59Z</time>
      </trkpt>
      <trkpt lat="45.72326" lon="4.41938">
        <ele>641</ele>
        <time>2017-05-14T06:19:03Z</time>
      </trkpt>
      <trkpt lat="45.72325" lon="4.41929">
        <ele>642</ele>
        <time>2017-05-14T06:19:07Z</time>
      </trkpt>
      <trkpt lat="45.72325" lon="4.41923">
        <ele>643</ele>
        <time>2017-05-14T06:19:11Z</time>
      </trkpt>
      <trkpt lat="45.72323" lon="4.41906">
        <ele>644</ele>
        <time>2017-05-14T06:19:15Z</time>
      </trkpt>
      <trkpt lat="45.72324" lon="4.4189">
        <ele>646</ele>
        <time>2017-05-14T06:19:24Z</time>
      </trkpt>
      <trkpt lat="45.72327" lon="4.41885">
        <ele>647</ele>
        <time>2017-05-14T06:19:31Z</time>
      </trkpt>
      <trkpt lat="45.72332" lon="4.41878">
        <ele>648</ele>
        <time>2017-05-14T06:19:35Z</time>
      </trkpt>
      <trkpt lat="45.72341" lon="4.41866">
        <ele>649</ele>
        <time>2017-05-14T06:19:40Z</time>
      </trkpt>
      <trkpt lat="45.72345" lon="4.41859">
        <ele>650</ele>
        <time>2017-05-14T06:19:43Z</time>
      </trkpt>
      <trkpt lat="45.72347" lon="4.41847">
        <ele>650</ele>
        <time>2017-05-14T06:19:51Z</time>
      </trkpt>
      <trkpt lat="45.72348" lon="4.41835">
        <ele>652</ele>
        <time>2017-05-14T06:19:55Z</time>
      </trkpt>
      <trkpt lat="45.72349" lon="4.41819">
        <ele>653</ele>
        <time>2017-05-14T06:19:59Z</time>
      </trkpt>
      <trkpt lat="45.72346" lon="4.41784">
        <ele>653</ele>
        <time>2017-05-14T06:20:04Z</time>
      </trkpt>
      <trkpt lat="45.72343" lon="4.41768">
        <ele>655</ele>
        <time>2017-05-14T06:20:11Z</time>
      </trkpt>
      <trkpt lat="45.72336" lon="4.41756">
        <ele>655</ele>
        <time>2017-05-14T06:20:15Z</time>
      </trkpt>
      <trkpt lat="45.72329" lon="4.41746">
        <ele>656</ele>
        <time>2017-05-14T06:20:19Z</time>
      </trkpt>
      <trkpt lat="45.72317" lon="4.41743">
        <ele>657</ele>
        <time>2017-05-14T06:20:23Z</time>
      </trkpt>
      <trkpt lat="45.72308" lon="4.41745">
        <ele>658</ele>
        <time>2017-05-14T06:20:27Z</time>
      </trkpt>
      <trkpt lat="45.72292" lon="4.41756">
        <ele>659</ele>
        <time>2017-05-14T06:20:31Z</time>
      </trkpt>
      <trkpt lat="45.72285" lon="4.4176">
        <ele>659</ele>
        <time>2017-05-14T06:20:35Z</time>
      </trkpt>
      <trkpt lat="45.72279" lon="4.41753">
        <ele>660</ele>
        <time>2017-05-14T06:20:40Z</time>
      </trkpt>
      <trkpt lat="45.72272" lon="4.41742">
        <ele>661</ele>
        <time>2017-05-14T06:20:47Z</time>
      </trkpt>
      <trkpt lat="45.72264" lon="4.41728">
        <ele>660</ele>
        <time>2017-05-14T06:20:51Z</time>
      </trkpt>
      <trkpt lat="45.72238" lon="4.41694">
        <ele>659</ele>
        <time>2017-05-14T06:20:56Z</time>
      </trkpt>
      <trkpt lat="45.72218" lon="4.41671">
        <ele>657</ele>
        <time>2017-05-14T06:20:59Z</time>
      </trkpt>
      <trkpt lat="45.72196" lon="4.41645">
        <ele>654</ele>
        <time>2017-05-14T06:21:07Z</time>
      </trkpt>
      <trkpt lat="45.72182" lon="4.41613">
        <ele>654</ele>
        <time>2017-05-14T06:21:11Z</time>
      </trkpt>
      <trkpt lat="45.72173" lon="4.41587">
        <ele>653</ele>
        <time>2017-05-14T06:21:15Z</time>
      </trkpt>
      <trkpt lat="45.72152" lon="4.41552">
        <ele>651</ele>
        <time>2017-05-14T06:21:20Z</time>
      </trkpt>
      <trkpt lat="45.72103" lon="4.41493">
        <ele>642</ele>
        <time>2017-05-14T06:21:29Z</time>
      </trkpt>
      <trkpt lat="45.72087" lon="4.4147">
        <ele>638</ele>
        <time>2017-05-14T06:21:33Z</time>
      </trkpt>
      <trkpt lat="45.72082" lon="4.41454">
        <ele>636</ele>
        <time>2017-05-14T06:21:39Z</time>
      </trkpt>
      <trkpt lat="45.72083" lon="4.41399">
        <ele>634</ele>
        <time>2017-05-14T06:21:44Z</time>
      </trkpt>
      <trkpt lat="45.72083" lon="4.41355">
        <ele>634</ele>
        <time>2017-05-14T06:21:48Z</time>
      </trkpt>
      <trkpt lat="45.72081" lon="4.41311">
        <ele>632</ele>
        <time>2017-05-14T06:21:52Z</time>
      </trkpt>
      <trkpt lat="45.7208" lon="4.41267">
        <ele>629</ele>
        <time>2017-05-14T06:21:59Z</time>
      </trkpt>
      <trkpt lat="45.72078" lon="4.4118">
        <ele>627</ele>
        <time>2017-05-14T06:22:03Z</time>
      </trkpt>
      <trkpt lat="45.72074" lon="4.41133">
        <ele>624</ele>
        <time>2017-05-14T06:22:08Z</time>
      </trkpt>
      <trkpt lat="45.72068" lon="4.41085">
        <ele>623</ele>
        <time>2017-05-14T06:22:12Z</time>
      </trkpt>
      <trkpt lat="45.72062" lon="4.41035">
        <ele>620</ele>
        <time>2017-05-14T06:22:19Z</time>
      </trkpt>
      <trkpt lat="45.72059" lon="4.40984">
        <ele>618</ele>
        <time>2017-05-14T06:22:23Z</time>
      </trkpt>
      <trkpt lat="45.72056" lon="4.40935">
        <ele>617</ele>
        <time>2017-05-14T06:22:27Z</time>
      </trkpt>
      <trkpt lat="45.72055" lon="4.40888">
        <ele>615</ele>
        <time>2017-05-14T06:22:31Z</time>
      </trkpt>
      <trkpt lat="45.72042" lon="4.40796">
        <ele>613</ele>
        <time>2017-05-14T06:22:35Z</time>
      </trkpt>
      <trkpt lat="45.72039" lon="4.40688">
        <ele>607</ele>
        <time>2017-05-14T06:22:44Z</time>
      </trkpt>
      <trkpt lat="45.72027" lon="4.40635">
        <ele>597</ele>
        <time>2017-05-14T06:22:51Z</time>
      </trkpt>
      <trkpt lat="45.7203" lon="4.4059">
        <ele>592</ele>
        <time>2017-05-14T06:22:55Z</time>
      </trkpt>
      <trkpt lat="45.72029" lon="4.40568">
        <ele>590</ele>
        <time>2017-05-14T06:22:59Z</time>
      </trkpt>
      <trkpt lat="45.72029" lon="4.40545">
        <ele>587</ele>
        <time>2017-05-14T06:23:03Z</time>
      </trkpt>
      <trkpt lat="45.72028" lon="4.40527">
        <ele>586</ele>
        <time>2017-05-14T06:23:07Z</time>
      </trkpt>
      <trkpt lat="45.72028" lon="4.40507">
        <ele>584</ele>
        <time>2017-05-14T06:23:11Z</time>
      </trkpt>
      <trkpt lat="45.72026" lon="4.40477">
        <ele>579</ele>
        <time>2017-05-14T06:23:15Z</time>
      </trkpt>
      <trkpt lat="45.72023" lon="4.40445">
        <ele>575</ele>
        <time>2017-05-14T06:23:19Z</time>
      </trkpt>
      <trkpt lat="45.72021" lon="4.40424">
        <ele>574</ele>
        <time>2017-05-14T06:23:23Z</time>
      </trkpt>
      <trkpt lat="45.72019" lon="4.40412">
        <ele>573</ele>
        <time>2017-05-14T06:23:27Z</time>
      </trkpt>
      <trkpt lat="45.72002" lon="4.40375">
        <ele>572</ele>
        <time>2017-05-14T06:23:32Z</time>
      </trkpt>
      <trkpt lat="45.71994" lon="4.40359">
        <ele>571</ele>
        <time>2017-05-14T06:23:39Z</time>
      </trkpt>
      <trkpt lat="45.71986" lon="4.40346">
        <ele>571</ele>
        <time>2017-05-14T06:23:43Z</time>
      </trkpt>
      <trkpt lat="45.7197" lon="4.40312">
        <ele>571</ele>
        <time>2017-05-14T06:23:48Z</time>
      </trkpt>
      <trkpt lat="45.71957" lon="4.40296">
        <ele>571</ele>
        <time>2017-05-14T06:23:55Z</time>
      </trkpt>
      <trkpt lat="45.71929" lon="4.40257">
        <ele>571</ele>
        <time>2017-05-14T06:24:00Z</time>
      </trkpt>
      <trkpt lat="45.71906" lon="4.40235">
        <ele>571</ele>
        <time>2017-05-14T06:24:07Z</time>
      </trkpt>
      <trkpt lat="45.71902" lon="4.40225">
        <ele>572</ele>
        <time>2017-05-14T06:24:15Z</time>
      </trkpt>
      <trkpt lat="45.71901" lon="4.40211">
        <ele>573</ele>
        <time>2017-05-14T06:24:19Z</time>
      </trkpt>
      <trkpt lat="45.71898" lon="4.40193">
        <ele>572</ele>
        <time>2017-05-14T06:24:23Z</time>
      </trkpt>
      <trkpt lat="45.71867" lon="4.40165">
        <ele>573</ele>
        <time>2017-05-14T06:24:28Z</time>
      </trkpt>
      <trkpt lat="45.71828" lon="4.4015">
        <ele>572</ele>
        <time>2017-05-14T06:24:35Z</time>
      </trkpt>
      <trkpt lat="45.7181" lon="4.4015">
        <ele>572</ele>
        <time>2017-05-14T06:24:43Z</time>
      </trkpt>
      <trkpt lat="45.71771" lon="4.40142">
        <ele>572</ele>
        <time>2017-05-14T06:24:48Z</time>
      </trkpt>
      <trkpt lat="45.71754" lon="4.40129">
        <ele>573</ele>
        <time>2017-05-14T06:24:55Z</time>
      </trkpt>
      <trkpt lat="45.71739" lon="4.40118">
        <ele>574</ele>
        <time>2017-05-14T06:24:59Z</time>
      </trkpt>
      <trkpt lat="45.71726" lon="4.40107">
        <ele>574</ele>
        <time>2017-05-14T06:25:03Z</time>
      </trkpt>
      <trkpt lat="45.71715" lon="4.40094">
        <ele>575</ele>
        <time>2017-05-14T06:25:07Z</time>
      </trkpt>
      <trkpt lat="45.71708" lon="4.40082">
        <ele>576</ele>
        <time>2017-05-14T06:25:11Z</time>
      </trkpt>
      <trkpt lat="45.71701" lon="4.4007">
        <ele>577</ele>
        <time>2017-05-14T06:25:15Z</time>
      </trkpt>
      <trkpt lat="45.71695" lon="4.40057">
        <ele>578</ele>
        <time>2017-05-14T06:25:19Z</time>
      </trkpt>
      <trkpt lat="45.71688" lon="4.40044">
        <ele>579</ele>
        <time>2017-05-14T06:25:23Z</time>
      </trkpt>
      <trkpt lat="45.7168" lon="4.40031">
        <ele>580</ele>
        <time>2017-05-14T06:25:27Z</time>
      </trkpt>
      <trkpt lat="45.71674" lon="4.40018">
        <ele>581</ele>
        <time>2017-05-14T06:25:31Z</time>
      </trkpt>
      <trkpt lat="45.71669" lon="4.40005">
        <ele>582</ele>
        <time>2017-05-14T06:25:35Z</time>
      </trkpt>
      <trkpt lat="45.71664" lon="4.39994">
        <ele>583</ele>
        <time>2017-05-14T06:25:39Z</time>
      </trkpt>
      <trkpt lat="45.71659" lon="4.39983">
        <ele>584</ele>
        <time>2017-05-14T06:25:43Z</time>
      </trkpt>
      <trkpt lat="45.71655" lon="4.39972">
        <ele>585</ele>
        <time>2017-05-14T06:25:47Z</time>
      </trkpt>
      <trkpt lat="45.71646" lon="4.39948">
        <ele>587</ele>
        <time>2017-05-14T06:25:53Z</time>
      </trkpt>
      <trkpt lat="45.71638" lon="4.39923">
        <ele>588</ele>
        <time>2017-05-14T06:26:00Z</time>
      </trkpt>
      <trkpt lat="45.71634" lon="4.39911">
        <ele>590</ele>
        <time>2017-05-14T06:26:07Z</time>
      </trkpt>
      <trkpt lat="45.7163" lon="4.399">
        <ele>591</ele>
        <time>2017-05-14T06:26:11Z</time>
      </trkpt>
      <trkpt lat="45.71618" lon="4.39878">
        <ele>592</ele>
        <time>2017-05-14T06:26:16Z</time>
      </trkpt>
      <trkpt lat="45.71613" lon="4.39865">
        <ele>592</ele>
        <time>2017-05-14T06:26:19Z</time>
      </trkpt>
      <trkpt lat="45.71607" lon="4.39852">
        <ele>593</ele>
        <time>2017-05-14T06:26:27Z</time>
      </trkpt>
      <trkpt lat="45.71602" lon="4.3984">
        <ele>593</ele>
        <time>2017-05-14T06:26:31Z</time>
      </trkpt>
      <trkpt lat="45.71596" lon="4.39828">
        <ele>594</ele>
        <time>2017-05-14T06:26:35Z</time>
      </trkpt>
      <trkpt lat="45.71586" lon="4.39807">
        <ele>595</ele>
        <time>2017-05-14T06:26:39Z</time>
      </trkpt>
      <trkpt lat="45.71582" lon="4.39797">
        <ele>597</ele>
        <time>2017-05-14T06:26:47Z</time>
      </trkpt>
      <trkpt lat="45.71575" lon="4.39775">
        <ele>598</ele>
        <time>2017-05-14T06:26:52Z</time>
      </trkpt>
      <trkpt lat="45.71574" lon="4.39762">
        <ele>600</ele>
        <time>2017-05-14T06:26:59Z</time>
      </trkpt>
      <trkpt lat="45.71567" lon="4.39742">
        <ele>601</ele>
        <time>2017-05-14T06:27:03Z</time>
      </trkpt>
      <trkpt lat="45.7156" lon="4.39733">
        <ele>604</ele>
        <time>2017-05-14T06:27:11Z</time>
      </trkpt>
      <trkpt lat="45.71552" lon="4.39727">
        <ele>605</ele>
        <time>2017-05-14T06:27:15Z</time>
      </trkpt>
      <trkpt lat="45.71544" lon="4.39727">
        <ele>605</ele>
        <time>2017-05-14T06:27:19Z</time>
      </trkpt>
      <trkpt lat="45.71536" lon="4.39728">
        <ele>606</ele>
        <time>2017-05-14T06:27:23Z</time>
      </trkpt>
      <trkpt lat="45.71531" lon="4.39727">
        <ele>607</ele>
        <time>2017-05-14T06:27:27Z</time>
      </trkpt>
      <trkpt lat="45.71522" lon="4.39726">
        <ele>608</ele>
        <time>2017-05-14T06:27:31Z</time>
      </trkpt>
      <trkpt lat="45.71516" lon="4.3972">
        <ele>608</ele>
        <time>2017-05-14T06:27:35Z</time>
      </trkpt>
      <trkpt lat="45.71517" lon="4.3969">
        <ele>608</ele>
        <time>2017-05-14T06:27:40Z</time>
      </trkpt>
      <trkpt lat="45.71519" lon="4.39671">
        <ele>608</ele>
        <time>2017-05-14T06:27:47Z</time>
      </trkpt>
      <trkpt lat="45.71519" lon="4.39635">
        <ele>606</ele>
        <time>2017-05-14T06:27:51Z</time>
      </trkpt>
      <trkpt lat="45.71515" lon="4.39623">
        <ele>605</ele>
        <time>2017-05-14T06:27:55Z</time>
      </trkpt>
      <trkpt lat="45.71509" lon="4.39609">
        <ele>605</ele>
        <time>2017-05-14T06:28:03Z</time>
      </trkpt>
      <trkpt lat="45.71499" lon="4.39568">
        <ele>605</ele>
        <time>2017-05-14T06:28:08Z</time>
      </trkpt>
      <trkpt lat="45.71492" lon="4.39531">
        <ele>604</ele>
        <time>2017-05-14T06:28:15Z</time>
      </trkpt>
      <trkpt lat="45.71489" lon="4.39527">
        <ele>605</ele>
        <time>2017-05-14T06:28:23Z</time>
      </trkpt>
      <trkpt lat="45.71484" lon="4.39519">
        <ele>604</ele>
        <time>2017-05-14T06:28:39Z</time>
      </trkpt>
      <trkpt lat="45.71481" lon="4.39526">
        <ele>604</ele>
        <time>2017-05-14T06:28:43Z</time>
      </trkpt>
      <trkpt lat="45.71475" lon="4.39528">
        <ele>603</ele>
        <time>2017-05-14T06:28:47Z</time>
      </trkpt>
      <trkpt lat="45.71471" lon="4.39526">
        <ele>604</ele>
        <time>2017-05-14T06:28:51Z</time>
      </trkpt>
      <trkpt lat="45.71467" lon="4.39522">
        <ele>603</ele>
        <time>2017-05-14T06:28:56Z</time>
      </trkpt>
      <trkpt lat="45.71462" lon="4.39516">
        <ele>604</ele>
        <time>2017-05-14T06:29:01Z</time>
      </trkpt>
      <trkpt lat="45.71469" lon="4.39522">
        <ele>603</ele>
        <time>2017-05-14T06:29:07Z</time>
      </trkpt>
      <trkpt lat="45.71479" lon="4.39527">
        <ele>603</ele>
        <time>2017-05-14T06:29:11Z</time>
      </trkpt>
      <trkpt lat="45.71487" lon="4.39522">
        <ele>605</ele>
        <time>2017-05-14T06:29:15Z</time>
      </trkpt>
      <trkpt lat="45.71484" lon="4.39512">
        <ele>605</ele>
        <time>2017-05-14T06:29:19Z</time>
      </trkpt>
      <trkpt lat="45.71478" lon="4.39504">
        <ele>605</ele>
        <time>2017-05-14T06:29:23Z</time>
      </trkpt>
      <trkpt lat="45.71469" lon="4.39485">
        <ele>605</ele>
        <time>2017-05-14T06:29:27Z</time>
      </trkpt>
      <trkpt lat="45.71459" lon="4.39469">
        <ele>606</ele>
        <time>2017-05-14T06:29:31Z</time>
      </trkpt>
      <trkpt lat="45.71449" lon="4.39454">
        <ele>607</ele>
        <time>2017-05-14T06:29:35Z</time>
      </trkpt>
      <trkpt lat="45.71439" lon="4.39437">
        <ele>608</ele>
        <time>2017-05-14T06:29:39Z</time>
      </trkpt>
      <trkpt lat="45.7143" lon="4.39423">
        <ele>608</ele>
        <time>2017-05-14T06:29:43Z</time>
      </trkpt>
      <trkpt lat="45.71413" lon="4.39398">
        <ele>609</ele>
        <time>2017-05-14T06:29:49Z</time>
      </trkpt>
      <trkpt lat="45.71403" lon="4.39384">
        <ele>609</ele>
        <time>2017-05-14T06:29:55Z</time>
      </trkpt>
      <trkpt lat="45.71394" lon="4.39369">
        <ele>610</ele>
        <time>2017-05-14T06:29:59Z</time>
      </trkpt>
      <trkpt lat="45.71386" lon="4.39352">
        <ele>611</ele>
        <time>2017-05-14T06:30:03Z</time>
      </trkpt>
      <trkpt lat="45.71378" lon="4.39333">
        <ele>611</ele>
        <time>2017-05-14T06:30:07Z</time>
      </trkpt>
      <trkpt lat="45.7137" lon="4.39315">
        <ele>612</ele>
        <time>2017-05-14T06:30:12Z</time>
      </trkpt>
      <trkpt lat="45.71362" lon="4.39296">
        <ele>613</ele>
        <time>2017-05-14T06:30:15Z</time>
      </trkpt>
      <trkpt lat="45.71353" lon="4.39277">
        <ele>613</ele>
        <time>2017-05-14T06:30:19Z</time>
      </trkpt>
      <trkpt lat="45.71344" lon="4.39256">
        <ele>614</ele>
        <time>2017-05-14T06:30:24Z</time>
      </trkpt>
      <trkpt lat="45.71333" lon="4.39238">
        <ele>614</ele>
        <time>2017-05-14T06:30:27Z</time>
      </trkpt>
      <trkpt lat="45.71323" lon="4.39219">
        <ele>614</ele>
        <time>2017-05-14T06:30:31Z</time>
      </trkpt>
      <trkpt lat="45.71314" lon="4.39199">
        <ele>614</ele>
        <time>2017-05-14T06:30:35Z</time>
      </trkpt>
      <trkpt lat="45.71301" lon="4.39184">
        <ele>614</ele>
        <time>2017-05-14T06:30:39Z</time>
      </trkpt>
      <trkpt lat="45.71289" lon="4.39172">
        <ele>614</ele>
        <time>2017-05-14T06:30:43Z</time>
      </trkpt>
      <trkpt lat="45.71276" lon="4.39159">
        <ele>615</ele>
        <time>2017-05-14T06:30:47Z</time>
      </trkpt>
      <trkpt lat="45.71262" lon="4.39148">
        <ele>615</ele>
        <time>2017-05-14T06:30:51Z</time>
      </trkpt>
      <trkpt lat="45.71248" lon="4.39138">
        <ele>615</ele>
        <time>2017-05-14T06:30:55Z</time>
      </trkpt>
      <trkpt lat="45.71241" lon="4.39125">
        <ele>615</ele>
        <time>2017-05-14T06:31:00Z</time>
      </trkpt>
      <trkpt lat="45.71247" lon="4.39116">
        <ele>615</ele>
        <time>2017-05-14T06:31:03Z</time>
      </trkpt>
      <trkpt lat="45.7126" lon="4.39113">
        <ele>615</ele>
        <time>2017-05-14T06:31:07Z</time>
      </trkpt>
      <trkpt lat="45.71272" lon="4.39113">
        <ele>615</ele>
        <time>2017-05-14T06:31:11Z</time>
      </trkpt>
      <trkpt lat="45.7128" lon="4.39102">
        <ele>615</ele>
        <time>2017-05-14T06:31:15Z</time>
      </trkpt>
      <trkpt lat="45.71285" lon="4.39077">
        <ele>615</ele>
        <time>2017-05-14T06:31:19Z</time>
      </trkpt>
      <trkpt lat="45.71291" lon="4.39048">
        <ele>615</ele>
        <time>2017-05-14T06:31:23Z</time>
      </trkpt>
      <trkpt lat="45.71297" lon="4.39016">
        <ele>614</ele>
        <time>2017-05-14T06:31:27Z</time>
      </trkpt>
      <trkpt lat="45.71304" lon="4.38985">
        <ele>613</ele>
        <time>2017-05-14T06:31:31Z</time>
      </trkpt>
      <trkpt lat="45.71313" lon="4.38958">
        <ele>612</ele>
        <time>2017-05-14T06:31:35Z</time>
      </trkpt>
      <trkpt lat="45.71329" lon="4.38933">
        <ele>611</ele>
        <time>2017-05-14T06:31:39Z</time>
      </trkpt>
      <trkpt lat="45.71348" lon="4.38894">
        <ele>609</ele>
        <time>2017-05-14T06:31:43Z</time>
      </trkpt>
      <trkpt lat="45.71358" lon="4.38846">
        <ele>606</ele>
        <time>2017-05-14T06:31:47Z</time>
      </trkpt>
      <trkpt lat="45.71371" lon="4.38805">
        <ele>600</ele>
        <time>2017-05-14T06:31:52Z</time>
      </trkpt>
      <trkpt lat="45.71377" lon="4.38772">
        <ele>594</ele>
        <time>2017-05-14T06:31:55Z</time>
      </trkpt>
      <trkpt lat="45.71359" lon="4.38736">
        <ele>590</ele>
        <time>2017-05-14T06:31:59Z</time>
      </trkpt>
      <trkpt lat="45.71341" lon="4.387">
        <ele>586</ele>
        <time>2017-05-14T06:32:03Z</time>
      </trkpt>
      <trkpt lat="45.71321" lon="4.38673">
        <ele>581</ele>
        <time>2017-05-14T06:32:07Z</time>
      </trkpt>
      <trkpt lat="45.71301" lon="4.38646">
        <ele>576</ele>
        <time>2017-05-14T06:32:11Z</time>
      </trkpt>
      <trkpt lat="45.7128" lon="4.3862">
        <ele>570</ele>
        <time>2017-05-14T06:32:15Z</time>
      </trkpt>
      <trkpt lat="45.71267" lon="4.38592">
        <ele>568</ele>
        <time>2017-05-14T06:32:19Z</time>
      </trkpt>
      <trkpt lat="45.7127" lon="4.38563">
        <ele>567</ele>
        <time>2017-05-14T06:32:23Z</time>
      </trkpt>
      <trkpt lat="45.71279" lon="4.38539">
        <ele>568</ele>
        <time>2017-05-14T06:32:27Z</time>
      </trkpt>
      <trkpt lat="45.71284" lon="4.38516">
        <ele>568</ele>
        <time>2017-05-14T06:32:31Z</time>
      </trkpt>
      <trkpt lat="45.71286" lon="4.385">
        <ele>568</ele>
        <time>2017-05-14T06:32:35Z</time>
      </trkpt>
      <trkpt lat="45.71287" lon="4.38483">
        <ele>568</ele>
        <time>2017-05-14T06:32:39Z</time>
      </trkpt>
      <trkpt lat="45.71289" lon="4.38468">
        <ele>569</ele>
        <time>2017-05-14T06:32:43Z</time>
      </trkpt>
      <trkpt lat="45.71289" lon="4.38454">
        <ele>569</ele>
        <time>2017-05-14T06:32:47Z</time>
      </trkpt>
      <trkpt lat="45.7129" lon="4.38442">
        <ele>570</ele>
        <time>2017-05-14T06:32:51Z</time>
      </trkpt>
      <trkpt lat="45.71292" lon="4.3843">
        <ele>570</ele>
        <time>2017-05-14T06:32:55Z</time>
      </trkpt>
      <trkpt lat="45.71294" lon="4.3842">
        <ele>572</ele>
        <time>2017-05-14T06:33:02Z</time>
      </trkpt>
      <trkpt lat="45.71297" lon="4.38411">
        <ele>572</ele>
        <time>2017-05-14T06:33:04Z</time>
      </trkpt>
      <trkpt lat="45.71301" lon="4.38406">
        <ele>573</ele>
        <time>2017-05-14T06:33:07Z</time>
      </trkpt>
      <trkpt lat="45.71307" lon="4.38399">
        <ele>574</ele>
        <time>2017-05-14T06:33:15Z</time>
      </trkpt>
      <trkpt lat="45.71311" lon="4.38395">
        <ele>575</ele>
        <time>2017-05-14T06:33:19Z</time>
      </trkpt>
      <trkpt lat="45.71316" lon="4.38387">
        <ele>577</ele>
        <time>2017-05-14T06:33:23Z</time>
      </trkpt>
      <trkpt lat="45.71318" lon="4.38374">
        <ele>579</ele>
        <time>2017-05-14T06:33:35Z</time>
      </trkpt>
      <trkpt lat="45.7132" lon="4.38366">
        <ele>580</ele>
        <time>2017-05-14T06:33:39Z</time>
      </trkpt>
      <trkpt lat="45.7132" lon="4.38357">
        <ele>580</ele>
        <time>2017-05-14T06:33:43Z</time>
      </trkpt>
      <trkpt lat="45.71319" lon="4.38343">
        <ele>581</ele>
        <time>2017-05-14T06:33:51Z</time>
      </trkpt>
      <trkpt lat="45.71318" lon="4.38328">
        <ele>581</ele>
        <time>2017-05-14T06:33:55Z</time>
      </trkpt>
      <trkpt lat="45.71317" lon="4.38313">
        <ele>581</ele>
        <time>2017-05-14T06:33:59Z</time>
      </trkpt>
      <trkpt lat="45.71316" lon="4.38301">
        <ele>581</ele>
        <time>2017-05-14T06:34:03Z</time>
      </trkpt>
      <trkpt lat="45.71314" lon="4.38288">
        <ele>580</ele>
        <time>2017-05-14T06:34:07Z</time>
      </trkpt>
      <trkpt lat="45.71311" lon="4.38273">
        <ele>579</ele>
        <time>2017-05-14T06:34:11Z</time>
      </trkpt>
      <trkpt lat="45.71304" lon="4.38246">
        <ele>576</ele>
        <time>2017-05-14T06:34:15Z</time>
      </trkpt>
      <trkpt lat="45.71306" lon="4.38233">
        <ele>575</ele>
        <time>2017-05-14T06:34:19Z</time>
      </trkpt>
      <trkpt lat="45.71309" lon="4.38203">
        <ele>572</ele>
        <time>2017-05-14T06:34:23Z</time>
      </trkpt>
      <trkpt lat="45.71306" lon="4.38124">
        <ele>568</ele>
        <time>2017-05-14T06:34:28Z</time>
      </trkpt>
      <trkpt lat="45.71307" lon="4.3808">
        <ele>558</ele>
        <time>2017-05-14T06:34:32Z</time>
      </trkpt>
      <trkpt lat="45.71297" lon="4.38049">
        <ele>555</ele>
        <time>2017-05-14T06:34:39Z</time>
      </trkpt>
      <trkpt lat="45.71292" lon="4.38031">
        <ele>553</ele>
        <time>2017-05-14T06:34:43Z</time>
      </trkpt>
      <trkpt lat="45.71292" lon="4.38017">
        <ele>553</ele>
        <time>2017-05-14T06:34:47Z</time>
      </trkpt>
      <trkpt lat="45.71297" lon="4.37991">
        <ele>553</ele>
        <time>2017-05-14T06:34:52Z</time>
      </trkpt>
      <trkpt lat="45.71299" lon="4.3798">
        <ele>553</ele>
        <time>2017-05-14T06:34:55Z</time>
      </trkpt>
      <trkpt lat="45.713" lon="4.37968">
        <ele>553</ele>
        <time>2017-05-14T06:35:03Z</time>
      </trkpt>
      <trkpt lat="45.713" lon="4.37946">
        <ele>554</ele>
        <time>2017-05-14T06:35:08Z</time>
      </trkpt>
      <trkpt lat="45.713" lon="4.3793">
        <ele>554</ele>
        <time>2017-05-14T06:35:15Z</time>
      </trkpt>
      <trkpt lat="45.71295" lon="4.37916">
        <ele>555</ele>
        <time>2017-05-14T06:35:19Z</time>
      </trkpt>
      <trkpt lat="45.7129" lon="4.379">
        <ele>555</ele>
        <time>2017-05-14T06:35:23Z</time>
      </trkpt>
      <trkpt lat="45.71286" lon="4.37884">
        <ele>556</ele>
        <time>2017-05-14T06:35:27Z</time>
      </trkpt>
      <trkpt lat="45.71284" lon="4.37869">
        <ele>556</ele>
        <time>2017-05-14T06:35:31Z</time>
      </trkpt>
      <trkpt lat="45.71284" lon="4.37853">
        <ele>556</ele>
        <time>2017-05-14T06:35:35Z</time>
      </trkpt>
      <trkpt lat="45.71286" lon="4.37837">
        <ele>556</ele>
        <time>2017-05-14T06:35:39Z</time>
      </trkpt>
      <trkpt lat="45.71287" lon="4.37817">
        <ele>556</ele>
        <time>2017-05-14T06:35:44Z</time>
      </trkpt>
      <trkpt lat="45.71286" lon="4.37807">
        <ele>556</ele>
        <time>2017-05-14T06:35:51Z</time>
      </trkpt>
      <trkpt lat="45.71287" lon="4.37795">
        <ele>556</ele>
        <time>2017-05-14T06:35:59Z</time>
      </trkpt>
      <trkpt lat="45.71292" lon="4.37777">
        <ele>556</ele>
        <time>2017-05-14T06:36:00Z</time>
      </trkpt>
      <trkpt lat="45.71291" lon="4.37763">
        <ele>557</ele>
        <time>2017-05-14T06:36:03Z</time>
      </trkpt>
      <trkpt lat="45.71294" lon="4.37756">
        <ele>556</ele>
        <time>2017-05-14T06:36:11Z</time>
      </trkpt>
      <trkpt lat="45.71299" lon="4.37745">
        <ele>556</ele>
        <time>2017-05-14T06:36:15Z</time>
      </trkpt>
      <trkpt lat="45.71302" lon="4.37724">
        <ele>555</ele>
        <time>2017-05-14T06:36:19Z</time>
      </trkpt>
      <trkpt lat="45.71301" lon="4.37694">
        <ele>553</ele>
        <time>2017-05-14T06:36:23Z</time>
      </trkpt>
      <trkpt lat="45.71308" lon="4.3766">
        <ele>552</ele>
        <time>2017-05-14T06:36:27Z</time>
      </trkpt>
      <trkpt lat="45.71311" lon="4.3758">
        <ele>549</ele>
        <time>2017-05-14T06:36:32Z</time>
      </trkpt>
      <trkpt lat="45.71293" lon="4.37542">
        <ele>543</ele>
        <time>2017-05-14T06:36:36Z</time>
      </trkpt>
      <trkpt lat="45.71271" lon="4.3751">
        <ele>538</ele>
        <time>2017-05-14T06:36:43Z</time>
      </trkpt>
      <trkpt lat="45.71266" lon="4.37478">
        <ele>535</ele>
        <time>2017-05-14T06:36:47Z</time>
      </trkpt>
      <trkpt lat="45.71261" lon="4.37447">
        <ele>531</ele>
        <time>2017-05-14T06:36:51Z</time>
      </trkpt>
      <trkpt lat="45.71261" lon="4.37443">
        <ele>531</ele>
        <time>2017-05-14T06:36:56Z</time>
      </trkpt>
      <trkpt lat="45.71264" lon="4.3744">
        <ele>531</ele>
        <time>2017-05-14T06:37:03Z</time>
      </trkpt>
      <trkpt lat="45.71266" lon="4.37433">
        <ele>531</ele>
        <time>2017-05-14T06:37:07Z</time>
      </trkpt>
      <trkpt lat="45.71266" lon="4.37421">
        <ele>531</ele>
        <time>2017-05-14T06:37:12Z</time>
      </trkpt>
      <trkpt lat="45.71271" lon="4.37408">
        <ele>530</ele>
        <time>2017-05-14T06:38:07Z</time>
      </trkpt>
      <trkpt lat="45.71277" lon="4.37401">
        <ele>531</ele>
        <time>2017-05-14T06:38:11Z</time>
      </trkpt>
      <trkpt lat="45.71281" lon="4.37394">
        <ele>531</ele>
        <time>2017-05-14T06:38:15Z</time>
      </trkpt>
      <trkpt lat="45.71282" lon="4.37383">
        <ele>532</ele>
        <time>2017-05-14T06:38:19Z</time>
      </trkpt>
      <trkpt lat="45.71282" lon="4.37366">
        <ele>532</ele>
        <time>2017-05-14T06:38:23Z</time>
      </trkpt>
      <trkpt lat="45.71277" lon="4.3735">
        <ele>532</ele>
        <time>2017-05-14T06:38:27Z</time>
      </trkpt>
      <trkpt lat="45.7127" lon="4.37336">
        <ele>533</ele>
        <time>2017-05-14T06:38:31Z</time>
      </trkpt>
      <trkpt lat="45.71265" lon="4.37323">
        <ele>533</ele>
        <time>2017-05-14T06:38:36Z</time>
      </trkpt>
      <trkpt lat="45.7126" lon="4.37308">
        <ele>534</ele>
        <time>2017-05-14T06:38:39Z</time>
      </trkpt>
      <trkpt lat="45.71255" lon="4.37293">
        <ele>534</ele>
        <time>2017-05-14T06:38:43Z</time>
      </trkpt>
      <trkpt lat="45.71248" lon="4.37277">
        <ele>535</ele>
        <time>2017-05-14T06:38:47Z</time>
      </trkpt>
      <trkpt lat="45.71243" lon="4.37266">
        <ele>537</ele>
        <time>2017-05-14T06:38:52Z</time>
      </trkpt>
      <trkpt lat="45.71236" lon="4.37258">
        <ele>537</ele>
        <time>2017-05-14T06:38:55Z</time>
      </trkpt>
      <trkpt lat="45.71235" lon="4.37251">
        <ele>537</ele>
        <time>2017-05-14T06:39:00Z</time>
      </trkpt>
      <trkpt lat="45.71231" lon="4.37242">
        <ele>538</ele>
        <time>2017-05-14T06:39:03Z</time>
      </trkpt>
      <trkpt lat="45.71227" lon="4.37237">
        <ele>539</ele>
        <time>2017-05-14T06:39:07Z</time>
      </trkpt>
      <trkpt lat="45.71224" lon="4.3723">
        <ele>540</ele>
        <time>2017-05-14T06:39:11Z</time>
      </trkpt>
      <trkpt lat="45.71216" lon="4.37223">
        <ele>542</ele>
        <time>2017-05-14T06:39:16Z</time>
      </trkpt>
      <trkpt lat="45.71209" lon="4.37218">
        <ele>543</ele>
        <time>2017-05-14T06:39:19Z</time>
      </trkpt>
      <trkpt lat="45.712" lon="4.37213">
        <ele>543</ele>
        <time>2017-05-14T06:39:23Z</time>
      </trkpt>
      <trkpt lat="45.7119" lon="4.37207">
        <ele>544</ele>
        <time>2017-05-14T06:39:27Z</time>
      </trkpt>
      <trkpt lat="45.7118" lon="4.37199">
        <ele>545</ele>
        <time>2017-05-14T06:39:31Z</time>
      </trkpt>
      <trkpt lat="45.7117" lon="4.3719">
        <ele>546</ele>
        <time>2017-05-14T06:39:35Z</time>
      </trkpt>
      <trkpt lat="45.71163" lon="4.3718">
        <ele>547</ele>
        <time>2017-05-14T06:39:39Z</time>
      </trkpt>
      <trkpt lat="45.71158" lon="4.37172">
        <ele>549</ele>
        <time>2017-05-14T06:39:43Z</time>
      </trkpt>
      <trkpt lat="45.71152" lon="4.37162">
        <ele>549</ele>
        <time>2017-05-14T06:39:47Z</time>
      </trkpt>
      <trkpt lat="45.71145" lon="4.3715">
        <ele>549</ele>
        <time>2017-05-14T06:39:52Z</time>
      </trkpt>
      <trkpt lat="45.71143" lon="4.37139">
        <ele>550</ele>
        <time>2017-05-14T06:39:55Z</time>
      </trkpt>
      <trkpt lat="45.71142" lon="4.37127">
        <ele>551</ele>
        <time>2017-05-14T06:39:59Z</time>
      </trkpt>
      <trkpt lat="45.7114" lon="4.37116">
        <ele>551</ele>
        <time>2017-05-14T06:40:03Z</time>
      </trkpt>
      <trkpt lat="45.71137" lon="4.37104">
        <ele>552</ele>
        <time>2017-05-14T06:40:07Z</time>
      </trkpt>
      <trkpt lat="45.71131" lon="4.37094">
        <ele>554</ele>
        <time>2017-05-14T06:40:11Z</time>
      </trkpt>
      <trkpt lat="45.71125" lon="4.37084">
        <ele>554</ele>
        <time>2017-05-14T06:40:15Z</time>
      </trkpt>
      <trkpt lat="45.71119" lon="4.37074">
        <ele>556</ele>
        <time>2017-05-14T06:40:19Z</time>
      </trkpt>
      <trkpt lat="45.71115" lon="4.37064">
        <ele>556</ele>
        <time>2017-05-14T06:40:23Z</time>
      </trkpt>
      <trkpt lat="45.71107" lon="4.37053">
        <ele>557</ele>
        <time>2017-05-14T06:40:30Z</time>
      </trkpt>
      <trkpt lat="45.711" lon="4.37041">
        <ele>557</ele>
        <time>2017-05-14T06:40:31Z</time>
      </trkpt>
      <trkpt lat="45.71088" lon="4.37029">
        <ele>557</ele>
        <time>2017-05-14T06:40:35Z</time>
      </trkpt>
      <trkpt lat="45.71075" lon="4.37013">
        <ele>557</ele>
        <time>2017-05-14T06:40:39Z</time>
      </trkpt>
      <trkpt lat="45.7106" lon="4.36997">
        <ele>557</ele>
        <time>2017-05-14T06:40:43Z</time>
      </trkpt>
      <trkpt lat="45.71039" lon="4.36984">
        <ele>556</ele>
        <time>2017-05-14T06:40:47Z</time>
      </trkpt>
      <trkpt lat="45.71016" lon="4.36989">
        <ele>555</ele>
        <time>2017-05-14T06:40:51Z</time>
      </trkpt>
      <trkpt lat="45.70994" lon="4.36993">
        <ele>554</ele>
        <time>2017-05-14T06:40:56Z</time>
      </trkpt>
      <trkpt lat="45.70973" lon="4.36982">
        <ele>554</ele>
        <time>2017-05-14T06:40:59Z</time>
      </trkpt>
      <trkpt lat="45.70969" lon="4.36975">
        <ele>553</ele>
        <time>2017-05-14T06:41:03Z</time>
      </trkpt>
      <trkpt lat="45.70966" lon="4.36971">
        <ele>553</ele>
        <time>2017-05-14T06:41:08Z</time>
      </trkpt>
      <trkpt lat="45.7096" lon="4.36962">
        <ele>553</ele>
        <time>2017-05-14T06:41:11Z</time>
      </trkpt>
      <trkpt lat="45.70953" lon="4.36947">
        <ele>554</ele>
        <time>2017-05-14T06:41:15Z</time>
      </trkpt>
      <trkpt lat="45.70944" lon="4.36932">
        <ele>554</ele>
        <time>2017-05-14T06:41:20Z</time>
      </trkpt>
      <trkpt lat="45.70934" lon="4.36919">
        <ele>554</ele>
        <time>2017-05-14T06:41:23Z</time>
      </trkpt>
      <trkpt lat="45.70924" lon="4.36905">
        <ele>554</ele>
        <time>2017-05-14T06:41:27Z</time>
      </trkpt>
      <trkpt lat="45.70915" lon="4.36892">
        <ele>554</ele>
        <time>2017-05-14T06:41:31Z</time>
      </trkpt>
      <trkpt lat="45.70904" lon="4.36879">
        <ele>554</ele>
        <time>2017-05-14T06:41:35Z</time>
      </trkpt>
      <trkpt lat="45.70894" lon="4.36869">
        <ele>555</ele>
        <time>2017-05-14T06:41:39Z</time>
      </trkpt>
      <trkpt lat="45.70885" lon="4.3686">
        <ele>555</ele>
        <time>2017-05-14T06:41:43Z</time>
      </trkpt>
      <trkpt lat="45.70875" lon="4.36853">
        <ele>557</ele>
        <time>2017-05-14T06:41:52Z</time>
      </trkpt>
      <trkpt lat="45.70866" lon="4.36847">
        <ele>557</ele>
        <time>2017-05-14T06:41:53Z</time>
      </trkpt>
      <trkpt lat="45.70856" lon="4.36839">
        <ele>557</ele>
        <time>2017-05-14T06:41:56Z</time>
      </trkpt>
      <trkpt lat="45.70847" lon="4.36829">
        <ele>557</ele>
        <time>2017-05-14T06:41:59Z</time>
      </trkpt>
      <trkpt lat="45.70843" lon="4.36818">
        <ele>558</ele>
        <time>2017-05-14T06:42:03Z</time>
      </trkpt>
      <trkpt lat="45.7084" lon="4.36806">
        <ele>559</ele>
        <time>2017-05-14T06:42:07Z</time>
      </trkpt>
      <trkpt lat="45.70835" lon="4.36793">
        <ele>559</ele>
        <time>2017-05-14T06:42:11Z</time>
      </trkpt>
      <trkpt lat="45.70828" lon="4.36779">
        <ele>560</ele>
        <time>2017-05-14T06:42:15Z</time>
      </trkpt>
      <trkpt lat="45.70823" lon="4.36766">
        <ele>561</ele>
        <time>2017-05-14T06:42:19Z</time>
      </trkpt>
      <trkpt lat="45.70817" lon="4.36753">
        <ele>561</ele>
        <time>2017-05-14T06:42:23Z</time>
      </trkpt>
      <trkpt lat="45.70812" lon="4.36739">
        <ele>562</ele>
        <time>2017-05-14T06:42:27Z</time>
      </trkpt>
      <trkpt lat="45.7081" lon="4.36725">
        <ele>562</ele>
        <time>2017-05-14T06:42:31Z</time>
      </trkpt>
      <trkpt lat="45.70807" lon="4.36712">
        <ele>563</ele>
        <time>2017-05-14T06:42:35Z</time>
      </trkpt>
      <trkpt lat="45.70802" lon="4.36698">
        <ele>564</ele>
        <time>2017-05-14T06:42:39Z</time>
      </trkpt>
      <trkpt lat="45.70798" lon="4.36685">
        <ele>565</ele>
        <time>2017-05-14T06:42:44Z</time>
      </trkpt>
      <trkpt lat="45.70793" lon="4.36671">
        <ele>566</ele>
        <time>2017-05-14T06:42:47Z</time>
      </trkpt>
      <trkpt lat="45.70788" lon="4.36657">
        <ele>567</ele>
        <time>2017-05-14T06:42:51Z</time>
      </trkpt>
      <trkpt lat="45.70782" lon="4.36644">
        <ele>567</ele>
        <time>2017-05-14T06:42:55Z</time>
      </trkpt>
      <trkpt lat="45.70776" lon="4.3663">
        <ele>568</ele>
        <time>2017-05-14T06:43:00Z</time>
      </trkpt>
      <trkpt lat="45.70772" lon="4.36617">
        <ele>568</ele>
        <time>2017-05-14T06:43:03Z</time>
      </trkpt>
      <trkpt lat="45.70767" lon="4.36603">
        <ele>569</ele>
        <time>2017-05-14T06:43:08Z</time>
      </trkpt>
      <trkpt lat="45.70763" lon="4.3659">
        <ele>569</ele>
        <time>2017-05-14T06:43:11Z</time>
      </trkpt>
      <trkpt lat="45.70758" lon="4.36576">
        <ele>570</ele>
        <time>2017-05-14T06:43:15Z</time>
      </trkpt>
      <trkpt lat="45.70753" lon="4.36563">
        <ele>570</ele>
        <time>2017-05-14T06:43:19Z</time>
      </trkpt>
      <trkpt lat="45.70747" lon="4.36551">
        <ele>570</ele>
        <time>2017-05-14T06:43:23Z</time>
      </trkpt>
      <trkpt lat="45.70741" lon="4.36541">
        <ele>572</ele>
        <time>2017-05-14T06:43:27Z</time>
      </trkpt>
      <trkpt lat="45.70733" lon="4.36534">
        <ele>572</ele>
        <time>2017-05-14T06:43:31Z</time>
      </trkpt>
      <trkpt lat="45.70723" lon="4.3653">
        <ele>573</ele>
        <time>2017-05-14T06:43:35Z</time>
      </trkpt>
      <trkpt lat="45.70713" lon="4.36527">
        <ele>573</ele>
        <time>2017-05-14T06:43:39Z</time>
      </trkpt>
      <trkpt lat="45.70702" lon="4.36524">
        <ele>573</ele>
        <time>2017-05-14T06:43:43Z</time>
      </trkpt>
      <trkpt lat="45.70691" lon="4.36521">
        <ele>574</ele>
        <time>2017-05-14T06:43:47Z</time>
      </trkpt>
      <trkpt lat="45.7068" lon="4.36518">
        <ele>574</ele>
        <time>2017-05-14T06:43:51Z</time>
      </trkpt>
      <trkpt lat="45.70672" lon="4.36516">
        <ele>575</ele>
        <time>2017-05-14T06:43:55Z</time>
      </trkpt>
      <trkpt lat="45.70664" lon="4.36513">
        <ele>576</ele>
        <time>2017-05-14T06:44:00Z</time>
      </trkpt>
      <trkpt lat="45.70658" lon="4.3651">
        <ele>576</ele>
        <time>2017-05-14T06:44:03Z</time>
      </trkpt>
      <trkpt lat="45.70651" lon="4.36501">
        <ele>577</ele>
        <time>2017-05-14T06:44:07Z</time>
      </trkpt>
      <trkpt lat="45.70646" lon="4.36491">
        <ele>578</ele>
        <time>2017-05-14T06:44:11Z</time>
      </trkpt>
      <trkpt lat="45.70641" lon="4.36483">
        <ele>579</ele>
        <time>2017-05-14T06:44:15Z</time>
      </trkpt>
      <trkpt lat="45.7064" lon="4.36474">
        <ele>580</ele>
        <time>2017-05-14T06:44:19Z</time>
      </trkpt>
      <trkpt lat="45.70637" lon="4.36465">
        <ele>581</ele>
        <time>2017-05-14T06:44:23Z</time>
      </trkpt>
      <trkpt lat="45.70632" lon="4.36454">
        <ele>582</ele>
        <time>2017-05-14T06:44:27Z</time>
      </trkpt>
      <trkpt lat="45.70624" lon="4.36443">
        <ele>583</ele>
        <time>2017-05-14T06:44:31Z</time>
      </trkpt>
      <trkpt lat="45.70616" lon="4.36432">
        <ele>584</ele>
        <time>2017-05-14T06:44:35Z</time>
      </trkpt>
      <trkpt lat="45.70608" lon="4.3642">
        <ele>584</ele>
        <time>2017-05-14T06:44:39Z</time>
      </trkpt>
      <trkpt lat="45.70601" lon="4.36408">
        <ele>585</ele>
        <time>2017-05-14T06:44:43Z</time>
      </trkpt>
      <trkpt lat="45.70593" lon="4.36397">
        <ele>586</ele>
        <time>2017-05-14T06:44:48Z</time>
      </trkpt>
      <trkpt lat="45.70585" lon="4.36385">
        <ele>586</ele>
        <time>2017-05-14T06:44:51Z</time>
      </trkpt>
      <trkpt lat="45.70576" lon="4.36374">
        <ele>587</ele>
        <time>2017-05-14T06:44:55Z</time>
      </trkpt>
      <trkpt lat="45.70567" lon="4.36363">
        <ele>587</ele>
        <time>2017-05-14T06:44:59Z</time>
      </trkpt>
      <trkpt lat="45.70559" lon="4.36351">
        <ele>588</ele>
        <time>2017-05-14T06:45:03Z</time>
      </trkpt>
      <trkpt lat="45.7055" lon="4.36337">
        <ele>588</ele>
        <time>2017-05-14T06:45:07Z</time>
      </trkpt>
      <trkpt lat="45.70542" lon="4.36321">
        <ele>588</ele>
        <time>2017-05-14T06:45:12Z</time>
      </trkpt>
      <trkpt lat="45.70536" lon="4.36304">
        <ele>589</ele>
        <time>2017-05-14T06:45:15Z</time>
      </trkpt>
      <trkpt lat="45.70533" lon="4.36286">
        <ele>589</ele>
        <time>2017-05-14T06:45:19Z</time>
      </trkpt>
      <trkpt lat="45.70532" lon="4.36269">
        <ele>590</ele>
        <time>2017-05-14T06:45:23Z</time>
      </trkpt>
      <trkpt lat="45.70532" lon="4.36253">
        <ele>592</ele>
        <time>2017-05-14T06:45:28Z</time>
      </trkpt>
      <trkpt lat="45.70532" lon="4.36237">
        <ele>592</ele>
        <time>2017-05-14T06:45:31Z</time>
      </trkpt>
      <trkpt lat="45.70531" lon="4.36222">
        <ele>592</ele>
        <time>2017-05-14T06:45:36Z</time>
      </trkpt>
      <trkpt lat="45.7053" lon="4.36207">
        <ele>593</ele>
        <time>2017-05-14T06:45:39Z</time>
      </trkpt>
      <trkpt lat="45.70529" lon="4.36192">
        <ele>594</ele>
        <time>2017-05-14T06:45:43Z</time>
      </trkpt>
      <trkpt lat="45.70529" lon="4.36177">
        <ele>595</ele>
        <time>2017-05-14T06:45:47Z</time>
      </trkpt>
      <trkpt lat="45.7053" lon="4.36162">
        <ele>596</ele>
        <time>2017-05-14T06:45:51Z</time>
      </trkpt>
      <trkpt lat="45.7053" lon="4.36146">
        <ele>597</ele>
        <time>2017-05-14T06:45:55Z</time>
      </trkpt>
      <trkpt lat="45.70529" lon="4.36129">
        <ele>597</ele>
        <time>2017-05-14T06:45:59Z</time>
      </trkpt>
      <trkpt lat="45.70528" lon="4.36111">
        <ele>598</ele>
        <time>2017-05-14T06:46:03Z</time>
      </trkpt>
      <trkpt lat="45.70526" lon="4.36093">
        <ele>598</ele>
        <time>2017-05-14T06:46:07Z</time>
      </trkpt>
      <trkpt lat="45.70521" lon="4.36076">
        <ele>599</ele>
        <time>2017-05-14T06:46:11Z</time>
      </trkpt>
      <trkpt lat="45.70515" lon="4.36058">
        <ele>599</ele>
        <time>2017-05-14T06:46:15Z</time>
      </trkpt>
      <trkpt lat="45.70507" lon="4.36037">
        <ele>599</ele>
        <time>2017-05-14T06:46:19Z</time>
      </trkpt>
      <trkpt lat="45.705" lon="4.36011">
        <ele>599</ele>
        <time>2017-05-14T06:46:23Z</time>
      </trkpt>
      <trkpt lat="45.7049" lon="4.35983">
        <ele>599</ele>
        <time>2017-05-14T06:46:27Z</time>
      </trkpt>
      <trkpt lat="45.70477" lon="4.35952">
        <ele>598</ele>
        <time>2017-05-14T06:46:31Z</time>
      </trkpt>
      <trkpt lat="45.7046" lon="4.3592">
        <ele>597</ele>
        <time>2017-05-14T06:46:35Z</time>
      </trkpt>
      <trkpt lat="45.70439" lon="4.35892">
        <ele>595</ele>
        <time>2017-05-14T06:46:39Z</time>
      </trkpt>
      <trkpt lat="45.70413" lon="4.35874">
        <ele>594</ele>
        <time>2017-05-14T06:46:43Z</time>
      </trkpt>
      <trkpt lat="45.70384" lon="4.35861">
        <ele>593</ele>
        <time>2017-05-14T06:46:47Z</time>
      </trkpt>
      <trkpt lat="45.70355" lon="4.35845">
        <ele>592</ele>
        <time>2017-05-14T06:46:51Z</time>
      </trkpt>
      <trkpt lat="45.70327" lon="4.35833">
        <ele>592</ele>
        <time>2017-05-14T06:46:55Z</time>
      </trkpt>
      <trkpt lat="45.70301" lon="4.35825">
        <ele>592</ele>
        <time>2017-05-14T06:46:59Z</time>
      </trkpt>
      <trkpt lat="45.70276" lon="4.35823">
        <ele>592</ele>
        <time>2017-05-14T06:47:04Z</time>
      </trkpt>
      <trkpt lat="45.70253" lon="4.35823">
        <ele>592</ele>
        <time>2017-05-14T06:47:09Z</time>
      </trkpt>
      <trkpt lat="45.7023" lon="4.35828">
        <ele>592</ele>
        <time>2017-05-14T06:47:11Z</time>
      </trkpt>
      <trkpt lat="45.70206" lon="4.35835">
        <ele>592</ele>
        <time>2017-05-14T06:47:15Z</time>
      </trkpt>
      <trkpt lat="45.7018" lon="4.35838">
        <ele>591</ele>
        <time>2017-05-14T06:47:20Z</time>
      </trkpt>
      <trkpt lat="45.70153" lon="4.35839">
        <ele>591</ele>
        <time>2017-05-14T06:47:23Z</time>
      </trkpt>
      <trkpt lat="45.70127" lon="4.3584">
        <ele>590</ele>
        <time>2017-05-14T06:47:27Z</time>
      </trkpt>
      <trkpt lat="45.70098" lon="4.35842">
        <ele>589</ele>
        <time>2017-05-14T06:47:31Z</time>
      </trkpt>
      <trkpt lat="45.70067" lon="4.35843">
        <ele>588</ele>
        <time>2017-05-14T06:47:35Z</time>
      </trkpt>
      <trkpt lat="45.70035" lon="4.35843">
        <ele>587</ele>
        <time>2017-05-14T06:47:39Z</time>
      </trkpt>
      <trkpt lat="45.70005" lon="4.35845">
        <ele>585</ele>
        <time>2017-05-14T06:47:44Z</time>
      </trkpt>
      <trkpt lat="45.69976" lon="4.35844">
        <ele>584</ele>
        <time>2017-05-14T06:47:47Z</time>
      </trkpt>
      <trkpt lat="45.69946" lon="4.35842">
        <ele>584</ele>
        <time>2017-05-14T06:47:51Z</time>
      </trkpt>
      <trkpt lat="45.69918" lon="4.35841">
        <ele>583</ele>
        <time>2017-05-14T06:47:55Z</time>
      </trkpt>
      <trkpt lat="45.69893" lon="4.35842">
        <ele>582</ele>
        <time>2017-05-14T06:47:59Z</time>
      </trkpt>
      <trkpt lat="45.69873" lon="4.35843">
        <ele>582</ele>
        <time>2017-05-14T06:48:03Z</time>
      </trkpt>
      <trkpt lat="45.69856" lon="4.35844">
        <ele>582</ele>
        <time>2017-05-14T06:48:08Z</time>
      </trkpt>
      <trkpt lat="45.69839" lon="4.35846">
        <ele>583</ele>
        <time>2017-05-14T06:48:11Z</time>
      </trkpt>
      <trkpt lat="45.69824" lon="4.35848">
        <ele>583</ele>
        <time>2017-05-14T06:48:15Z</time>
      </trkpt>
      <trkpt lat="45.6981" lon="4.3585">
        <ele>584</ele>
        <time>2017-05-14T06:48:19Z</time>
      </trkpt>
      <trkpt lat="45.69794" lon="4.35851">
        <ele>584</ele>
        <time>2017-05-14T06:48:24Z</time>
      </trkpt>
      <trkpt lat="45.69776" lon="4.35852">
        <ele>584</ele>
        <time>2017-05-14T06:48:27Z</time>
      </trkpt>
      <trkpt lat="45.69757" lon="4.35848">
        <ele>583</ele>
        <time>2017-05-14T06:48:31Z</time>
      </trkpt>
      <trkpt lat="45.6974" lon="4.35839">
        <ele>583</ele>
        <time>2017-05-14T06:48:35Z</time>
      </trkpt>
      <trkpt lat="45.69719" lon="4.35825">
        <ele>582</ele>
        <time>2017-05-14T06:48:39Z</time>
      </trkpt>
      <trkpt lat="45.69697" lon="4.3581">
        <ele>581</ele>
        <time>2017-05-14T06:48:43Z</time>
      </trkpt>
      <trkpt lat="45.69674" lon="4.35794">
        <ele>580</ele>
        <time>2017-05-14T06:48:47Z</time>
      </trkpt>
      <trkpt lat="45.69648" lon="4.35778">
        <ele>578</ele>
        <time>2017-05-14T06:48:51Z</time>
      </trkpt>
      <trkpt lat="45.69618" lon="4.35755">
        <ele>576</ele>
        <time>2017-05-14T06:48:55Z</time>
      </trkpt>
      <trkpt lat="45.69593" lon="4.35723">
        <ele>573</ele>
        <time>2017-05-14T06:48:59Z</time>
      </trkpt>
      <trkpt lat="45.69565" lon="4.35697">
        <ele>569</ele>
        <time>2017-05-14T06:49:03Z</time>
      </trkpt>
      <trkpt lat="45.69547" lon="4.35665">
        <ele>563</ele>
        <time>2017-05-14T06:49:07Z</time>
      </trkpt>
      <trkpt lat="45.69546" lon="4.35632">
        <ele>559</ele>
        <time>2017-05-14T06:49:11Z</time>
      </trkpt>
      <trkpt lat="45.69529" lon="4.3561">
        <ele>557</ele>
        <time>2017-05-14T06:49:15Z</time>
      </trkpt>
      <trkpt lat="45.69504" lon="4.35598">
        <ele>555</ele>
        <time>2017-05-14T06:49:19Z</time>
      </trkpt>
      <trkpt lat="45.69477" lon="4.35585">
        <ele>552</ele>
        <time>2017-05-14T06:49:24Z</time>
      </trkpt>
      <trkpt lat="45.69446" lon="4.3557">
        <ele>550</ele>
        <time>2017-05-14T06:49:27Z</time>
      </trkpt>
      <trkpt lat="45.69415" lon="4.35555">
        <ele>547</ele>
        <time>2017-05-14T06:49:31Z</time>
      </trkpt>
      <trkpt lat="45.69392" lon="4.35526">
        <ele>543</ele>
        <time>2017-05-14T06:49:36Z</time>
      </trkpt>
      <trkpt lat="45.69368" lon="4.355">
        <ele>541</ele>
        <time>2017-05-14T06:49:39Z</time>
      </trkpt>
      <trkpt lat="45.69342" lon="4.35485">
        <ele>535</ele>
        <time>2017-05-14T06:49:43Z</time>
      </trkpt>
      <trkpt lat="45.69326" lon="4.35468">
        <ele>530</ele>
        <time>2017-05-14T06:49:47Z</time>
      </trkpt>
      <trkpt lat="45.69307" lon="4.35477">
        <ele>526</ele>
        <time>2017-05-14T06:49:51Z</time>
      </trkpt>
      <trkpt lat="45.69286" lon="4.35502">
        <ele>523</ele>
        <time>2017-05-14T06:49:55Z</time>
      </trkpt>
      <trkpt lat="45.69278" lon="4.35538">
        <ele>519</ele>
        <time>2017-05-14T06:49:59Z</time>
      </trkpt>
      <trkpt lat="45.69271" lon="4.35572">
        <ele>515</ele>
        <time>2017-05-14T06:50:03Z</time>
      </trkpt>
      <trkpt lat="45.69264" lon="4.35605">
        <ele>511</ele>
        <time>2017-05-14T06:50:07Z</time>
      </trkpt>
      <trkpt lat="45.69257" lon="4.35626">
        <ele>507</ele>
        <time>2017-05-14T06:50:12Z</time>
      </trkpt>
      <trkpt lat="45.69251" lon="4.35633">
        <ele>504</ele>
        <time>2017-05-14T06:50:15Z</time>
      </trkpt>
      <trkpt lat="45.69245" lon="4.35638">
        <ele>503</ele>
        <time>2017-05-14T06:50:19Z</time>
      </trkpt>
      <trkpt lat="45.69242" lon="4.35641">
        <ele>502</ele>
        <time>2017-05-14T06:50:23Z</time>
      </trkpt>
      <trkpt lat="45.69245" lon="4.35646">
        <ele>500</ele>
        <time>2017-05-14T07:05:31Z</time>
      </trkpt>
      <trkpt lat="45.69246" lon="4.35641">
        <ele>502</ele>
        <time>2017-05-14T07:05:35Z</time>
      </trkpt>
      <trkpt lat="45.69245" lon="4.35634">
        <ele>502</ele>
        <time>2017-05-14T07:05:39Z</time>
      </trkpt>
      <trkpt lat="45.69241" lon="4.35626">
        <ele>502</ele>
        <time>2017-05-14T07:05:43Z</time>
      </trkpt>
      <trkpt lat="45.69236" lon="4.35616">
        <ele>502</ele>
        <time>2017-05-14T07:05:47Z</time>
      </trkpt>
      <trkpt lat="45.69233" lon="4.356">
        <ele>502</ele>
        <time>2017-05-14T07:05:51Z</time>
      </trkpt>
      <trkpt lat="45.69235" lon="4.35583">
        <ele>501</ele>
        <time>2017-05-14T07:05:55Z</time>
      </trkpt>
      <trkpt lat="45.69235" lon="4.35563">
        <ele>501</ele>
        <time>2017-05-14T07:05:59Z</time>
      </trkpt>
      <trkpt lat="45.69227" lon="4.35547">
        <ele>501</ele>
        <time>2017-05-14T07:06:03Z</time>
      </trkpt>
      <trkpt lat="45.69226" lon="4.35522">
        <ele>501</ele>
        <time>2017-05-14T07:06:07Z</time>
      </trkpt>
      <trkpt lat="45.6923" lon="4.35497">
        <ele>500</ele>
        <time>2017-05-14T07:06:11Z</time>
      </trkpt>
      <trkpt lat="45.69232" lon="4.3548">
        <ele>501</ele>
        <time>2017-05-14T07:06:16Z</time>
      </trkpt>
      <trkpt lat="45.69231" lon="4.35456">
        <ele>501</ele>
        <time>2017-05-14T07:06:21Z</time>
      </trkpt>
      <trkpt lat="45.69237" lon="4.35441">
        <ele>500</ele>
        <time>2017-05-14T07:06:23Z</time>
      </trkpt>
      <trkpt lat="45.69245" lon="4.35431">
        <ele>500</ele>
        <time>2017-05-14T07:06:27Z</time>
      </trkpt>
      <trkpt lat="45.69247" lon="4.35425">
        <ele>500</ele>
        <time>2017-05-14T07:06:32Z</time>
      </trkpt>
      <trkpt lat="45.69259" lon="4.3541">
        <ele>499</ele>
        <time>2017-05-14T07:06:35Z</time>
      </trkpt>
      <trkpt lat="45.69274" lon="4.35379">
        <ele>499</ele>
        <time>2017-05-14T07:06:40Z</time>
      </trkpt>
      <trkpt lat="45.69283" lon="4.35346">
        <ele>498</ele>
        <time>2017-05-14T07:06:43Z</time>
      </trkpt>
      <trkpt lat="45.69292" lon="4.35312">
        <ele>497</ele>
        <time>2017-05-14T07:06:47Z</time>
      </trkpt>
      <trkpt lat="45.693" lon="4.35278">
        <ele>498</ele>
        <time>2017-05-14T07:06:51Z</time>
      </trkpt>
      <trkpt lat="45.69306" lon="4.35247">
        <ele>498</ele>
        <time>2017-05-14T07:06:56Z</time>
      </trkpt>
      <trkpt lat="45.69312" lon="4.35219">
        <ele>498</ele>
        <time>2017-05-14T07:06:59Z</time>
      </trkpt>
      <trkpt lat="45.69315" lon="4.35194">
        <ele>498</ele>
        <time>2017-05-14T07:07:03Z</time>
      </trkpt>
      <trkpt lat="45.69317" lon="4.35172">
        <ele>498</ele>
        <time>2017-05-14T07:07:07Z</time>
      </trkpt>
      <trkpt lat="45.69318" lon="4.3515">
        <ele>498</ele>
        <time>2017-05-14T07:07:11Z</time>
      </trkpt>
      <trkpt lat="45.69316" lon="4.35125">
        <ele>498</ele>
        <time>2017-05-14T07:07:15Z</time>
      </trkpt>
      <trkpt lat="45.69316" lon="4.35089">
        <ele>498</ele>
        <time>2017-05-14T07:07:20Z</time>
      </trkpt>
      <trkpt lat="45.69317" lon="4.35063">
        <ele>498</ele>
        <time>2017-05-14T07:07:23Z</time>
      </trkpt>
      <trkpt lat="45.69312" lon="4.35043">
        <ele>499</ele>
        <time>2017-05-14T07:07:27Z</time>
      </trkpt>
      <trkpt lat="45.69309" lon="4.35022">
        <ele>500</ele>
        <time>2017-05-14T07:07:31Z</time>
      </trkpt>
      <trkpt lat="45.69306" lon="4.34997">
        <ele>500</ele>
        <time>2017-05-14T07:07:36Z</time>
      </trkpt>
      <trkpt lat="45.69306" lon="4.34972">
        <ele>500</ele>
        <time>2017-05-14T07:07:39Z</time>
      </trkpt>
      <trkpt lat="45.69305" lon="4.34942">
        <ele>500</ele>
        <time>2017-05-14T07:07:43Z</time>
      </trkpt>
      <trkpt lat="45.69305" lon="4.34907">
        <ele>499</ele>
        <time>2017-05-14T07:07:47Z</time>
      </trkpt>
      <trkpt lat="45.69304" lon="4.3487">
        <ele>498</ele>
        <time>2017-05-14T07:07:51Z</time>
      </trkpt>
      <trkpt lat="45.69304" lon="4.34827">
        <ele>496</ele>
        <time>2017-05-14T07:07:55Z</time>
      </trkpt>
      <trkpt lat="45.69303" lon="4.34786">
        <ele>495</ele>
        <time>2017-05-14T07:07:59Z</time>
      </trkpt>
      <trkpt lat="45.693" lon="4.34757">
        <ele>494</ele>
        <time>2017-05-14T07:08:03Z</time>
      </trkpt>
      <trkpt lat="45.69297" lon="4.34739">
        <ele>495</ele>
        <time>2017-05-14T07:08:07Z</time>
      </trkpt>
      <trkpt lat="45.69291" lon="4.34725">
        <ele>496</ele>
        <time>2017-05-14T07:08:13Z</time>
      </trkpt>
      <trkpt lat="45.69269" lon="4.3472">
        <ele>497</ele>
        <time>2017-05-14T07:08:15Z</time>
      </trkpt>
      <trkpt lat="45.69248" lon="4.3474">
        <ele>493</ele>
        <time>2017-05-14T07:08:19Z</time>
      </trkpt>
      <trkpt lat="45.69221" lon="4.34753">
        <ele>490</ele>
        <time>2017-05-14T07:08:23Z</time>
      </trkpt>
      <trkpt lat="45.69198" lon="4.34768">
        <ele>487</ele>
        <time>2017-05-14T07:08:27Z</time>
      </trkpt>
      <trkpt lat="45.69182" lon="4.34785">
        <ele>486</ele>
        <time>2017-05-14T07:08:31Z</time>
      </trkpt>
      <trkpt lat="45.69176" lon="4.3479">
        <ele>485</ele>
        <time>2017-05-14T07:08:36Z</time>
      </trkpt>
      <trkpt lat="45.69161" lon="4.34796">
        <ele>487</ele>
        <time>2017-05-14T07:09:11Z</time>
      </trkpt>
      <trkpt lat="45.6916" lon="4.34801">
        <ele>488</ele>
        <time>2017-05-14T07:09:15Z</time>
      </trkpt>
      <trkpt lat="45.69157" lon="4.34806">
        <ele>488</ele>
        <time>2017-05-14T07:09:19Z</time>
      </trkpt>
      <trkpt lat="45.69154" lon="4.34817">
        <ele>489</ele>
        <time>2017-05-14T07:09:24Z</time>
      </trkpt>
      <trkpt lat="45.69154" lon="4.34829">
        <ele>491</ele>
        <time>2017-05-14T07:09:31Z</time>
      </trkpt>
      <trkpt lat="45.69155" lon="4.34836">
        <ele>492</ele>
        <time>2017-05-14T07:09:36Z</time>
      </trkpt>
      <trkpt lat="45.69153" lon="4.34842">
        <ele>495</ele>
        <time>2017-05-14T07:09:43Z</time>
      </trkpt>
      <trkpt lat="45.69154" lon="4.34848">
        <ele>496</ele>
        <time>2017-05-14T07:09:47Z</time>
      </trkpt>
      <trkpt lat="45.69154" lon="4.34878">
        <ele>500</ele>
        <time>2017-05-14T07:10:03Z</time>
      </trkpt>
      <trkpt lat="45.69156" lon="4.34919">
        <ele>505</ele>
        <time>2017-05-14T07:10:23Z</time>
      </trkpt>
      <trkpt lat="45.69156" lon="4.34929">
        <ele>505</ele>
        <time>2017-05-14T07:10:27Z</time>
      </trkpt>
      <trkpt lat="45.69155" lon="4.34938">
        <ele>506</ele>
        <time>2017-05-14T07:10:31Z</time>
      </trkpt>
      <trkpt lat="45.69154" lon="4.34944">
        <ele>507</ele>
        <time>2017-05-14T07:10:35Z</time>
      </trkpt>
      <trkpt lat="45.69154" lon="4.34974">
        <ele>509</ele>
        <time>2017-05-14T07:10:47Z</time>
      </trkpt>
      <trkpt lat="45.69152" lon="4.34983">
        <ele>510</ele>
        <time>2017-05-14T07:10:51Z</time>
      </trkpt>
      <trkpt lat="45.69151" lon="4.34989">
        <ele>511</ele>
        <time>2017-05-14T07:10:56Z</time>
      </trkpt>
      <trkpt lat="45.6915" lon="4.34996">
        <ele>512</ele>
        <time>2017-05-14T07:10:59Z</time>
      </trkpt>
      <trkpt lat="45.6915" lon="4.35004">
        <ele>513</ele>
        <time>2017-05-14T07:11:03Z</time>
      </trkpt>
      <trkpt lat="45.69148" lon="4.35015">
        <ele>514</ele>
        <time>2017-05-14T07:11:07Z</time>
      </trkpt>
      <trkpt lat="45.69146" lon="4.35023">
        <ele>515</ele>
        <time>2017-05-14T07:11:11Z</time>
      </trkpt>
      <trkpt lat="45.69143" lon="4.35028">
        <ele>516</ele>
        <time>2017-05-14T07:11:15Z</time>
      </trkpt>
      <trkpt lat="45.69142" lon="4.35037">
        <ele>517</ele>
        <time>2017-05-14T07:11:19Z</time>
      </trkpt>
      <trkpt lat="45.6914" lon="4.35044">
        <ele>517</ele>
        <time>2017-05-14T07:11:23Z</time>
      </trkpt>
      <trkpt lat="45.69138" lon="4.35054">
        <ele>518</ele>
        <time>2017-05-14T07:11:28Z</time>
      </trkpt>
      <trkpt lat="45.69138" lon="4.35063">
        <ele>518</ele>
        <time>2017-05-14T07:11:31Z</time>
      </trkpt>
      <trkpt lat="45.69139" lon="4.35074">
        <ele>520</ele>
        <time>2017-05-14T07:11:35Z</time>
      </trkpt>
      <trkpt lat="45.69136" lon="4.35081">
        <ele>520</ele>
        <time>2017-05-14T07:11:39Z</time>
      </trkpt>
      <trkpt lat="45.69134" lon="4.35091">
        <ele>521</ele>
        <time>2017-05-14T07:11:43Z</time>
      </trkpt>
      <trkpt lat="45.69132" lon="4.35098">
        <ele>521</ele>
        <time>2017-05-14T07:11:47Z</time>
      </trkpt>
      <trkpt lat="45.69129" lon="4.35108">
        <ele>522</ele>
        <time>2017-05-14T07:11:51Z</time>
      </trkpt>
      <trkpt lat="45.69126" lon="4.35116">
        <ele>523</ele>
        <time>2017-05-14T07:11:55Z</time>
      </trkpt>
      <trkpt lat="45.69123" lon="4.35125">
        <ele>525</ele>
        <time>2017-05-14T07:11:59Z</time>
      </trkpt>
      <trkpt lat="45.69119" lon="4.35131">
        <ele>526</ele>
        <time>2017-05-14T07:12:03Z</time>
      </trkpt>
      <trkpt lat="45.69115" lon="4.35136">
        <ele>527</ele>
        <time>2017-05-14T07:12:07Z</time>
      </trkpt>
      <trkpt lat="45.69111" lon="4.35144">
        <ele>527</ele>
        <time>2017-05-14T07:12:11Z</time>
      </trkpt>
      <trkpt lat="45.69109" lon="4.35151">
        <ele>529</ele>
        <time>2017-05-14T07:12:17Z</time>
      </trkpt>
      <trkpt lat="45.69105" lon="4.35162">
        <ele>529</ele>
        <time>2017-05-14T07:12:19Z</time>
      </trkpt>
      <trkpt lat="45.69102" lon="4.35171">
        <ele>529</ele>
        <time>2017-05-14T07:12:24Z</time>
      </trkpt>
      <trkpt lat="45.69097" lon="4.35177">
        <ele>530</ele>
        <time>2017-05-14T07:12:27Z</time>
      </trkpt>
      <trkpt lat="45.69089" lon="4.35187">
        <ele>530</ele>
        <time>2017-05-14T07:12:31Z</time>
      </trkpt>
      <trkpt lat="45.69085" lon="4.35193">
        <ele>531</ele>
        <time>2017-05-14T07:12:35Z</time>
      </trkpt>
      <trkpt lat="45.69081" lon="4.35202">
        <ele>532</ele>
        <time>2017-05-14T07:12:39Z</time>
      </trkpt>
      <trkpt lat="45.69078" lon="4.35209">
        <ele>532</ele>
        <time>2017-05-14T07:12:43Z</time>
      </trkpt>
      <trkpt lat="45.69074" lon="4.35216">
        <ele>534</ele>
        <time>2017-05-14T07:12:47Z</time>
      </trkpt>
      <trkpt lat="45.69068" lon="4.35223">
        <ele>534</ele>
        <time>2017-05-14T07:12:51Z</time>
      </trkpt>
      <trkpt lat="45.69064" lon="4.35227">
        <ele>535</ele>
        <time>2017-05-14T07:12:56Z</time>
      </trkpt>
      <trkpt lat="45.69058" lon="4.35231">
        <ele>536</ele>
        <time>2017-05-14T07:12:59Z</time>
      </trkpt>
      <trkpt lat="45.69056" lon="4.35235">
        <ele>537</ele>
        <time>2017-05-14T07:13:03Z</time>
      </trkpt>
      <trkpt lat="45.69033" lon="4.35256">
        <ele>544</ele>
        <time>2017-05-14T07:13:32Z</time>
      </trkpt>
      <trkpt lat="45.69026" lon="4.35259">
        <ele>546</ele>
        <time>2017-05-14T07:13:35Z</time>
      </trkpt>
      <trkpt lat="45.69021" lon="4.35261">
        <ele>547</ele>
        <time>2017-05-14T07:13:39Z</time>
      </trkpt>
      <trkpt lat="45.69017" lon="4.35264">
        <ele>548</ele>
        <time>2017-05-14T07:13:43Z</time>
      </trkpt>
      <trkpt lat="45.69012" lon="4.35269">
        <ele>549</ele>
        <time>2017-05-14T07:13:47Z</time>
      </trkpt>
      <trkpt lat="45.69009" lon="4.35271">
        <ele>550</ele>
        <time>2017-05-14T07:13:51Z</time>
      </trkpt>
      <trkpt lat="45.69004" lon="4.35275">
        <ele>550</ele>
        <time>2017-05-14T07:13:55Z</time>
      </trkpt>
      <trkpt lat="45.68978" lon="4.35289">
        <ele>556</ele>
        <time>2017-05-14T07:14:19Z</time>
      </trkpt>
      <trkpt lat="45.68971" lon="4.35289">
        <ele>557</ele>
        <time>2017-05-14T07:14:23Z</time>
      </trkpt>
      <trkpt lat="45.68965" lon="4.3529">
        <ele>557</ele>
        <time>2017-05-14T07:14:27Z</time>
      </trkpt>
      <trkpt lat="45.68957" lon="4.35289">
        <ele>558</ele>
        <time>2017-05-14T07:14:31Z</time>
      </trkpt>
      <trkpt lat="45.68948" lon="4.35287">
        <ele>558</ele>
        <time>2017-05-14T07:14:35Z</time>
      </trkpt>
      <trkpt lat="45.6894" lon="4.35285">
        <ele>559</ele>
        <time>2017-05-14T07:14:39Z</time>
      </trkpt>
      <trkpt lat="45.68934" lon="4.35282">
        <ele>559</ele>
        <time>2017-05-14T07:14:43Z</time>
      </trkpt>
      <trkpt lat="45.68927" lon="4.3528">
        <ele>559</ele>
        <time>2017-05-14T07:14:47Z</time>
      </trkpt>
      <trkpt lat="45.6892" lon="4.35276">
        <ele>558</ele>
        <time>2017-05-14T07:14:51Z</time>
      </trkpt>
      <trkpt lat="45.68917" lon="4.3527">
        <ele>559</ele>
        <time>2017-05-14T07:14:56Z</time>
      </trkpt>
      <trkpt lat="45.68902" lon="4.35277">
        <ele>558</ele>
        <time>2017-05-14T07:15:31Z</time>
      </trkpt>
      <trkpt lat="45.68893" lon="4.35326">
        <ele>556</ele>
        <time>2017-05-14T07:15:36Z</time>
      </trkpt>
      <trkpt lat="45.68882" lon="4.35367">
        <ele>552</ele>
        <time>2017-05-14T07:15:43Z</time>
      </trkpt>
      <trkpt lat="45.68871" lon="4.35412">
        <ele>551</ele>
        <time>2017-05-14T07:15:47Z</time>
      </trkpt>
      <trkpt lat="45.68863" lon="4.35452">
        <ele>550</ele>
        <time>2017-05-14T07:15:51Z</time>
      </trkpt>
      <trkpt lat="45.68852" lon="4.35483">
        <ele>549</ele>
        <time>2017-05-14T07:15:55Z</time>
      </trkpt>
      <trkpt lat="45.68835" lon="4.35492">
        <ele>548</ele>
        <time>2017-05-14T07:15:59Z</time>
      </trkpt>
      <trkpt lat="45.68817" lon="4.35492">
        <ele>547</ele>
        <time>2017-05-14T07:16:03Z</time>
      </trkpt>
      <trkpt lat="45.68797" lon="4.35491">
        <ele>546</ele>
        <time>2017-05-14T07:16:07Z</time>
      </trkpt>
      <trkpt lat="45.68754" lon="4.35486">
        <ele>545</ele>
        <time>2017-05-14T07:16:12Z</time>
      </trkpt>
      <trkpt lat="45.68733" lon="4.35483">
        <ele>543</ele>
        <time>2017-05-14T07:16:19Z</time>
      </trkpt>
      <trkpt lat="45.6871" lon="4.35469">
        <ele>540</ele>
        <time>2017-05-14T07:16:23Z</time>
      </trkpt>
      <trkpt lat="45.6865" lon="4.3544">
        <ele>537</ele>
        <time>2017-05-14T07:16:28Z</time>
      </trkpt>
      <trkpt lat="45.68618" lon="4.35411">
        <ele>532</ele>
        <time>2017-05-14T07:16:31Z</time>
      </trkpt>
      <trkpt lat="45.68589" lon="4.35393">
        <ele>519</ele>
        <time>2017-05-14T07:16:39Z</time>
      </trkpt>
      <trkpt lat="45.68562" lon="4.35373">
        <ele>514</ele>
        <time>2017-05-14T07:16:43Z</time>
      </trkpt>
      <trkpt lat="45.68534" lon="4.35356">
        <ele>507</ele>
        <time>2017-05-14T07:16:47Z</time>
      </trkpt>
      <trkpt lat="45.68509" lon="4.35326">
        <ele>502</ele>
        <time>2017-05-14T07:16:52Z</time>
      </trkpt>
      <trkpt lat="45.68518" lon="4.35302">
        <ele>500</ele>
        <time>2017-05-14T07:16:59Z</time>
      </trkpt>
      <trkpt lat="45.68522" lon="4.35276">
        <ele>500</ele>
        <time>2017-05-14T07:17:03Z</time>
      </trkpt>
      <trkpt lat="45.68517" lon="4.35252">
        <ele>499</ele>
        <time>2017-05-14T07:17:07Z</time>
      </trkpt>
      <trkpt lat="45.68497" lon="4.35232">
        <ele>496</ele>
        <time>2017-05-14T07:17:11Z</time>
      </trkpt>
      <trkpt lat="45.68477" lon="4.35214">
        <ele>490</ele>
        <time>2017-05-14T07:17:16Z</time>
      </trkpt>
      <trkpt lat="45.6847" lon="4.35207">
        <ele>489</ele>
        <time>2017-05-14T07:17:27Z</time>
      </trkpt>
      <trkpt lat="45.68445" lon="4.35198">
        <ele>487</ele>
        <time>2017-05-14T07:17:31Z</time>
      </trkpt>
      <trkpt lat="45.68417" lon="4.35186">
        <ele>484</ele>
        <time>2017-05-14T07:17:35Z</time>
      </trkpt>
      <trkpt lat="45.68409" lon="4.35181">
        <ele>484</ele>
        <time>2017-05-14T07:17:43Z</time>
      </trkpt>
      <trkpt lat="45.68408" lon="4.35177">
        <ele>483</ele>
        <time>2017-05-14T07:17:47Z</time>
      </trkpt>
      <trkpt lat="45.68405" lon="4.35167">
        <ele>483</ele>
        <time>2017-05-14T07:17:51Z</time>
      </trkpt>
      <trkpt lat="45.68401" lon="4.35157">
        <ele>484</ele>
        <time>2017-05-14T07:17:55Z</time>
      </trkpt>
      <trkpt lat="45.68399" lon="4.35148">
        <ele>484</ele>
        <time>2017-05-14T07:17:59Z</time>
      </trkpt>
      <trkpt lat="45.68386" lon="4.35142">
        <ele>484</ele>
        <time>2017-05-14T07:18:03Z</time>
      </trkpt>
      <trkpt lat="45.68384" lon="4.35135">
        <ele>484</ele>
        <time>2017-05-14T07:18:07Z</time>
      </trkpt>
      <trkpt lat="45.68384" lon="4.35126">
        <ele>484</ele>
        <time>2017-05-14T07:18:11Z</time>
      </trkpt>
      <trkpt lat="45.68384" lon="4.35115">
        <ele>485</ele>
        <time>2017-05-14T07:18:16Z</time>
      </trkpt>
      <trkpt lat="45.68387" lon="4.35107">
        <ele>486</ele>
        <time>2017-05-14T07:18:19Z</time>
      </trkpt>
      <trkpt lat="45.68393" lon="4.35099">
        <ele>488</ele>
        <time>2017-05-14T07:18:23Z</time>
      </trkpt>
      <trkpt lat="45.68396" lon="4.35092">
        <ele>490</ele>
        <time>2017-05-14T07:18:30Z</time>
      </trkpt>
      <trkpt lat="45.68399" lon="4.35075">
        <ele>491</ele>
        <time>2017-05-14T07:18:35Z</time>
      </trkpt>
      <trkpt lat="45.68401" lon="4.35067">
        <ele>493</ele>
        <time>2017-05-14T07:18:39Z</time>
      </trkpt>
      <trkpt lat="45.68401" lon="4.35054">
        <ele>495</ele>
        <time>2017-05-14T07:18:47Z</time>
      </trkpt>
      <trkpt lat="45.684" lon="4.35046">
        <ele>496</ele>
        <time>2017-05-14T07:18:51Z</time>
      </trkpt>
      <trkpt lat="45.68398" lon="4.35041">
        <ele>497</ele>
        <time>2017-05-14T07:18:56Z</time>
      </trkpt>
      <trkpt lat="45.68395" lon="4.35034">
        <ele>498</ele>
        <time>2017-05-14T07:18:59Z</time>
      </trkpt>
      <trkpt lat="45.68391" lon="4.3503">
        <ele>499</ele>
        <time>2017-05-14T07:19:03Z</time>
      </trkpt>
      <trkpt lat="45.68386" lon="4.35025">
        <ele>500</ele>
        <time>2017-05-14T07:19:07Z</time>
      </trkpt>
      <trkpt lat="45.68382" lon="4.35019">
        <ele>501</ele>
        <time>2017-05-14T07:19:11Z</time>
      </trkpt>
      <trkpt lat="45.6838" lon="4.35012">
        <ele>502</ele>
        <time>2017-05-14T07:19:15Z</time>
      </trkpt>
      <trkpt lat="45.6838" lon="4.35006">
        <ele>503</ele>
        <time>2017-05-14T07:19:20Z</time>
      </trkpt>
      <trkpt lat="45.6837" lon="4.34995">
        <ele>505</ele>
        <time>2017-05-14T07:19:28Z</time>
      </trkpt>
      <trkpt lat="45.68368" lon="4.3499">
        <ele>506</ele>
        <time>2017-05-14T07:19:35Z</time>
      </trkpt>
      <trkpt lat="45.68363" lon="4.34978">
        <ele>507</ele>
        <time>2017-05-14T07:19:39Z</time>
      </trkpt>
      <trkpt lat="45.6836" lon="4.34973">
        <ele>509</ele>
        <time>2017-05-14T07:19:44Z</time>
      </trkpt>
      <trkpt lat="45.68357" lon="4.34969">
        <ele>510</ele>
        <time>2017-05-14T07:19:47Z</time>
      </trkpt>
      <trkpt lat="45.68355" lon="4.34964">
        <ele>512</ele>
        <time>2017-05-14T07:19:55Z</time>
      </trkpt>
      <trkpt lat="45.68347" lon="4.34954">
        <ele>513</ele>
        <time>2017-05-14T07:20:00Z</time>
      </trkpt>
      <trkpt lat="45.68346" lon="4.34949">
        <ele>515</ele>
        <time>2017-05-14T07:20:07Z</time>
      </trkpt>
      <trkpt lat="45.68337" lon="4.3494">
        <ele>516</ele>
        <time>2017-05-14T07:20:11Z</time>
      </trkpt>
      <trkpt lat="45.68324" lon="4.34931">
        <ele>518</ele>
        <time>2017-05-14T07:20:19Z</time>
      </trkpt>
      <trkpt lat="45.68319" lon="4.34926">
        <ele>520</ele>
        <time>2017-05-14T07:20:27Z</time>
      </trkpt>
      <trkpt lat="45.68315" lon="4.34921">
        <ele>521</ele>
        <time>2017-05-14T07:20:31Z</time>
      </trkpt>
      <trkpt lat="45.68311" lon="4.34915">
        <ele>522</ele>
        <time>2017-05-14T07:20:35Z</time>
      </trkpt>
      <trkpt lat="45.68307" lon="4.3491">
        <ele>523</ele>
        <time>2017-05-14T07:20:39Z</time>
      </trkpt>
      <trkpt lat="45.68302" lon="4.34906">
        <ele>524</ele>
        <time>2017-05-14T07:20:43Z</time>
      </trkpt>
      <trkpt lat="45.68295" lon="4.34901">
        <ele>524</ele>
        <time>2017-05-14T07:20:47Z</time>
      </trkpt>
      <trkpt lat="45.68293" lon="4.34895">
        <ele>525</ele>
        <time>2017-05-14T07:20:51Z</time>
      </trkpt>
      <trkpt lat="45.68287" lon="4.34889">
        <ele>526</ele>
        <time>2017-05-14T07:20:55Z</time>
      </trkpt>
      <trkpt lat="45.68282" lon="4.34883">
        <ele>527</ele>
        <time>2017-05-14T07:20:59Z</time>
      </trkpt>
      <trkpt lat="45.68276" lon="4.34879">
        <ele>527</ele>
        <time>2017-05-14T07:21:03Z</time>
      </trkpt>
      <trkpt lat="45.68264" lon="4.34869">
        <ele>528</ele>
        <time>2017-05-14T07:21:08Z</time>
      </trkpt>
      <trkpt lat="45.68258" lon="4.34864">
        <ele>530</ele>
        <time>2017-05-14T07:21:15Z</time>
      </trkpt>
      <trkpt lat="45.68254" lon="4.34859">
        <ele>531</ele>
        <time>2017-05-14T07:21:19Z</time>
      </trkpt>
      <trkpt lat="45.68245" lon="4.3485">
        <ele>532</ele>
        <time>2017-05-14T07:21:24Z</time>
      </trkpt>
      <trkpt lat="45.68232" lon="4.34841">
        <ele>534</ele>
        <time>2017-05-14T07:21:32Z</time>
      </trkpt>
      <trkpt lat="45.68225" lon="4.34836">
        <ele>536</ele>
        <time>2017-05-14T07:21:39Z</time>
      </trkpt>
      <trkpt lat="45.68212" lon="4.34826">
        <ele>537</ele>
        <time>2017-05-14T07:21:43Z</time>
      </trkpt>
      <trkpt lat="45.68206" lon="4.34821">
        <ele>538</ele>
        <time>2017-05-14T07:21:51Z</time>
      </trkpt>
      <trkpt lat="45.68199" lon="4.34816">
        <ele>539</ele>
        <time>2017-05-14T07:21:55Z</time>
      </trkpt>
      <trkpt lat="45.68191" lon="4.3481">
        <ele>539</ele>
        <time>2017-05-14T07:21:59Z</time>
      </trkpt>
      <trkpt lat="45.68183" lon="4.34805">
        <ele>539</ele>
        <time>2017-05-14T07:22:03Z</time>
      </trkpt>
      <trkpt lat="45.68175" lon="4.34799">
        <ele>539</ele>
        <time>2017-05-14T07:22:07Z</time>
      </trkpt>
      <trkpt lat="45.68166" lon="4.34793">
        <ele>540</ele>
        <time>2017-05-14T07:22:11Z</time>
      </trkpt>
      <trkpt lat="45.68157" lon="4.34787">
        <ele>540</ele>
        <time>2017-05-14T07:22:15Z</time>
      </trkpt>
      <trkpt lat="45.68142" lon="4.34773">
        <ele>541</ele>
        <time>2017-05-14T07:22:19Z</time>
      </trkpt>
      <trkpt lat="45.68133" lon="4.34766">
        <ele>541</ele>
        <time>2017-05-14T07:22:24Z</time>
      </trkpt>
      <trkpt lat="45.68124" lon="4.34757">
        <ele>542</ele>
        <time>2017-05-14T07:22:31Z</time>
      </trkpt>
      <trkpt lat="45.68105" lon="4.34728">
        <ele>542</ele>
        <time>2017-05-14T07:22:35Z</time>
      </trkpt>
      <trkpt lat="45.68095" lon="4.34713">
        <ele>541</ele>
        <time>2017-05-14T07:22:43Z</time>
      </trkpt>
      <trkpt lat="45.68084" lon="4.34698">
        <ele>541</ele>
        <time>2017-05-14T07:22:47Z</time>
      </trkpt>
      <trkpt lat="45.68074" lon="4.34685">
        <ele>541</ele>
        <time>2017-05-14T07:22:51Z</time>
      </trkpt>
      <trkpt lat="45.68065" lon="4.3467">
        <ele>542</ele>
        <time>2017-05-14T07:22:55Z</time>
      </trkpt>
      <trkpt lat="45.68049" lon="4.34647">
        <ele>542</ele>
        <time>2017-05-14T07:23:00Z</time>
      </trkpt>
      <trkpt lat="45.68043" lon="4.34637">
        <ele>543</ele>
        <time>2017-05-14T07:23:03Z</time>
      </trkpt>
      <trkpt lat="45.6804" lon="4.34628">
        <ele>544</ele>
        <time>2017-05-14T07:23:11Z</time>
      </trkpt>
      <trkpt lat="45.68039" lon="4.34619">
        <ele>545</ele>
        <time>2017-05-14T07:23:15Z</time>
      </trkpt>
      <trkpt lat="45.68036" lon="4.34609">
        <ele>546</ele>
        <time>2017-05-14T07:23:19Z</time>
      </trkpt>
      <trkpt lat="45.68035" lon="4.34601">
        <ele>547</ele>
        <time>2017-05-14T07:23:23Z</time>
      </trkpt>
      <trkpt lat="45.68031" lon="4.34593">
        <ele>548</ele>
        <time>2017-05-14T07:23:27Z</time>
      </trkpt>
      <trkpt lat="45.68027" lon="4.34586">
        <ele>549</ele>
        <time>2017-05-14T07:23:31Z</time>
      </trkpt>
      <trkpt lat="45.68023" lon="4.34573">
        <ele>550</ele>
        <time>2017-05-14T07:23:36Z</time>
      </trkpt>
      <trkpt lat="45.68019" lon="4.34565">
        <ele>551</ele>
        <time>2017-05-14T07:23:43Z</time>
      </trkpt>
      <trkpt lat="45.68014" lon="4.34548">
        <ele>552</ele>
        <time>2017-05-14T07:23:47Z</time>
      </trkpt>
      <trkpt lat="45.68007" lon="4.3454">
        <ele>553</ele>
        <time>2017-05-14T07:23:55Z</time>
      </trkpt>
      <trkpt lat="45.68003" lon="4.34528">
        <ele>553</ele>
        <time>2017-05-14T07:23:59Z</time>
      </trkpt>
      <trkpt lat="45.67996" lon="4.34517">
        <ele>553</ele>
        <time>2017-05-14T07:24:03Z</time>
      </trkpt>
      <trkpt lat="45.67993" lon="4.34507">
        <ele>554</ele>
        <time>2017-05-14T07:24:07Z</time>
      </trkpt>
      <trkpt lat="45.67986" lon="4.34497">
        <ele>554</ele>
        <time>2017-05-14T07:24:11Z</time>
      </trkpt>
      <trkpt lat="45.67979" lon="4.34489">
        <ele>555</ele>
        <time>2017-05-14T07:24:15Z</time>
      </trkpt>
      <trkpt lat="45.67972" lon="4.34483">
        <ele>556</ele>
        <time>2017-05-14T07:24:19Z</time>
      </trkpt>
      <trkpt lat="45.67957" lon="4.34473">
        <ele>557</ele>
        <time>2017-05-14T07:24:24Z</time>
      </trkpt>
      <trkpt lat="45.67949" lon="4.34467">
        <ele>558</ele>
        <time>2017-05-14T07:24:28Z</time>
      </trkpt>
      <trkpt lat="45.67942" lon="4.34458">
        <ele>559</ele>
        <time>2017-05-14T07:24:35Z</time>
      </trkpt>
      <trkpt lat="45.67929" lon="4.34444">
        <ele>560</ele>
        <time>2017-05-14T07:24:39Z</time>
      </trkpt>
      <trkpt lat="45.67918" lon="4.34437">
        <ele>561</ele>
        <time>2017-05-14T07:24:47Z</time>
      </trkpt>
      <trkpt lat="45.67906" lon="4.34429">
        <ele>562</ele>
        <time>2017-05-14T07:24:51Z</time>
      </trkpt>
      <trkpt lat="45.67895" lon="4.34422">
        <ele>562</ele>
        <time>2017-05-14T07:24:55Z</time>
      </trkpt>
      <trkpt lat="45.67883" lon="4.34413">
        <ele>563</ele>
        <time>2017-05-14T07:24:59Z</time>
      </trkpt>
      <trkpt lat="45.67873" lon="4.34406">
        <ele>563</ele>
        <time>2017-05-14T07:25:03Z</time>
      </trkpt>
      <trkpt lat="45.67861" lon="4.34395">
        <ele>563</ele>
        <time>2017-05-14T07:25:07Z</time>
      </trkpt>
      <trkpt lat="45.67854" lon="4.34383">
        <ele>562</ele>
        <time>2017-05-14T07:25:11Z</time>
      </trkpt>
      <trkpt lat="45.67841" lon="4.34372">
        <ele>561</ele>
        <time>2017-05-14T07:25:15Z</time>
      </trkpt>
      <trkpt lat="45.67822" lon="4.34356">
        <ele>560</ele>
        <time>2017-05-14T07:25:19Z</time>
      </trkpt>
      <trkpt lat="45.67797" lon="4.34335">
        <ele>558</ele>
        <time>2017-05-14T07:25:23Z</time>
      </trkpt>
      <trkpt lat="45.67768" lon="4.34322">
        <ele>556</ele>
        <time>2017-05-14T07:25:27Z</time>
      </trkpt>
      <trkpt lat="45.67743" lon="4.34325">
        <ele>556</ele>
        <time>2017-05-14T07:25:31Z</time>
      </trkpt>
      <trkpt lat="45.67734" lon="4.34324">
        <ele>555</ele>
        <time>2017-05-14T07:25:35Z</time>
      </trkpt>
      <trkpt lat="45.67723" lon="4.34314">
        <ele>556</ele>
        <time>2017-05-14T07:25:39Z</time>
      </trkpt>
      <trkpt lat="45.67719" lon="4.34306">
        <ele>556</ele>
        <time>2017-05-14T07:25:44Z</time>
      </trkpt>
      <trkpt lat="45.67715" lon="4.343">
        <ele>557</ele>
        <time>2017-05-14T07:25:51Z</time>
      </trkpt>
      <trkpt lat="45.67707" lon="4.34291">
        <ele>558</ele>
        <time>2017-05-14T07:25:59Z</time>
      </trkpt>
      <trkpt lat="45.67704" lon="4.34278">
        <ele>560</ele>
        <time>2017-05-14T07:26:08Z</time>
      </trkpt>
      <trkpt lat="45.67701" lon="4.34269">
        <ele>561</ele>
        <time>2017-05-14T07:26:11Z</time>
      </trkpt>
      <trkpt lat="45.67699" lon="4.34262">
        <ele>561</ele>
        <time>2017-05-14T07:26:15Z</time>
      </trkpt>
      <trkpt lat="45.67695" lon="4.3425">
        <ele>562</ele>
        <time>2017-05-14T07:26:19Z</time>
      </trkpt>
      <trkpt lat="45.67694" lon="4.34239">
        <ele>563</ele>
        <time>2017-05-14T07:26:23Z</time>
      </trkpt>
      <trkpt lat="45.67693" lon="4.34228">
        <ele>564</ele>
        <time>2017-05-14T07:26:27Z</time>
      </trkpt>
      <trkpt lat="45.67688" lon="4.34222">
        <ele>565</ele>
        <time>2017-05-14T07:26:32Z</time>
      </trkpt>
      <trkpt lat="45.6768" lon="4.34217">
        <ele>566</ele>
        <time>2017-05-14T07:26:35Z</time>
      </trkpt>
      <trkpt lat="45.6767" lon="4.34216">
        <ele>567</ele>
        <time>2017-05-14T07:26:39Z</time>
      </trkpt>
      <trkpt lat="45.67657" lon="4.34219">
        <ele>569</ele>
        <time>2017-05-14T07:26:47Z</time>
      </trkpt>
      <trkpt lat="45.67647" lon="4.34224">
        <ele>570</ele>
        <time>2017-05-14T07:26:51Z</time>
      </trkpt>
      <trkpt lat="45.67644" lon="4.34227">
        <ele>571</ele>
        <time>2017-05-14T07:26:59Z</time>
      </trkpt>
      <trkpt lat="45.6764" lon="4.34229">
        <ele>572</ele>
        <time>2017-05-14T07:27:03Z</time>
      </trkpt>
      <trkpt lat="45.67636" lon="4.34232">
        <ele>573</ele>
        <time>2017-05-14T07:27:07Z</time>
      </trkpt>
      <trkpt lat="45.6763" lon="4.3424">
        <ele>575</ele>
        <time>2017-05-14T07:27:15Z</time>
      </trkpt>
      <trkpt lat="45.67628" lon="4.34244">
        <ele>576</ele>
        <time>2017-05-14T07:27:21Z</time>
      </trkpt>
      <trkpt lat="45.67623" lon="4.34245">
        <ele>577</ele>
        <time>2017-05-14T07:27:23Z</time>
      </trkpt>
      <trkpt lat="45.67617" lon="4.34245">
        <ele>577</ele>
        <time>2017-05-14T07:27:27Z</time>
      </trkpt>
      <trkpt lat="45.67611" lon="4.34245">
        <ele>578</ele>
        <time>2017-05-14T07:27:31Z</time>
      </trkpt>
      <trkpt lat="45.67604" lon="4.34244">
        <ele>579</ele>
        <time>2017-05-14T07:27:35Z</time>
      </trkpt>
      <trkpt lat="45.67597" lon="4.34242">
        <ele>579</ele>
        <time>2017-05-14T07:27:39Z</time>
      </trkpt>
      <trkpt lat="45.67589" lon="4.3424">
        <ele>580</ele>
        <time>2017-05-14T07:27:43Z</time>
      </trkpt>
      <trkpt lat="45.6758" lon="4.34238">
        <ele>581</ele>
        <time>2017-05-14T07:27:48Z</time>
      </trkpt>
      <trkpt lat="45.6757" lon="4.34235">
        <ele>581</ele>
        <time>2017-05-14T07:27:51Z</time>
      </trkpt>
      <trkpt lat="45.67561" lon="4.34231">
        <ele>582</ele>
        <time>2017-05-14T07:27:55Z</time>
      </trkpt>
      <trkpt lat="45.6755" lon="4.34228">
        <ele>582</ele>
        <time>2017-05-14T07:28:00Z</time>
      </trkpt>
      <trkpt lat="45.67539" lon="4.34225">
        <ele>583</ele>
        <time>2017-05-14T07:28:03Z</time>
      </trkpt>
      <trkpt lat="45.67529" lon="4.34221">
        <ele>583</ele>
        <time>2017-05-14T07:28:07Z</time>
      </trkpt>
      <trkpt lat="45.67519" lon="4.34218">
        <ele>583</ele>
        <time>2017-05-14T07:28:11Z</time>
      </trkpt>
      <trkpt lat="45.67508" lon="4.34215">
        <ele>583</ele>
        <time>2017-05-14T07:28:15Z</time>
      </trkpt>
      <trkpt lat="45.67496" lon="4.34212">
        <ele>584</ele>
        <time>2017-05-14T07:28:19Z</time>
      </trkpt>
      <trkpt lat="45.67484" lon="4.34209">
        <ele>584</ele>
        <time>2017-05-14T07:28:23Z</time>
      </trkpt>
      <trkpt lat="45.67472" lon="4.34205">
        <ele>584</ele>
        <time>2017-05-14T07:28:27Z</time>
      </trkpt>
      <trkpt lat="45.67461" lon="4.34202">
        <ele>584</ele>
        <time>2017-05-14T07:28:31Z</time>
      </trkpt>
      <trkpt lat="45.67451" lon="4.34198">
        <ele>585</ele>
        <time>2017-05-14T07:28:36Z</time>
      </trkpt>
      <trkpt lat="45.67441" lon="4.34195">
        <ele>585</ele>
        <time>2017-05-14T07:28:39Z</time>
      </trkpt>
      <trkpt lat="45.67431" lon="4.34195">
        <ele>585</ele>
        <time>2017-05-14T07:28:43Z</time>
      </trkpt>
      <trkpt lat="45.6742" lon="4.34195">
        <ele>586</ele>
        <time>2017-05-14T07:28:47Z</time>
      </trkpt>
      <trkpt lat="45.6741" lon="4.34199">
        <ele>586</ele>
        <time>2017-05-14T07:28:51Z</time>
      </trkpt>
      <trkpt lat="45.67403" lon="4.34226">
        <ele>587</ele>
        <time>2017-05-14T07:28:59Z</time>
      </trkpt>
      <trkpt lat="45.67403" lon="4.34241">
        <ele>587</ele>
        <time>2017-05-14T07:29:03Z</time>
      </trkpt>
      <trkpt lat="45.67404" lon="4.34254">
        <ele>589</ele>
        <time>2017-05-14T07:29:07Z</time>
      </trkpt>
      <trkpt lat="45.67404" lon="4.34267">
        <ele>589</ele>
        <time>2017-05-14T07:29:11Z</time>
      </trkpt>
      <trkpt lat="45.67405" lon="4.34281">
        <ele>590</ele>
        <time>2017-05-14T07:29:15Z</time>
      </trkpt>
      <trkpt lat="45.67406" lon="4.34293">
        <ele>590</ele>
        <time>2017-05-14T07:29:19Z</time>
      </trkpt>
      <trkpt lat="45.67409" lon="4.34305">
        <ele>591</ele>
        <time>2017-05-14T07:29:23Z</time>
      </trkpt>
      <trkpt lat="45.67411" lon="4.34318">
        <ele>592</ele>
        <time>2017-05-14T07:29:28Z</time>
      </trkpt>
      <trkpt lat="45.67412" lon="4.3433">
        <ele>592</ele>
        <time>2017-05-14T07:29:32Z</time>
      </trkpt>
      <trkpt lat="45.67415" lon="4.34341">
        <ele>592</ele>
        <time>2017-05-14T07:29:35Z</time>
      </trkpt>
      <trkpt lat="45.67416" lon="4.34353">
        <ele>593</ele>
        <time>2017-05-14T07:29:39Z</time>
      </trkpt>
      <trkpt lat="45.67416" lon="4.34365">
        <ele>595</ele>
        <time>2017-05-14T07:29:43Z</time>
      </trkpt>
      <trkpt lat="45.67416" lon="4.34376">
        <ele>595</ele>
        <time>2017-05-14T07:29:47Z</time>
      </trkpt>
      <trkpt lat="45.67415" lon="4.34387">
        <ele>596</ele>
        <time>2017-05-14T07:29:51Z</time>
      </trkpt>
      <trkpt lat="45.67415" lon="4.34398">
        <ele>596</ele>
        <time>2017-05-14T07:29:55Z</time>
      </trkpt>
      <trkpt lat="45.67414" lon="4.34409">
        <ele>598</ele>
        <time>2017-05-14T07:30:01Z</time>
      </trkpt>
      <trkpt lat="45.67414" lon="4.3442">
        <ele>598</ele>
        <time>2017-05-14T07:30:05Z</time>
      </trkpt>
      <trkpt lat="45.67414" lon="4.3443">
        <ele>599</ele>
        <time>2017-05-14T07:30:07Z</time>
      </trkpt>
      <trkpt lat="45.67414" lon="4.34442">
        <ele>600</ele>
        <time>2017-05-14T07:30:11Z</time>
      </trkpt>
      <trkpt lat="45.67414" lon="4.34453">
        <ele>601</ele>
        <time>2017-05-14T07:30:16Z</time>
      </trkpt>
      <trkpt lat="45.67416" lon="4.34465">
        <ele>601</ele>
        <time>2017-05-14T07:30:19Z</time>
      </trkpt>
      <trkpt lat="45.67418" lon="4.34476">
        <ele>602</ele>
        <time>2017-05-14T07:30:23Z</time>
      </trkpt>
      <trkpt lat="45.6742" lon="4.34486">
        <ele>603</ele>
        <time>2017-05-14T07:30:27Z</time>
      </trkpt>
      <trkpt lat="45.67422" lon="4.34496">
        <ele>604</ele>
        <time>2017-05-14T07:30:31Z</time>
      </trkpt>
      <trkpt lat="45.67422" lon="4.34506">
        <ele>604</ele>
        <time>2017-05-14T07:30:35Z</time>
      </trkpt>
      <trkpt lat="45.67425" lon="4.34518">
        <ele>605</ele>
        <time>2017-05-14T07:30:40Z</time>
      </trkpt>
      <trkpt lat="45.67428" lon="4.34532">
        <ele>605</ele>
        <time>2017-05-14T07:30:43Z</time>
      </trkpt>
      <trkpt lat="45.67429" lon="4.34545">
        <ele>605</ele>
        <time>2017-05-14T07:30:47Z</time>
      </trkpt>
      <trkpt lat="45.67431" lon="4.34559">
        <ele>605</ele>
        <time>2017-05-14T07:30:51Z</time>
      </trkpt>
      <trkpt lat="45.67433" lon="4.34575">
        <ele>605</ele>
        <time>2017-05-14T07:30:55Z</time>
      </trkpt>
      <trkpt lat="45.67435" lon="4.34591">
        <ele>605</ele>
        <time>2017-05-14T07:30:59Z</time>
      </trkpt>
      <trkpt lat="45.67437" lon="4.34606">
        <ele>606</ele>
        <time>2017-05-14T07:31:03Z</time>
      </trkpt>
      <trkpt lat="45.67438" lon="4.34622">
        <ele>606</ele>
        <time>2017-05-14T07:31:07Z</time>
      </trkpt>
      <trkpt lat="45.67439" lon="4.34637">
        <ele>606</ele>
        <time>2017-05-14T07:31:11Z</time>
      </trkpt>
      <trkpt lat="45.67442" lon="4.34653">
        <ele>606</ele>
        <time>2017-05-14T07:31:15Z</time>
      </trkpt>
      <trkpt lat="45.67445" lon="4.34668">
        <ele>607</ele>
        <time>2017-05-14T07:31:20Z</time>
      </trkpt>
      <trkpt lat="45.67448" lon="4.34683">
        <ele>607</ele>
        <time>2017-05-14T07:31:23Z</time>
      </trkpt>
      <trkpt lat="45.67453" lon="4.34698">
        <ele>607</ele>
        <time>2017-05-14T07:31:27Z</time>
      </trkpt>
      <trkpt lat="45.67457" lon="4.34715">
        <ele>607</ele>
        <time>2017-05-14T07:31:32Z</time>
      </trkpt>
      <trkpt lat="45.67462" lon="4.34732">
        <ele>607</ele>
        <time>2017-05-14T07:31:36Z</time>
      </trkpt>
      <trkpt lat="45.67467" lon="4.34748">
        <ele>607</ele>
        <time>2017-05-14T07:31:39Z</time>
      </trkpt>
      <trkpt lat="45.67473" lon="4.34767">
        <ele>606</ele>
        <time>2017-05-14T07:31:43Z</time>
      </trkpt>
      <trkpt lat="45.67479" lon="4.34791">
        <ele>605</ele>
        <time>2017-05-14T07:31:47Z</time>
      </trkpt>
      <trkpt lat="45.67482" lon="4.34819">
        <ele>603</ele>
        <time>2017-05-14T07:31:51Z</time>
      </trkpt>
      <trkpt lat="45.67475" lon="4.34852">
        <ele>601</ele>
        <time>2017-05-14T07:31:55Z</time>
      </trkpt>
      <trkpt lat="45.67469" lon="4.34885">
        <ele>598</ele>
        <time>2017-05-14T07:31:59Z</time>
      </trkpt>
      <trkpt lat="45.67475" lon="4.34918">
        <ele>593</ele>
        <time>2017-05-14T07:32:03Z</time>
      </trkpt>
      <trkpt lat="45.67477" lon="4.34957">
        <ele>587</ele>
        <time>2017-05-14T07:32:08Z</time>
      </trkpt>
      <trkpt lat="45.67471" lon="4.35">
        <ele>583</ele>
        <time>2017-05-14T07:32:11Z</time>
      </trkpt>
      <trkpt lat="45.67472" lon="4.35047">
        <ele>576</ele>
        <time>2017-05-14T07:32:15Z</time>
      </trkpt>
      <trkpt lat="45.6747" lon="4.35085">
        <ele>570</ele>
        <time>2017-05-14T07:32:19Z</time>
      </trkpt>
      <trkpt lat="45.67471" lon="4.35122">
        <ele>566</ele>
        <time>2017-05-14T07:32:23Z</time>
      </trkpt>
      <trkpt lat="45.67476" lon="4.35155">
        <ele>562</ele>
        <time>2017-05-14T07:32:27Z</time>
      </trkpt>
      <trkpt lat="45.67477" lon="4.35177">
        <ele>558</ele>
        <time>2017-05-14T07:32:31Z</time>
      </trkpt>
      <trkpt lat="45.67478" lon="4.35196">
        <ele>555</ele>
        <time>2017-05-14T07:32:35Z</time>
      </trkpt>
      <trkpt lat="45.67473" lon="4.35216">
        <ele>552</ele>
        <time>2017-05-14T07:32:39Z</time>
      </trkpt>
      <trkpt lat="45.67469" lon="4.35219">
        <ele>551</ele>
        <time>2017-05-14T07:32:44Z</time>
      </trkpt>
      <trkpt lat="45.67454" lon="4.35233">
        <ele>550</ele>
        <time>2017-05-14T07:33:15Z</time>
      </trkpt>
      <trkpt lat="45.67457" lon="4.35235">
        <ele>551</ele>
        <time>2017-05-14T07:33:20Z</time>
      </trkpt>
      <trkpt lat="45.67459" lon="4.35239">
        <ele>551</ele>
        <time>2017-05-14T07:33:23Z</time>
      </trkpt>
      <trkpt lat="45.67463" lon="4.35248">
        <ele>553</ele>
        <time>2017-05-14T07:33:31Z</time>
      </trkpt>
      <trkpt lat="45.67465" lon="4.35263">
        <ele>554</ele>
        <time>2017-05-14T07:33:36Z</time>
      </trkpt>
      <trkpt lat="45.67465" lon="4.35272">
        <ele>555</ele>
        <time>2017-05-14T07:33:39Z</time>
      </trkpt>
      <trkpt lat="45.67465" lon="4.35282">
        <ele>557</ele>
        <time>2017-05-14T07:33:47Z</time>
      </trkpt>
      <trkpt lat="45.67465" lon="4.35294">
        <ele>558</ele>
        <time>2017-05-14T07:33:51Z</time>
      </trkpt>
      <trkpt lat="45.67464" lon="4.35305">
        <ele>558</ele>
        <time>2017-05-14T07:33:55Z</time>
      </trkpt>
      <trkpt lat="45.67458" lon="4.35328">
        <ele>558</ele>
        <time>2017-05-14T07:34:00Z</time>
      </trkpt>
      <trkpt lat="45.67454" lon="4.35338">
        <ele>558</ele>
        <time>2017-05-14T07:34:03Z</time>
      </trkpt>
      <trkpt lat="45.67451" lon="4.3535">
        <ele>558</ele>
        <time>2017-05-14T07:34:08Z</time>
      </trkpt>
      <trkpt lat="45.6745" lon="4.35365">
        <ele>557</ele>
        <time>2017-05-14T07:34:12Z</time>
      </trkpt>
      <trkpt lat="45.67447" lon="4.35384">
        <ele>557</ele>
        <time>2017-05-14T07:34:20Z</time>
      </trkpt>
      <trkpt lat="45.67455" lon="4.35388">
        <ele>559</ele>
        <time>2017-05-14T07:34:27Z</time>
      </trkpt>
      <trkpt lat="45.67465" lon="4.35392">
        <ele>559</ele>
        <time>2017-05-14T07:34:32Z</time>
      </trkpt>
      <trkpt lat="45.6747" lon="4.35392">
        <ele>561</ele>
        <time>2017-05-14T07:34:39Z</time>
      </trkpt>
      <trkpt lat="45.67477" lon="4.35394">
        <ele>562</ele>
        <time>2017-05-14T07:34:43Z</time>
      </trkpt>
      <trkpt lat="45.67492" lon="4.35398">
        <ele>562</ele>
        <time>2017-05-14T07:34:48Z</time>
      </trkpt>
      <trkpt lat="45.67503" lon="4.35404">
        <ele>564</ele>
        <time>2017-05-14T07:34:55Z</time>
      </trkpt>
      <trkpt lat="45.67512" lon="4.3541">
        <ele>564</ele>
        <time>2017-05-14T07:34:59Z</time>
      </trkpt>
      <trkpt lat="45.6752" lon="4.35415">
        <ele>564</ele>
        <time>2017-05-14T07:35:03Z</time>
      </trkpt>
      <trkpt lat="45.67528" lon="4.35422">
        <ele>565</ele>
        <time>2017-05-14T07:35:07Z</time>
      </trkpt>
      <trkpt lat="45.67536" lon="4.35427">
        <ele>565</ele>
        <time>2017-05-14T07:35:11Z</time>
      </trkpt>
      <trkpt lat="45.67545" lon="4.35428">
        <ele>566</ele>
        <time>2017-05-14T07:35:15Z</time>
      </trkpt>
      <trkpt lat="45.67554" lon="4.35434">
        <ele>566</ele>
        <time>2017-05-14T07:35:19Z</time>
      </trkpt>
      <trkpt lat="45.67571" lon="4.35445">
        <ele>567</ele>
        <time>2017-05-14T07:35:24Z</time>
      </trkpt>
      <trkpt lat="45.6758" lon="4.35452">
        <ele>569</ele>
        <time>2017-05-14T07:35:31Z</time>
      </trkpt>
      <trkpt lat="45.67588" lon="4.35461">
        <ele>569</ele>
        <time>2017-05-14T07:35:35Z</time>
      </trkpt>
      <trkpt lat="45.67603" lon="4.3548">
        <ele>570</ele>
        <time>2017-05-14T07:35:40Z</time>
      </trkpt>
      <trkpt lat="45.67609" lon="4.35491">
        <ele>570</ele>
        <time>2017-05-14T07:35:43Z</time>
      </trkpt>
      <trkpt lat="45.67615" lon="4.35502">
        <ele>571</ele>
        <time>2017-05-14T07:35:49Z</time>
      </trkpt>
      <trkpt lat="45.67622" lon="4.35511">
        <ele>573</ele>
        <time>2017-05-14T07:35:55Z</time>
      </trkpt>
      <trkpt lat="45.67629" lon="4.35518">
        <ele>574</ele>
        <time>2017-05-14T07:35:59Z</time>
      </trkpt>
      <trkpt lat="45.67633" lon="4.35541">
        <ele>575</ele>
        <time>2017-05-14T07:36:03Z</time>
      </trkpt>
      <trkpt lat="45.67635" lon="4.35553">
        <ele>576</ele>
        <time>2017-05-14T07:36:07Z</time>
      </trkpt>
      <trkpt lat="45.67636" lon="4.35565">
        <ele>578</ele>
        <time>2017-05-14T07:36:15Z</time>
      </trkpt>
      <trkpt lat="45.67637" lon="4.35577">
        <ele>579</ele>
        <time>2017-05-14T07:36:19Z</time>
      </trkpt>
      <trkpt lat="45.67639" lon="4.35591">
        <ele>579</ele>
        <time>2017-05-14T07:36:23Z</time>
      </trkpt>
      <trkpt lat="45.67646" lon="4.35622">
        <ele>579</ele>
        <time>2017-05-14T07:36:28Z</time>
      </trkpt>
      <trkpt lat="45.67634" lon="4.35627">
        <ele>580</ele>
        <time>2017-05-14T07:36:36Z</time>
      </trkpt>
      <trkpt lat="45.67632" lon="4.35628">
        <ele>582</ele>
        <time>2017-05-14T07:36:43Z</time>
      </trkpt>
      <trkpt lat="45.67622" lon="4.3563">
        <ele>583</ele>
        <time>2017-05-14T07:36:47Z</time>
      </trkpt>
      <trkpt lat="45.67616" lon="4.35632">
        <ele>584</ele>
        <time>2017-05-14T07:36:52Z</time>
      </trkpt>
      <trkpt lat="45.67613" lon="4.35634">
        <ele>586</ele>
        <time>2017-05-14T07:36:55Z</time>
      </trkpt>
      <trkpt lat="45.67598" lon="4.3564">
        <ele>588</ele>
        <time>2017-05-14T07:37:03Z</time>
      </trkpt>
      <trkpt lat="45.67589" lon="4.35643">
        <ele>589</ele>
        <time>2017-05-14T07:37:07Z</time>
      </trkpt>
      <trkpt lat="45.6758" lon="4.35645">
        <ele>590</ele>
        <time>2017-05-14T07:37:11Z</time>
      </trkpt>
      <trkpt lat="45.67572" lon="4.35647">
        <ele>591</ele>
        <time>2017-05-14T07:37:15Z</time>
      </trkpt>
      <trkpt lat="45.67564" lon="4.35649">
        <ele>592</ele>
        <time>2017-05-14T07:37:19Z</time>
      </trkpt>
      <trkpt lat="45.67556" lon="4.35652">
        <ele>592</ele>
        <time>2017-05-14T07:37:23Z</time>
      </trkpt>
      <trkpt lat="45.67547" lon="4.35654">
        <ele>593</ele>
        <time>2017-05-14T07:37:28Z</time>
      </trkpt>
      <trkpt lat="45.67538" lon="4.35657">
        <ele>594</ele>
        <time>2017-05-14T07:37:31Z</time>
      </trkpt>
      <trkpt lat="45.67529" lon="4.3566">
        <ele>594</ele>
        <time>2017-05-14T07:37:35Z</time>
      </trkpt>
      <trkpt lat="45.67521" lon="4.35662">
        <ele>594</ele>
        <time>2017-05-14T07:37:39Z</time>
      </trkpt>
      <trkpt lat="45.67512" lon="4.35665">
        <ele>595</ele>
        <time>2017-05-14T07:37:44Z</time>
      </trkpt>
      <trkpt lat="45.67503" lon="4.35667">
        <ele>596</ele>
        <time>2017-05-14T07:37:48Z</time>
      </trkpt>
      <trkpt lat="45.67494" lon="4.35669">
        <ele>596</ele>
        <time>2017-05-14T07:37:51Z</time>
      </trkpt>
      <trkpt lat="45.67485" lon="4.3567">
        <ele>597</ele>
        <time>2017-05-14T07:37:55Z</time>
      </trkpt>
      <trkpt lat="45.67475" lon="4.35671">
        <ele>597</ele>
        <time>2017-05-14T07:37:59Z</time>
      </trkpt>
      <trkpt lat="45.67469" lon="4.35671">
        <ele>597</ele>
        <time>2017-05-14T07:38:03Z</time>
      </trkpt>
      <trkpt lat="45.6746" lon="4.35671">
        <ele>597</ele>
        <time>2017-05-14T07:39:16Z</time>
      </trkpt>
      <trkpt lat="45.67441" lon="4.35671">
        <ele>597</ele>
        <time>2017-05-14T07:39:17Z</time>
      </trkpt>
      <trkpt lat="45.67431" lon="4.35672">
        <ele>598</ele>
        <time>2017-05-14T07:39:23Z</time>
      </trkpt>
      <trkpt lat="45.67423" lon="4.35673">
        <ele>599</ele>
        <time>2017-05-14T07:39:27Z</time>
      </trkpt>
      <trkpt lat="45.67414" lon="4.35676">
        <ele>600</ele>
        <time>2017-05-14T07:39:32Z</time>
      </trkpt>
      <trkpt lat="45.67405" lon="4.35678">
        <ele>600</ele>
        <time>2017-05-14T07:39:35Z</time>
      </trkpt>
      <trkpt lat="45.67396" lon="4.3568">
        <ele>600</ele>
        <time>2017-05-14T07:39:39Z</time>
      </trkpt>
      <trkpt lat="45.67387" lon="4.35682">
        <ele>601</ele>
        <time>2017-05-14T07:39:43Z</time>
      </trkpt>
      <trkpt lat="45.67379" lon="4.35683">
        <ele>602</ele>
        <time>2017-05-14T07:39:47Z</time>
      </trkpt>
      <trkpt lat="45.67372" lon="4.35682">
        <ele>603</ele>
        <time>2017-05-14T07:39:52Z</time>
      </trkpt>
      <trkpt lat="45.67365" lon="4.35681">
        <ele>604</ele>
        <time>2017-05-14T07:39:55Z</time>
      </trkpt>
      <trkpt lat="45.67357" lon="4.3568">
        <ele>605</ele>
        <time>2017-05-14T07:39:59Z</time>
      </trkpt>
      <trkpt lat="45.6735" lon="4.35679">
        <ele>606</ele>
        <time>2017-05-14T07:40:03Z</time>
      </trkpt>
      <trkpt lat="45.67342" lon="4.35676">
        <ele>606</ele>
        <time>2017-05-14T07:40:07Z</time>
      </trkpt>
      <trkpt lat="45.67334" lon="4.35672">
        <ele>607</ele>
        <time>2017-05-14T07:40:11Z</time>
      </trkpt>
      <trkpt lat="45.67326" lon="4.35668">
        <ele>608</ele>
        <time>2017-05-14T07:40:15Z</time>
      </trkpt>
      <trkpt lat="45.67317" lon="4.35665">
        <ele>608</ele>
        <time>2017-05-14T07:40:19Z</time>
      </trkpt>
      <trkpt lat="45.67308" lon="4.35664">
        <ele>608</ele>
        <time>2017-05-14T07:40:23Z</time>
      </trkpt>
      <trkpt lat="45.67298" lon="4.35663">
        <ele>608</ele>
        <time>2017-05-14T07:40:27Z</time>
      </trkpt>
      <trkpt lat="45.67288" lon="4.35663">
        <ele>609</ele>
        <time>2017-05-14T07:40:31Z</time>
      </trkpt>
      <trkpt lat="45.67277" lon="4.35664">
        <ele>609</ele>
        <time>2017-05-14T07:40:36Z</time>
      </trkpt>
      <trkpt lat="45.67266" lon="4.35665">
        <ele>609</ele>
        <time>2017-05-14T07:40:39Z</time>
      </trkpt>
      <trkpt lat="45.67256" lon="4.35666">
        <ele>609</ele>
        <time>2017-05-14T07:40:44Z</time>
      </trkpt>
      <trkpt lat="45.67246" lon="4.35667">
        <ele>610</ele>
        <time>2017-05-14T07:40:47Z</time>
      </trkpt>
      <trkpt lat="45.67238" lon="4.35668">
        <ele>610</ele>
        <time>2017-05-14T07:40:51Z</time>
      </trkpt>
      <trkpt lat="45.6723" lon="4.3567">
        <ele>611</ele>
        <time>2017-05-14T07:40:55Z</time>
      </trkpt>
      <trkpt lat="45.67222" lon="4.35675">
        <ele>611</ele>
        <time>2017-05-14T07:40:59Z</time>
      </trkpt>
      <trkpt lat="45.67213" lon="4.35678">
        <ele>612</ele>
        <time>2017-05-14T07:41:03Z</time>
      </trkpt>
      <trkpt lat="45.67205" lon="4.35681">
        <ele>613</ele>
        <time>2017-05-14T07:41:08Z</time>
      </trkpt>
      <trkpt lat="45.67197" lon="4.35683">
        <ele>614</ele>
        <time>2017-05-14T07:41:11Z</time>
      </trkpt>
      <trkpt lat="45.67189" lon="4.35685">
        <ele>615</ele>
        <time>2017-05-14T07:41:15Z</time>
      </trkpt>
      <trkpt lat="45.67182" lon="4.35687">
        <ele>615</ele>
        <time>2017-05-14T07:41:19Z</time>
      </trkpt>
      <trkpt lat="45.67175" lon="4.3569">
        <ele>616</ele>
        <time>2017-05-14T07:41:23Z</time>
      </trkpt>
      <trkpt lat="45.67168" lon="4.35692">
        <ele>617</ele>
        <time>2017-05-14T07:41:27Z</time>
      </trkpt>
      <trkpt lat="45.67161" lon="4.35695">
        <ele>618</ele>
        <time>2017-05-14T07:41:31Z</time>
      </trkpt>
      <trkpt lat="45.67155" lon="4.35699">
        <ele>619</ele>
        <time>2017-05-14T07:41:36Z</time>
      </trkpt>
      <trkpt lat="45.67149" lon="4.35701">
        <ele>619</ele>
        <time>2017-05-14T07:41:39Z</time>
      </trkpt>
      <trkpt lat="45.67144" lon="4.35703">
        <ele>620</ele>
        <time>2017-05-14T07:41:43Z</time>
      </trkpt>
      <trkpt lat="45.67138" lon="4.35707">
        <ele>620</ele>
        <time>2017-05-14T07:41:47Z</time>
      </trkpt>
      <trkpt lat="45.67133" lon="4.35711">
        <ele>623</ele>
        <time>2017-05-14T07:41:56Z</time>
      </trkpt>
      <trkpt lat="45.67121" lon="4.3572">
        <ele>623</ele>
        <time>2017-05-14T07:41:57Z</time>
      </trkpt>
      <trkpt lat="45.67116" lon="4.35724">
        <ele>624</ele>
        <time>2017-05-14T07:42:03Z</time>
      </trkpt>
      <trkpt lat="45.6711" lon="4.35728">
        <ele>626</ele>
        <time>2017-05-14T07:42:07Z</time>
      </trkpt>
      <trkpt lat="45.67105" lon="4.35733">
        <ele>627</ele>
        <time>2017-05-14T07:42:11Z</time>
      </trkpt>
      <trkpt lat="45.671" lon="4.35736">
        <ele>628</ele>
        <time>2017-05-14T07:42:15Z</time>
      </trkpt>
      <trkpt lat="45.67094" lon="4.3574">
        <ele>629</ele>
        <time>2017-05-14T07:42:19Z</time>
      </trkpt>
      <trkpt lat="45.67089" lon="4.35743">
        <ele>630</ele>
        <time>2017-05-14T07:42:23Z</time>
      </trkpt>
      <trkpt lat="45.67084" lon="4.35748">
        <ele>631</ele>
        <time>2017-05-14T07:42:27Z</time>
      </trkpt>
      <trkpt lat="45.67079" lon="4.35751">
        <ele>631</ele>
        <time>2017-05-14T07:42:31Z</time>
      </trkpt>
      <trkpt lat="45.67073" lon="4.35753">
        <ele>632</ele>
        <time>2017-05-14T07:42:35Z</time>
      </trkpt>
      <trkpt lat="45.67068" lon="4.35756">
        <ele>633</ele>
        <time>2017-05-14T07:42:39Z</time>
      </trkpt>
      <trkpt lat="45.67063" lon="4.3576">
        <ele>634</ele>
        <time>2017-05-14T07:42:43Z</time>
      </trkpt>
      <trkpt lat="45.67058" lon="4.35764">
        <ele>634</ele>
        <time>2017-05-14T07:42:48Z</time>
      </trkpt>
      <trkpt lat="45.67053" lon="4.35767">
        <ele>635</ele>
        <time>2017-05-14T07:42:51Z</time>
      </trkpt>
      <trkpt lat="45.67048" lon="4.3577">
        <ele>636</ele>
        <time>2017-05-14T07:42:55Z</time>
      </trkpt>
      <trkpt lat="45.67044" lon="4.35774">
        <ele>637</ele>
        <time>2017-05-14T07:42:59Z</time>
      </trkpt>
      <trkpt lat="45.67039" lon="4.35777">
        <ele>638</ele>
        <time>2017-05-14T07:43:03Z</time>
      </trkpt>
      <trkpt lat="45.67035" lon="4.35782">
        <ele>639</ele>
        <time>2017-05-14T07:43:07Z</time>
      </trkpt>
      <trkpt lat="45.67031" lon="4.35785">
        <ele>641</ele>
        <time>2017-05-14T07:43:14Z</time>
      </trkpt>
      <trkpt lat="45.67027" lon="4.3579">
        <ele>641</ele>
        <time>2017-05-14T07:43:16Z</time>
      </trkpt>
      <trkpt lat="45.67022" lon="4.35795">
        <ele>642</ele>
        <time>2017-05-14T07:43:19Z</time>
      </trkpt>
      <trkpt lat="45.67018" lon="4.358">
        <ele>642</ele>
        <time>2017-05-14T07:43:23Z</time>
      </trkpt>
      <trkpt lat="45.67013" lon="4.35804">
        <ele>643</ele>
        <time>2017-05-14T07:43:27Z</time>
      </trkpt>
      <trkpt lat="45.67008" lon="4.35809">
        <ele>645</ele>
        <time>2017-05-14T07:43:31Z</time>
      </trkpt>
      <trkpt lat="45.67004" lon="4.35813">
        <ele>646</ele>
        <time>2017-05-14T07:43:35Z</time>
      </trkpt>
      <trkpt lat="45.67" lon="4.35818">
        <ele>647</ele>
        <time>2017-05-14T07:43:40Z</time>
      </trkpt>
      <trkpt lat="45.66995" lon="4.35822">
        <ele>648</ele>
        <time>2017-05-14T07:43:43Z</time>
      </trkpt>
      <trkpt lat="45.66991" lon="4.35825">
        <ele>648</ele>
        <time>2017-05-14T07:43:47Z</time>
      </trkpt>
      <trkpt lat="45.66986" lon="4.35828">
        <ele>649</ele>
        <time>2017-05-14T07:43:51Z</time>
      </trkpt>
      <trkpt lat="45.66983" lon="4.35833">
        <ele>649</ele>
        <time>2017-05-14T07:43:55Z</time>
      </trkpt>
      <trkpt lat="45.66981" lon="4.35852">
        <ele>647</ele>
        <time>2017-05-14T07:43:59Z</time>
      </trkpt>
      <trkpt lat="45.6698" lon="4.35889">
        <ele>644</ele>
        <time>2017-05-14T07:44:03Z</time>
      </trkpt>
      <trkpt lat="45.66991" lon="4.35936">
        <ele>641</ele>
        <time>2017-05-14T07:44:07Z</time>
      </trkpt>
      <trkpt lat="45.67009" lon="4.35974">
        <ele>639</ele>
        <time>2017-05-14T07:44:11Z</time>
      </trkpt>
      <trkpt lat="45.67025" lon="4.36015">
        <ele>638</ele>
        <time>2017-05-14T07:44:15Z</time>
      </trkpt>
      <trkpt lat="45.6704" lon="4.36055">
        <ele>636</ele>
        <time>2017-05-14T07:44:19Z</time>
      </trkpt>
      <trkpt lat="45.67055" lon="4.3609">
        <ele>635</ele>
        <time>2017-05-14T07:44:23Z</time>
      </trkpt>
      <trkpt lat="45.67065" lon="4.36118">
        <ele>634</ele>
        <time>2017-05-14T07:44:27Z</time>
      </trkpt>
      <trkpt lat="45.67067" lon="4.36141">
        <ele>635</ele>
        <time>2017-05-14T07:44:31Z</time>
      </trkpt>
      <trkpt lat="45.67066" lon="4.36159">
        <ele>635</ele>
        <time>2017-05-14T07:44:35Z</time>
      </trkpt>
      <trkpt lat="45.67067" lon="4.36181">
        <ele>636</ele>
        <time>2017-05-14T07:44:39Z</time>
      </trkpt>
      <trkpt lat="45.67065" lon="4.36201">
        <ele>634</ele>
        <time>2017-05-14T07:44:43Z</time>
      </trkpt>
      <trkpt lat="45.67062" lon="4.36227">
        <ele>631</ele>
        <time>2017-05-14T07:44:47Z</time>
      </trkpt>
      <trkpt lat="45.67067" lon="4.36242">
        <ele>628</ele>
        <time>2017-05-14T07:44:51Z</time>
      </trkpt>
      <trkpt lat="45.67078" lon="4.36292">
        <ele>624</ele>
        <time>2017-05-14T07:44:56Z</time>
      </trkpt>
      <trkpt lat="45.67082" lon="4.3637">
        <ele>622</ele>
        <time>2017-05-14T07:44:59Z</time>
      </trkpt>
      <trkpt lat="45.67095" lon="4.36436">
        <ele>621</ele>
        <time>2017-05-14T07:45:03Z</time>
      </trkpt>
      <trkpt lat="45.67104" lon="4.36499">
        <ele>619</ele>
        <time>2017-05-14T07:45:07Z</time>
      </trkpt>
      <trkpt lat="45.67111" lon="4.36561">
        <ele>617</ele>
        <time>2017-05-14T07:45:11Z</time>
      </trkpt>
      <trkpt lat="45.6712" lon="4.36624">
        <ele>614</ele>
        <time>2017-05-14T07:45:15Z</time>
      </trkpt>
      <trkpt lat="45.67129" lon="4.36684">
        <ele>613</ele>
        <time>2017-05-14T07:45:20Z</time>
      </trkpt>
      <trkpt lat="45.67137" lon="4.36738">
        <ele>612</ele>
        <time>2017-05-14T07:45:23Z</time>
      </trkpt>
      <trkpt lat="45.67145" lon="4.36786">
        <ele>612</ele>
        <time>2017-05-14T07:45:27Z</time>
      </trkpt>
      <trkpt lat="45.67153" lon="4.3683">
        <ele>612</ele>
        <time>2017-05-14T07:45:31Z</time>
      </trkpt>
      <trkpt lat="45.67161" lon="4.36871">
        <ele>612</ele>
        <time>2017-05-14T07:45:35Z</time>
      </trkpt>
      <trkpt lat="45.6717" lon="4.36905">
        <ele>613</ele>
        <time>2017-05-14T07:45:39Z</time>
      </trkpt>
      <trkpt lat="45.6718" lon="4.36934">
        <ele>614</ele>
        <time>2017-05-14T07:45:44Z</time>
      </trkpt>
      <trkpt lat="45.67188" lon="4.36962">
        <ele>614</ele>
        <time>2017-05-14T07:45:47Z</time>
      </trkpt>
      <trkpt lat="45.67195" lon="4.36989">
        <ele>614</ele>
        <time>2017-05-14T07:45:52Z</time>
      </trkpt>
      <trkpt lat="45.672" lon="4.37017">
        <ele>615</ele>
        <time>2017-05-14T07:45:56Z</time>
      </trkpt>
      <trkpt lat="45.67201" lon="4.37045">
        <ele>615</ele>
        <time>2017-05-14T07:45:59Z</time>
      </trkpt>
      <trkpt lat="45.67194" lon="4.37067">
        <ele>616</ele>
        <time>2017-05-14T07:46:03Z</time>
      </trkpt>
      <trkpt lat="45.67184" lon="4.37091">
        <ele>616</ele>
        <time>2017-05-14T07:46:07Z</time>
      </trkpt>
      <trkpt lat="45.67174" lon="4.37122">
        <ele>615</ele>
        <time>2017-05-14T07:46:11Z</time>
      </trkpt>
      <trkpt lat="45.67162" lon="4.37155">
        <ele>615</ele>
        <time>2017-05-14T07:46:15Z</time>
      </trkpt>
      <trkpt lat="45.67149" lon="4.37186">
        <ele>614</ele>
        <time>2017-05-14T07:46:19Z</time>
      </trkpt>
      <trkpt lat="45.67134" lon="4.37219">
        <ele>614</ele>
        <time>2017-05-14T07:46:23Z</time>
      </trkpt>
      <trkpt lat="45.67118" lon="4.37254">
        <ele>613</ele>
        <time>2017-05-14T07:46:27Z</time>
      </trkpt>
      <trkpt lat="45.67101" lon="4.37292">
        <ele>612</ele>
        <time>2017-05-14T07:46:31Z</time>
      </trkpt>
      <trkpt lat="45.67065" lon="4.37366">
        <ele>611</ele>
        <time>2017-05-14T07:46:37Z</time>
      </trkpt>
      <trkpt lat="45.67047" lon="4.37399">
        <ele>610</ele>
        <time>2017-05-14T07:46:43Z</time>
      </trkpt>
      <trkpt lat="45.67009" lon="4.37451">
        <ele>609</ele>
        <time>2017-05-14T07:46:49Z</time>
      </trkpt>
      <trkpt lat="45.66988" lon="4.3747">
        <ele>609</ele>
        <time>2017-05-14T07:46:55Z</time>
      </trkpt>
      <trkpt lat="45.66965" lon="4.3749">
        <ele>608</ele>
        <time>2017-05-14T07:47:00Z</time>
      </trkpt>
      <trkpt lat="45.66944" lon="4.37509">
        <ele>607</ele>
        <time>2017-05-14T07:47:03Z</time>
      </trkpt>
      <trkpt lat="45.66919" lon="4.37521">
        <ele>605</ele>
        <time>2017-05-14T07:47:08Z</time>
      </trkpt>
      <trkpt lat="45.66891" lon="4.37527">
        <ele>602</ele>
        <time>2017-05-14T07:47:11Z</time>
      </trkpt>
      <trkpt lat="45.66839" lon="4.37562">
        <ele>600</ele>
        <time>2017-05-14T07:47:17Z</time>
      </trkpt>
      <trkpt lat="45.6682" lon="4.37579">
        <ele>591</ele>
        <time>2017-05-14T07:47:23Z</time>
      </trkpt>
      <trkpt lat="45.66802" lon="4.37595">
        <ele>587</ele>
        <time>2017-05-14T07:47:27Z</time>
      </trkpt>
      <trkpt lat="45.66787" lon="4.37612">
        <ele>583</ele>
        <time>2017-05-14T07:47:31Z</time>
      </trkpt>
      <trkpt lat="45.66779" lon="4.3763">
        <ele>579</ele>
        <time>2017-05-14T07:47:35Z</time>
      </trkpt>
      <trkpt lat="45.66769" lon="4.37653">
        <ele>575</ele>
        <time>2017-05-14T07:47:39Z</time>
      </trkpt>
      <trkpt lat="45.66762" lon="4.3768">
        <ele>572</ele>
        <time>2017-05-14T07:47:43Z</time>
      </trkpt>
      <trkpt lat="45.66766" lon="4.37711">
        <ele>568</ele>
        <time>2017-05-14T07:47:48Z</time>
      </trkpt>
      <trkpt lat="45.66776" lon="4.37739">
        <ele>566</ele>
        <time>2017-05-14T07:47:51Z</time>
      </trkpt>
      <trkpt lat="45.66789" lon="4.37767">
        <ele>562</ele>
        <time>2017-05-14T07:47:55Z</time>
      </trkpt>
      <trkpt lat="45.66804" lon="4.37795">
        <ele>559</ele>
        <time>2017-05-14T07:47:59Z</time>
      </trkpt>
      <trkpt lat="45.66815" lon="4.37829">
        <ele>557</ele>
        <time>2017-05-14T07:48:03Z</time>
      </trkpt>
      <trkpt lat="45.6682" lon="4.37872">
        <ele>554</ele>
        <time>2017-05-14T07:48:07Z</time>
      </trkpt>
      <trkpt lat="45.66831" lon="4.3791">
        <ele>551</ele>
        <time>2017-05-14T07:48:11Z</time>
      </trkpt>
      <trkpt lat="45.6685" lon="4.37947">
        <ele>547</ele>
        <time>2017-05-14T07:48:15Z</time>
      </trkpt>
      <trkpt lat="45.66871" lon="4.37967">
        <ele>544</ele>
        <time>2017-05-14T07:48:19Z</time>
      </trkpt>
      <trkpt lat="45.66884" lon="4.37988">
        <ele>541</ele>
        <time>2017-05-14T07:48:23Z</time>
      </trkpt>
      <trkpt lat="45.66883" lon="4.38017">
        <ele>539</ele>
        <time>2017-05-14T07:48:27Z</time>
      </trkpt>
      <trkpt lat="45.66882" lon="4.38057">
        <ele>535</ele>
        <time>2017-05-14T07:48:31Z</time>
      </trkpt>
      <trkpt lat="45.6688" lon="4.38094">
        <ele>533</ele>
        <time>2017-05-14T07:48:35Z</time>
      </trkpt>
      <trkpt lat="45.66881" lon="4.38135">
        <ele>531</ele>
        <time>2017-05-14T07:48:40Z</time>
      </trkpt>
      <trkpt lat="45.66879" lon="4.38175">
        <ele>529</ele>
        <time>2017-05-14T07:48:43Z</time>
      </trkpt>
      <trkpt lat="45.6688" lon="4.38208">
        <ele>526</ele>
        <time>2017-05-14T07:48:47Z</time>
      </trkpt>
      <trkpt lat="45.66896" lon="4.38229">
        <ele>524</ele>
        <time>2017-05-14T07:48:51Z</time>
      </trkpt>
      <trkpt lat="45.66921" lon="4.38246">
        <ele>523</ele>
        <time>2017-05-14T07:48:55Z</time>
      </trkpt>
      <trkpt lat="45.66945" lon="4.3827">
        <ele>522</ele>
        <time>2017-05-14T07:48:59Z</time>
      </trkpt>
      <trkpt lat="45.66958" lon="4.38299">
        <ele>522</ele>
        <time>2017-05-14T07:49:03Z</time>
      </trkpt>
      <trkpt lat="45.66952" lon="4.38333">
        <ele>521</ele>
        <time>2017-05-14T07:49:07Z</time>
      </trkpt>
      <trkpt lat="45.6694" lon="4.38367">
        <ele>519</ele>
        <time>2017-05-14T07:49:11Z</time>
      </trkpt>
      <trkpt lat="45.66923" lon="4.38399">
        <ele>519</ele>
        <time>2017-05-14T07:49:15Z</time>
      </trkpt>
      <trkpt lat="45.6691" lon="4.3843">
        <ele>518</ele>
        <time>2017-05-14T07:49:19Z</time>
      </trkpt>
      <trkpt lat="45.66906" lon="4.38465">
        <ele>518</ele>
        <time>2017-05-14T07:49:23Z</time>
      </trkpt>
      <trkpt lat="45.66899" lon="4.38493">
        <ele>517</ele>
        <time>2017-05-14T07:49:27Z</time>
      </trkpt>
      <trkpt lat="45.6689" lon="4.38517">
        <ele>516</ele>
        <time>2017-05-14T07:49:31Z</time>
      </trkpt>
      <trkpt lat="45.6688" lon="4.38544">
        <ele>516</ele>
        <time>2017-05-14T07:49:35Z</time>
      </trkpt>
      <trkpt lat="45.66872" lon="4.38568">
        <ele>515</ele>
        <time>2017-05-14T07:49:39Z</time>
      </trkpt>
      <trkpt lat="45.66861" lon="4.38604">
        <ele>513</ele>
        <time>2017-05-14T07:49:43Z</time>
      </trkpt>
      <trkpt lat="45.66851" lon="4.38641">
        <ele>512</ele>
        <time>2017-05-14T07:49:47Z</time>
      </trkpt>
      <trkpt lat="45.6684" lon="4.38674">
        <ele>511</ele>
        <time>2017-05-14T07:49:52Z</time>
      </trkpt>
      <trkpt lat="45.66821" lon="4.38742">
        <ele>510</ele>
        <time>2017-05-14T07:49:57Z</time>
      </trkpt>
      <trkpt lat="45.66811" lon="4.38777">
        <ele>508</ele>
        <time>2017-05-14T07:50:03Z</time>
      </trkpt>
      <trkpt lat="45.668" lon="4.3881">
        <ele>506</ele>
        <time>2017-05-14T07:50:07Z</time>
      </trkpt>
      <trkpt lat="45.66789" lon="4.38841">
        <ele>506</ele>
        <time>2017-05-14T07:50:11Z</time>
      </trkpt>
      <trkpt lat="45.66777" lon="4.38872">
        <ele>505</ele>
        <time>2017-05-14T07:50:15Z</time>
      </trkpt>
      <trkpt lat="45.66766" lon="4.389">
        <ele>504</ele>
        <time>2017-05-14T07:50:19Z</time>
      </trkpt>
      <trkpt lat="45.66752" lon="4.38934">
        <ele>503</ele>
        <time>2017-05-14T07:50:23Z</time>
      </trkpt>
      <trkpt lat="45.66736" lon="4.38959">
        <ele>502</ele>
        <time>2017-05-14T07:50:27Z</time>
      </trkpt>
      <trkpt lat="45.66722" lon="4.38981">
        <ele>501</ele>
        <time>2017-05-14T07:50:31Z</time>
      </trkpt>
      <trkpt lat="45.66709" lon="4.39001">
        <ele>501</ele>
        <time>2017-05-14T07:50:35Z</time>
      </trkpt>
      <trkpt lat="45.66696" lon="4.39012">
        <ele>500</ele>
        <time>2017-05-14T07:50:39Z</time>
      </trkpt>
      <trkpt lat="45.66679" lon="4.39013">
        <ele>500</ele>
        <time>2017-05-14T07:50:44Z</time>
      </trkpt>
      <trkpt lat="45.66661" lon="4.39016">
        <ele>500</ele>
        <time>2017-05-14T07:50:48Z</time>
      </trkpt>
      <trkpt lat="45.66644" lon="4.39018">
        <ele>500</ele>
        <time>2017-05-14T07:50:51Z</time>
      </trkpt>
      <trkpt lat="45.66627" lon="4.39019">
        <ele>499</ele>
        <time>2017-05-14T07:50:55Z</time>
      </trkpt>
      <trkpt lat="45.66611" lon="4.3902">
        <ele>499</ele>
        <time>2017-05-14T07:50:59Z</time>
      </trkpt>
      <trkpt lat="45.66595" lon="4.39022">
        <ele>499</ele>
        <time>2017-05-14T07:51:03Z</time>
      </trkpt>
      <trkpt lat="45.66579" lon="4.39025">
        <ele>498</ele>
        <time>2017-05-14T07:51:07Z</time>
      </trkpt>
      <trkpt lat="45.66567" lon="4.39026">
        <ele>498</ele>
        <time>2017-05-14T07:51:11Z</time>
      </trkpt>
      <trkpt lat="45.66556" lon="4.39027">
        <ele>498</ele>
        <time>2017-05-14T07:51:15Z</time>
      </trkpt>
      <trkpt lat="45.66542" lon="4.39036">
        <ele>497</ele>
        <time>2017-05-14T07:51:20Z</time>
      </trkpt>
      <trkpt lat="45.66528" lon="4.39049">
        <ele>496</ele>
        <time>2017-05-14T07:51:23Z</time>
      </trkpt>
      <trkpt lat="45.66518" lon="4.39058">
        <ele>496</ele>
        <time>2017-05-14T07:51:27Z</time>
      </trkpt>
      <trkpt lat="45.66511" lon="4.39066">
        <ele>495</ele>
        <time>2017-05-14T07:51:31Z</time>
      </trkpt>
      <trkpt lat="45.66503" lon="4.39073">
        <ele>495</ele>
        <time>2017-05-14T07:51:35Z</time>
      </trkpt>
      <trkpt lat="45.66489" lon="4.3908">
        <ele>494</ele>
        <time>2017-05-14T07:51:40Z</time>
      </trkpt>
      <trkpt lat="45.66469" lon="4.39086">
        <ele>494</ele>
        <time>2017-05-14T07:51:43Z</time>
      </trkpt>
      <trkpt lat="45.66448" lon="4.39095">
        <ele>493</ele>
        <time>2017-05-14T07:51:47Z</time>
      </trkpt>
      <trkpt lat="45.66427" lon="4.39109">
        <ele>493</ele>
        <time>2017-05-14T07:51:51Z</time>
      </trkpt>
      <trkpt lat="45.66406" lon="4.39127">
        <ele>492</ele>
        <time>2017-05-14T07:51:56Z</time>
      </trkpt>
      <trkpt lat="45.66385" lon="4.39148">
        <ele>491</ele>
        <time>2017-05-14T07:51:59Z</time>
      </trkpt>
      <trkpt lat="45.66364" lon="4.39169">
        <ele>490</ele>
        <time>2017-05-14T07:52:03Z</time>
      </trkpt>
      <trkpt lat="45.66341" lon="4.39184">
        <ele>488</ele>
        <time>2017-05-14T07:52:07Z</time>
      </trkpt>
      <trkpt lat="45.66321" lon="4.39197">
        <ele>485</ele>
        <time>2017-05-14T07:52:11Z</time>
      </trkpt>
      <trkpt lat="45.66306" lon="4.39209">
        <ele>484</ele>
        <time>2017-05-14T07:52:15Z</time>
      </trkpt>
      <trkpt lat="45.66285" lon="4.39232">
        <ele>481</ele>
        <time>2017-05-14T07:52:19Z</time>
      </trkpt>
      <trkpt lat="45.66269" lon="4.39244">
        <ele>478</ele>
        <time>2017-05-14T07:52:23Z</time>
      </trkpt>
      <trkpt lat="45.66264" lon="4.39245">
        <ele>478</ele>
        <time>2017-05-14T07:52:27Z</time>
      </trkpt>
      <trkpt lat="45.66257" lon="4.39246">
        <ele>478</ele>
        <time>2017-05-14T07:52:32Z</time>
      </trkpt>
      <trkpt lat="45.66244" lon="4.39251">
        <ele>478</ele>
        <time>2017-05-14T07:52:37Z</time>
      </trkpt>
      <trkpt lat="45.66238" lon="4.39256">
        <ele>479</ele>
        <time>2017-05-14T07:52:43Z</time>
      </trkpt>
      <trkpt lat="45.6623" lon="4.39255">
        <ele>479</ele>
        <time>2017-05-14T07:52:48Z</time>
      </trkpt>
      <trkpt lat="45.66222" lon="4.39253">
        <ele>480</ele>
        <time>2017-05-14T07:52:52Z</time>
      </trkpt>
      <trkpt lat="45.66215" lon="4.39251">
        <ele>481</ele>
        <time>2017-05-14T07:52:55Z</time>
      </trkpt>
      <trkpt lat="45.66208" lon="4.39248">
        <ele>481</ele>
        <time>2017-05-14T07:52:59Z</time>
      </trkpt>
      <trkpt lat="45.66201" lon="4.39245">
        <ele>481</ele>
        <time>2017-05-14T07:53:03Z</time>
      </trkpt>
      <trkpt lat="45.66193" lon="4.39243">
        <ele>481</ele>
        <time>2017-05-14T07:53:07Z</time>
      </trkpt>
      <trkpt lat="45.66185" lon="4.39239">
        <ele>482</ele>
        <time>2017-05-14T07:53:11Z</time>
      </trkpt>
      <trkpt lat="45.66179" lon="4.39237">
        <ele>482</ele>
        <time>2017-05-14T07:53:15Z</time>
      </trkpt>
      <trkpt lat="45.66173" lon="4.39234">
        <ele>483</ele>
        <time>2017-05-14T07:53:19Z</time>
      </trkpt>
      <trkpt lat="45.66168" lon="4.39231">
        <ele>483</ele>
        <time>2017-05-14T07:53:24Z</time>
      </trkpt>
      <trkpt lat="45.66162" lon="4.39229">
        <ele>483</ele>
        <time>2017-05-14T07:53:27Z</time>
      </trkpt>
      <trkpt lat="45.66152" lon="4.39226">
        <ele>484</ele>
        <time>2017-05-14T07:53:35Z</time>
      </trkpt>
      <trkpt lat="45.66146" lon="4.39223">
        <ele>485</ele>
        <time>2017-05-14T07:53:39Z</time>
      </trkpt>
      <trkpt lat="45.66137" lon="4.39216">
        <ele>485</ele>
        <time>2017-05-14T07:53:44Z</time>
      </trkpt>
      <trkpt lat="45.66132" lon="4.39212">
        <ele>486</ele>
        <time>2017-05-14T07:53:51Z</time>
      </trkpt>
      <trkpt lat="45.66126" lon="4.39209">
        <ele>487</ele>
        <time>2017-05-14T07:53:55Z</time>
      </trkpt>
      <trkpt lat="45.66116" lon="4.39201">
        <ele>487</ele>
        <time>2017-05-14T07:54:00Z</time>
      </trkpt>
      <trkpt lat="45.66111" lon="4.39195">
        <ele>488</ele>
        <time>2017-05-14T07:54:03Z</time>
      </trkpt>
      <trkpt lat="45.66107" lon="4.39188">
        <ele>490</ele>
        <time>2017-05-14T07:54:11Z</time>
      </trkpt>
      <trkpt lat="45.66104" lon="4.39182">
        <ele>490</ele>
        <time>2017-05-14T07:54:15Z</time>
      </trkpt>
      <trkpt lat="45.66103" lon="4.39176">
        <ele>491</ele>
        <time>2017-05-14T07:54:19Z</time>
      </trkpt>
      <trkpt lat="45.66102" lon="4.39169">
        <ele>492</ele>
        <time>2017-05-14T07:54:23Z</time>
      </trkpt>
      <trkpt lat="45.66101" lon="4.39162">
        <ele>493</ele>
        <time>2017-05-14T07:54:27Z</time>
      </trkpt>
      <trkpt lat="45.66098" lon="4.39153">
        <ele>493</ele>
        <time>2017-05-14T07:54:31Z</time>
      </trkpt>
      <trkpt lat="45.66095" lon="4.39135">
        <ele>493</ele>
        <time>2017-05-14T07:54:36Z</time>
      </trkpt>
      <trkpt lat="45.66091" lon="4.39122">
        <ele>494</ele>
        <time>2017-05-14T07:54:43Z</time>
      </trkpt>
      <trkpt lat="45.66088" lon="4.39111">
        <ele>495</ele>
        <time>2017-05-14T07:54:47Z</time>
      </trkpt>
      <trkpt lat="45.6608" lon="4.39097">
        <ele>495</ele>
        <time>2017-05-14T07:54:52Z</time>
      </trkpt>
      <trkpt lat="45.66072" lon="4.39092">
        <ele>496</ele>
        <time>2017-05-14T07:54:56Z</time>
      </trkpt>
      <trkpt lat="45.66064" lon="4.3909">
        <ele>497</ele>
        <time>2017-05-14T07:55:03Z</time>
      </trkpt>
      <trkpt lat="45.66053" lon="4.39089">
        <ele>498</ele>
        <time>2017-05-14T07:55:07Z</time>
      </trkpt>
      <trkpt lat="45.66046" lon="4.39094">
        <ele>498</ele>
        <time>2017-05-14T07:55:11Z</time>
      </trkpt>
      <trkpt lat="45.66038" lon="4.39106">
        <ele>499</ele>
        <time>2017-05-14T07:55:16Z</time>
      </trkpt>
      <trkpt lat="45.66034" lon="4.39113">
        <ele>501</ele>
        <time>2017-05-14T07:55:23Z</time>
      </trkpt>
      <trkpt lat="45.66032" lon="4.39118">
        <ele>502</ele>
        <time>2017-05-14T07:55:27Z</time>
      </trkpt>
      <trkpt lat="45.66028" lon="4.39126">
        <ele>503</ele>
        <time>2017-05-14T07:55:35Z</time>
      </trkpt>
      <trkpt lat="45.66025" lon="4.39131">
        <ele>504</ele>
        <time>2017-05-14T07:55:40Z</time>
      </trkpt>
      <trkpt lat="45.66022" lon="4.39137">
        <ele>505</ele>
        <time>2017-05-14T07:55:43Z</time>
      </trkpt>
      <trkpt lat="45.66018" lon="4.39143">
        <ele>506</ele>
        <time>2017-05-14T07:55:48Z</time>
      </trkpt>
      <trkpt lat="45.66015" lon="4.39149">
        <ele>507</ele>
        <time>2017-05-14T07:55:51Z</time>
      </trkpt>
      <trkpt lat="45.66011" lon="4.39154">
        <ele>508</ele>
        <time>2017-05-14T07:55:55Z</time>
      </trkpt>
      <trkpt lat="45.66008" lon="4.39159">
        <ele>509</ele>
        <time>2017-05-14T07:55:59Z</time>
      </trkpt>
      <trkpt lat="45.66004" lon="4.39163">
        <ele>510</ele>
        <time>2017-05-14T07:56:03Z</time>
      </trkpt>
      <trkpt lat="45.66002" lon="4.39168">
        <ele>511</ele>
        <time>2017-05-14T07:56:07Z</time>
      </trkpt>
      <trkpt lat="45.65999" lon="4.39173">
        <ele>512</ele>
        <time>2017-05-14T07:56:11Z</time>
      </trkpt>
      <trkpt lat="45.65995" lon="4.39179">
        <ele>512</ele>
        <time>2017-05-14T07:56:15Z</time>
      </trkpt>
      <trkpt lat="45.65991" lon="4.39183">
        <ele>513</ele>
        <time>2017-05-14T07:56:19Z</time>
      </trkpt>
      <trkpt lat="45.65986" lon="4.39187">
        <ele>514</ele>
        <time>2017-05-14T07:56:23Z</time>
      </trkpt>
      <trkpt lat="45.65981" lon="4.39191">
        <ele>514</ele>
        <time>2017-05-14T07:56:27Z</time>
      </trkpt>
      <trkpt lat="45.65976" lon="4.39195">
        <ele>515</ele>
        <time>2017-05-14T07:56:31Z</time>
      </trkpt>
      <trkpt lat="45.65972" lon="4.39197">
        <ele>516</ele>
        <time>2017-05-14T07:56:35Z</time>
      </trkpt>
      <trkpt lat="45.65967" lon="4.39201">
        <ele>517</ele>
        <time>2017-05-14T07:56:40Z</time>
      </trkpt>
      <trkpt lat="45.65962" lon="4.39205">
        <ele>518</ele>
        <time>2017-05-14T07:56:43Z</time>
      </trkpt>
      <trkpt lat="45.65959" lon="4.39211">
        <ele>518</ele>
        <time>2017-05-14T07:56:47Z</time>
      </trkpt>
      <trkpt lat="45.65956" lon="4.39215">
        <ele>519</ele>
        <time>2017-05-14T07:56:51Z</time>
      </trkpt>
      <trkpt lat="45.65953" lon="4.3922">
        <ele>520</ele>
        <time>2017-05-14T07:56:56Z</time>
      </trkpt>
      <trkpt lat="45.65948" lon="4.39225">
        <ele>521</ele>
        <time>2017-05-14T07:57:00Z</time>
      </trkpt>
      <trkpt lat="45.65944" lon="4.39229">
        <ele>522</ele>
        <time>2017-05-14T07:57:03Z</time>
      </trkpt>
      <trkpt lat="45.65941" lon="4.39233">
        <ele>523</ele>
        <time>2017-05-14T07:57:07Z</time>
      </trkpt>
      <trkpt lat="45.65936" lon="4.39238">
        <ele>524</ele>
        <time>2017-05-14T07:57:11Z</time>
      </trkpt>
      <trkpt lat="45.65931" lon="4.39243">
        <ele>525</ele>
        <time>2017-05-14T07:57:15Z</time>
      </trkpt>
      <trkpt lat="45.65928" lon="4.39249">
        <ele>526</ele>
        <time>2017-05-14T07:57:19Z</time>
      </trkpt>
      <trkpt lat="45.65924" lon="4.39255">
        <ele>526</ele>
        <time>2017-05-14T07:57:23Z</time>
      </trkpt>
      <trkpt lat="45.65921" lon="4.39262">
        <ele>527</ele>
        <time>2017-05-14T07:57:27Z</time>
      </trkpt>
      <trkpt lat="45.65917" lon="4.39268">
        <ele>528</ele>
        <time>2017-05-14T07:57:31Z</time>
      </trkpt>
      <trkpt lat="45.65914" lon="4.39274">
        <ele>529</ele>
        <time>2017-05-14T07:57:35Z</time>
      </trkpt>
      <trkpt lat="45.65911" lon="4.39282">
        <ele>530</ele>
        <time>2017-05-14T07:57:39Z</time>
      </trkpt>
      <trkpt lat="45.6591" lon="4.3929">
        <ele>530</ele>
        <time>2017-05-14T07:57:44Z</time>
      </trkpt>
      <trkpt lat="45.65908" lon="4.39297">
        <ele>531</ele>
        <time>2017-05-14T07:57:47Z</time>
      </trkpt>
      <trkpt lat="45.65906" lon="4.39305">
        <ele>532</ele>
        <time>2017-05-14T07:57:52Z</time>
      </trkpt>
      <trkpt lat="45.65903" lon="4.39314">
        <ele>533</ele>
        <time>2017-05-14T07:57:55Z</time>
      </trkpt>
      <trkpt lat="45.65901" lon="4.39322">
        <ele>534</ele>
        <time>2017-05-14T07:57:59Z</time>
      </trkpt>
      <trkpt lat="45.65899" lon="4.3933">
        <ele>534</ele>
        <time>2017-05-14T07:58:03Z</time>
      </trkpt>
      <trkpt lat="45.65897" lon="4.39339">
        <ele>535</ele>
        <time>2017-05-14T07:58:09Z</time>
      </trkpt>
      <trkpt lat="45.65895" lon="4.39348">
        <ele>536</ele>
        <time>2017-05-14T07:58:11Z</time>
      </trkpt>
      <trkpt lat="45.65893" lon="4.39356">
        <ele>537</ele>
        <time>2017-05-14T07:58:15Z</time>
      </trkpt>
      <trkpt lat="45.6589" lon="4.39367">
        <ele>538</ele>
        <time>2017-05-14T07:58:20Z</time>
      </trkpt>
      <trkpt lat="45.65889" lon="4.39375">
        <ele>539</ele>
        <time>2017-05-14T07:58:23Z</time>
      </trkpt>
      <trkpt lat="45.65887" lon="4.39383">
        <ele>539</ele>
        <time>2017-05-14T07:58:27Z</time>
      </trkpt>
      <trkpt lat="45.65885" lon="4.39393">
        <ele>540</ele>
        <time>2017-05-14T07:58:31Z</time>
      </trkpt>
      <trkpt lat="45.65884" lon="4.39404">
        <ele>541</ele>
        <time>2017-05-14T07:58:35Z</time>
      </trkpt>
      <trkpt lat="45.65887" lon="4.39413">
        <ele>542</ele>
        <time>2017-05-14T07:58:39Z</time>
      </trkpt>
      <trkpt lat="45.65898" lon="4.39419">
        <ele>541</ele>
        <time>2017-05-14T07:58:44Z</time>
      </trkpt>
      <trkpt lat="45.65914" lon="4.39427">
        <ele>541</ele>
        <time>2017-05-14T07:58:47Z</time>
      </trkpt>
      <trkpt lat="45.65935" lon="4.3944">
        <ele>540</ele>
        <time>2017-05-14T07:58:51Z</time>
      </trkpt>
      <trkpt lat="45.65958" lon="4.3946">
        <ele>539</ele>
        <time>2017-05-14T07:58:55Z</time>
      </trkpt>
      <trkpt lat="45.6599" lon="4.39476">
        <ele>536</ele>
        <time>2017-05-14T07:58:59Z</time>
      </trkpt>
      <trkpt lat="45.66021" lon="4.39493">
        <ele>531</ele>
        <time>2017-05-14T07:59:03Z</time>
      </trkpt>
      <trkpt lat="45.66038" lon="4.39536">
        <ele>527</ele>
        <time>2017-05-14T07:59:07Z</time>
      </trkpt>
      <trkpt lat="45.66049" lon="4.39582">
        <ele>524</ele>
        <time>2017-05-14T07:59:11Z</time>
      </trkpt>
      <trkpt lat="45.66038" lon="4.39619">
        <ele>521</ele>
        <time>2017-05-14T07:59:15Z</time>
      </trkpt>
      <trkpt lat="45.66055" lon="4.3964">
        <ele>519</ele>
        <time>2017-05-14T07:59:19Z</time>
      </trkpt>
      <trkpt lat="45.66079" lon="4.39659">
        <ele>517</ele>
        <time>2017-05-14T07:59:23Z</time>
      </trkpt>
      <trkpt lat="45.66104" lon="4.39678">
        <ele>517</ele>
        <time>2017-05-14T07:59:27Z</time>
      </trkpt>
      <trkpt lat="45.66126" lon="4.39696">
        <ele>517</ele>
        <time>2017-05-14T07:59:31Z</time>
      </trkpt>
      <trkpt lat="45.6615" lon="4.39712">
        <ele>517</ele>
        <time>2017-05-14T07:59:35Z</time>
      </trkpt>
      <trkpt lat="45.66176" lon="4.39726">
        <ele>516</ele>
        <time>2017-05-14T07:59:39Z</time>
      </trkpt>
      <trkpt lat="45.66203" lon="4.39745">
        <ele>515</ele>
        <time>2017-05-14T07:59:43Z</time>
      </trkpt>
      <trkpt lat="45.66225" lon="4.39773">
        <ele>514</ele>
        <time>2017-05-14T07:59:48Z</time>
      </trkpt>
      <trkpt lat="45.66246" lon="4.39798">
        <ele>514</ele>
        <time>2017-05-14T07:59:51Z</time>
      </trkpt>
      <trkpt lat="45.6627" lon="4.39823">
        <ele>513</ele>
        <time>2017-05-14T07:59:56Z</time>
      </trkpt>
      <trkpt lat="45.66292" lon="4.39861">
        <ele>510</ele>
        <time>2017-05-14T07:59:59Z</time>
      </trkpt>
      <trkpt lat="45.66294" lon="4.39916">
        <ele>506</ele>
        <time>2017-05-14T08:00:03Z</time>
      </trkpt>
      <trkpt lat="45.66289" lon="4.39961">
        <ele>501</ele>
        <time>2017-05-14T08:00:07Z</time>
      </trkpt>
      <trkpt lat="45.66278" lon="4.39985">
        <ele>498</ele>
        <time>2017-05-14T08:00:11Z</time>
      </trkpt>
      <trkpt lat="45.66269" lon="4.39993">
        <ele>498</ele>
        <time>2017-05-14T08:00:15Z</time>
      </trkpt>
      <trkpt lat="45.66263" lon="4.39999">
        <ele>499</ele>
        <time>2017-05-14T08:00:19Z</time>
      </trkpt>
      <trkpt lat="45.66256" lon="4.40005">
        <ele>500</ele>
        <time>2017-05-14T08:00:23Z</time>
      </trkpt>
      <trkpt lat="45.6625" lon="4.40009">
        <ele>501</ele>
        <time>2017-05-14T08:00:27Z</time>
      </trkpt>
      <trkpt lat="45.66243" lon="4.40013">
        <ele>502</ele>
        <time>2017-05-14T08:00:31Z</time>
      </trkpt>
      <trkpt lat="45.66236" lon="4.40022">
        <ele>503</ele>
        <time>2017-05-14T08:00:35Z</time>
      </trkpt>
      <trkpt lat="45.66224" lon="4.40031">
        <ele>504</ele>
        <time>2017-05-14T08:00:39Z</time>
      </trkpt>
      <trkpt lat="45.66213" lon="4.40041">
        <ele>506</ele>
        <time>2017-05-14T08:00:46Z</time>
      </trkpt>
      <trkpt lat="45.6622" lon="4.40052">
        <ele>506</ele>
        <time>2017-05-14T08:00:48Z</time>
      </trkpt>
      <trkpt lat="45.66226" lon="4.40061">
        <ele>506</ele>
        <time>2017-05-14T08:00:51Z</time>
      </trkpt>
      <trkpt lat="45.66233" lon="4.40071">
        <ele>507</ele>
        <time>2017-05-14T08:00:55Z</time>
      </trkpt>
      <trkpt lat="45.66241" lon="4.40084">
        <ele>508</ele>
        <time>2017-05-14T08:00:59Z</time>
      </trkpt>
      <trkpt lat="45.66251" lon="4.40095">
        <ele>508</ele>
        <time>2017-05-14T08:01:03Z</time>
      </trkpt>
      <trkpt lat="45.66259" lon="4.40106">
        <ele>509</ele>
        <time>2017-05-14T08:01:07Z</time>
      </trkpt>
      <trkpt lat="45.66269" lon="4.40116">
        <ele>510</ele>
        <time>2017-05-14T08:01:11Z</time>
      </trkpt>
      <trkpt lat="45.66277" lon="4.40126">
        <ele>511</ele>
        <time>2017-05-14T08:01:15Z</time>
      </trkpt>
      <trkpt lat="45.66285" lon="4.40136">
        <ele>512</ele>
        <time>2017-05-14T08:01:19Z</time>
      </trkpt>
      <trkpt lat="45.66291" lon="4.40148">
        <ele>514</ele>
        <time>2017-05-14T08:01:23Z</time>
      </trkpt>
      <trkpt lat="45.66298" lon="4.4016">
        <ele>514</ele>
        <time>2017-05-14T08:01:27Z</time>
      </trkpt>
      <trkpt lat="45.66304" lon="4.40171">
        <ele>515</ele>
        <time>2017-05-14T08:01:31Z</time>
      </trkpt>
      <trkpt lat="45.6631" lon="4.40183">
        <ele>516</ele>
        <time>2017-05-14T08:01:35Z</time>
      </trkpt>
      <trkpt lat="45.66317" lon="4.40195">
        <ele>517</ele>
        <time>2017-05-14T08:01:39Z</time>
      </trkpt>
      <trkpt lat="45.66322" lon="4.40209">
        <ele>518</ele>
        <time>2017-05-14T08:01:43Z</time>
      </trkpt>
      <trkpt lat="45.66326" lon="4.40223">
        <ele>519</ele>
        <time>2017-05-14T08:01:47Z</time>
      </trkpt>
      <trkpt lat="45.6633" lon="4.40237">
        <ele>520</ele>
        <time>2017-05-14T08:01:51Z</time>
      </trkpt>
      <trkpt lat="45.66333" lon="4.40246">
        <ele>520</ele>
        <time>2017-05-14T08:01:55Z</time>
      </trkpt>
      <trkpt lat="45.66332" lon="4.40255">
        <ele>522</ele>
        <time>2017-05-14T08:02:19Z</time>
      </trkpt>
      <trkpt lat="45.66327" lon="4.40252">
        <ele>522</ele>
        <time>2017-05-14T08:02:23Z</time>
      </trkpt>
      <trkpt lat="45.66321" lon="4.40247">
        <ele>523</ele>
        <time>2017-05-14T08:02:27Z</time>
      </trkpt>
      <trkpt lat="45.66316" lon="4.40244">
        <ele>524</ele>
        <time>2017-05-14T08:02:31Z</time>
      </trkpt>
      <trkpt lat="45.66311" lon="4.40241">
        <ele>525</ele>
        <time>2017-05-14T08:02:35Z</time>
      </trkpt>
      <trkpt lat="45.66306" lon="4.40238">
        <ele>525</ele>
        <time>2017-05-14T08:02:39Z</time>
      </trkpt>
      <trkpt lat="45.66301" lon="4.40236">
        <ele>526</ele>
        <time>2017-05-14T08:02:43Z</time>
      </trkpt>
      <trkpt lat="45.66296" lon="4.40235">
        <ele>527</ele>
        <time>2017-05-14T08:02:47Z</time>
      </trkpt>
      <trkpt lat="45.66291" lon="4.40237">
        <ele>528</ele>
        <time>2017-05-14T08:02:52Z</time>
      </trkpt>
      <trkpt lat="45.66286" lon="4.40239">
        <ele>529</ele>
        <time>2017-05-14T08:02:55Z</time>
      </trkpt>
      <trkpt lat="45.66281" lon="4.40243">
        <ele>530</ele>
        <time>2017-05-14T08:02:59Z</time>
      </trkpt>
      <trkpt lat="45.66277" lon="4.40246">
        <ele>531</ele>
        <time>2017-05-14T08:03:03Z</time>
      </trkpt>
      <trkpt lat="45.66272" lon="4.40251">
        <ele>532</ele>
        <time>2017-05-14T08:03:07Z</time>
      </trkpt>
      <trkpt lat="45.66268" lon="4.40255">
        <ele>533</ele>
        <time>2017-05-14T08:03:11Z</time>
      </trkpt>
      <trkpt lat="45.66263" lon="4.4026">
        <ele>533</ele>
        <time>2017-05-14T08:03:15Z</time>
      </trkpt>
      <trkpt lat="45.66259" lon="4.40264">
        <ele>534</ele>
        <time>2017-05-14T08:03:19Z</time>
      </trkpt>
      <trkpt lat="45.66255" lon="4.40269">
        <ele>535</ele>
        <time>2017-05-14T08:03:23Z</time>
      </trkpt>
      <trkpt lat="45.66252" lon="4.40274">
        <ele>536</ele>
        <time>2017-05-14T08:03:27Z</time>
      </trkpt>
      <trkpt lat="45.66249" lon="4.4028">
        <ele>537</ele>
        <time>2017-05-14T08:03:31Z</time>
      </trkpt>
      <trkpt lat="45.66248" lon="4.40287">
        <ele>538</ele>
        <time>2017-05-14T08:03:35Z</time>
      </trkpt>
      <trkpt lat="45.66248" lon="4.40294">
        <ele>538</ele>
        <time>2017-05-14T08:03:39Z</time>
      </trkpt>
      <trkpt lat="45.66248" lon="4.40301">
        <ele>539</ele>
        <time>2017-05-14T08:03:43Z</time>
      </trkpt>
      <trkpt lat="45.66249" lon="4.40308">
        <ele>540</ele>
        <time>2017-05-14T08:03:47Z</time>
      </trkpt>
      <trkpt lat="45.66251" lon="4.40316">
        <ele>541</ele>
        <time>2017-05-14T08:03:51Z</time>
      </trkpt>
      <trkpt lat="45.66252" lon="4.40323">
        <ele>541</ele>
        <time>2017-05-14T08:03:55Z</time>
      </trkpt>
      <trkpt lat="45.66254" lon="4.40331">
        <ele>542</ele>
        <time>2017-05-14T08:03:59Z</time>
      </trkpt>
      <trkpt lat="45.66255" lon="4.40338">
        <ele>543</ele>
        <time>2017-05-14T08:04:03Z</time>
      </trkpt>
      <trkpt lat="45.66256" lon="4.40346">
        <ele>544</ele>
        <time>2017-05-14T08:04:08Z</time>
      </trkpt>
      <trkpt lat="45.66258" lon="4.40354">
        <ele>545</ele>
        <time>2017-05-14T08:04:11Z</time>
      </trkpt>
      <trkpt lat="45.66259" lon="4.40361">
        <ele>545</ele>
        <time>2017-05-14T08:04:16Z</time>
      </trkpt>
      <trkpt lat="45.6626" lon="4.40368">
        <ele>546</ele>
        <time>2017-05-14T08:04:19Z</time>
      </trkpt>
      <trkpt lat="45.66261" lon="4.40375">
        <ele>547</ele>
        <time>2017-05-14T08:04:23Z</time>
      </trkpt>
      <trkpt lat="45.66263" lon="4.40383">
        <ele>547</ele>
        <time>2017-05-14T08:04:27Z</time>
      </trkpt>
      <trkpt lat="45.66264" lon="4.40391">
        <ele>548</ele>
        <time>2017-05-14T08:04:32Z</time>
      </trkpt>
      <trkpt lat="45.66265" lon="4.40398">
        <ele>549</ele>
        <time>2017-05-14T08:04:35Z</time>
      </trkpt>
      <trkpt lat="45.66265" lon="4.40406">
        <ele>550</ele>
        <time>2017-05-14T08:04:39Z</time>
      </trkpt>
      <trkpt lat="45.66265" lon="4.40413">
        <ele>550</ele>
        <time>2017-05-14T08:04:43Z</time>
      </trkpt>
      <trkpt lat="45.66265" lon="4.40421">
        <ele>551</ele>
        <time>2017-05-14T08:04:47Z</time>
      </trkpt>
      <trkpt lat="45.66264" lon="4.40429">
        <ele>553</ele>
        <time>2017-05-14T08:04:56Z</time>
      </trkpt>
      <trkpt lat="45.66262" lon="4.40443">
        <ele>553</ele>
        <time>2017-05-14T08:04:57Z</time>
      </trkpt>
      <trkpt lat="45.66261" lon="4.40449">
        <ele>555</ele>
        <time>2017-05-14T08:05:03Z</time>
      </trkpt>
      <trkpt lat="45.6626" lon="4.40455">
        <ele>556</ele>
        <time>2017-05-14T08:05:07Z</time>
      </trkpt>
      <trkpt lat="45.66259" lon="4.40462">
        <ele>556</ele>
        <time>2017-05-14T08:05:11Z</time>
      </trkpt>
      <trkpt lat="45.66257" lon="4.40469">
        <ele>557</ele>
        <time>2017-05-14T08:05:15Z</time>
      </trkpt>
      <trkpt lat="45.66254" lon="4.40469">
        <ele>558</ele>
        <time>2017-05-14T08:05:19Z</time>
      </trkpt>
      <trkpt lat="45.6625" lon="4.40465">
        <ele>558</ele>
        <time>2017-05-14T08:05:23Z</time>
      </trkpt>
      <trkpt lat="45.66247" lon="4.4046">
        <ele>559</ele>
        <time>2017-05-14T08:05:27Z</time>
      </trkpt>
      <trkpt lat="45.66243" lon="4.40454">
        <ele>560</ele>
        <time>2017-05-14T08:05:31Z</time>
      </trkpt>
      <trkpt lat="45.6624" lon="4.40449">
        <ele>560</ele>
        <time>2017-05-14T08:05:35Z</time>
      </trkpt>
      <trkpt lat="45.66235" lon="4.40444">
        <ele>561</ele>
        <time>2017-05-14T08:05:39Z</time>
      </trkpt>
      <trkpt lat="45.6623" lon="4.4044">
        <ele>562</ele>
        <time>2017-05-14T08:05:43Z</time>
      </trkpt>
      <trkpt lat="45.66221" lon="4.40434">
        <ele>563</ele>
        <time>2017-05-14T08:05:49Z</time>
      </trkpt>
      <trkpt lat="45.66218" lon="4.40433">
        <ele>565</ele>
        <time>2017-05-14T08:05:55Z</time>
      </trkpt>
      <trkpt lat="45.66213" lon="4.40436">
        <ele>566</ele>
        <time>2017-05-14T08:05:59Z</time>
      </trkpt>
      <trkpt lat="45.6621" lon="4.40441">
        <ele>566</ele>
        <time>2017-05-14T08:06:03Z</time>
      </trkpt>
      <trkpt lat="45.66209" lon="4.40446">
        <ele>567</ele>
        <time>2017-05-14T08:06:07Z</time>
      </trkpt>
      <trkpt lat="45.66208" lon="4.40452">
        <ele>568</ele>
        <time>2017-05-14T08:06:12Z</time>
      </trkpt>
      <trkpt lat="45.66206" lon="4.40456">
        <ele>570</ele>
        <time>2017-05-14T08:06:20Z</time>
      </trkpt>
      <trkpt lat="45.66203" lon="4.40469">
        <ele>570</ele>
        <time>2017-05-14T08:06:21Z</time>
      </trkpt>
      <trkpt lat="45.66201" lon="4.40475">
        <ele>571</ele>
        <time>2017-05-14T08:06:25Z</time>
      </trkpt>
      <trkpt lat="45.662" lon="4.40483">
        <ele>573</ele>
        <time>2017-05-14T08:06:31Z</time>
      </trkpt>
      <trkpt lat="45.66196" lon="4.40489">
        <ele>573</ele>
        <time>2017-05-14T08:06:35Z</time>
      </trkpt>
      <trkpt lat="45.66193" lon="4.40495">
        <ele>574</ele>
        <time>2017-05-14T08:06:39Z</time>
      </trkpt>
      <trkpt lat="45.6619" lon="4.40501">
        <ele>575</ele>
        <time>2017-05-14T08:06:43Z</time>
      </trkpt>
      <trkpt lat="45.66187" lon="4.40507">
        <ele>576</ele>
        <time>2017-05-14T08:06:47Z</time>
      </trkpt>
      <trkpt lat="45.66184" lon="4.40511">
        <ele>577</ele>
        <time>2017-05-14T08:06:51Z</time>
      </trkpt>
      <trkpt lat="45.6618" lon="4.40516">
        <ele>578</ele>
        <time>2017-05-14T08:06:55Z</time>
      </trkpt>
      <trkpt lat="45.66176" lon="4.4052">
        <ele>579</ele>
        <time>2017-05-14T08:07:00Z</time>
      </trkpt>
      <trkpt lat="45.66173" lon="4.40524">
        <ele>580</ele>
        <time>2017-05-14T08:07:03Z</time>
      </trkpt>
      <trkpt lat="45.6617" lon="4.40528">
        <ele>580</ele>
        <time>2017-05-14T08:07:07Z</time>
      </trkpt>
      <trkpt lat="45.66166" lon="4.40532">
        <ele>581</ele>
        <time>2017-05-14T08:07:11Z</time>
      </trkpt>
      <trkpt lat="45.66163" lon="4.40536">
        <ele>582</ele>
        <time>2017-05-14T08:07:15Z</time>
      </trkpt>
      <trkpt lat="45.66159" lon="4.4054">
        <ele>583</ele>
        <time>2017-05-14T08:07:19Z</time>
      </trkpt>
      <trkpt lat="45.66156" lon="4.40544">
        <ele>583</ele>
        <time>2017-05-14T08:07:23Z</time>
      </trkpt>
      <trkpt lat="45.66153" lon="4.40548">
        <ele>584</ele>
        <time>2017-05-14T08:07:27Z</time>
      </trkpt>
      <trkpt lat="45.66149" lon="4.40553">
        <ele>585</ele>
        <time>2017-05-14T08:07:31Z</time>
      </trkpt>
      <trkpt lat="45.66146" lon="4.40559">
        <ele>586</ele>
        <time>2017-05-14T08:07:35Z</time>
      </trkpt>
      <trkpt lat="45.66139" lon="4.40569">
        <ele>587</ele>
        <time>2017-05-14T08:07:43Z</time>
      </trkpt>
      <trkpt lat="45.66137" lon="4.40574">
        <ele>588</ele>
        <time>2017-05-14T08:07:47Z</time>
      </trkpt>
      <trkpt lat="45.66133" lon="4.4058">
        <ele>589</ele>
        <time>2017-05-14T08:07:52Z</time>
      </trkpt>
      <trkpt lat="45.66129" lon="4.40585">
        <ele>590</ele>
        <time>2017-05-14T08:07:56Z</time>
      </trkpt>
      <trkpt lat="45.66125" lon="4.40589">
        <ele>590</ele>
        <time>2017-05-14T08:07:59Z</time>
      </trkpt>
      <trkpt lat="45.6612" lon="4.40596">
        <ele>591</ele>
        <time>2017-05-14T08:08:03Z</time>
      </trkpt>
      <trkpt lat="45.66113" lon="4.40599">
        <ele>592</ele>
        <time>2017-05-14T08:08:07Z</time>
      </trkpt>
      <trkpt lat="45.66109" lon="4.40603">
        <ele>593</ele>
        <time>2017-05-14T08:08:11Z</time>
      </trkpt>
      <trkpt lat="45.66104" lon="4.40609">
        <ele>594</ele>
        <time>2017-05-14T08:08:15Z</time>
      </trkpt>
      <trkpt lat="45.661" lon="4.40615">
        <ele>594</ele>
        <time>2017-05-14T08:08:19Z</time>
      </trkpt>
      <trkpt lat="45.66095" lon="4.40622">
        <ele>595</ele>
        <time>2017-05-14T08:08:23Z</time>
      </trkpt>
      <trkpt lat="45.6609" lon="4.40628">
        <ele>596</ele>
        <time>2017-05-14T08:08:27Z</time>
      </trkpt>
      <trkpt lat="45.66085" lon="4.40634">
        <ele>597</ele>
        <time>2017-05-14T08:08:31Z</time>
      </trkpt>
      <trkpt lat="45.6608" lon="4.40642">
        <ele>597</ele>
        <time>2017-05-14T08:08:35Z</time>
      </trkpt>
      <trkpt lat="45.66075" lon="4.40647">
        <ele>598</ele>
        <time>2017-05-14T08:08:39Z</time>
      </trkpt>
      <trkpt lat="45.6607" lon="4.40654">
        <ele>598</ele>
        <time>2017-05-14T08:08:43Z</time>
      </trkpt>
      <trkpt lat="45.66064" lon="4.40659">
        <ele>598</ele>
        <time>2017-05-14T08:08:47Z</time>
      </trkpt>
      <trkpt lat="45.66059" lon="4.40665">
        <ele>599</ele>
        <time>2017-05-14T08:08:52Z</time>
      </trkpt>
      <trkpt lat="45.66054" lon="4.4067">
        <ele>600</ele>
        <time>2017-05-14T08:08:55Z</time>
      </trkpt>
      <trkpt lat="45.66048" lon="4.40678">
        <ele>601</ele>
        <time>2017-05-14T08:09:01Z</time>
      </trkpt>
      <trkpt lat="45.66042" lon="4.40686">
        <ele>601</ele>
        <time>2017-05-14T08:09:04Z</time>
      </trkpt>
      <trkpt lat="45.66035" lon="4.40696">
        <ele>602</ele>
        <time>2017-05-14T08:09:08Z</time>
      </trkpt>
      <trkpt lat="45.66026" lon="4.40706">
        <ele>602</ele>
        <time>2017-05-14T08:09:11Z</time>
      </trkpt>
      <trkpt lat="45.66017" lon="4.40716">
        <ele>602</ele>
        <time>2017-05-14T08:09:15Z</time>
      </trkpt>
      <trkpt lat="45.66006" lon="4.40728">
        <ele>602</ele>
        <time>2017-05-14T08:09:19Z</time>
      </trkpt>
      <trkpt lat="45.65993" lon="4.40741">
        <ele>602</ele>
        <time>2017-05-14T08:09:23Z</time>
      </trkpt>
      <trkpt lat="45.65981" lon="4.40752">
        <ele>602</ele>
        <time>2017-05-14T08:09:27Z</time>
      </trkpt>
      <trkpt lat="45.65969" lon="4.40764">
        <ele>602</ele>
        <time>2017-05-14T08:09:31Z</time>
      </trkpt>
      <trkpt lat="45.65958" lon="4.40776">
        <ele>602</ele>
        <time>2017-05-14T08:09:35Z</time>
      </trkpt>
      <trkpt lat="45.65947" lon="4.40788">
        <ele>602</ele>
        <time>2017-05-14T08:09:39Z</time>
      </trkpt>
      <trkpt lat="45.65937" lon="4.408">
        <ele>602</ele>
        <time>2017-05-14T08:09:43Z</time>
      </trkpt>
      <trkpt lat="45.65927" lon="4.40811">
        <ele>603</ele>
        <time>2017-05-14T08:09:47Z</time>
      </trkpt>
      <trkpt lat="45.65918" lon="4.40821">
        <ele>603</ele>
        <time>2017-05-14T08:09:51Z</time>
      </trkpt>
      <trkpt lat="45.65909" lon="4.40829">
        <ele>603</ele>
        <time>2017-05-14T08:09:56Z</time>
      </trkpt>
      <trkpt lat="45.65902" lon="4.40839">
        <ele>603</ele>
        <time>2017-05-14T08:10:00Z</time>
      </trkpt>
      <trkpt lat="45.65897" lon="4.4085">
        <ele>604</ele>
        <time>2017-05-14T08:10:03Z</time>
      </trkpt>
      <trkpt lat="45.65896" lon="4.40861">
        <ele>605</ele>
        <time>2017-05-14T08:10:07Z</time>
      </trkpt>
      <trkpt lat="45.65897" lon="4.40873">
        <ele>605</ele>
        <time>2017-05-14T08:10:11Z</time>
      </trkpt>
      <trkpt lat="45.65899" lon="4.40885">
        <ele>605</ele>
        <time>2017-05-14T08:10:15Z</time>
      </trkpt>
      <trkpt lat="45.65899" lon="4.40894">
        <ele>606</ele>
        <time>2017-05-14T08:10:19Z</time>
      </trkpt>
      <trkpt lat="45.65892" lon="4.40899">
        <ele>606</ele>
        <time>2017-05-14T08:10:23Z</time>
      </trkpt>
      <trkpt lat="45.65884" lon="4.40902">
        <ele>606</ele>
        <time>2017-05-14T08:10:27Z</time>
      </trkpt>
      <trkpt lat="45.65876" lon="4.40906">
        <ele>607</ele>
        <time>2017-05-14T08:10:32Z</time>
      </trkpt>
      <trkpt lat="45.65866" lon="4.40911">
        <ele>607</ele>
        <time>2017-05-14T08:10:35Z</time>
      </trkpt>
      <trkpt lat="45.65856" lon="4.40915">
        <ele>607</ele>
        <time>2017-05-14T08:10:39Z</time>
      </trkpt>
      <trkpt lat="45.65848" lon="4.40919">
        <ele>607</ele>
        <time>2017-05-14T08:10:43Z</time>
      </trkpt>
      <trkpt lat="45.6584" lon="4.40924">
        <ele>608</ele>
        <time>2017-05-14T08:10:47Z</time>
      </trkpt>
      <trkpt lat="45.65832" lon="4.40929">
        <ele>608</ele>
        <time>2017-05-14T08:10:52Z</time>
      </trkpt>
      <trkpt lat="45.65824" lon="4.40936">
        <ele>608</ele>
        <time>2017-05-14T08:10:55Z</time>
      </trkpt>
      <trkpt lat="45.65816" lon="4.40942">
        <ele>609</ele>
        <time>2017-05-14T08:10:59Z</time>
      </trkpt>
      <trkpt lat="45.6581" lon="4.40948">
        <ele>609</ele>
        <time>2017-05-14T08:11:03Z</time>
      </trkpt>
      <trkpt lat="45.65803" lon="4.40952">
        <ele>609</ele>
        <time>2017-05-14T08:11:08Z</time>
      </trkpt>
      <trkpt lat="45.65797" lon="4.40956">
        <ele>610</ele>
        <time>2017-05-14T08:11:11Z</time>
      </trkpt>
      <trkpt lat="45.65791" lon="4.4096">
        <ele>610</ele>
        <time>2017-05-14T08:11:15Z</time>
      </trkpt>
      <trkpt lat="45.65785" lon="4.40964">
        <ele>610</ele>
        <time>2017-05-14T08:11:19Z</time>
      </trkpt>
      <trkpt lat="45.6578" lon="4.40968">
        <ele>611</ele>
        <time>2017-05-14T08:11:23Z</time>
      </trkpt>
      <trkpt lat="45.65774" lon="4.40972">
        <ele>612</ele>
        <time>2017-05-14T08:11:27Z</time>
      </trkpt>
      <trkpt lat="45.65769" lon="4.40975">
        <ele>612</ele>
        <time>2017-05-14T08:11:31Z</time>
      </trkpt>
      <trkpt lat="45.65763" lon="4.40978">
        <ele>614</ele>
        <time>2017-05-14T08:11:40Z</time>
      </trkpt>
      <trkpt lat="45.65758" lon="4.40982">
        <ele>614</ele>
        <time>2017-05-14T08:11:41Z</time>
      </trkpt>
      <trkpt lat="45.65752" lon="4.40987">
        <ele>615</ele>
        <time>2017-05-14T08:11:44Z</time>
      </trkpt>
      <trkpt lat="45.65746" lon="4.40992">
        <ele>615</ele>
        <time>2017-05-14T08:11:47Z</time>
      </trkpt>
      <trkpt lat="45.6574" lon="4.40997">
        <ele>616</ele>
        <time>2017-05-14T08:11:51Z</time>
      </trkpt>
      <trkpt lat="45.65733" lon="4.41002">
        <ele>616</ele>
        <time>2017-05-14T08:11:55Z</time>
      </trkpt>
      <trkpt lat="45.65726" lon="4.41006">
        <ele>617</ele>
        <time>2017-05-14T08:12:00Z</time>
      </trkpt>
      <trkpt lat="45.6572" lon="4.41011">
        <ele>617</ele>
        <time>2017-05-14T08:12:03Z</time>
      </trkpt>
      <trkpt lat="45.65714" lon="4.41016">
        <ele>618</ele>
        <time>2017-05-14T08:12:07Z</time>
      </trkpt>
      <trkpt lat="45.65708" lon="4.4102">
        <ele>618</ele>
        <time>2017-05-14T08:12:11Z</time>
      </trkpt>
      <trkpt lat="45.65703" lon="4.41022">
        <ele>618</ele>
        <time>2017-05-14T08:12:15Z</time>
      </trkpt>
      <trkpt lat="45.65699" lon="4.41027">
        <ele>619</ele>
        <time>2017-05-14T08:12:19Z</time>
      </trkpt>
      <trkpt lat="45.65694" lon="4.4103">
        <ele>620</ele>
        <time>2017-05-14T08:12:23Z</time>
      </trkpt>
      <trkpt lat="45.6569" lon="4.41034">
        <ele>620</ele>
        <time>2017-05-14T08:12:27Z</time>
      </trkpt>
      <trkpt lat="45.65685" lon="4.41041">
        <ele>621</ele>
        <time>2017-05-14T08:12:31Z</time>
      </trkpt>
      <trkpt lat="45.6568" lon="4.41047">
        <ele>621</ele>
        <time>2017-05-14T08:12:36Z</time>
      </trkpt>
      <trkpt lat="45.65675" lon="4.41051">
        <ele>621</ele>
        <time>2017-05-14T08:12:39Z</time>
      </trkpt>
      <trkpt lat="45.65668" lon="4.41055">
        <ele>622</ele>
        <time>2017-05-14T08:12:43Z</time>
      </trkpt>
      <trkpt lat="45.65663" lon="4.41058">
        <ele>623</ele>
        <time>2017-05-14T08:12:47Z</time>
      </trkpt>
      <trkpt lat="45.65657" lon="4.41062">
        <ele>623</ele>
        <time>2017-05-14T08:12:51Z</time>
      </trkpt>
      <trkpt lat="45.65651" lon="4.41067">
        <ele>623</ele>
        <time>2017-05-14T08:12:57Z</time>
      </trkpt>
      <trkpt lat="45.65646" lon="4.41073">
        <ele>625</ele>
        <time>2017-05-14T08:12:59Z</time>
      </trkpt>
      <trkpt lat="45.65639" lon="4.41078">
        <ele>625</ele>
        <time>2017-05-14T08:13:03Z</time>
      </trkpt>
      <trkpt lat="45.65633" lon="4.41082">
        <ele>626</ele>
        <time>2017-05-14T08:13:07Z</time>
      </trkpt>
      <trkpt lat="45.65626" lon="4.41087">
        <ele>626</ele>
        <time>2017-05-14T08:13:12Z</time>
      </trkpt>
      <trkpt lat="45.65619" lon="4.41091">
        <ele>627</ele>
        <time>2017-05-14T08:13:15Z</time>
      </trkpt>
      <trkpt lat="45.65611" lon="4.41094">
        <ele>627</ele>
        <time>2017-05-14T08:13:19Z</time>
      </trkpt>
      <trkpt lat="45.65603" lon="4.41097">
        <ele>627</ele>
        <time>2017-05-14T08:13:23Z</time>
      </trkpt>
      <trkpt lat="45.65596" lon="4.411">
        <ele>628</ele>
        <time>2017-05-14T08:13:27Z</time>
      </trkpt>
      <trkpt lat="45.65588" lon="4.41103">
        <ele>628</ele>
        <time>2017-05-14T08:13:31Z</time>
      </trkpt>
      <trkpt lat="45.65581" lon="4.41106">
        <ele>629</ele>
        <time>2017-05-14T08:13:35Z</time>
      </trkpt>
      <trkpt lat="45.65573" lon="4.4111">
        <ele>630</ele>
        <time>2017-05-14T08:13:39Z</time>
      </trkpt>
      <trkpt lat="45.65565" lon="4.41113">
        <ele>630</ele>
        <time>2017-05-14T08:13:43Z</time>
      </trkpt>
      <trkpt lat="45.65558" lon="4.41116">
        <ele>630</ele>
        <time>2017-05-14T08:13:48Z</time>
      </trkpt>
      <trkpt lat="45.6555" lon="4.4112">
        <ele>630</ele>
        <time>2017-05-14T08:13:51Z</time>
      </trkpt>
      <trkpt lat="45.65542" lon="4.41123">
        <ele>631</ele>
        <time>2017-05-14T08:13:55Z</time>
      </trkpt>
      <trkpt lat="45.65535" lon="4.41125">
        <ele>631</ele>
        <time>2017-05-14T08:13:59Z</time>
      </trkpt>
      <trkpt lat="45.65527" lon="4.41126">
        <ele>631</ele>
        <time>2017-05-14T08:14:04Z</time>
      </trkpt>
      <trkpt lat="45.65519" lon="4.41126">
        <ele>632</ele>
        <time>2017-05-14T08:14:08Z</time>
      </trkpt>
      <trkpt lat="45.65511" lon="4.41124">
        <ele>632</ele>
        <time>2017-05-14T08:14:11Z</time>
      </trkpt>
      <trkpt lat="45.65504" lon="4.41122">
        <ele>632</ele>
        <time>2017-05-14T08:14:15Z</time>
      </trkpt>
      <trkpt lat="45.65497" lon="4.4112">
        <ele>633</ele>
        <time>2017-05-14T08:14:19Z</time>
      </trkpt>
      <trkpt lat="45.6549" lon="4.41118">
        <ele>634</ele>
        <time>2017-05-14T08:14:23Z</time>
      </trkpt>
      <trkpt lat="45.65483" lon="4.41118">
        <ele>634</ele>
        <time>2017-05-14T08:14:28Z</time>
      </trkpt>
      <trkpt lat="45.65477" lon="4.41119">
        <ele>635</ele>
        <time>2017-05-14T08:14:31Z</time>
      </trkpt>
      <trkpt lat="45.6547" lon="4.4112">
        <ele>635</ele>
        <time>2017-05-14T08:14:35Z</time>
      </trkpt>
      <trkpt lat="45.65463" lon="4.41121">
        <ele>636</ele>
        <time>2017-05-14T08:14:39Z</time>
      </trkpt>
      <trkpt lat="45.65456" lon="4.41123">
        <ele>636</ele>
        <time>2017-05-14T08:14:43Z</time>
      </trkpt>
      <trkpt lat="45.65449" lon="4.41125">
        <ele>637</ele>
        <time>2017-05-14T08:14:47Z</time>
      </trkpt>
      <trkpt lat="45.65442" lon="4.41128">
        <ele>637</ele>
        <time>2017-05-14T08:14:52Z</time>
      </trkpt>
      <trkpt lat="45.65436" lon="4.41131">
        <ele>638</ele>
        <time>2017-05-14T08:14:55Z</time>
      </trkpt>
      <trkpt lat="45.6543" lon="4.41134">
        <ele>639</ele>
        <time>2017-05-14T08:15:00Z</time>
      </trkpt>
      <trkpt lat="45.65427" lon="4.41141">
        <ele>640</ele>
        <time>2017-05-14T08:15:03Z</time>
      </trkpt>
      <trkpt lat="45.65423" lon="4.41149">
        <ele>641</ele>
        <time>2017-05-14T08:15:07Z</time>
      </trkpt>
      <trkpt lat="45.65419" lon="4.41155">
        <ele>642</ele>
        <time>2017-05-14T08:15:11Z</time>
      </trkpt>
      <trkpt lat="45.65413" lon="4.4116">
        <ele>643</ele>
        <time>2017-05-14T08:15:16Z</time>
      </trkpt>
      <trkpt lat="45.65407" lon="4.41165">
        <ele>643</ele>
        <time>2017-05-14T08:15:19Z</time>
      </trkpt>
      <trkpt lat="45.654" lon="4.4117">
        <ele>644</ele>
        <time>2017-05-14T08:15:23Z</time>
      </trkpt>
      <trkpt lat="45.65393" lon="4.41174">
        <ele>645</ele>
        <time>2017-05-14T08:15:27Z</time>
      </trkpt>
      <trkpt lat="45.65386" lon="4.41178">
        <ele>646</ele>
        <time>2017-05-14T08:15:36Z</time>
      </trkpt>
      <trkpt lat="45.65377" lon="4.41182">
        <ele>646</ele>
        <time>2017-05-14T08:15:37Z</time>
      </trkpt>
      <trkpt lat="45.65371" lon="4.41187">
        <ele>647</ele>
        <time>2017-05-14T08:15:39Z</time>
      </trkpt>
      <trkpt lat="45.65366" lon="4.41191">
        <ele>647</ele>
        <time>2017-05-14T08:15:43Z</time>
      </trkpt>
      <trkpt lat="45.6536" lon="4.41202">
        <ele>647</ele>
        <time>2017-05-14T08:15:47Z</time>
      </trkpt>
      <trkpt lat="45.65352" lon="4.41213">
        <ele>648</ele>
        <time>2017-05-14T08:15:52Z</time>
      </trkpt>
      <trkpt lat="45.65343" lon="4.41226">
        <ele>648</ele>
        <time>2017-05-14T08:15:55Z</time>
      </trkpt>
      <trkpt lat="45.65334" lon="4.41238">
        <ele>648</ele>
        <time>2017-05-14T08:15:59Z</time>
      </trkpt>
      <trkpt lat="45.65327" lon="4.41248">
        <ele>648</ele>
        <time>2017-05-14T08:16:03Z</time>
      </trkpt>
      <trkpt lat="45.65322" lon="4.41258">
        <ele>649</ele>
        <time>2017-05-14T08:16:08Z</time>
      </trkpt>
      <trkpt lat="45.65319" lon="4.41263">
        <ele>649</ele>
        <time>2017-05-14T08:16:12Z</time>
      </trkpt>
      <trkpt lat="45.65316" lon="4.41269">
        <ele>650</ele>
        <time>2017-05-14T08:16:15Z</time>
      </trkpt>
      <trkpt lat="45.6531" lon="4.4128">
        <ele>649</ele>
        <time>2017-05-14T08:16:19Z</time>
      </trkpt>
      <trkpt lat="45.65289" lon="4.41302">
        <ele>648</ele>
        <time>2017-05-14T08:16:23Z</time>
      </trkpt>
      <trkpt lat="45.65258" lon="4.41327">
        <ele>645</ele>
        <time>2017-05-14T08:16:27Z</time>
      </trkpt>
      <trkpt lat="45.6522" lon="4.41354">
        <ele>641</ele>
        <time>2017-05-14T08:16:32Z</time>
      </trkpt>
      <trkpt lat="45.65185" lon="4.41398">
        <ele>637</ele>
        <time>2017-05-14T08:16:35Z</time>
      </trkpt>
      <trkpt lat="45.65155" lon="4.41448">
        <ele>633</ele>
        <time>2017-05-14T08:16:39Z</time>
      </trkpt>
      <trkpt lat="45.65129" lon="4.41496">
        <ele>630</ele>
        <time>2017-05-14T08:16:43Z</time>
      </trkpt>
      <trkpt lat="45.6511" lon="4.41549">
        <ele>627</ele>
        <time>2017-05-14T08:16:47Z</time>
      </trkpt>
      <trkpt lat="45.65084" lon="4.41568">
        <ele>624</ele>
        <time>2017-05-14T08:16:53Z</time>
      </trkpt>
      <trkpt lat="45.65058" lon="4.41568">
        <ele>623</ele>
        <time>2017-05-14T08:16:55Z</time>
      </trkpt>
      <trkpt lat="45.65036" lon="4.41578">
        <ele>623</ele>
        <time>2017-05-14T08:16:59Z</time>
      </trkpt>
      <trkpt lat="45.65016" lon="4.41594">
        <ele>623</ele>
        <time>2017-05-14T08:17:04Z</time>
      </trkpt>
      <trkpt lat="45.64997" lon="4.4161">
        <ele>622</ele>
        <time>2017-05-14T08:17:07Z</time>
      </trkpt>
      <trkpt lat="45.64978" lon="4.41625">
        <ele>622</ele>
        <time>2017-05-14T08:17:11Z</time>
      </trkpt>
      <trkpt lat="45.6496" lon="4.41628">
        <ele>622</ele>
        <time>2017-05-14T08:17:15Z</time>
      </trkpt>
      <trkpt lat="45.6494" lon="4.41633">
        <ele>621</ele>
        <time>2017-05-14T08:17:20Z</time>
      </trkpt>
      <trkpt lat="45.6492" lon="4.41641">
        <ele>619</ele>
        <time>2017-05-14T08:17:24Z</time>
      </trkpt>
      <trkpt lat="45.64896" lon="4.41645">
        <ele>618</ele>
        <time>2017-05-14T08:17:27Z</time>
      </trkpt>
      <trkpt lat="45.64867" lon="4.41627">
        <ele>614</ele>
        <time>2017-05-14T08:17:32Z</time>
      </trkpt>
      <trkpt lat="45.64838" lon="4.41591">
        <ele>609</ele>
        <time>2017-05-14T08:17:35Z</time>
      </trkpt>
      <trkpt lat="45.64809" lon="4.41549">
        <ele>604</ele>
        <time>2017-05-14T08:17:39Z</time>
      </trkpt>
      <trkpt lat="45.64783" lon="4.4151">
        <ele>600</ele>
        <time>2017-05-14T08:17:43Z</time>
      </trkpt>
      <trkpt lat="45.64758" lon="4.41476">
        <ele>595</ele>
        <time>2017-05-14T08:17:48Z</time>
      </trkpt>
      <trkpt lat="45.64737" lon="4.41452">
        <ele>590</ele>
        <time>2017-05-14T08:17:51Z</time>
      </trkpt>
      <trkpt lat="45.64713" lon="4.41427">
        <ele>583</ele>
        <time>2017-05-14T08:17:56Z</time>
      </trkpt>
      <trkpt lat="45.64698" lon="4.41413">
        <ele>578</ele>
        <time>2017-05-14T08:17:59Z</time>
      </trkpt>
      <trkpt lat="45.64693" lon="4.4141">
        <ele>577</ele>
        <time>2017-05-14T08:18:03Z</time>
      </trkpt>
      <trkpt lat="45.6469" lon="4.41407">
        <ele>578</ele>
        <time>2017-05-14T08:18:07Z</time>
      </trkpt>
      <trkpt lat="45.64695" lon="4.41412">
        <ele>577</ele>
        <time>2017-05-14T08:18:31Z</time>
      </trkpt>
      <trkpt lat="45.64698" lon="4.41416">
        <ele>577</ele>
        <time>2017-05-14T08:18:35Z</time>
      </trkpt>
      <trkpt lat="45.64701" lon="4.4142">
        <ele>577</ele>
        <time>2017-05-14T08:18:39Z</time>
      </trkpt>
      <trkpt lat="45.64696" lon="4.41413">
        <ele>577</ele>
        <time>2017-05-14T08:19:03Z</time>
      </trkpt>
      <trkpt lat="45.64694" lon="4.41411">
        <ele>577</ele>
        <time>2017-05-14T08:19:08Z</time>
      </trkpt>
      <trkpt lat="45.64689" lon="4.41406">
        <ele>577</ele>
        <time>2017-05-14T08:19:11Z</time>
      </trkpt>
      <trkpt lat="45.64685" lon="4.41401">
        <ele>579</ele>
        <time>2017-05-14T08:19:15Z</time>
      </trkpt>
      <trkpt lat="45.64682" lon="4.41398">
        <ele>580</ele>
        <time>2017-05-14T08:19:19Z</time>
      </trkpt>
      <trkpt lat="45.64678" lon="4.41396">
        <ele>581</ele>
        <time>2017-05-14T08:19:23Z</time>
      </trkpt>
      <trkpt lat="45.64674" lon="4.41393">
        <ele>582</ele>
        <time>2017-05-14T08:19:27Z</time>
      </trkpt>
      <trkpt lat="45.64669" lon="4.41388">
        <ele>583</ele>
        <time>2017-05-14T08:19:31Z</time>
      </trkpt>
      <trkpt lat="45.64665" lon="4.41382">
        <ele>584</ele>
        <time>2017-05-14T08:19:35Z</time>
      </trkpt>
      <trkpt lat="45.64662" lon="4.41375">
        <ele>585</ele>
        <time>2017-05-14T08:19:39Z</time>
      </trkpt>
      <trkpt lat="45.6466" lon="4.41368">
        <ele>586</ele>
        <time>2017-05-14T08:19:43Z</time>
      </trkpt>
      <trkpt lat="45.64658" lon="4.4136">
        <ele>587</ele>
        <time>2017-05-14T08:19:47Z</time>
      </trkpt>
      <trkpt lat="45.64658" lon="4.41354">
        <ele>588</ele>
        <time>2017-05-14T08:19:52Z</time>
      </trkpt>
      <trkpt lat="45.64659" lon="4.41349">
        <ele>589</ele>
        <time>2017-05-14T08:19:55Z</time>
      </trkpt>
      <trkpt lat="45.64655" lon="4.41344">
        <ele>588</ele>
        <time>2017-05-14T08:20:07Z</time>
      </trkpt>
      <trkpt lat="45.64652" lon="4.41343">
        <ele>587</ele>
        <time>2017-05-14T08:20:11Z</time>
      </trkpt>
      <trkpt lat="45.6464" lon="4.41336">
        <ele>585</ele>
        <time>2017-05-14T08:20:15Z</time>
      </trkpt>
      <trkpt lat="45.64615" lon="4.41323">
        <ele>583</ele>
        <time>2017-05-14T08:20:19Z</time>
      </trkpt>
      <trkpt lat="45.64586" lon="4.41298">
        <ele>580</ele>
        <time>2017-05-14T08:20:23Z</time>
      </trkpt>
      <trkpt lat="45.64561" lon="4.41269">
        <ele>577</ele>
        <time>2017-05-14T08:20:27Z</time>
      </trkpt>
      <trkpt lat="45.64538" lon="4.41244">
        <ele>574</ele>
        <time>2017-05-14T08:20:31Z</time>
      </trkpt>
      <trkpt lat="45.6451" lon="4.41221">
        <ele>572</ele>
        <time>2017-05-14T08:20:35Z</time>
      </trkpt>
      <trkpt lat="45.64486" lon="4.41202">
        <ele>571</ele>
        <time>2017-05-14T08:20:39Z</time>
      </trkpt>
      <trkpt lat="45.6447" lon="4.41204">
        <ele>570</ele>
        <time>2017-05-14T08:20:43Z</time>
      </trkpt>
      <trkpt lat="45.64462" lon="4.41212">
        <ele>569</ele>
        <time>2017-05-14T08:20:47Z</time>
      </trkpt>
      <trkpt lat="45.64457" lon="4.41216">
        <ele>568</ele>
        <time>2017-05-14T08:20:51Z</time>
      </trkpt>
      <trkpt lat="45.64445" lon="4.41218">
        <ele>569</ele>
        <time>2017-05-14T08:20:55Z</time>
      </trkpt>
      <trkpt lat="45.64436" lon="4.41222">
        <ele>570</ele>
        <time>2017-05-14T08:20:59Z</time>
      </trkpt>
      <trkpt lat="45.64429" lon="4.41222">
        <ele>570</ele>
        <time>2017-05-14T08:21:03Z</time>
      </trkpt>
      <trkpt lat="45.64422" lon="4.41222">
        <ele>571</ele>
        <time>2017-05-14T08:21:07Z</time>
      </trkpt>
      <trkpt lat="45.64415" lon="4.41221">
        <ele>572</ele>
        <time>2017-05-14T08:21:12Z</time>
      </trkpt>
      <trkpt lat="45.64413" lon="4.41216">
        <ele>573</ele>
        <time>2017-05-14T08:21:15Z</time>
      </trkpt>
      <trkpt lat="45.64416" lon="4.41209">
        <ele>575</ele>
        <time>2017-05-14T08:21:27Z</time>
      </trkpt>
      <trkpt lat="45.64418" lon="4.41204">
        <ele>576</ele>
        <time>2017-05-14T08:21:31Z</time>
      </trkpt>
      <trkpt lat="45.64414" lon="4.41199">
        <ele>577</ele>
        <time>2017-05-14T08:21:35Z</time>
      </trkpt>
      <trkpt lat="45.64402" lon="4.41195">
        <ele>581</ele>
        <time>2017-05-14T08:21:47Z</time>
      </trkpt>
      <trkpt lat="45.64374" lon="4.41185">
        <ele>584</ele>
        <time>2017-05-14T08:22:07Z</time>
      </trkpt>
      <trkpt lat="45.64372" lon="4.41181">
        <ele>585</ele>
        <time>2017-05-14T08:22:11Z</time>
      </trkpt>
      <trkpt lat="45.64322" lon="4.41145">
        <ele>594</ele>
        <time>2017-05-14T08:22:59Z</time>
      </trkpt>
      <trkpt lat="45.64317" lon="4.4114">
        <ele>595</ele>
        <time>2017-05-14T08:23:03Z</time>
      </trkpt>
      <trkpt lat="45.64303" lon="4.41133">
        <ele>595</ele>
        <time>2017-05-14T08:23:07Z</time>
      </trkpt>
      <trkpt lat="45.64297" lon="4.41128">
        <ele>596</ele>
        <time>2017-05-14T08:23:15Z</time>
      </trkpt>
      <trkpt lat="45.6427" lon="4.41114">
        <ele>596</ele>
        <time>2017-05-14T08:23:24Z</time>
      </trkpt>
      <trkpt lat="45.64258" lon="4.41111">
        <ele>596</ele>
        <time>2017-05-14T08:23:25Z</time>
      </trkpt>
      <trkpt lat="45.64245" lon="4.41113">
        <ele>597</ele>
        <time>2017-05-14T08:23:28Z</time>
      </trkpt>
      <trkpt lat="45.64228" lon="4.41116">
        <ele>597</ele>
        <time>2017-05-14T08:23:35Z</time>
      </trkpt>
      <trkpt lat="45.64204" lon="4.41119">
        <ele>597</ele>
        <time>2017-05-14T08:23:39Z</time>
      </trkpt>
      <trkpt lat="45.64164" lon="4.41135">
        <ele>597</ele>
        <time>2017-05-14T08:23:44Z</time>
      </trkpt>
      <trkpt lat="45.64149" lon="4.41144">
        <ele>598</ele>
        <time>2017-05-14T08:23:51Z</time>
      </trkpt>
      <trkpt lat="45.64124" lon="4.41164">
        <ele>598</ele>
        <time>2017-05-14T08:23:56Z</time>
      </trkpt>
      <trkpt lat="45.64111" lon="4.41171">
        <ele>599</ele>
        <time>2017-05-14T08:24:03Z</time>
      </trkpt>
      <trkpt lat="45.64085" lon="4.41188">
        <ele>600</ele>
        <time>2017-05-14T08:24:08Z</time>
      </trkpt>
      <trkpt lat="45.64074" lon="4.41199">
        <ele>602</ele>
        <time>2017-05-14T08:24:15Z</time>
      </trkpt>
      <trkpt lat="45.64056" lon="4.41223">
        <ele>603</ele>
        <time>2017-05-14T08:24:19Z</time>
      </trkpt>
      <trkpt lat="45.64048" lon="4.41236">
        <ele>604</ele>
        <time>2017-05-14T08:24:27Z</time>
      </trkpt>
      <trkpt lat="45.64043" lon="4.41251">
        <ele>605</ele>
        <time>2017-05-14T08:24:31Z</time>
      </trkpt>
      <trkpt lat="45.64038" lon="4.41266">
        <ele>606</ele>
        <time>2017-05-14T08:24:35Z</time>
      </trkpt>
      <trkpt lat="45.64034" lon="4.4128">
        <ele>606</ele>
        <time>2017-05-14T08:24:39Z</time>
      </trkpt>
      <trkpt lat="45.6403" lon="4.41294">
        <ele>608</ele>
        <time>2017-05-14T08:24:43Z</time>
      </trkpt>
      <trkpt lat="45.64026" lon="4.41307">
        <ele>609</ele>
        <time>2017-05-14T08:24:47Z</time>
      </trkpt>
      <trkpt lat="45.64015" lon="4.41333">
        <ele>609</ele>
        <time>2017-05-14T08:24:52Z</time>
      </trkpt>
      <trkpt lat="45.63998" lon="4.41358">
        <ele>609</ele>
        <time>2017-05-14T08:25:01Z</time>
      </trkpt>
      <trkpt lat="45.63977" lon="4.41378">
        <ele>610</ele>
        <time>2017-05-14T08:25:07Z</time>
      </trkpt>
      <trkpt lat="45.63967" lon="4.41384">
        <ele>610</ele>
        <time>2017-05-14T08:25:11Z</time>
      </trkpt>
      <trkpt lat="45.6396" lon="4.41391">
        <ele>611</ele>
        <time>2017-05-14T08:25:19Z</time>
      </trkpt>
      <trkpt lat="45.63955" lon="4.4142">
        <ele>612</ele>
        <time>2017-05-14T08:25:24Z</time>
      </trkpt>
      <trkpt lat="45.63967" lon="4.41434">
        <ele>613</ele>
        <time>2017-05-14T08:25:32Z</time>
      </trkpt>
      <trkpt lat="45.63973" lon="4.41438">
        <ele>615</ele>
        <time>2017-05-14T08:25:39Z</time>
      </trkpt>
      <trkpt lat="45.6398" lon="4.41443">
        <ele>616</ele>
        <time>2017-05-14T08:25:43Z</time>
      </trkpt>
      <trkpt lat="45.63986" lon="4.41448">
        <ele>617</ele>
        <time>2017-05-14T08:25:47Z</time>
      </trkpt>
      <trkpt lat="45.63993" lon="4.41451">
        <ele>618</ele>
        <time>2017-05-14T08:25:51Z</time>
      </trkpt>
      <trkpt lat="45.64" lon="4.41455">
        <ele>618</ele>
        <time>2017-05-14T08:25:55Z</time>
      </trkpt>
      <trkpt lat="45.64012" lon="4.41461">
        <ele>620</ele>
        <time>2017-05-14T08:25:59Z</time>
      </trkpt>
      <trkpt lat="45.64018" lon="4.41463">
        <ele>622</ele>
        <time>2017-05-14T08:26:07Z</time>
      </trkpt>
      <trkpt lat="45.6403" lon="4.41468">
        <ele>623</ele>
        <time>2017-05-14T08:26:12Z</time>
      </trkpt>
      <trkpt lat="45.64036" lon="4.41469">
        <ele>624</ele>
        <time>2017-05-14T08:26:15Z</time>
      </trkpt>
      <trkpt lat="45.64049" lon="4.41472">
        <ele>626</ele>
        <time>2017-05-14T08:26:24Z</time>
      </trkpt>
      <trkpt lat="45.64055" lon="4.41475">
        <ele>628</ele>
        <time>2017-05-14T08:26:31Z</time>
      </trkpt>
      <trkpt lat="45.64061" lon="4.41477">
        <ele>629</ele>
        <time>2017-05-14T08:26:35Z</time>
      </trkpt>
      <trkpt lat="45.64066" lon="4.4148">
        <ele>630</ele>
        <time>2017-05-14T08:26:39Z</time>
      </trkpt>
      <trkpt lat="45.64071" lon="4.41482">
        <ele>630</ele>
        <time>2017-05-14T08:26:43Z</time>
      </trkpt>
      <trkpt lat="45.64077" lon="4.41485">
        <ele>631</ele>
        <time>2017-05-14T08:26:47Z</time>
      </trkpt>
      <trkpt lat="45.64083" lon="4.41487">
        <ele>632</ele>
        <time>2017-05-14T08:26:51Z</time>
      </trkpt>
      <trkpt lat="45.64088" lon="4.4149">
        <ele>634</ele>
        <time>2017-05-14T08:26:55Z</time>
      </trkpt>
      <trkpt lat="45.64094" lon="4.41492">
        <ele>634</ele>
        <time>2017-05-14T08:26:59Z</time>
      </trkpt>
      <trkpt lat="45.64107" lon="4.41496">
        <ele>635</ele>
        <time>2017-05-14T08:27:04Z</time>
      </trkpt>
      <trkpt lat="45.64114" lon="4.41499">
        <ele>636</ele>
        <time>2017-05-14T08:27:08Z</time>
      </trkpt>
      <trkpt lat="45.6412" lon="4.41501">
        <ele>637</ele>
        <time>2017-05-14T08:27:15Z</time>
      </trkpt>
      <trkpt lat="45.64127" lon="4.41503">
        <ele>638</ele>
        <time>2017-05-14T08:27:19Z</time>
      </trkpt>
      <trkpt lat="45.64133" lon="4.41505">
        <ele>639</ele>
        <time>2017-05-14T08:27:23Z</time>
      </trkpt>
      <trkpt lat="45.6414" lon="4.41506">
        <ele>640</ele>
        <time>2017-05-14T08:27:27Z</time>
      </trkpt>
      <trkpt lat="45.64146" lon="4.41508">
        <ele>641</ele>
        <time>2017-05-14T08:27:31Z</time>
      </trkpt>
      <trkpt lat="45.64159" lon="4.41511">
        <ele>642</ele>
        <time>2017-05-14T08:27:35Z</time>
      </trkpt>
      <trkpt lat="45.64165" lon="4.41513">
        <ele>643</ele>
        <time>2017-05-14T08:27:43Z</time>
      </trkpt>
      <trkpt lat="45.6417" lon="4.41518">
        <ele>644</ele>
        <time>2017-05-14T08:27:47Z</time>
      </trkpt>
      <trkpt lat="45.64174" lon="4.41532">
        <ele>645</ele>
        <time>2017-05-14T08:27:52Z</time>
      </trkpt>
      <trkpt lat="45.64177" lon="4.41539">
        <ele>647</ele>
        <time>2017-05-14T08:27:59Z</time>
      </trkpt>
      <trkpt lat="45.64183" lon="4.41553">
        <ele>648</ele>
        <time>2017-05-14T08:28:03Z</time>
      </trkpt>
      <trkpt lat="45.64188" lon="4.4156">
        <ele>650</ele>
        <time>2017-05-14T08:28:11Z</time>
      </trkpt>
      <trkpt lat="45.642" lon="4.41576">
        <ele>650</ele>
        <time>2017-05-14T08:28:16Z</time>
      </trkpt>
      <trkpt lat="45.64205" lon="4.41585">
        <ele>650</ele>
        <time>2017-05-14T08:28:19Z</time>
      </trkpt>
      <trkpt lat="45.64213" lon="4.41603">
        <ele>652</ele>
        <time>2017-05-14T08:28:27Z</time>
      </trkpt>
      <trkpt lat="45.64216" lon="4.41613">
        <ele>653</ele>
        <time>2017-05-14T08:28:35Z</time>
      </trkpt>
      <trkpt lat="45.64219" lon="4.41623">
        <ele>654</ele>
        <time>2017-05-14T08:28:39Z</time>
      </trkpt>
      <trkpt lat="45.64222" lon="4.41634">
        <ele>655</ele>
        <time>2017-05-14T08:28:43Z</time>
      </trkpt>
      <trkpt lat="45.64224" lon="4.41644">
        <ele>656</ele>
        <time>2017-05-14T08:28:47Z</time>
      </trkpt>
      <trkpt lat="45.64227" lon="4.41654">
        <ele>656</ele>
        <time>2017-05-14T08:28:51Z</time>
      </trkpt>
      <trkpt lat="45.64229" lon="4.41666">
        <ele>656</ele>
        <time>2017-05-14T08:28:55Z</time>
      </trkpt>
      <trkpt lat="45.64232" lon="4.41679">
        <ele>657</ele>
        <time>2017-05-14T08:28:59Z</time>
      </trkpt>
      <trkpt lat="45.64235" lon="4.41692">
        <ele>658</ele>
        <time>2017-05-14T08:29:03Z</time>
      </trkpt>
      <trkpt lat="45.64237" lon="4.41705">
        <ele>659</ele>
        <time>2017-05-14T08:29:07Z</time>
      </trkpt>
      <trkpt lat="45.64241" lon="4.41723">
        <ele>659</ele>
        <time>2017-05-14T08:29:12Z</time>
      </trkpt>
      <trkpt lat="45.64245" lon="4.41732">
        <ele>661</ele>
        <time>2017-05-14T08:29:24Z</time>
      </trkpt>
      <trkpt lat="45.64258" lon="4.41747">
        <ele>661</ele>
        <time>2017-05-14T08:29:25Z</time>
      </trkpt>
      <trkpt lat="45.64268" lon="4.41753">
        <ele>662</ele>
        <time>2017-05-14T08:29:31Z</time>
      </trkpt>
      <trkpt lat="45.64278" lon="4.41759">
        <ele>662</ele>
        <time>2017-05-14T08:29:35Z</time>
      </trkpt>
      <trkpt lat="45.64288" lon="4.41766">
        <ele>661</ele>
        <time>2017-05-14T08:29:39Z</time>
      </trkpt>
      <trkpt lat="45.64307" lon="4.41782">
        <ele>662</ele>
        <time>2017-05-14T08:29:44Z</time>
      </trkpt>
      <trkpt lat="45.64316" lon="4.4179">
        <ele>663</ele>
        <time>2017-05-14T08:29:51Z</time>
      </trkpt>
      <trkpt lat="45.64324" lon="4.41798">
        <ele>664</ele>
        <time>2017-05-14T08:29:55Z</time>
      </trkpt>
      <trkpt lat="45.64331" lon="4.41805">
        <ele>665</ele>
        <time>2017-05-14T08:29:59Z</time>
      </trkpt>
      <trkpt lat="45.64347" lon="4.41815">
        <ele>666</ele>
        <time>2017-05-14T08:30:04Z</time>
      </trkpt>
      <trkpt lat="45.64354" lon="4.4182">
        <ele>665</ele>
        <time>2017-05-14T08:30:07Z</time>
      </trkpt>
      <trkpt lat="45.64359" lon="4.41825">
        <ele>667</ele>
        <time>2017-05-14T08:30:15Z</time>
      </trkpt>
      <trkpt lat="45.64372" lon="4.41835">
        <ele>668</ele>
        <time>2017-05-14T08:30:20Z</time>
      </trkpt>
      <trkpt lat="45.64378" lon="4.41838">
        <ele>670</ele>
        <time>2017-05-14T08:30:27Z</time>
      </trkpt>
      <trkpt lat="45.6439" lon="4.41847">
        <ele>670</ele>
        <time>2017-05-14T08:30:31Z</time>
      </trkpt>
      <trkpt lat="45.64395" lon="4.41853">
        <ele>671</ele>
        <time>2017-05-14T08:30:39Z</time>
      </trkpt>
      <trkpt lat="45.644" lon="4.41858">
        <ele>672</ele>
        <time>2017-05-14T08:30:43Z</time>
      </trkpt>
      <trkpt lat="45.64405" lon="4.41865">
        <ele>673</ele>
        <time>2017-05-14T08:30:47Z</time>
      </trkpt>
      <trkpt lat="45.64411" lon="4.4187">
        <ele>673</ele>
        <time>2017-05-14T08:30:51Z</time>
      </trkpt>
      <trkpt lat="45.64425" lon="4.41886">
        <ele>674</ele>
        <time>2017-05-14T08:30:56Z</time>
      </trkpt>
      <trkpt lat="45.64439" lon="4.41895">
        <ele>673</ele>
        <time>2017-05-14T08:31:03Z</time>
      </trkpt>
      <trkpt lat="45.64456" lon="4.41905">
        <ele>672</ele>
        <time>2017-05-14T08:31:07Z</time>
      </trkpt>
      <trkpt lat="45.64471" lon="4.41924">
        <ele>670</ele>
        <time>2017-05-14T08:31:11Z</time>
      </trkpt>
      <trkpt lat="45.64507" lon="4.41957">
        <ele>669</ele>
        <time>2017-05-14T08:31:16Z</time>
      </trkpt>
      <trkpt lat="45.64524" lon="4.41977">
        <ele>665</ele>
        <time>2017-05-14T08:31:23Z</time>
      </trkpt>
      <trkpt lat="45.64537" lon="4.41995">
        <ele>662</ele>
        <time>2017-05-14T08:31:27Z</time>
      </trkpt>
      <trkpt lat="45.64549" lon="4.42011">
        <ele>662</ele>
        <time>2017-05-14T08:31:31Z</time>
      </trkpt>
      <trkpt lat="45.64559" lon="4.42026">
        <ele>663</ele>
        <time>2017-05-14T08:31:35Z</time>
      </trkpt>
      <trkpt lat="45.6457" lon="4.42041">
        <ele>662</ele>
        <time>2017-05-14T08:31:39Z</time>
      </trkpt>
      <trkpt lat="45.64579" lon="4.42057">
        <ele>661</ele>
        <time>2017-05-14T08:31:43Z</time>
      </trkpt>
      <trkpt lat="45.64588" lon="4.42117">
        <ele>659</ele>
        <time>2017-05-14T08:31:48Z</time>
      </trkpt>
      <trkpt lat="45.64596" lon="4.42143">
        <ele>659</ele>
        <time>2017-05-14T08:31:55Z</time>
      </trkpt>
      <trkpt lat="45.6461" lon="4.42168">
        <ele>660</ele>
        <time>2017-05-14T08:31:59Z</time>
      </trkpt>
      <trkpt lat="45.64621" lon="4.42186">
        <ele>660</ele>
        <time>2017-05-14T08:32:03Z</time>
      </trkpt>
      <trkpt lat="45.64641" lon="4.42216">
        <ele>661</ele>
        <time>2017-05-14T08:32:08Z</time>
      </trkpt>
      <trkpt lat="45.64647" lon="4.42229">
        <ele>662</ele>
        <time>2017-05-14T08:32:15Z</time>
      </trkpt>
      <trkpt lat="45.64653" lon="4.42252">
        <ele>663</ele>
        <time>2017-05-14T08:32:21Z</time>
      </trkpt>
      <trkpt lat="45.64655" lon="4.42262">
        <ele>664</ele>
        <time>2017-05-14T08:32:24Z</time>
      </trkpt>
      <trkpt lat="45.64656" lon="4.42269">
        <ele>666</ele>
        <time>2017-05-14T08:32:31Z</time>
      </trkpt>
      <trkpt lat="45.64657" lon="4.42277">
        <ele>667</ele>
        <time>2017-05-14T08:32:35Z</time>
      </trkpt>
      <trkpt lat="45.64658" lon="4.42288">
        <ele>668</ele>
        <time>2017-05-14T08:32:39Z</time>
      </trkpt>
      <trkpt lat="45.64658" lon="4.42297">
        <ele>670</ele>
        <time>2017-05-14T08:32:43Z</time>
      </trkpt>
      <trkpt lat="45.64659" lon="4.42306">
        <ele>671</ele>
        <time>2017-05-14T08:32:47Z</time>
      </trkpt>
      <trkpt lat="45.64659" lon="4.42317">
        <ele>671</ele>
        <time>2017-05-14T08:32:51Z</time>
      </trkpt>
      <trkpt lat="45.6466" lon="4.42328">
        <ele>671</ele>
        <time>2017-05-14T08:32:55Z</time>
      </trkpt>
      <trkpt lat="45.6466" lon="4.4235">
        <ele>671</ele>
        <time>2017-05-14T08:33:00Z</time>
      </trkpt>
      <trkpt lat="45.6466" lon="4.42363">
        <ele>671</ele>
        <time>2017-05-14T08:33:07Z</time>
      </trkpt>
      <trkpt lat="45.6466" lon="4.42378">
        <ele>671</ele>
        <time>2017-05-14T08:33:11Z</time>
      </trkpt>
      <trkpt lat="45.64658" lon="4.42401">
        <ele>672</ele>
        <time>2017-05-14T08:33:16Z</time>
      </trkpt>
      <trkpt lat="45.6466" lon="4.42416">
        <ele>673</ele>
        <time>2017-05-14T08:33:23Z</time>
      </trkpt>
      <trkpt lat="45.64661" lon="4.4243">
        <ele>673</ele>
        <time>2017-05-14T08:33:27Z</time>
      </trkpt>
      <trkpt lat="45.64662" lon="4.42444">
        <ele>674</ele>
        <time>2017-05-14T08:33:31Z</time>
      </trkpt>
      <trkpt lat="45.64663" lon="4.42458">
        <ele>674</ele>
        <time>2017-05-14T08:33:35Z</time>
      </trkpt>
      <trkpt lat="45.64665" lon="4.42482">
        <ele>676</ele>
        <time>2017-05-14T08:33:40Z</time>
      </trkpt>
      <trkpt lat="45.64663" lon="4.42493">
        <ele>677</ele>
        <time>2017-05-14T08:33:47Z</time>
      </trkpt>
      <trkpt lat="45.64662" lon="4.42503">
        <ele>678</ele>
        <time>2017-05-14T08:33:51Z</time>
      </trkpt>
      <trkpt lat="45.64661" lon="4.42516">
        <ele>679</ele>
        <time>2017-05-14T08:33:55Z</time>
      </trkpt>
      <trkpt lat="45.6466" lon="4.42528">
        <ele>680</ele>
        <time>2017-05-14T08:33:59Z</time>
      </trkpt>
      <trkpt lat="45.64663" lon="4.4255">
        <ele>681</ele>
        <time>2017-05-14T08:34:04Z</time>
      </trkpt>
      <trkpt lat="45.6468" lon="4.42576">
        <ele>681</ele>
        <time>2017-05-14T08:34:12Z</time>
      </trkpt>
      <trkpt lat="45.64687" lon="4.42588">
        <ele>680</ele>
        <time>2017-05-14T08:34:19Z</time>
      </trkpt>
      <trkpt lat="45.64694" lon="4.42602">
        <ele>681</ele>
        <time>2017-05-14T08:34:23Z</time>
      </trkpt>
      <trkpt lat="45.64704" lon="4.42624">
        <ele>681</ele>
        <time>2017-05-14T08:34:28Z</time>
      </trkpt>
      <trkpt lat="45.6471" lon="4.42635">
        <ele>682</ele>
        <time>2017-05-14T08:34:35Z</time>
      </trkpt>
      <trkpt lat="45.64716" lon="4.42649">
        <ele>683</ele>
        <time>2017-05-14T08:34:39Z</time>
      </trkpt>
      <trkpt lat="45.64721" lon="4.4266">
        <ele>683</ele>
        <time>2017-05-14T08:34:43Z</time>
      </trkpt>
      <trkpt lat="45.64727" lon="4.42673">
        <ele>684</ele>
        <time>2017-05-14T08:34:47Z</time>
      </trkpt>
      <trkpt lat="45.64731" lon="4.42684">
        <ele>685</ele>
        <time>2017-05-14T08:34:51Z</time>
      </trkpt>
      <trkpt lat="45.64744" lon="4.42705">
        <ele>685</ele>
        <time>2017-05-14T08:34:56Z</time>
      </trkpt>
      <trkpt lat="45.64758" lon="4.42733">
        <ele>685</ele>
        <time>2017-05-14T08:35:04Z</time>
      </trkpt>
      <trkpt lat="45.64759" lon="4.42749">
        <ele>684</ele>
        <time>2017-05-14T08:35:11Z</time>
      </trkpt>
      <trkpt lat="45.64763" lon="4.42767">
        <ele>684</ele>
        <time>2017-05-14T08:35:15Z</time>
      </trkpt>
      <trkpt lat="45.64773" lon="4.42848">
        <ele>682</ele>
        <time>2017-05-14T08:35:20Z</time>
      </trkpt>
      <trkpt lat="45.6479" lon="4.42898">
        <ele>678</ele>
        <time>2017-05-14T08:35:27Z</time>
      </trkpt>
      <trkpt lat="45.64817" lon="4.42937">
        <ele>677</ele>
        <time>2017-05-14T08:35:31Z</time>
      </trkpt>
      <trkpt lat="45.64845" lon="4.42961">
        <ele>678</ele>
        <time>2017-05-14T08:35:35Z</time>
      </trkpt>
      <trkpt lat="45.64865" lon="4.42972">
        <ele>679</ele>
        <time>2017-05-14T08:35:39Z</time>
      </trkpt>
      <trkpt lat="45.64897" lon="4.42992">
        <ele>679</ele>
        <time>2017-05-14T08:35:44Z</time>
      </trkpt>
      <trkpt lat="45.64913" lon="4.43001">
        <ele>680</ele>
        <time>2017-05-14T08:35:47Z</time>
      </trkpt>
      <trkpt lat="45.64929" lon="4.43011">
        <ele>680</ele>
        <time>2017-05-14T08:35:55Z</time>
      </trkpt>
      <trkpt lat="45.64943" lon="4.4302">
        <ele>680</ele>
        <time>2017-05-14T08:35:59Z</time>
      </trkpt>
      <trkpt lat="45.64955" lon="4.43028">
        <ele>680</ele>
        <time>2017-05-14T08:36:03Z</time>
      </trkpt>
      <trkpt lat="45.64987" lon="4.43045">
        <ele>680</ele>
        <time>2017-05-14T08:36:08Z</time>
      </trkpt>
      <trkpt lat="45.65029" lon="4.43075">
        <ele>679</ele>
        <time>2017-05-14T08:36:16Z</time>
      </trkpt>
      <trkpt lat="45.65044" lon="4.43096">
        <ele>679</ele>
        <time>2017-05-14T08:36:23Z</time>
      </trkpt>
      <trkpt lat="45.65077" lon="4.43136">
        <ele>678</ele>
        <time>2017-05-14T08:36:27Z</time>
      </trkpt>
      <trkpt lat="45.65085" lon="4.4316">
        <ele>678</ele>
        <time>2017-05-14T08:36:32Z</time>
      </trkpt>
      <trkpt lat="45.65084" lon="4.43178">
        <ele>678</ele>
        <time>2017-05-14T08:36:36Z</time>
      </trkpt>
      <trkpt lat="45.65083" lon="4.43191">
        <ele>680</ele>
        <time>2017-05-14T08:36:43Z</time>
      </trkpt>
      <trkpt lat="45.65083" lon="4.43202">
        <ele>682</ele>
        <time>2017-05-14T08:36:52Z</time>
      </trkpt>
      <trkpt lat="45.65083" lon="4.43223">
        <ele>682</ele>
        <time>2017-05-14T08:36:53Z</time>
      </trkpt>
      <trkpt lat="45.65082" lon="4.43231">
        <ele>684</ele>
        <time>2017-05-14T08:36:59Z</time>
      </trkpt>
      <trkpt lat="45.65081" lon="4.43238">
        <ele>685</ele>
        <time>2017-05-14T08:37:03Z</time>
      </trkpt>
      <trkpt lat="45.65079" lon="4.43253">
        <ele>686</ele>
        <time>2017-05-14T08:37:08Z</time>
      </trkpt>
      <trkpt lat="45.65081" lon="4.43262">
        <ele>689</ele>
        <time>2017-05-14T08:37:15Z</time>
      </trkpt>
      <trkpt lat="45.651" lon="4.4327">
        <ele>689</ele>
        <time>2017-05-14T08:37:19Z</time>
      </trkpt>
      <trkpt lat="45.65138" lon="4.43269">
        <ele>688</ele>
        <time>2017-05-14T08:37:28Z</time>
      </trkpt>
      <trkpt lat="45.65159" lon="4.4326">
        <ele>685</ele>
        <time>2017-05-14T08:37:35Z</time>
      </trkpt>
      <trkpt lat="45.65185" lon="4.43248">
        <ele>683</ele>
        <time>2017-05-14T08:37:39Z</time>
      </trkpt>
      <trkpt lat="45.65206" lon="4.43255">
        <ele>683</ele>
        <time>2017-05-14T08:37:43Z</time>
      </trkpt>
      <trkpt lat="45.6521" lon="4.43269">
        <ele>683</ele>
        <time>2017-05-14T08:37:47Z</time>
      </trkpt>
      <trkpt lat="45.65212" lon="4.43276">
        <ele>684</ele>
        <time>2017-05-14T08:37:51Z</time>
      </trkpt>
      <trkpt lat="45.65215" lon="4.43284">
        <ele>686</ele>
        <time>2017-05-14T08:37:55Z</time>
      </trkpt>
      <trkpt lat="45.65218" lon="4.43292">
        <ele>686</ele>
        <time>2017-05-14T08:37:59Z</time>
      </trkpt>
      <trkpt lat="45.65223" lon="4.433">
        <ele>687</ele>
        <time>2017-05-14T08:38:03Z</time>
      </trkpt>
      <trkpt lat="45.65226" lon="4.43308">
        <ele>688</ele>
        <time>2017-05-14T08:38:07Z</time>
      </trkpt>
      <trkpt lat="45.65233" lon="4.43324">
        <ele>689</ele>
        <time>2017-05-14T08:38:12Z</time>
      </trkpt>
      <trkpt lat="45.65239" lon="4.43342">
        <ele>691</ele>
        <time>2017-05-14T08:38:20Z</time>
      </trkpt>
      <trkpt lat="45.65241" lon="4.43351">
        <ele>693</ele>
        <time>2017-05-14T08:38:27Z</time>
      </trkpt>
      <trkpt lat="45.65244" lon="4.43369">
        <ele>693</ele>
        <time>2017-05-14T08:38:31Z</time>
      </trkpt>
      <trkpt lat="45.65245" lon="4.43379">
        <ele>695</ele>
        <time>2017-05-14T08:38:39Z</time>
      </trkpt>
      <trkpt lat="45.65245" lon="4.43388">
        <ele>696</ele>
        <time>2017-05-14T08:38:43Z</time>
      </trkpt>
      <trkpt lat="45.65245" lon="4.43397">
        <ele>696</ele>
        <time>2017-05-14T08:38:47Z</time>
      </trkpt>
      <trkpt lat="45.65244" lon="4.43405">
        <ele>697</ele>
        <time>2017-05-14T08:38:51Z</time>
      </trkpt>
      <trkpt lat="45.65243" lon="4.43412">
        <ele>698</ele>
        <time>2017-05-14T08:38:55Z</time>
      </trkpt>
      <trkpt lat="45.65242" lon="4.4342">
        <ele>699</ele>
        <time>2017-05-14T08:38:59Z</time>
      </trkpt>
      <trkpt lat="45.65241" lon="4.43427">
        <ele>700</ele>
        <time>2017-05-14T08:39:03Z</time>
      </trkpt>
      <trkpt lat="45.6524" lon="4.43434">
        <ele>701</ele>
        <time>2017-05-14T08:39:07Z</time>
      </trkpt>
      <trkpt lat="45.65237" lon="4.43448">
        <ele>702</ele>
        <time>2017-05-14T08:39:12Z</time>
      </trkpt>
      <trkpt lat="45.65235" lon="4.43455">
        <ele>704</ele>
        <time>2017-05-14T08:39:19Z</time>
      </trkpt>
      <trkpt lat="45.65234" lon="4.43461">
        <ele>705</ele>
        <time>2017-05-14T08:39:23Z</time>
      </trkpt>
      <trkpt lat="45.65233" lon="4.43467">
        <ele>705</ele>
        <time>2017-05-14T08:39:27Z</time>
      </trkpt>
      <trkpt lat="45.65233" lon="4.43474">
        <ele>706</ele>
        <time>2017-05-14T08:39:31Z</time>
      </trkpt>
      <trkpt lat="45.65234" lon="4.43483">
        <ele>707</ele>
        <time>2017-05-14T08:39:35Z</time>
      </trkpt>
      <trkpt lat="45.65235" lon="4.43491">
        <ele>708</ele>
        <time>2017-05-14T08:39:39Z</time>
      </trkpt>
      <trkpt lat="45.65235" lon="4.435">
        <ele>709</ele>
        <time>2017-05-14T08:39:47Z</time>
      </trkpt>
      <trkpt lat="45.65233" lon="4.43515">
        <ele>710</ele>
        <time>2017-05-14T08:39:49Z</time>
      </trkpt>
      <trkpt lat="45.65232" lon="4.43522">
        <ele>710</ele>
        <time>2017-05-14T08:39:51Z</time>
      </trkpt>
      <trkpt lat="45.65231" lon="4.4353">
        <ele>711</ele>
        <time>2017-05-14T08:39:59Z</time>
      </trkpt>
      <trkpt lat="45.65229" lon="4.43535">
        <ele>712</ele>
        <time>2017-05-14T08:40:03Z</time>
      </trkpt>
      <trkpt lat="45.65227" lon="4.4354">
        <ele>713</ele>
        <time>2017-05-14T08:40:07Z</time>
      </trkpt>
      <trkpt lat="45.65224" lon="4.43548">
        <ele>714</ele>
        <time>2017-05-14T08:40:11Z</time>
      </trkpt>
      <trkpt lat="45.65222" lon="4.43556">
        <ele>714</ele>
        <time>2017-05-14T08:40:15Z</time>
      </trkpt>
      <trkpt lat="45.65221" lon="4.43564">
        <ele>716</ele>
        <time>2017-05-14T08:40:19Z</time>
      </trkpt>
      <trkpt lat="45.65217" lon="4.43575">
        <ele>716</ele>
        <time>2017-05-14T08:40:24Z</time>
      </trkpt>
      <trkpt lat="45.65215" lon="4.43582">
        <ele>718</ele>
        <time>2017-05-14T08:40:31Z</time>
      </trkpt>
      <trkpt lat="45.65209" lon="4.43596">
        <ele>719</ele>
        <time>2017-05-14T08:40:35Z</time>
      </trkpt>
      <trkpt lat="45.65206" lon="4.43604">
        <ele>721</ele>
        <time>2017-05-14T08:40:43Z</time>
      </trkpt>
      <trkpt lat="45.65203" lon="4.43612">
        <ele>721</ele>
        <time>2017-05-14T08:40:47Z</time>
      </trkpt>
      <trkpt lat="45.652" lon="4.43622">
        <ele>722</ele>
        <time>2017-05-14T08:40:51Z</time>
      </trkpt>
      <trkpt lat="45.65196" lon="4.43629">
        <ele>723</ele>
        <time>2017-05-14T08:40:55Z</time>
      </trkpt>
      <trkpt lat="45.65192" lon="4.43637">
        <ele>724</ele>
        <time>2017-05-14T08:40:59Z</time>
      </trkpt>
      <trkpt lat="45.65188" lon="4.43643">
        <ele>725</ele>
        <time>2017-05-14T08:41:03Z</time>
      </trkpt>
      <trkpt lat="45.65184" lon="4.43651">
        <ele>725</ele>
        <time>2017-05-14T08:41:07Z</time>
      </trkpt>
      <trkpt lat="45.65174" lon="4.43669">
        <ele>726</ele>
        <time>2017-05-14T08:41:13Z</time>
      </trkpt>
      <trkpt lat="45.65168" lon="4.43677">
        <ele>726</ele>
        <time>2017-05-14T08:41:16Z</time>
      </trkpt>
      <trkpt lat="45.65159" lon="4.43687">
        <ele>726</ele>
        <time>2017-05-14T08:41:23Z</time>
      </trkpt>
      <trkpt lat="45.65148" lon="4.43698">
        <ele>725</ele>
        <time>2017-05-14T08:41:27Z</time>
      </trkpt>
      <trkpt lat="45.65138" lon="4.43717">
        <ele>724</ele>
        <time>2017-05-14T08:41:31Z</time>
      </trkpt>
      <trkpt lat="45.65137" lon="4.4373">
        <ele>724</ele>
        <time>2017-05-14T08:41:35Z</time>
      </trkpt>
      <trkpt lat="45.65142" lon="4.43737">
        <ele>726</ele>
        <time>2017-05-14T08:41:47Z</time>
      </trkpt>
      <trkpt lat="45.65145" lon="4.43742">
        <ele>726</ele>
        <time>2017-05-14T08:41:51Z</time>
      </trkpt>
      <trkpt lat="45.65149" lon="4.43749">
        <ele>727</ele>
        <time>2017-05-14T08:41:55Z</time>
      </trkpt>
      <trkpt lat="45.65155" lon="4.43755">
        <ele>728</ele>
        <time>2017-05-14T08:41:59Z</time>
      </trkpt>
      <trkpt lat="45.65159" lon="4.43761">
        <ele>729</ele>
        <time>2017-05-14T08:42:03Z</time>
      </trkpt>
      <trkpt lat="45.65163" lon="4.43769">
        <ele>729</ele>
        <time>2017-05-14T08:42:07Z</time>
      </trkpt>
      <trkpt lat="45.65166" lon="4.43773">
        <ele>730</ele>
        <time>2017-05-14T08:42:11Z</time>
      </trkpt>
      <trkpt lat="45.6517" lon="4.43778">
        <ele>731</ele>
        <time>2017-05-14T08:42:15Z</time>
      </trkpt>
      <trkpt lat="45.65173" lon="4.43782">
        <ele>732</ele>
        <time>2017-05-14T08:42:19Z</time>
      </trkpt>
      <trkpt lat="45.65176" lon="4.43787">
        <ele>733</ele>
        <time>2017-05-14T08:42:23Z</time>
      </trkpt>
      <trkpt lat="45.65181" lon="4.43792">
        <ele>734</ele>
        <time>2017-05-14T08:42:27Z</time>
      </trkpt>
      <trkpt lat="45.65185" lon="4.43797">
        <ele>734</ele>
        <time>2017-05-14T08:42:32Z</time>
      </trkpt>
      <trkpt lat="45.65189" lon="4.43802">
        <ele>735</ele>
        <time>2017-05-14T08:42:35Z</time>
      </trkpt>
      <trkpt lat="45.65193" lon="4.43807">
        <ele>736</ele>
        <time>2017-05-14T08:42:40Z</time>
      </trkpt>
      <trkpt lat="45.65198" lon="4.43812">
        <ele>736</ele>
        <time>2017-05-14T08:42:43Z</time>
      </trkpt>
      <trkpt lat="45.65204" lon="4.4382">
        <ele>737</ele>
        <time>2017-05-14T08:42:47Z</time>
      </trkpt>
      <trkpt lat="45.65208" lon="4.43826">
        <ele>738</ele>
        <time>2017-05-14T08:42:51Z</time>
      </trkpt>
      <trkpt lat="45.6521" lon="4.43831">
        <ele>739</ele>
        <time>2017-05-14T08:42:56Z</time>
      </trkpt>
      <trkpt lat="45.65214" lon="4.43837">
        <ele>741</ele>
        <time>2017-05-14T08:42:59Z</time>
      </trkpt>
      <trkpt lat="45.65218" lon="4.43842">
        <ele>741</ele>
        <time>2017-05-14T08:43:03Z</time>
      </trkpt>
      <trkpt lat="45.65221" lon="4.43847">
        <ele>742</ele>
        <time>2017-05-14T08:43:07Z</time>
      </trkpt>
      <trkpt lat="45.65225" lon="4.43852">
        <ele>743</ele>
        <time>2017-05-14T08:43:11Z</time>
      </trkpt>
      <trkpt lat="45.65228" lon="4.43858">
        <ele>744</ele>
        <time>2017-05-14T08:43:15Z</time>
      </trkpt>
      <trkpt lat="45.65231" lon="4.43861">
        <ele>745</ele>
        <time>2017-05-14T08:43:20Z</time>
      </trkpt>
      <trkpt lat="45.65231" lon="4.43869">
        <ele>745</ele>
        <time>2017-05-14T08:43:23Z</time>
      </trkpt>
      <trkpt lat="45.6523" lon="4.43876">
        <ele>745</ele>
        <time>2017-05-14T08:43:27Z</time>
      </trkpt>
      <trkpt lat="45.65232" lon="4.43888">
        <ele>745</ele>
        <time>2017-05-14T08:43:31Z</time>
      </trkpt>
      <trkpt lat="45.65234" lon="4.43904">
        <ele>744</ele>
        <time>2017-05-14T08:43:35Z</time>
      </trkpt>
      <trkpt lat="45.65244" lon="4.43928">
        <ele>745</ele>
        <time>2017-05-14T08:43:39Z</time>
      </trkpt>
      <trkpt lat="45.65255" lon="4.43948">
        <ele>745</ele>
        <time>2017-05-14T08:43:43Z</time>
      </trkpt>
      <trkpt lat="45.6527" lon="4.43963">
        <ele>745</ele>
        <time>2017-05-14T08:43:47Z</time>
      </trkpt>
      <trkpt lat="45.65281" lon="4.4397">
        <ele>745</ele>
        <time>2017-05-14T08:43:51Z</time>
      </trkpt>
      <trkpt lat="45.65294" lon="4.43984">
        <ele>746</ele>
        <time>2017-05-14T08:43:58Z</time>
      </trkpt>
      <trkpt lat="45.65302" lon="4.43993">
        <ele>747</ele>
        <time>2017-05-14T08:44:03Z</time>
      </trkpt>
      <trkpt lat="45.65308" lon="4.44006">
        <ele>748</ele>
        <time>2017-05-14T08:44:07Z</time>
      </trkpt>
      <trkpt lat="45.65328" lon="4.44038">
        <ele>747</ele>
        <time>2017-05-14T08:44:13Z</time>
      </trkpt>
      <trkpt lat="45.65335" lon="4.44057">
        <ele>748</ele>
        <time>2017-05-14T08:44:19Z</time>
      </trkpt>
      <trkpt lat="45.6534" lon="4.44073">
        <ele>748</ele>
        <time>2017-05-14T08:44:23Z</time>
      </trkpt>
      <trkpt lat="45.65344" lon="4.44083">
        <ele>749</ele>
        <time>2017-05-14T08:44:27Z</time>
      </trkpt>
      <trkpt lat="45.65349" lon="4.44086">
        <ele>750</ele>
        <time>2017-05-14T08:44:31Z</time>
      </trkpt>
      <trkpt lat="45.65364" lon="4.44115">
        <ele>752</ele>
        <time>2017-05-14T08:44:47Z</time>
      </trkpt>
      <trkpt lat="45.65367" lon="4.44128">
        <ele>753</ele>
        <time>2017-05-14T08:44:51Z</time>
      </trkpt>
      <trkpt lat="45.65369" lon="4.44144">
        <ele>753</ele>
        <time>2017-05-14T08:44:55Z</time>
      </trkpt>
      <trkpt lat="45.65371" lon="4.44163">
        <ele>753</ele>
        <time>2017-05-14T08:44:59Z</time>
      </trkpt>
      <trkpt lat="45.65378" lon="4.44182">
        <ele>753</ele>
        <time>2017-05-14T08:45:03Z</time>
      </trkpt>
      <trkpt lat="45.65386" lon="4.44196">
        <ele>753</ele>
        <time>2017-05-14T08:45:07Z</time>
      </trkpt>
      <trkpt lat="45.65394" lon="4.44211">
        <ele>754</ele>
        <time>2017-05-14T08:45:12Z</time>
      </trkpt>
      <trkpt lat="45.65398" lon="4.44221">
        <ele>755</ele>
        <time>2017-05-14T08:45:15Z</time>
      </trkpt>
      <trkpt lat="45.65402" lon="4.44231">
        <ele>755</ele>
        <time>2017-05-14T08:45:19Z</time>
      </trkpt>
      <trkpt lat="45.65412" lon="4.4425">
        <ele>757</ele>
        <time>2017-05-14T08:45:27Z</time>
      </trkpt>
      <trkpt lat="45.65418" lon="4.44263">
        <ele>757</ele>
        <time>2017-05-14T08:45:31Z</time>
      </trkpt>
      <trkpt lat="45.65424" lon="4.44275">
        <ele>759</ele>
        <time>2017-05-14T08:45:35Z</time>
      </trkpt>
      <trkpt lat="45.65429" lon="4.44287">
        <ele>760</ele>
        <time>2017-05-14T08:45:39Z</time>
      </trkpt>
      <trkpt lat="45.65436" lon="4.44296">
        <ele>761</ele>
        <time>2017-05-14T08:45:43Z</time>
      </trkpt>
      <trkpt lat="45.65444" lon="4.44306">
        <ele>761</ele>
        <time>2017-05-14T08:45:47Z</time>
      </trkpt>
      <trkpt lat="45.65452" lon="4.44316">
        <ele>761</ele>
        <time>2017-05-14T08:45:51Z</time>
      </trkpt>
      <trkpt lat="45.65459" lon="4.44328">
        <ele>761</ele>
        <time>2017-05-14T08:45:55Z</time>
      </trkpt>
      <trkpt lat="45.65466" lon="4.44346">
        <ele>760</ele>
        <time>2017-05-14T08:45:59Z</time>
      </trkpt>
      <trkpt lat="45.65475" lon="4.44361">
        <ele>760</ele>
        <time>2017-05-14T08:46:03Z</time>
      </trkpt>
      <trkpt lat="45.65482" lon="4.44376">
        <ele>760</ele>
        <time>2017-05-14T08:46:07Z</time>
      </trkpt>
      <trkpt lat="45.65492" lon="4.44391">
        <ele>759</ele>
        <time>2017-05-14T08:46:11Z</time>
      </trkpt>
      <trkpt lat="45.65508" lon="4.44404">
        <ele>759</ele>
        <time>2017-05-14T08:46:16Z</time>
      </trkpt>
      <trkpt lat="45.65519" lon="4.44415">
        <ele>759</ele>
        <time>2017-05-14T08:46:19Z</time>
      </trkpt>
      <trkpt lat="45.65533" lon="4.44429">
        <ele>760</ele>
        <time>2017-05-14T08:46:23Z</time>
      </trkpt>
      <trkpt lat="45.65547" lon="4.4444">
        <ele>759</ele>
        <time>2017-05-14T08:46:27Z</time>
      </trkpt>
      <trkpt lat="45.65562" lon="4.44448">
        <ele>758</ele>
        <time>2017-05-14T08:46:31Z</time>
      </trkpt>
      <trkpt lat="45.65576" lon="4.44457">
        <ele>757</ele>
        <time>2017-05-14T08:46:35Z</time>
      </trkpt>
      <trkpt lat="45.65599" lon="4.44475">
        <ele>755</ele>
        <time>2017-05-14T08:46:39Z</time>
      </trkpt>
      <trkpt lat="45.65618" lon="4.445">
        <ele>753</ele>
        <time>2017-05-14T08:46:43Z</time>
      </trkpt>
      <trkpt lat="45.65629" lon="4.44519">
        <ele>751</ele>
        <time>2017-05-14T08:46:49Z</time>
      </trkpt>
      <trkpt lat="45.65624" lon="4.44542">
        <ele>750</ele>
        <time>2017-05-14T08:46:53Z</time>
      </trkpt>
      <trkpt lat="45.6562" lon="4.44565">
        <ele>746</ele>
        <time>2017-05-14T08:46:55Z</time>
      </trkpt>
      <trkpt lat="45.65624" lon="4.44578">
        <ele>743</ele>
        <time>2017-05-14T08:46:59Z</time>
      </trkpt>
      <trkpt lat="45.65634" lon="4.44588">
        <ele>744</ele>
        <time>2017-05-14T08:47:04Z</time>
      </trkpt>
      <trkpt lat="45.65642" lon="4.44592">
        <ele>745</ele>
        <time>2017-05-14T08:47:07Z</time>
      </trkpt>
      <trkpt lat="45.6565" lon="4.44594">
        <ele>746</ele>
        <time>2017-05-14T08:47:11Z</time>
      </trkpt>
      <trkpt lat="45.65655" lon="4.44596">
        <ele>747</ele>
        <time>2017-05-14T08:47:16Z</time>
      </trkpt>
      <trkpt lat="45.6566" lon="4.44592">
        <ele>749</ele>
        <time>2017-05-14T08:47:19Z</time>
      </trkpt>
      <trkpt lat="45.65665" lon="4.44588">
        <ele>750</ele>
        <time>2017-05-14T08:47:23Z</time>
      </trkpt>
      <trkpt lat="45.6567" lon="4.44583">
        <ele>751</ele>
        <time>2017-05-14T08:47:28Z</time>
      </trkpt>
      <trkpt lat="45.65675" lon="4.44577">
        <ele>752</ele>
        <time>2017-05-14T08:47:31Z</time>
      </trkpt>
      <trkpt lat="45.65679" lon="4.44569">
        <ele>752</ele>
        <time>2017-05-14T08:47:35Z</time>
      </trkpt>
      <trkpt lat="45.65685" lon="4.44562">
        <ele>752</ele>
        <time>2017-05-14T08:47:39Z</time>
      </trkpt>
      <trkpt lat="45.65692" lon="4.44552">
        <ele>753</ele>
        <time>2017-05-14T08:47:43Z</time>
      </trkpt>
      <trkpt lat="45.657" lon="4.44541">
        <ele>752</ele>
        <time>2017-05-14T08:47:47Z</time>
      </trkpt>
      <trkpt lat="45.65702" lon="4.44536">
        <ele>751</ele>
        <time>2017-05-14T08:47:51Z</time>
      </trkpt>
      <trkpt lat="45.65704" lon="4.44523">
        <ele>750</ele>
        <time>2017-05-14T08:47:55Z</time>
      </trkpt>
      <trkpt lat="45.65706" lon="4.44492">
        <ele>747</ele>
        <time>2017-05-14T08:47:59Z</time>
      </trkpt>
      <trkpt lat="45.65705" lon="4.44456">
        <ele>740</ele>
        <time>2017-05-14T08:48:07Z</time>
      </trkpt>
      <trkpt lat="45.6571" lon="4.4442">
        <ele>740</ele>
        <time>2017-05-14T08:48:08Z</time>
      </trkpt>
      <trkpt lat="45.657" lon="4.44387">
        <ele>738</ele>
        <time>2017-05-14T08:48:11Z</time>
      </trkpt>
      <trkpt lat="45.65689" lon="4.44352">
        <ele>732</ele>
        <time>2017-05-14T08:48:15Z</time>
      </trkpt>
      <trkpt lat="45.6568" lon="4.44327">
        <ele>727</ele>
        <time>2017-05-14T08:48:20Z</time>
      </trkpt>
      <trkpt lat="45.65679" lon="4.44294">
        <ele>721</ele>
        <time>2017-05-14T08:48:23Z</time>
      </trkpt>
      <trkpt lat="45.65682" lon="4.44261">
        <ele>717</ele>
        <time>2017-05-14T08:48:27Z</time>
      </trkpt>
      <trkpt lat="45.65681" lon="4.4423">
        <ele>713</ele>
        <time>2017-05-14T08:48:31Z</time>
      </trkpt>
      <trkpt lat="45.65674" lon="4.44202">
        <ele>709</ele>
        <time>2017-05-14T08:48:35Z</time>
      </trkpt>
      <trkpt lat="45.65671" lon="4.44186">
        <ele>706</ele>
        <time>2017-05-14T08:48:39Z</time>
      </trkpt>
      <trkpt lat="45.6567" lon="4.44174">
        <ele>703</ele>
        <time>2017-05-14T08:48:43Z</time>
      </trkpt>
      <trkpt lat="45.65667" lon="4.44167">
        <ele>702</ele>
        <time>2017-05-14T08:48:47Z</time>
      </trkpt>
      <trkpt lat="45.65665" lon="4.44168">
        <ele>698</ele>
        <time>2017-05-14T08:48:51Z</time>
      </trkpt>
      <trkpt lat="45.65667" lon="4.44172">
        <ele>694</ele>
        <time>2017-05-14T08:48:56Z</time>
      </trkpt>
      <trkpt lat="45.65674" lon="4.44169">
        <ele>690</ele>
        <time>2017-05-14T08:48:59Z</time>
      </trkpt>
      <trkpt lat="45.65682" lon="4.44162">
        <ele>687</ele>
        <time>2017-05-14T08:49:03Z</time>
      </trkpt>
      <trkpt lat="45.65698" lon="4.4416">
        <ele>684</ele>
        <time>2017-05-14T08:49:07Z</time>
      </trkpt>
      <trkpt lat="45.65714" lon="4.44157">
        <ele>679</ele>
        <time>2017-05-14T08:49:11Z</time>
      </trkpt>
      <trkpt lat="45.65735" lon="4.44161">
        <ele>675</ele>
        <time>2017-05-14T08:49:16Z</time>
      </trkpt>
      <trkpt lat="45.65755" lon="4.44174">
        <ele>672</ele>
        <time>2017-05-14T08:49:19Z</time>
      </trkpt>
      <trkpt lat="45.65777" lon="4.44197">
        <ele>671</ele>
        <time>2017-05-14T08:49:23Z</time>
      </trkpt>
      <trkpt lat="45.65793" lon="4.44203">
        <ele>669</ele>
        <time>2017-05-14T08:49:27Z</time>
      </trkpt>
      <trkpt lat="45.65816" lon="4.44205">
        <ele>666</ele>
        <time>2017-05-14T08:49:32Z</time>
      </trkpt>
      <trkpt lat="45.65845" lon="4.44212">
        <ele>664</ele>
        <time>2017-05-14T08:49:35Z</time>
      </trkpt>
      <trkpt lat="45.65871" lon="4.44225">
        <ele>663</ele>
        <time>2017-05-14T08:49:39Z</time>
      </trkpt>
      <trkpt lat="45.65894" lon="4.44236">
        <ele>662</ele>
        <time>2017-05-14T08:49:43Z</time>
      </trkpt>
      <trkpt lat="45.65924" lon="4.44245">
        <ele>659</ele>
        <time>2017-05-14T08:49:47Z</time>
      </trkpt>
      <trkpt lat="45.65959" lon="4.44257">
        <ele>657</ele>
        <time>2017-05-14T08:49:51Z</time>
      </trkpt>
      <trkpt lat="45.65985" lon="4.44266">
        <ele>654</ele>
        <time>2017-05-14T08:49:55Z</time>
      </trkpt>
      <trkpt lat="45.66003" lon="4.44279">
        <ele>655</ele>
        <time>2017-05-14T08:49:59Z</time>
      </trkpt>
      <trkpt lat="45.66018" lon="4.44288">
        <ele>655</ele>
        <time>2017-05-14T08:50:03Z</time>
      </trkpt>
      <trkpt lat="45.6603" lon="4.44299">
        <ele>655</ele>
        <time>2017-05-14T08:50:08Z</time>
      </trkpt>
      <trkpt lat="45.66046" lon="4.44315">
        <ele>656</ele>
        <time>2017-05-14T08:50:11Z</time>
      </trkpt>
      <trkpt lat="45.66063" lon="4.44334">
        <ele>656</ele>
        <time>2017-05-14T08:50:15Z</time>
      </trkpt>
      <trkpt lat="45.66079" lon="4.44355">
        <ele>656</ele>
        <time>2017-05-14T08:50:19Z</time>
      </trkpt>
      <trkpt lat="45.66092" lon="4.44375">
        <ele>656</ele>
        <time>2017-05-14T08:50:23Z</time>
      </trkpt>
      <trkpt lat="45.66104" lon="4.44395">
        <ele>657</ele>
        <time>2017-05-14T08:50:28Z</time>
      </trkpt>
      <trkpt lat="45.66115" lon="4.44417">
        <ele>656</ele>
        <time>2017-05-14T08:50:31Z</time>
      </trkpt>
      <trkpt lat="45.66125" lon="4.44436">
        <ele>656</ele>
        <time>2017-05-14T08:50:35Z</time>
      </trkpt>
      <trkpt lat="45.6614" lon="4.44458">
        <ele>655</ele>
        <time>2017-05-14T08:50:39Z</time>
      </trkpt>
      <trkpt lat="45.6616" lon="4.44482">
        <ele>655</ele>
        <time>2017-05-14T08:50:45Z</time>
      </trkpt>
      <trkpt lat="45.66178" lon="4.44495">
        <ele>655</ele>
        <time>2017-05-14T08:50:47Z</time>
      </trkpt>
      <trkpt lat="45.66199" lon="4.44511">
        <ele>655</ele>
        <time>2017-05-14T08:50:51Z</time>
      </trkpt>
      <trkpt lat="45.66217" lon="4.44526">
        <ele>655</ele>
        <time>2017-05-14T08:50:55Z</time>
      </trkpt>
      <trkpt lat="45.66236" lon="4.4454">
        <ele>655</ele>
        <time>2017-05-14T08:51:00Z</time>
      </trkpt>
      <trkpt lat="45.66256" lon="4.44553">
        <ele>655</ele>
        <time>2017-05-14T08:51:03Z</time>
      </trkpt>
      <trkpt lat="45.66275" lon="4.44574">
        <ele>655</ele>
        <time>2017-05-14T08:51:07Z</time>
      </trkpt>
      <trkpt lat="45.66289" lon="4.44599">
        <ele>655</ele>
        <time>2017-05-14T08:51:11Z</time>
      </trkpt>
      <trkpt lat="45.66305" lon="4.44628">
        <ele>655</ele>
        <time>2017-05-14T08:51:15Z</time>
      </trkpt>
      <trkpt lat="45.66318" lon="4.44656">
        <ele>655</ele>
        <time>2017-05-14T08:51:20Z</time>
      </trkpt>
      <trkpt lat="45.66325" lon="4.44683">
        <ele>655</ele>
        <time>2017-05-14T08:51:23Z</time>
      </trkpt>
      <trkpt lat="45.66329" lon="4.44701">
        <ele>655</ele>
        <time>2017-05-14T08:51:27Z</time>
      </trkpt>
      <trkpt lat="45.66336" lon="4.44719">
        <ele>655</ele>
        <time>2017-05-14T08:51:31Z</time>
      </trkpt>
      <trkpt lat="45.66345" lon="4.44737">
        <ele>655</ele>
        <time>2017-05-14T08:51:36Z</time>
      </trkpt>
      <trkpt lat="45.66361" lon="4.44749">
        <ele>654</ele>
        <time>2017-05-14T08:51:39Z</time>
      </trkpt>
      <trkpt lat="45.66375" lon="4.44751">
        <ele>655</ele>
        <time>2017-05-14T08:51:43Z</time>
      </trkpt>
      <trkpt lat="45.66386" lon="4.44753">
        <ele>654</ele>
        <time>2017-05-14T08:51:47Z</time>
      </trkpt>
      <trkpt lat="45.66392" lon="4.44753">
        <ele>654</ele>
        <time>2017-05-14T08:51:51Z</time>
      </trkpt>
      <trkpt lat="45.66412" lon="4.44756">
        <ele>653</ele>
        <time>2017-05-14T09:04:23Z</time>
      </trkpt>
      <trkpt lat="45.66408" lon="4.44761">
        <ele>652</ele>
        <time>2017-05-14T09:04:27Z</time>
      </trkpt>
      <trkpt lat="45.66402" lon="4.44766">
        <ele>653</ele>
        <time>2017-05-14T09:04:31Z</time>
      </trkpt>
      <trkpt lat="45.66391" lon="4.44783">
        <ele>653</ele>
        <time>2017-05-14T09:04:36Z</time>
      </trkpt>
      <trkpt lat="45.66387" lon="4.44788">
        <ele>653</ele>
        <time>2017-05-14T09:04:43Z</time>
      </trkpt>
      <trkpt lat="45.66381" lon="4.44798">
        <ele>653</ele>
        <time>2017-05-14T09:04:48Z</time>
      </trkpt>
      <trkpt lat="45.66378" lon="4.44816">
        <ele>657</ele>
        <time>2017-05-14T09:05:03Z</time>
      </trkpt>
      <trkpt lat="45.66379" lon="4.44825">
        <ele>658</ele>
        <time>2017-05-14T09:05:07Z</time>
      </trkpt>
      <trkpt lat="45.66379" lon="4.44831">
        <ele>658</ele>
        <time>2017-05-14T09:05:11Z</time>
      </trkpt>
      <trkpt lat="45.66384" lon="4.4496">
        <ele>674</ele>
        <time>2017-05-14T09:06:31Z</time>
      </trkpt>
      <trkpt lat="45.66385" lon="4.44967">
        <ele>676</ele>
        <time>2017-05-14T09:06:35Z</time>
      </trkpt>
      <trkpt lat="45.66385" lon="4.44975">
        <ele>676</ele>
        <time>2017-05-14T09:06:40Z</time>
      </trkpt>
      <trkpt lat="45.66387" lon="4.44995">
        <ele>679</ele>
        <time>2017-05-14T09:06:51Z</time>
      </trkpt>
      <trkpt lat="45.66388" lon="4.45001">
        <ele>681</ele>
        <time>2017-05-14T09:06:55Z</time>
      </trkpt>
      <trkpt lat="45.66388" lon="4.45008">
        <ele>682</ele>
        <time>2017-05-14T09:06:59Z</time>
      </trkpt>
      <trkpt lat="45.66389" lon="4.45017">
        <ele>682</ele>
        <time>2017-05-14T09:07:03Z</time>
      </trkpt>
      <trkpt lat="45.66391" lon="4.45025">
        <ele>683</ele>
        <time>2017-05-14T09:07:07Z</time>
      </trkpt>
      <trkpt lat="45.6639" lon="4.45033">
        <ele>684</ele>
        <time>2017-05-14T09:07:11Z</time>
      </trkpt>
      <trkpt lat="45.66389" lon="4.45042">
        <ele>685</ele>
        <time>2017-05-14T09:07:15Z</time>
      </trkpt>
      <trkpt lat="45.66388" lon="4.4505">
        <ele>686</ele>
        <time>2017-05-14T09:07:19Z</time>
      </trkpt>
      <trkpt lat="45.66386" lon="4.45057">
        <ele>687</ele>
        <time>2017-05-14T09:07:23Z</time>
      </trkpt>
      <trkpt lat="45.66384" lon="4.45065">
        <ele>687</ele>
        <time>2017-05-14T09:07:27Z</time>
      </trkpt>
      <trkpt lat="45.66383" lon="4.45074">
        <ele>688</ele>
        <time>2017-05-14T09:07:32Z</time>
      </trkpt>
      <trkpt lat="45.6638" lon="4.45082">
        <ele>689</ele>
        <time>2017-05-14T09:07:36Z</time>
      </trkpt>
      <trkpt lat="45.66377" lon="4.45089">
        <ele>690</ele>
        <time>2017-05-14T09:07:39Z</time>
      </trkpt>
      <trkpt lat="45.66373" lon="4.45096">
        <ele>690</ele>
        <time>2017-05-14T09:07:43Z</time>
      </trkpt>
      <trkpt lat="45.66369" lon="4.45103">
        <ele>691</ele>
        <time>2017-05-14T09:07:47Z</time>
      </trkpt>
      <trkpt lat="45.66365" lon="4.45109">
        <ele>692</ele>
        <time>2017-05-14T09:07:51Z</time>
      </trkpt>
      <trkpt lat="45.66361" lon="4.45116">
        <ele>693</ele>
        <time>2017-05-14T09:07:55Z</time>
      </trkpt>
      <trkpt lat="45.66358" lon="4.45123">
        <ele>694</ele>
        <time>2017-05-14T09:07:59Z</time>
      </trkpt>
      <trkpt lat="45.66354" lon="4.4513">
        <ele>694</ele>
        <time>2017-05-14T09:08:03Z</time>
      </trkpt>
      <trkpt lat="45.6635" lon="4.45136">
        <ele>695</ele>
        <time>2017-05-14T09:08:08Z</time>
      </trkpt>
      <trkpt lat="45.66346" lon="4.45143">
        <ele>696</ele>
        <time>2017-05-14T09:08:11Z</time>
      </trkpt>
      <trkpt lat="45.66341" lon="4.4515">
        <ele>696</ele>
        <time>2017-05-14T09:08:15Z</time>
      </trkpt>
      <trkpt lat="45.66337" lon="4.45155">
        <ele>697</ele>
        <time>2017-05-14T09:08:19Z</time>
      </trkpt>
      <trkpt lat="45.66332" lon="4.45161">
        <ele>698</ele>
        <time>2017-05-14T09:08:23Z</time>
      </trkpt>
      <trkpt lat="45.66328" lon="4.45167">
        <ele>698</ele>
        <time>2017-05-14T09:08:28Z</time>
      </trkpt>
      <trkpt lat="45.66324" lon="4.45174">
        <ele>699</ele>
        <time>2017-05-14T09:08:31Z</time>
      </trkpt>
      <trkpt lat="45.66319" lon="4.4518">
        <ele>700</ele>
        <time>2017-05-14T09:08:35Z</time>
      </trkpt>
      <trkpt lat="45.66314" lon="4.45186">
        <ele>700</ele>
        <time>2017-05-14T09:08:39Z</time>
      </trkpt>
      <trkpt lat="45.6631" lon="4.45192">
        <ele>701</ele>
        <time>2017-05-14T09:08:44Z</time>
      </trkpt>
      <trkpt lat="45.66305" lon="4.45198">
        <ele>701</ele>
        <time>2017-05-14T09:08:47Z</time>
      </trkpt>
      <trkpt lat="45.66301" lon="4.45205">
        <ele>702</ele>
        <time>2017-05-14T09:08:51Z</time>
      </trkpt>
      <trkpt lat="45.66297" lon="4.45212">
        <ele>703</ele>
        <time>2017-05-14T09:08:56Z</time>
      </trkpt>
      <trkpt lat="45.66292" lon="4.45219">
        <ele>704</ele>
        <time>2017-05-14T09:08:59Z</time>
      </trkpt>
      <trkpt lat="45.66289" lon="4.45228">
        <ele>704</ele>
        <time>2017-05-14T09:09:03Z</time>
      </trkpt>
      <trkpt lat="45.66289" lon="4.45239">
        <ele>705</ele>
        <time>2017-05-14T09:09:07Z</time>
      </trkpt>
      <trkpt lat="45.66288" lon="4.45251">
        <ele>705</ele>
        <time>2017-05-14T09:09:11Z</time>
      </trkpt>
      <trkpt lat="45.66287" lon="4.45265">
        <ele>705</ele>
        <time>2017-05-14T09:09:15Z</time>
      </trkpt>
      <trkpt lat="45.66287" lon="4.4528">
        <ele>706</ele>
        <time>2017-05-14T09:09:23Z</time>
      </trkpt>
      <trkpt lat="45.66282" lon="4.45323">
        <ele>706</ele>
        <time>2017-05-14T09:09:25Z</time>
      </trkpt>
      <trkpt lat="45.66279" lon="4.45351">
        <ele>705</ele>
        <time>2017-05-14T09:09:31Z</time>
      </trkpt>
      <trkpt lat="45.66276" lon="4.4538">
        <ele>704</ele>
        <time>2017-05-14T09:09:35Z</time>
      </trkpt>
      <trkpt lat="45.66274" lon="4.45409">
        <ele>704</ele>
        <time>2017-05-14T09:09:40Z</time>
      </trkpt>
      <trkpt lat="45.66266" lon="4.45435">
        <ele>704</ele>
        <time>2017-05-14T09:09:43Z</time>
      </trkpt>
      <trkpt lat="45.66254" lon="4.45452">
        <ele>705</ele>
        <time>2017-05-14T09:09:47Z</time>
      </trkpt>
      <trkpt lat="45.66244" lon="4.4546">
        <ele>706</ele>
        <time>2017-05-14T09:09:51Z</time>
      </trkpt>
      <trkpt lat="45.66233" lon="4.45465">
        <ele>707</ele>
        <time>2017-05-14T09:09:55Z</time>
      </trkpt>
      <trkpt lat="45.66228" lon="4.45476">
        <ele>707</ele>
        <time>2017-05-14T09:09:59Z</time>
      </trkpt>
      <trkpt lat="45.66227" lon="4.45493">
        <ele>707</ele>
        <time>2017-05-14T09:10:03Z</time>
      </trkpt>
      <trkpt lat="45.66226" lon="4.45509">
        <ele>709</ele>
        <time>2017-05-14T09:10:07Z</time>
      </trkpt>
      <trkpt lat="45.66226" lon="4.45522">
        <ele>709</ele>
        <time>2017-05-14T09:10:12Z</time>
      </trkpt>
      <trkpt lat="45.66223" lon="4.45533">
        <ele>710</ele>
        <time>2017-05-14T09:10:15Z</time>
      </trkpt>
      <trkpt lat="45.66221" lon="4.45545">
        <ele>711</ele>
        <time>2017-05-14T09:10:19Z</time>
      </trkpt>
      <trkpt lat="45.66219" lon="4.45556">
        <ele>712</ele>
        <time>2017-05-14T09:10:23Z</time>
      </trkpt>
      <trkpt lat="45.66217" lon="4.4557">
        <ele>713</ele>
        <time>2017-05-14T09:10:27Z</time>
      </trkpt>
      <trkpt lat="45.66216" lon="4.45586">
        <ele>713</ele>
        <time>2017-05-14T09:10:32Z</time>
      </trkpt>
      <trkpt lat="45.66216" lon="4.45602">
        <ele>714</ele>
        <time>2017-05-14T09:10:35Z</time>
      </trkpt>
      <trkpt lat="45.66216" lon="4.45618">
        <ele>715</ele>
        <time>2017-05-14T09:10:39Z</time>
      </trkpt>
      <trkpt lat="45.66218" lon="4.45652">
        <ele>715</ele>
        <time>2017-05-14T09:10:45Z</time>
      </trkpt>
      <trkpt lat="45.66219" lon="4.45669">
        <ele>716</ele>
        <time>2017-05-14T09:10:51Z</time>
      </trkpt>
      <trkpt lat="45.66219" lon="4.45684">
        <ele>717</ele>
        <time>2017-05-14T09:10:55Z</time>
      </trkpt>
      <trkpt lat="45.66221" lon="4.45698">
        <ele>718</ele>
        <time>2017-05-14T09:10:59Z</time>
      </trkpt>
      <trkpt lat="45.66219" lon="4.45712">
        <ele>718</ele>
        <time>2017-05-14T09:11:03Z</time>
      </trkpt>
      <trkpt lat="45.66218" lon="4.45726">
        <ele>719</ele>
        <time>2017-05-14T09:11:07Z</time>
      </trkpt>
      <trkpt lat="45.66218" lon="4.4574">
        <ele>719</ele>
        <time>2017-05-14T09:11:11Z</time>
      </trkpt>
      <trkpt lat="45.66219" lon="4.45753">
        <ele>720</ele>
        <time>2017-05-14T09:11:15Z</time>
      </trkpt>
      <trkpt lat="45.66219" lon="4.45766">
        <ele>721</ele>
        <time>2017-05-14T09:11:19Z</time>
      </trkpt>
      <trkpt lat="45.66218" lon="4.45778">
        <ele>721</ele>
        <time>2017-05-14T09:11:24Z</time>
      </trkpt>
      <trkpt lat="45.66218" lon="4.45793">
        <ele>722</ele>
        <time>2017-05-14T09:11:27Z</time>
      </trkpt>
      <trkpt lat="45.66217" lon="4.45806">
        <ele>723</ele>
        <time>2017-05-14T09:11:31Z</time>
      </trkpt>
      <trkpt lat="45.66217" lon="4.45819">
        <ele>723</ele>
        <time>2017-05-14T09:11:35Z</time>
      </trkpt>
      <trkpt lat="45.66217" lon="4.45832">
        <ele>724</ele>
        <time>2017-05-14T09:11:40Z</time>
      </trkpt>
      <trkpt lat="45.66216" lon="4.45844">
        <ele>724</ele>
        <time>2017-05-14T09:11:44Z</time>
      </trkpt>
      <trkpt lat="45.66216" lon="4.45857">
        <ele>725</ele>
        <time>2017-05-14T09:11:47Z</time>
      </trkpt>
      <trkpt lat="45.66216" lon="4.45871">
        <ele>725</ele>
        <time>2017-05-14T09:11:51Z</time>
      </trkpt>
      <trkpt lat="45.66217" lon="4.45883">
        <ele>726</ele>
        <time>2017-05-14T09:11:55Z</time>
      </trkpt>
      <trkpt lat="45.66216" lon="4.45895">
        <ele>727</ele>
        <time>2017-05-14T09:11:59Z</time>
      </trkpt>
      <trkpt lat="45.66214" lon="4.45907">
        <ele>727</ele>
        <time>2017-05-14T09:12:03Z</time>
      </trkpt>
      <trkpt lat="45.66213" lon="4.45918">
        <ele>728</ele>
        <time>2017-05-14T09:12:07Z</time>
      </trkpt>
      <trkpt lat="45.66212" lon="4.45929">
        <ele>728</ele>
        <time>2017-05-14T09:12:11Z</time>
      </trkpt>
      <trkpt lat="45.6621" lon="4.45941">
        <ele>729</ele>
        <time>2017-05-14T09:12:15Z</time>
      </trkpt>
      <trkpt lat="45.66209" lon="4.45953">
        <ele>731</ele>
        <time>2017-05-14T09:12:19Z</time>
      </trkpt>
      <trkpt lat="45.66212" lon="4.45962">
        <ele>731</ele>
        <time>2017-05-14T09:12:23Z</time>
      </trkpt>
      <trkpt lat="45.66217" lon="4.45969">
        <ele>732</ele>
        <time>2017-05-14T09:12:28Z</time>
      </trkpt>
      <trkpt lat="45.66223" lon="4.45975">
        <ele>734</ele>
        <time>2017-05-14T09:12:31Z</time>
      </trkpt>
      <trkpt lat="45.66229" lon="4.45981">
        <ele>734</ele>
        <time>2017-05-14T09:12:36Z</time>
      </trkpt>
      <trkpt lat="45.66236" lon="4.45987">
        <ele>735</ele>
        <time>2017-05-14T09:12:39Z</time>
      </trkpt>
      <trkpt lat="45.66242" lon="4.45994">
        <ele>735</ele>
        <time>2017-05-14T09:12:43Z</time>
      </trkpt>
      <trkpt lat="45.6625" lon="4.46001">
        <ele>736</ele>
        <time>2017-05-14T09:12:47Z</time>
      </trkpt>
      <trkpt lat="45.66258" lon="4.46009">
        <ele>736</ele>
        <time>2017-05-14T09:12:52Z</time>
      </trkpt>
      <trkpt lat="45.66267" lon="4.46016">
        <ele>737</ele>
        <time>2017-05-14T09:12:55Z</time>
      </trkpt>
      <trkpt lat="45.66276" lon="4.46023">
        <ele>737</ele>
        <time>2017-05-14T09:12:59Z</time>
      </trkpt>
      <trkpt lat="45.66285" lon="4.4603">
        <ele>737</ele>
        <time>2017-05-14T09:13:03Z</time>
      </trkpt>
      <trkpt lat="45.66294" lon="4.46036">
        <ele>738</ele>
        <time>2017-05-14T09:13:07Z</time>
      </trkpt>
      <trkpt lat="45.66303" lon="4.46043">
        <ele>738</ele>
        <time>2017-05-14T09:13:11Z</time>
      </trkpt>
      <trkpt lat="45.66312" lon="4.46051">
        <ele>738</ele>
        <time>2017-05-14T09:13:15Z</time>
      </trkpt>
      <trkpt lat="45.6632" lon="4.4606">
        <ele>739</ele>
        <time>2017-05-14T09:13:19Z</time>
      </trkpt>
      <trkpt lat="45.66333" lon="4.4608">
        <ele>740</ele>
        <time>2017-05-14T09:13:25Z</time>
      </trkpt>
      <trkpt lat="45.6634" lon="4.46089">
        <ele>741</ele>
        <time>2017-05-14T09:13:31Z</time>
      </trkpt>
      <trkpt lat="45.66346" lon="4.46099">
        <ele>741</ele>
        <time>2017-05-14T09:13:35Z</time>
      </trkpt>
      <trkpt lat="45.66352" lon="4.46109">
        <ele>741</ele>
        <time>2017-05-14T09:13:39Z</time>
      </trkpt>
      <trkpt lat="45.66357" lon="4.46121">
        <ele>741</ele>
        <time>2017-05-14T09:13:44Z</time>
      </trkpt>
      <trkpt lat="45.66365" lon="4.46133">
        <ele>742</ele>
        <time>2017-05-14T09:13:48Z</time>
      </trkpt>
      <trkpt lat="45.66373" lon="4.46145">
        <ele>743</ele>
        <time>2017-05-14T09:13:51Z</time>
      </trkpt>
      <trkpt lat="45.6638" lon="4.46156">
        <ele>743</ele>
        <time>2017-05-14T09:13:55Z</time>
      </trkpt>
      <trkpt lat="45.66388" lon="4.46164">
        <ele>743</ele>
        <time>2017-05-14T09:13:59Z</time>
      </trkpt>
      <trkpt lat="45.66395" lon="4.46172">
        <ele>744</ele>
        <time>2017-05-14T09:14:03Z</time>
      </trkpt>
      <trkpt lat="45.66403" lon="4.46181">
        <ele>745</ele>
        <time>2017-05-14T09:14:07Z</time>
      </trkpt>
      <trkpt lat="45.66409" lon="4.4619">
        <ele>746</ele>
        <time>2017-05-14T09:14:11Z</time>
      </trkpt>
      <trkpt lat="45.66417" lon="4.46196">
        <ele>747</ele>
        <time>2017-05-14T09:14:15Z</time>
      </trkpt>
      <trkpt lat="45.66425" lon="4.46202">
        <ele>748</ele>
        <time>2017-05-14T09:14:19Z</time>
      </trkpt>
      <trkpt lat="45.66433" lon="4.46208">
        <ele>749</ele>
        <time>2017-05-14T09:14:23Z</time>
      </trkpt>
      <trkpt lat="45.66441" lon="4.46214">
        <ele>749</ele>
        <time>2017-05-14T09:14:27Z</time>
      </trkpt>
      <trkpt lat="45.66449" lon="4.46219">
        <ele>750</ele>
        <time>2017-05-14T09:14:32Z</time>
      </trkpt>
      <trkpt lat="45.66455" lon="4.46226">
        <ele>751</ele>
        <time>2017-05-14T09:14:35Z</time>
      </trkpt>
      <trkpt lat="45.66461" lon="4.46233">
        <ele>752</ele>
        <time>2017-05-14T09:14:40Z</time>
      </trkpt>
      <trkpt lat="45.66464" lon="4.46241">
        <ele>753</ele>
        <time>2017-05-14T09:14:43Z</time>
      </trkpt>
      <trkpt lat="45.66467" lon="4.4625">
        <ele>753</ele>
        <time>2017-05-14T09:14:47Z</time>
      </trkpt>
      <trkpt lat="45.6647" lon="4.46259">
        <ele>754</ele>
        <time>2017-05-14T09:14:51Z</time>
      </trkpt>
      <trkpt lat="45.66473" lon="4.46264">
        <ele>755</ele>
        <time>2017-05-14T09:14:56Z</time>
      </trkpt>
      <trkpt lat="45.66475" lon="4.46267">
        <ele>756</ele>
        <time>2017-05-14T09:15:00Z</time>
      </trkpt>
      <trkpt lat="45.66477" lon="4.46267">
        <ele>757</ele>
        <time>2017-05-14T09:15:03Z</time>
      </trkpt>
      <trkpt lat="45.66478" lon="4.46272">
        <ele>758</ele>
        <time>2017-05-14T09:15:07Z</time>
      </trkpt>
      <trkpt lat="45.66481" lon="4.46275">
        <ele>759</ele>
        <time>2017-05-14T09:15:11Z</time>
      </trkpt>
      <trkpt lat="45.66484" lon="4.4628">
        <ele>760</ele>
        <time>2017-05-14T09:15:15Z</time>
      </trkpt>
      <trkpt lat="45.66488" lon="4.46285">
        <ele>760</ele>
        <time>2017-05-14T09:15:19Z</time>
      </trkpt>
      <trkpt lat="45.66493" lon="4.46294">
        <ele>760</ele>
        <time>2017-05-14T09:15:23Z</time>
      </trkpt>
      <trkpt lat="45.66498" lon="4.46303">
        <ele>760</ele>
        <time>2017-05-14T09:15:27Z</time>
      </trkpt>
      <trkpt lat="45.66504" lon="4.46313">
        <ele>761</ele>
        <time>2017-05-14T09:15:32Z</time>
      </trkpt>
      <trkpt lat="45.66512" lon="4.4632">
        <ele>761</ele>
        <time>2017-05-14T09:15:35Z</time>
      </trkpt>
      <trkpt lat="45.66521" lon="4.4633">
        <ele>761</ele>
        <time>2017-05-14T09:15:39Z</time>
      </trkpt>
      <trkpt lat="45.66532" lon="4.46344">
        <ele>760</ele>
        <time>2017-05-14T09:15:43Z</time>
      </trkpt>
      <trkpt lat="45.66544" lon="4.46361">
        <ele>760</ele>
        <time>2017-05-14T09:15:47Z</time>
      </trkpt>
      <trkpt lat="45.66556" lon="4.46377">
        <ele>760</ele>
        <time>2017-05-14T09:15:52Z</time>
      </trkpt>
      <trkpt lat="45.66564" lon="4.4639">
        <ele>760</ele>
        <time>2017-05-14T09:15:55Z</time>
      </trkpt>
      <trkpt lat="45.66571" lon="4.46403">
        <ele>761</ele>
        <time>2017-05-14T09:15:59Z</time>
      </trkpt>
      <trkpt lat="45.66579" lon="4.46429">
        <ele>761</ele>
        <time>2017-05-14T09:16:05Z</time>
      </trkpt>
      <trkpt lat="45.66582" lon="4.46447">
        <ele>763</ele>
        <time>2017-05-14T09:16:11Z</time>
      </trkpt>
      <trkpt lat="45.6658" lon="4.46461">
        <ele>763</ele>
        <time>2017-05-14T09:16:15Z</time>
      </trkpt>
      <trkpt lat="45.66576" lon="4.46477">
        <ele>763</ele>
        <time>2017-05-14T09:16:19Z</time>
      </trkpt>
      <trkpt lat="45.66581" lon="4.46502">
        <ele>763</ele>
        <time>2017-05-14T09:16:23Z</time>
      </trkpt>
      <trkpt lat="45.66592" lon="4.46523">
        <ele>763</ele>
        <time>2017-05-14T09:16:27Z</time>
      </trkpt>
      <trkpt lat="45.66602" lon="4.4654">
        <ele>763</ele>
        <time>2017-05-14T09:16:31Z</time>
      </trkpt>
      <trkpt lat="45.6661" lon="4.46556">
        <ele>764</ele>
        <time>2017-05-14T09:16:36Z</time>
      </trkpt>
      <trkpt lat="45.66616" lon="4.46571">
        <ele>765</ele>
        <time>2017-05-14T09:16:39Z</time>
      </trkpt>
      <trkpt lat="45.66621" lon="4.46584">
        <ele>766</ele>
        <time>2017-05-14T09:16:44Z</time>
      </trkpt>
      <trkpt lat="45.66626" lon="4.46596">
        <ele>767</ele>
        <time>2017-05-14T09:16:47Z</time>
      </trkpt>
      <trkpt lat="45.66632" lon="4.46607">
        <ele>768</ele>
        <time>2017-05-14T09:16:51Z</time>
      </trkpt>
      <trkpt lat="45.66639" lon="4.46616">
        <ele>769</ele>
        <time>2017-05-14T09:16:55Z</time>
      </trkpt>
      <trkpt lat="45.66646" lon="4.46623">
        <ele>770</ele>
        <time>2017-05-14T09:16:59Z</time>
      </trkpt>
      <trkpt lat="45.66653" lon="4.46629">
        <ele>771</ele>
        <time>2017-05-14T09:17:03Z</time>
      </trkpt>
      <trkpt lat="45.66661" lon="4.46634">
        <ele>772</ele>
        <time>2017-05-14T09:17:07Z</time>
      </trkpt>
      <trkpt lat="45.66668" lon="4.46637">
        <ele>773</ele>
        <time>2017-05-14T09:17:11Z</time>
      </trkpt>
      <trkpt lat="45.66675" lon="4.46641">
        <ele>773</ele>
        <time>2017-05-14T09:17:15Z</time>
      </trkpt>
      <trkpt lat="45.66682" lon="4.46648">
        <ele>774</ele>
        <time>2017-05-14T09:17:19Z</time>
      </trkpt>
      <trkpt lat="45.66687" lon="4.46657">
        <ele>775</ele>
        <time>2017-05-14T09:17:24Z</time>
      </trkpt>
      <trkpt lat="45.6669" lon="4.46666">
        <ele>776</ele>
        <time>2017-05-14T09:17:27Z</time>
      </trkpt>
      <trkpt lat="45.66692" lon="4.46677">
        <ele>777</ele>
        <time>2017-05-14T09:17:31Z</time>
      </trkpt>
      <trkpt lat="45.66696" lon="4.46687">
        <ele>777</ele>
        <time>2017-05-14T09:17:36Z</time>
      </trkpt>
      <trkpt lat="45.66699" lon="4.46699">
        <ele>778</ele>
        <time>2017-05-14T09:17:39Z</time>
      </trkpt>
      <trkpt lat="45.66701" lon="4.46711">
        <ele>778</ele>
        <time>2017-05-14T09:17:43Z</time>
      </trkpt>
      <trkpt lat="45.66704" lon="4.46725">
        <ele>777</ele>
        <time>2017-05-14T09:17:47Z</time>
      </trkpt>
      <trkpt lat="45.66709" lon="4.46739">
        <ele>777</ele>
        <time>2017-05-14T09:17:51Z</time>
      </trkpt>
      <trkpt lat="45.66717" lon="4.46756">
        <ele>777</ele>
        <time>2017-05-14T09:17:55Z</time>
      </trkpt>
      <trkpt lat="45.66722" lon="4.46771">
        <ele>778</ele>
        <time>2017-05-14T09:17:59Z</time>
      </trkpt>
      <trkpt lat="45.66729" lon="4.46786">
        <ele>779</ele>
        <time>2017-05-14T09:18:03Z</time>
      </trkpt>
      <trkpt lat="45.66736" lon="4.46804">
        <ele>779</ele>
        <time>2017-05-14T09:18:07Z</time>
      </trkpt>
      <trkpt lat="45.66747" lon="4.46821">
        <ele>780</ele>
        <time>2017-05-14T09:18:11Z</time>
      </trkpt>
      <trkpt lat="45.66756" lon="4.46835">
        <ele>778</ele>
        <time>2017-05-14T09:18:15Z</time>
      </trkpt>
      <trkpt lat="45.66769" lon="4.4685">
        <ele>777</ele>
        <time>2017-05-14T09:18:19Z</time>
      </trkpt>
      <trkpt lat="45.66787" lon="4.46873">
        <ele>777</ele>
        <time>2017-05-14T09:18:23Z</time>
      </trkpt>
      <trkpt lat="45.66816" lon="4.46909">
        <ele>775</ele>
        <time>2017-05-14T09:18:27Z</time>
      </trkpt>
      <trkpt lat="45.66837" lon="4.46939">
        <ele>774</ele>
        <time>2017-05-14T09:18:31Z</time>
      </trkpt>
      <trkpt lat="45.66857" lon="4.46971">
        <ele>774</ele>
        <time>2017-05-14T09:18:35Z</time>
      </trkpt>
      <trkpt lat="45.66877" lon="4.46999">
        <ele>774</ele>
        <time>2017-05-14T09:18:39Z</time>
      </trkpt>
      <trkpt lat="45.66893" lon="4.47024">
        <ele>773</ele>
        <time>2017-05-14T09:18:43Z</time>
      </trkpt>
      <trkpt lat="45.66906" lon="4.47045">
        <ele>771</ele>
        <time>2017-05-14T09:18:48Z</time>
      </trkpt>
      <trkpt lat="45.66918" lon="4.47072">
        <ele>770</ele>
        <time>2017-05-14T09:18:51Z</time>
      </trkpt>
      <trkpt lat="45.66933" lon="4.47108">
        <ele>767</ele>
        <time>2017-05-14T09:18:55Z</time>
      </trkpt>
      <trkpt lat="45.66966" lon="4.47128">
        <ele>764</ele>
        <time>2017-05-14T09:18:59Z</time>
      </trkpt>
      <trkpt lat="45.67007" lon="4.47147">
        <ele>760</ele>
        <time>2017-05-14T09:19:03Z</time>
      </trkpt>
      <trkpt lat="45.67043" lon="4.47184">
        <ele>756</ele>
        <time>2017-05-14T09:19:07Z</time>
      </trkpt>
      <trkpt lat="45.67068" lon="4.47229">
        <ele>756</ele>
        <time>2017-05-14T09:19:11Z</time>
      </trkpt>
      <trkpt lat="45.67089" lon="4.47267">
        <ele>756</ele>
        <time>2017-05-14T09:19:15Z</time>
      </trkpt>
      <trkpt lat="45.67106" lon="4.473">
        <ele>756</ele>
        <time>2017-05-14T09:19:19Z</time>
      </trkpt>
      <trkpt lat="45.67119" lon="4.47328">
        <ele>757</ele>
        <time>2017-05-14T09:19:23Z</time>
      </trkpt>
      <trkpt lat="45.6713" lon="4.47351">
        <ele>758</ele>
        <time>2017-05-14T09:19:27Z</time>
      </trkpt>
      <trkpt lat="45.67139" lon="4.4737">
        <ele>758</ele>
        <time>2017-05-14T09:19:31Z</time>
      </trkpt>
      <trkpt lat="45.67146" lon="4.47384">
        <ele>759</ele>
        <time>2017-05-14T09:19:35Z</time>
      </trkpt>
      <trkpt lat="45.67151" lon="4.47396">
        <ele>760</ele>
        <time>2017-05-14T09:19:40Z</time>
      </trkpt>
      <trkpt lat="45.67156" lon="4.47407">
        <ele>761</ele>
        <time>2017-05-14T09:19:43Z</time>
      </trkpt>
      <trkpt lat="45.6716" lon="4.47418">
        <ele>762</ele>
        <time>2017-05-14T09:19:47Z</time>
      </trkpt>
      <trkpt lat="45.67164" lon="4.47429">
        <ele>763</ele>
        <time>2017-05-14T09:19:51Z</time>
      </trkpt>
      <trkpt lat="45.67168" lon="4.47438">
        <ele>764</ele>
        <time>2017-05-14T09:19:55Z</time>
      </trkpt>
      <trkpt lat="45.67173" lon="4.4745">
        <ele>764</ele>
        <time>2017-05-14T09:20:03Z</time>
      </trkpt>
      <trkpt lat="45.67178" lon="4.47466">
        <ele>764</ele>
        <time>2017-05-14T09:20:04Z</time>
      </trkpt>
      <trkpt lat="45.67184" lon="4.47487">
        <ele>763</ele>
        <time>2017-05-14T09:20:07Z</time>
      </trkpt>
      <trkpt lat="45.67188" lon="4.4751">
        <ele>763</ele>
        <time>2017-05-14T09:20:11Z</time>
      </trkpt>
      <trkpt lat="45.67193" lon="4.47536">
        <ele>763</ele>
        <time>2017-05-14T09:20:15Z</time>
      </trkpt>
      <trkpt lat="45.67198" lon="4.47561">
        <ele>763</ele>
        <time>2017-05-14T09:20:19Z</time>
      </trkpt>
      <trkpt lat="45.67206" lon="4.47584">
        <ele>764</ele>
        <time>2017-05-14T09:20:23Z</time>
      </trkpt>
      <trkpt lat="45.67213" lon="4.47606">
        <ele>764</ele>
        <time>2017-05-14T09:20:27Z</time>
      </trkpt>
      <trkpt lat="45.67218" lon="4.47627">
        <ele>764</ele>
        <time>2017-05-14T09:20:31Z</time>
      </trkpt>
      <trkpt lat="45.67223" lon="4.47645">
        <ele>766</ele>
        <time>2017-05-14T09:20:35Z</time>
      </trkpt>
      <trkpt lat="45.6723" lon="4.4766">
        <ele>766</ele>
        <time>2017-05-14T09:20:39Z</time>
      </trkpt>
      <trkpt lat="45.67236" lon="4.47676">
        <ele>766</ele>
        <time>2017-05-14T09:20:43Z</time>
      </trkpt>
      <trkpt lat="45.67241" lon="4.47694">
        <ele>766</ele>
        <time>2017-05-14T09:20:47Z</time>
      </trkpt>
      <trkpt lat="45.67246" lon="4.47714">
        <ele>765</ele>
        <time>2017-05-14T09:20:51Z</time>
      </trkpt>
      <trkpt lat="45.67249" lon="4.4774">
        <ele>764</ele>
        <time>2017-05-14T09:20:56Z</time>
      </trkpt>
      <trkpt lat="45.67254" lon="4.47767">
        <ele>763</ele>
        <time>2017-05-14T09:20:59Z</time>
      </trkpt>
      <trkpt lat="45.67259" lon="4.47792">
        <ele>763</ele>
        <time>2017-05-14T09:21:04Z</time>
      </trkpt>
      <trkpt lat="45.67263" lon="4.47815">
        <ele>762</ele>
        <time>2017-05-14T09:21:07Z</time>
      </trkpt>
      <trkpt lat="45.67269" lon="4.47836">
        <ele>762</ele>
        <time>2017-05-14T09:21:11Z</time>
      </trkpt>
      <trkpt lat="45.67273" lon="4.47858">
        <ele>763</ele>
        <time>2017-05-14T09:21:15Z</time>
      </trkpt>
      <trkpt lat="45.67277" lon="4.47902">
        <ele>763</ele>
        <time>2017-05-14T09:21:21Z</time>
      </trkpt>
      <trkpt lat="45.67275" lon="4.47922">
        <ele>763</ele>
        <time>2017-05-14T09:21:27Z</time>
      </trkpt>
      <trkpt lat="45.67272" lon="4.47935">
        <ele>763</ele>
        <time>2017-05-14T09:21:31Z</time>
      </trkpt>
      <trkpt lat="45.67271" lon="4.47948">
        <ele>763</ele>
        <time>2017-05-14T09:21:35Z</time>
      </trkpt>
      <trkpt lat="45.6727" lon="4.47967">
        <ele>763</ele>
        <time>2017-05-14T09:21:39Z</time>
      </trkpt>
      <trkpt lat="45.67273" lon="4.47984">
        <ele>763</ele>
        <time>2017-05-14T09:21:44Z</time>
      </trkpt>
      <trkpt lat="45.67273" lon="4.47999">
        <ele>763</ele>
        <time>2017-05-14T09:21:47Z</time>
      </trkpt>
      <trkpt lat="45.67276" lon="4.4801">
        <ele>763</ele>
        <time>2017-05-14T09:21:51Z</time>
      </trkpt>
      <trkpt lat="45.6728" lon="4.48018">
        <ele>764</ele>
        <time>2017-05-14T09:21:55Z</time>
      </trkpt>
      <trkpt lat="45.67284" lon="4.48028">
        <ele>765</ele>
        <time>2017-05-14T09:21:59Z</time>
      </trkpt>
      <trkpt lat="45.67287" lon="4.48034">
        <ele>765</ele>
        <time>2017-05-14T09:22:03Z</time>
      </trkpt>
      <trkpt lat="45.67292" lon="4.48039">
        <ele>766</ele>
        <time>2017-05-14T09:22:07Z</time>
      </trkpt>
      <trkpt lat="45.67299" lon="4.48046">
        <ele>766</ele>
        <time>2017-05-14T09:22:11Z</time>
      </trkpt>
      <trkpt lat="45.67308" lon="4.48052">
        <ele>766</ele>
        <time>2017-05-14T09:22:15Z</time>
      </trkpt>
      <trkpt lat="45.6732" lon="4.48059">
        <ele>766</ele>
        <time>2017-05-14T09:22:19Z</time>
      </trkpt>
      <trkpt lat="45.67335" lon="4.48065">
        <ele>766</ele>
        <time>2017-05-14T09:22:23Z</time>
      </trkpt>
      <trkpt lat="45.67351" lon="4.48071">
        <ele>766</ele>
        <time>2017-05-14T09:22:27Z</time>
      </trkpt>
      <trkpt lat="45.67367" lon="4.4808">
        <ele>766</ele>
        <time>2017-05-14T09:22:31Z</time>
      </trkpt>
      <trkpt lat="45.67397" lon="4.481">
        <ele>765</ele>
        <time>2017-05-14T09:22:37Z</time>
      </trkpt>
      <trkpt lat="45.67411" lon="4.48109">
        <ele>764</ele>
        <time>2017-05-14T09:22:43Z</time>
      </trkpt>
      <trkpt lat="45.67457" lon="4.4811">
        <ele>763</ele>
        <time>2017-05-14T09:22:49Z</time>
      </trkpt>
      <trkpt lat="45.67486" lon="4.48109">
        <ele>760</ele>
        <time>2017-05-14T09:22:55Z</time>
      </trkpt>
      <trkpt lat="45.67518" lon="4.48107">
        <ele>758</ele>
        <time>2017-05-14T09:23:00Z</time>
      </trkpt>
      <trkpt lat="45.67554" lon="4.48105">
        <ele>755</ele>
        <time>2017-05-14T09:23:03Z</time>
      </trkpt>
      <trkpt lat="45.6759" lon="4.481">
        <ele>753</ele>
        <time>2017-05-14T09:23:08Z</time>
      </trkpt>
      <trkpt lat="45.67628" lon="4.48094">
        <ele>750</ele>
        <time>2017-05-14T09:23:11Z</time>
      </trkpt>
      <trkpt lat="45.67664" lon="4.48088">
        <ele>747</ele>
        <time>2017-05-14T09:23:15Z</time>
      </trkpt>
      <trkpt lat="45.67702" lon="4.48084">
        <ele>746</ele>
        <time>2017-05-14T09:23:19Z</time>
      </trkpt>
      <trkpt lat="45.67734" lon="4.48083">
        <ele>746</ele>
        <time>2017-05-14T09:23:23Z</time>
      </trkpt>
      <trkpt lat="45.67759" lon="4.48081">
        <ele>746</ele>
        <time>2017-05-14T09:23:27Z</time>
      </trkpt>
      <trkpt lat="45.67777" lon="4.48078">
        <ele>748</ele>
        <time>2017-05-14T09:23:31Z</time>
      </trkpt>
      <trkpt lat="45.6779" lon="4.48075">
        <ele>749</ele>
        <time>2017-05-14T09:23:35Z</time>
      </trkpt>
      <trkpt lat="45.67801" lon="4.48072">
        <ele>750</ele>
        <time>2017-05-14T09:23:39Z</time>
      </trkpt>
      <trkpt lat="45.67811" lon="4.48067">
        <ele>751</ele>
        <time>2017-05-14T09:23:43Z</time>
      </trkpt>
      <trkpt lat="45.67821" lon="4.48061">
        <ele>752</ele>
        <time>2017-05-14T09:23:48Z</time>
      </trkpt>
      <trkpt lat="45.6783" lon="4.48055">
        <ele>753</ele>
        <time>2017-05-14T09:23:51Z</time>
      </trkpt>
      <trkpt lat="45.67839" lon="4.48047">
        <ele>753</ele>
        <time>2017-05-14T09:23:55Z</time>
      </trkpt>
      <trkpt lat="45.67846" lon="4.48039">
        <ele>755</ele>
        <time>2017-05-14T09:23:59Z</time>
      </trkpt>
      <trkpt lat="45.67852" lon="4.48032">
        <ele>757</ele>
        <time>2017-05-14T09:24:08Z</time>
      </trkpt>
      <trkpt lat="45.67863" lon="4.48016">
        <ele>757</ele>
        <time>2017-05-14T09:24:09Z</time>
      </trkpt>
      <trkpt lat="45.67869" lon="4.48008">
        <ele>759</ele>
        <time>2017-05-14T09:24:15Z</time>
      </trkpt>
      <trkpt lat="45.67874" lon="4.48">
        <ele>760</ele>
        <time>2017-05-14T09:24:19Z</time>
      </trkpt>
      <trkpt lat="45.6788" lon="4.47992">
        <ele>760</ele>
        <time>2017-05-14T09:24:23Z</time>
      </trkpt>
      <trkpt lat="45.67885" lon="4.47984">
        <ele>761</ele>
        <time>2017-05-14T09:24:27Z</time>
      </trkpt>
      <trkpt lat="45.6789" lon="4.47975">
        <ele>762</ele>
        <time>2017-05-14T09:24:31Z</time>
      </trkpt>
      <trkpt lat="45.67894" lon="4.47967">
        <ele>763</ele>
        <time>2017-05-14T09:24:35Z</time>
      </trkpt>
      <trkpt lat="45.67898" lon="4.47964">
        <ele>764</ele>
        <time>2017-05-14T09:24:40Z</time>
      </trkpt>
      <trkpt lat="45.67898" lon="4.47971">
        <ele>764</ele>
        <time>2017-05-14T09:24:44Z</time>
      </trkpt>
      <trkpt lat="45.67898" lon="4.47981">
        <ele>765</ele>
        <time>2017-05-14T09:24:47Z</time>
      </trkpt>
      <trkpt lat="45.67898" lon="4.47991">
        <ele>765</ele>
        <time>2017-05-14T09:24:51Z</time>
      </trkpt>
      <trkpt lat="45.67896" lon="4.48002">
        <ele>765</ele>
        <time>2017-05-14T09:24:55Z</time>
      </trkpt>
      <trkpt lat="45.67896" lon="4.48016">
        <ele>766</ele>
        <time>2017-05-14T09:24:59Z</time>
      </trkpt>
      <trkpt lat="45.67896" lon="4.48032">
        <ele>766</ele>
        <time>2017-05-14T09:25:03Z</time>
      </trkpt>
      <trkpt lat="45.67895" lon="4.48048">
        <ele>766</ele>
        <time>2017-05-14T09:25:07Z</time>
      </trkpt>
      <trkpt lat="45.67894" lon="4.48064">
        <ele>766</ele>
        <time>2017-05-14T09:25:11Z</time>
      </trkpt>
      <trkpt lat="45.67894" lon="4.48083">
        <ele>766</ele>
        <time>2017-05-14T09:25:15Z</time>
      </trkpt>
      <trkpt lat="45.67891" lon="4.48107">
        <ele>765</ele>
        <time>2017-05-14T09:25:19Z</time>
      </trkpt>
      <trkpt lat="45.67887" lon="4.48133">
        <ele>765</ele>
        <time>2017-05-14T09:25:23Z</time>
      </trkpt>
      <trkpt lat="45.67883" lon="4.4816">
        <ele>764</ele>
        <time>2017-05-14T09:25:28Z</time>
      </trkpt>
      <trkpt lat="45.6788" lon="4.48199">
        <ele>763</ele>
        <time>2017-05-14T09:25:31Z</time>
      </trkpt>
      <trkpt lat="45.67875" lon="4.48243">
        <ele>758</ele>
        <time>2017-05-14T09:25:35Z</time>
      </trkpt>
      <trkpt lat="45.67869" lon="4.48286">
        <ele>756</ele>
        <time>2017-05-14T09:25:39Z</time>
      </trkpt>
      <trkpt lat="45.67868" lon="4.48321">
        <ele>756</ele>
        <time>2017-05-14T09:25:43Z</time>
      </trkpt>
      <trkpt lat="45.67872" lon="4.48348">
        <ele>755</ele>
        <time>2017-05-14T09:25:47Z</time>
      </trkpt>
      <trkpt lat="45.67876" lon="4.48374">
        <ele>755</ele>
        <time>2017-05-14T09:25:52Z</time>
      </trkpt>
      <trkpt lat="45.67875" lon="4.48396">
        <ele>756</ele>
        <time>2017-05-14T09:25:55Z</time>
      </trkpt>
      <trkpt lat="45.6787" lon="4.48414">
        <ele>756</ele>
        <time>2017-05-14T09:25:59Z</time>
      </trkpt>
      <trkpt lat="45.67859" lon="4.48433">
        <ele>754</ele>
        <time>2017-05-14T09:26:03Z</time>
      </trkpt>
      <trkpt lat="45.67844" lon="4.48456">
        <ele>753</ele>
        <time>2017-05-14T09:26:07Z</time>
      </trkpt>
      <trkpt lat="45.67827" lon="4.48473">
        <ele>753</ele>
        <time>2017-05-14T09:26:11Z</time>
      </trkpt>
      <trkpt lat="45.67814" lon="4.48485">
        <ele>753</ele>
        <time>2017-05-14T09:26:15Z</time>
      </trkpt>
      <trkpt lat="45.67806" lon="4.48493">
        <ele>754</ele>
        <time>2017-05-14T09:26:19Z</time>
      </trkpt>
      <trkpt lat="45.678" lon="4.485">
        <ele>755</ele>
        <time>2017-05-14T09:26:23Z</time>
      </trkpt>
      <trkpt lat="45.67795" lon="4.48505">
        <ele>756</ele>
        <time>2017-05-14T09:26:27Z</time>
      </trkpt>
      <trkpt lat="45.6779" lon="4.48509">
        <ele>757</ele>
        <time>2017-05-14T09:26:31Z</time>
      </trkpt>
      <trkpt lat="45.67785" lon="4.48514">
        <ele>758</ele>
        <time>2017-05-14T09:26:35Z</time>
      </trkpt>
      <trkpt lat="45.67781" lon="4.48518">
        <ele>759</ele>
        <time>2017-05-14T09:26:39Z</time>
      </trkpt>
      <trkpt lat="45.67776" lon="4.48522">
        <ele>761</ele>
        <time>2017-05-14T09:26:48Z</time>
      </trkpt>
      <trkpt lat="45.67776" lon="4.48537">
        <ele>761</ele>
        <time>2017-05-14T09:26:49Z</time>
      </trkpt>
      <trkpt lat="45.67779" lon="4.48546">
        <ele>762</ele>
        <time>2017-05-14T09:26:55Z</time>
      </trkpt>
      <trkpt lat="45.6778" lon="4.48554">
        <ele>764</ele>
        <time>2017-05-14T09:26:59Z</time>
      </trkpt>
      <trkpt lat="45.67782" lon="4.4856">
        <ele>765</ele>
        <time>2017-05-14T09:27:03Z</time>
      </trkpt>
      <trkpt lat="45.67784" lon="4.48566">
        <ele>766</ele>
        <time>2017-05-14T09:27:07Z</time>
      </trkpt>
      <trkpt lat="45.67787" lon="4.48585">
        <ele>768</ele>
        <time>2017-05-14T09:27:20Z</time>
      </trkpt>
      <trkpt lat="45.67788" lon="4.48594">
        <ele>769</ele>
        <time>2017-05-14T09:27:23Z</time>
      </trkpt>
      <trkpt lat="45.67788" lon="4.48603">
        <ele>769</ele>
        <time>2017-05-14T09:27:27Z</time>
      </trkpt>
      <trkpt lat="45.67788" lon="4.48613">
        <ele>770</ele>
        <time>2017-05-14T09:27:31Z</time>
      </trkpt>
      <trkpt lat="45.67788" lon="4.48622">
        <ele>770</ele>
        <time>2017-05-14T09:27:35Z</time>
      </trkpt>
      <trkpt lat="45.67787" lon="4.48632">
        <ele>772</ele>
        <time>2017-05-14T09:27:40Z</time>
      </trkpt>
      <trkpt lat="45.67785" lon="4.48641">
        <ele>772</ele>
        <time>2017-05-14T09:27:43Z</time>
      </trkpt>
      <trkpt lat="45.67783" lon="4.48648">
        <ele>772</ele>
        <time>2017-05-14T09:27:47Z</time>
      </trkpt>
      <trkpt lat="45.67781" lon="4.48655">
        <ele>774</ele>
        <time>2017-05-14T09:27:51Z</time>
      </trkpt>
      <trkpt lat="45.67779" lon="4.48661">
        <ele>775</ele>
        <time>2017-05-14T09:27:56Z</time>
      </trkpt>
      <trkpt lat="45.67777" lon="4.48667">
        <ele>775</ele>
        <time>2017-05-14T09:27:59Z</time>
      </trkpt>
      <trkpt lat="45.67774" lon="4.48671">
        <ele>776</ele>
        <time>2017-05-14T09:28:03Z</time>
      </trkpt>
      <trkpt lat="45.67771" lon="4.48675">
        <ele>777</ele>
        <time>2017-05-14T09:28:07Z</time>
      </trkpt>
      <trkpt lat="45.67768" lon="4.48679">
        <ele>779</ele>
        <time>2017-05-14T09:28:12Z</time>
      </trkpt>
      <trkpt lat="45.67764" lon="4.48683">
        <ele>780</ele>
        <time>2017-05-14T09:28:15Z</time>
      </trkpt>
      <trkpt lat="45.6776" lon="4.48687">
        <ele>780</ele>
        <time>2017-05-14T09:28:19Z</time>
      </trkpt>
      <trkpt lat="45.67758" lon="4.48692">
        <ele>781</ele>
        <time>2017-05-14T09:28:23Z</time>
      </trkpt>
      <trkpt lat="45.67754" lon="4.48698">
        <ele>781</ele>
        <time>2017-05-14T09:28:27Z</time>
      </trkpt>
      <trkpt lat="45.6775" lon="4.48702">
        <ele>783</ele>
        <time>2017-05-14T09:28:32Z</time>
      </trkpt>
      <trkpt lat="45.67746" lon="4.48706">
        <ele>784</ele>
        <time>2017-05-14T09:28:35Z</time>
      </trkpt>
      <trkpt lat="45.67742" lon="4.48711">
        <ele>784</ele>
        <time>2017-05-14T09:28:39Z</time>
      </trkpt>
      <trkpt lat="45.67738" lon="4.48716">
        <ele>785</ele>
        <time>2017-05-14T09:28:43Z</time>
      </trkpt>
      <trkpt lat="45.67734" lon="4.48719">
        <ele>786</ele>
        <time>2017-05-14T09:28:48Z</time>
      </trkpt>
      <trkpt lat="45.6773" lon="4.48724">
        <ele>787</ele>
        <time>2017-05-14T09:28:52Z</time>
      </trkpt>
      <trkpt lat="45.67726" lon="4.48728">
        <ele>787</ele>
        <time>2017-05-14T09:28:55Z</time>
      </trkpt>
      <trkpt lat="45.67723" lon="4.48734">
        <ele>788</ele>
        <time>2017-05-14T09:28:59Z</time>
      </trkpt>
      <trkpt lat="45.6772" lon="4.4874">
        <ele>789</ele>
        <time>2017-05-14T09:29:03Z</time>
      </trkpt>
      <trkpt lat="45.67716" lon="4.48747">
        <ele>789</ele>
        <time>2017-05-14T09:29:07Z</time>
      </trkpt>
      <trkpt lat="45.67713" lon="4.48755">
        <ele>790</ele>
        <time>2017-05-14T09:29:11Z</time>
      </trkpt>
      <trkpt lat="45.6771" lon="4.48762">
        <ele>791</ele>
        <time>2017-05-14T09:29:15Z</time>
      </trkpt>
      <trkpt lat="45.67708" lon="4.4877">
        <ele>791</ele>
        <time>2017-05-14T09:29:19Z</time>
      </trkpt>
      <trkpt lat="45.67704" lon="4.48779">
        <ele>792</ele>
        <time>2017-05-14T09:29:24Z</time>
      </trkpt>
      <trkpt lat="45.677" lon="4.48787">
        <ele>793</ele>
        <time>2017-05-14T09:29:27Z</time>
      </trkpt>
      <trkpt lat="45.67697" lon="4.48795">
        <ele>793</ele>
        <time>2017-05-14T09:29:31Z</time>
      </trkpt>
      <trkpt lat="45.67693" lon="4.48803">
        <ele>794</ele>
        <time>2017-05-14T09:29:35Z</time>
      </trkpt>
      <trkpt lat="45.67689" lon="4.48811">
        <ele>794</ele>
        <time>2017-05-14T09:29:39Z</time>
      </trkpt>
      <trkpt lat="45.67685" lon="4.48819">
        <ele>795</ele>
        <time>2017-05-14T09:29:44Z</time>
      </trkpt>
      <trkpt lat="45.6768" lon="4.48827">
        <ele>796</ele>
        <time>2017-05-14T09:29:47Z</time>
      </trkpt>
      <trkpt lat="45.67676" lon="4.48835">
        <ele>797</ele>
        <time>2017-05-14T09:29:51Z</time>
      </trkpt>
      <trkpt lat="45.67672" lon="4.48843">
        <ele>797</ele>
        <time>2017-05-14T09:29:55Z</time>
      </trkpt>
      <trkpt lat="45.67667" lon="4.48852">
        <ele>798</ele>
        <time>2017-05-14T09:30:00Z</time>
      </trkpt>
      <trkpt lat="45.67662" lon="4.4886">
        <ele>798</ele>
        <time>2017-05-14T09:30:03Z</time>
      </trkpt>
      <trkpt lat="45.67659" lon="4.48869">
        <ele>798</ele>
        <time>2017-05-14T09:30:07Z</time>
      </trkpt>
      <trkpt lat="45.67655" lon="4.48878">
        <ele>798</ele>
        <time>2017-05-14T09:30:11Z</time>
      </trkpt>
      <trkpt lat="45.67652" lon="4.48889">
        <ele>800</ele>
        <time>2017-05-14T09:30:15Z</time>
      </trkpt>
      <trkpt lat="45.67649" lon="4.489">
        <ele>800</ele>
        <time>2017-05-14T09:30:19Z</time>
      </trkpt>
      <trkpt lat="45.67647" lon="4.48914">
        <ele>800</ele>
        <time>2017-05-14T09:30:23Z</time>
      </trkpt>
      <trkpt lat="45.67645" lon="4.48928">
        <ele>801</ele>
        <time>2017-05-14T09:30:27Z</time>
      </trkpt>
      <trkpt lat="45.67644" lon="4.48943">
        <ele>801</ele>
        <time>2017-05-14T09:30:31Z</time>
      </trkpt>
      <trkpt lat="45.67642" lon="4.48957">
        <ele>801</ele>
        <time>2017-05-14T09:30:36Z</time>
      </trkpt>
      <trkpt lat="45.67641" lon="4.48971">
        <ele>801</ele>
        <time>2017-05-14T09:30:39Z</time>
      </trkpt>
      <trkpt lat="45.67638" lon="4.48986">
        <ele>801</ele>
        <time>2017-05-14T09:30:43Z</time>
      </trkpt>
      <trkpt lat="45.67636" lon="4.49">
        <ele>801</ele>
        <time>2017-05-14T09:30:49Z</time>
      </trkpt>
      <trkpt lat="45.67632" lon="4.49014">
        <ele>801</ele>
        <time>2017-05-14T09:30:51Z</time>
      </trkpt>
      <trkpt lat="45.67627" lon="4.49029">
        <ele>801</ele>
        <time>2017-05-14T09:30:55Z</time>
      </trkpt>
      <trkpt lat="45.6762" lon="4.49043">
        <ele>801</ele>
        <time>2017-05-14T09:30:59Z</time>
      </trkpt>
      <trkpt lat="45.67612" lon="4.49058">
        <ele>801</ele>
        <time>2017-05-14T09:31:03Z</time>
      </trkpt>
      <trkpt lat="45.67602" lon="4.49076">
        <ele>801</ele>
        <time>2017-05-14T09:31:07Z</time>
      </trkpt>
      <trkpt lat="45.67592" lon="4.49095">
        <ele>801</ele>
        <time>2017-05-14T09:31:11Z</time>
      </trkpt>
      <trkpt lat="45.67582" lon="4.49113">
        <ele>800</ele>
        <time>2017-05-14T09:31:16Z</time>
      </trkpt>
      <trkpt lat="45.67574" lon="4.49132">
        <ele>801</ele>
        <time>2017-05-14T09:31:19Z</time>
      </trkpt>
      <trkpt lat="45.67567" lon="4.49147">
        <ele>800</ele>
        <time>2017-05-14T09:31:23Z</time>
      </trkpt>
      <trkpt lat="45.67561" lon="4.49162">
        <ele>800</ele>
        <time>2017-05-14T09:31:27Z</time>
      </trkpt>
      <trkpt lat="45.67555" lon="4.49175">
        <ele>801</ele>
        <time>2017-05-14T09:31:31Z</time>
      </trkpt>
      <trkpt lat="45.67551" lon="4.49187">
        <ele>801</ele>
        <time>2017-05-14T09:31:35Z</time>
      </trkpt>
      <trkpt lat="45.67547" lon="4.49199">
        <ele>802</ele>
        <time>2017-05-14T09:31:40Z</time>
      </trkpt>
      <trkpt lat="45.67542" lon="4.49212">
        <ele>802</ele>
        <time>2017-05-14T09:31:43Z</time>
      </trkpt>
      <trkpt lat="45.67538" lon="4.49224">
        <ele>804</ele>
        <time>2017-05-14T09:31:48Z</time>
      </trkpt>
      <trkpt lat="45.67534" lon="4.49236">
        <ele>805</ele>
        <time>2017-05-14T09:31:51Z</time>
      </trkpt>
      <trkpt lat="45.6753" lon="4.49248">
        <ele>805</ele>
        <time>2017-05-14T09:31:55Z</time>
      </trkpt>
      <trkpt lat="45.67526" lon="4.49257">
        <ele>806</ele>
        <time>2017-05-14T09:31:59Z</time>
      </trkpt>
      <trkpt lat="45.67519" lon="4.49263">
        <ele>806</ele>
        <time>2017-05-14T09:32:04Z</time>
      </trkpt>
      <trkpt lat="45.67511" lon="4.49267">
        <ele>807</ele>
        <time>2017-05-14T09:32:09Z</time>
      </trkpt>
      <trkpt lat="45.67503" lon="4.49271">
        <ele>807</ele>
        <time>2017-05-14T09:32:11Z</time>
      </trkpt>
      <trkpt lat="45.67494" lon="4.49273">
        <ele>807</ele>
        <time>2017-05-14T09:32:15Z</time>
      </trkpt>
      <trkpt lat="45.67485" lon="4.49276">
        <ele>808</ele>
        <time>2017-05-14T09:32:19Z</time>
      </trkpt>
      <trkpt lat="45.67476" lon="4.49278">
        <ele>808</ele>
        <time>2017-05-14T09:32:23Z</time>
      </trkpt>
      <trkpt lat="45.67467" lon="4.49279">
        <ele>809</ele>
        <time>2017-05-14T09:32:27Z</time>
      </trkpt>
      <trkpt lat="45.67458" lon="4.4928">
        <ele>810</ele>
        <time>2017-05-14T09:32:31Z</time>
      </trkpt>
      <trkpt lat="45.6745" lon="4.49283">
        <ele>810</ele>
        <time>2017-05-14T09:32:35Z</time>
      </trkpt>
      <trkpt lat="45.67442" lon="4.49288">
        <ele>811</ele>
        <time>2017-05-14T09:32:40Z</time>
      </trkpt>
      <trkpt lat="45.67437" lon="4.49295">
        <ele>812</ele>
        <time>2017-05-14T09:32:43Z</time>
      </trkpt>
      <trkpt lat="45.67432" lon="4.49302">
        <ele>813</ele>
        <time>2017-05-14T09:32:47Z</time>
      </trkpt>
      <trkpt lat="45.67428" lon="4.49311">
        <ele>813</ele>
        <time>2017-05-14T09:32:51Z</time>
      </trkpt>
      <trkpt lat="45.67423" lon="4.49319">
        <ele>815</ele>
        <time>2017-05-14T09:32:56Z</time>
      </trkpt>
      <trkpt lat="45.67418" lon="4.49329">
        <ele>815</ele>
        <time>2017-05-14T09:33:00Z</time>
      </trkpt>
      <trkpt lat="45.67413" lon="4.49339">
        <ele>816</ele>
        <time>2017-05-14T09:33:03Z</time>
      </trkpt>
      <trkpt lat="45.67407" lon="4.4935">
        <ele>817</ele>
        <time>2017-05-14T09:33:07Z</time>
      </trkpt>
      <trkpt lat="45.67401" lon="4.4936">
        <ele>817</ele>
        <time>2017-05-14T09:33:11Z</time>
      </trkpt>
      <trkpt lat="45.67396" lon="4.49371">
        <ele>818</ele>
        <time>2017-05-14T09:33:15Z</time>
      </trkpt>
      <trkpt lat="45.67391" lon="4.49382">
        <ele>818</ele>
        <time>2017-05-14T09:33:20Z</time>
      </trkpt>
      <trkpt lat="45.67385" lon="4.49394">
        <ele>819</ele>
        <time>2017-05-14T09:33:23Z</time>
      </trkpt>
      <trkpt lat="45.67379" lon="4.49406">
        <ele>819</ele>
        <time>2017-05-14T09:33:27Z</time>
      </trkpt>
      <trkpt lat="45.67373" lon="4.49419">
        <ele>819</ele>
        <time>2017-05-14T09:33:31Z</time>
      </trkpt>
      <trkpt lat="45.67367" lon="4.49431">
        <ele>819</ele>
        <time>2017-05-14T09:33:35Z</time>
      </trkpt>
      <trkpt lat="45.67361" lon="4.49445">
        <ele>819</ele>
        <time>2017-05-14T09:33:39Z</time>
      </trkpt>
      <trkpt lat="45.67354" lon="4.49459">
        <ele>819</ele>
        <time>2017-05-14T09:33:44Z</time>
      </trkpt>
      <trkpt lat="45.67348" lon="4.49474">
        <ele>819</ele>
        <time>2017-05-14T09:33:47Z</time>
      </trkpt>
      <trkpt lat="45.67341" lon="4.4949">
        <ele>819</ele>
        <time>2017-05-14T09:33:52Z</time>
      </trkpt>
      <trkpt lat="45.67335" lon="4.49505">
        <ele>819</ele>
        <time>2017-05-14T09:33:55Z</time>
      </trkpt>
      <trkpt lat="45.6733" lon="4.49519">
        <ele>820</ele>
        <time>2017-05-14T09:33:59Z</time>
      </trkpt>
      <trkpt lat="45.67326" lon="4.49532">
        <ele>820</ele>
        <time>2017-05-14T09:34:03Z</time>
      </trkpt>
      <trkpt lat="45.67322" lon="4.49544">
        <ele>821</ele>
        <time>2017-05-14T09:34:08Z</time>
      </trkpt>
      <trkpt lat="45.67321" lon="4.49556">
        <ele>822</ele>
        <time>2017-05-14T09:34:12Z</time>
      </trkpt>
      <trkpt lat="45.6732" lon="4.49565">
        <ele>822</ele>
        <time>2017-05-14T09:34:15Z</time>
      </trkpt>
      <trkpt lat="45.6732" lon="4.49576">
        <ele>822</ele>
        <time>2017-05-14T09:34:19Z</time>
      </trkpt>
      <trkpt lat="45.6732" lon="4.49586">
        <ele>823</ele>
        <time>2017-05-14T09:34:23Z</time>
      </trkpt>
      <trkpt lat="45.6732" lon="4.49594">
        <ele>825</ele>
        <time>2017-05-14T09:34:27Z</time>
      </trkpt>
      <trkpt lat="45.6732" lon="4.49603">
        <ele>826</ele>
        <time>2017-05-14T09:34:31Z</time>
      </trkpt>
      <trkpt lat="45.6732" lon="4.49612">
        <ele>826</ele>
        <time>2017-05-14T09:34:36Z</time>
      </trkpt>
      <trkpt lat="45.67319" lon="4.49622">
        <ele>826</ele>
        <time>2017-05-14T09:34:39Z</time>
      </trkpt>
      <trkpt lat="45.67319" lon="4.4963">
        <ele>828</ele>
        <time>2017-05-14T09:34:44Z</time>
      </trkpt>
      <trkpt lat="45.67317" lon="4.4964">
        <ele>828</ele>
        <time>2017-05-14T09:34:47Z</time>
      </trkpt>
      <trkpt lat="45.67314" lon="4.49653">
        <ele>828</ele>
        <time>2017-05-14T09:34:51Z</time>
      </trkpt>
      <trkpt lat="45.67311" lon="4.49672">
        <ele>827</ele>
        <time>2017-05-14T09:34:55Z</time>
      </trkpt>
      <trkpt lat="45.67307" lon="4.49689">
        <ele>827</ele>
        <time>2017-05-14T09:34:59Z</time>
      </trkpt>
      <trkpt lat="45.67299" lon="4.49701">
        <ele>827</ele>
        <time>2017-05-14T09:35:03Z</time>
      </trkpt>
      <trkpt lat="45.67291" lon="4.4972">
        <ele>827</ele>
        <time>2017-05-14T09:35:07Z</time>
      </trkpt>
      <trkpt lat="45.67289" lon="4.4974">
        <ele>826</ele>
        <time>2017-05-14T09:35:11Z</time>
      </trkpt>
      <trkpt lat="45.67291" lon="4.49776">
        <ele>825</ele>
        <time>2017-05-14T09:36:59Z</time>
      </trkpt>
      <trkpt lat="45.67274" lon="4.49764">
        <ele>820</ele>
        <time>2017-05-14T09:37:03Z</time>
      </trkpt>
      <trkpt lat="45.67249" lon="4.49758">
        <ele>817</ele>
        <time>2017-05-14T09:37:08Z</time>
      </trkpt>
      <trkpt lat="45.67221" lon="4.49759">
        <ele>815</ele>
        <time>2017-05-14T09:37:11Z</time>
      </trkpt>
      <trkpt lat="45.67206" lon="4.49748">
        <ele>814</ele>
        <time>2017-05-14T09:37:15Z</time>
      </trkpt>
      <trkpt lat="45.67197" lon="4.4974">
        <ele>814</ele>
        <time>2017-05-14T09:37:19Z</time>
      </trkpt>
      <trkpt lat="45.67193" lon="4.49736">
        <ele>814</ele>
        <time>2017-05-14T09:37:23Z</time>
      </trkpt>
      <trkpt lat="45.67187" lon="4.49736">
        <ele>814</ele>
        <time>2017-05-14T09:37:27Z</time>
      </trkpt>
      <trkpt lat="45.67178" lon="4.49734">
        <ele>814</ele>
        <time>2017-05-14T09:37:31Z</time>
      </trkpt>
      <trkpt lat="45.67169" lon="4.49732">
        <ele>814</ele>
        <time>2017-05-14T09:37:35Z</time>
      </trkpt>
      <trkpt lat="45.67154" lon="4.49729">
        <ele>813</ele>
        <time>2017-05-14T09:37:39Z</time>
      </trkpt>
      <trkpt lat="45.67122" lon="4.49719">
        <ele>810</ele>
        <time>2017-05-14T09:37:43Z</time>
      </trkpt>
      <trkpt lat="45.67085" lon="4.49709">
        <ele>807</ele>
        <time>2017-05-14T09:37:47Z</time>
      </trkpt>
      <trkpt lat="45.67054" lon="4.49713">
        <ele>801</ele>
        <time>2017-05-14T09:37:51Z</time>
      </trkpt>
      <trkpt lat="45.67033" lon="4.49719">
        <ele>798</ele>
        <time>2017-05-14T09:37:55Z</time>
      </trkpt>
      <trkpt lat="45.6701" lon="4.49725">
        <ele>795</ele>
        <time>2017-05-14T09:37:59Z</time>
      </trkpt>
      <trkpt lat="45.66981" lon="4.49727">
        <ele>791</ele>
        <time>2017-05-14T09:38:03Z</time>
      </trkpt>
      <trkpt lat="45.66954" lon="4.49745">
        <ele>788</ele>
        <time>2017-05-14T09:38:07Z</time>
      </trkpt>
      <trkpt lat="45.66923" lon="4.49773">
        <ele>784</ele>
        <time>2017-05-14T09:38:11Z</time>
      </trkpt>
      <trkpt lat="45.66883" lon="4.4982">
        <ele>781</ele>
        <time>2017-05-14T09:38:15Z</time>
      </trkpt>
      <trkpt lat="45.66856" lon="4.49878">
        <ele>777</ele>
        <time>2017-05-14T09:38:23Z</time>
      </trkpt>
      <trkpt lat="45.66839" lon="4.49945">
        <ele>777</ele>
        <time>2017-05-14T09:38:24Z</time>
      </trkpt>
      <trkpt lat="45.66822" lon="4.49998">
        <ele>774</ele>
        <time>2017-05-14T09:38:28Z</time>
      </trkpt>
      <trkpt lat="45.66812" lon="4.50042">
        <ele>772</ele>
        <time>2017-05-14T09:38:31Z</time>
      </trkpt>
      <trkpt lat="45.66813" lon="4.50061">
        <ele>773</ele>
        <time>2017-05-14T09:38:35Z</time>
      </trkpt>
      <trkpt lat="45.66811" lon="4.50078">
        <ele>773</ele>
        <time>2017-05-14T09:38:39Z</time>
      </trkpt>
      <trkpt lat="45.66809" lon="4.50093">
        <ele>773</ele>
        <time>2017-05-14T09:38:43Z</time>
      </trkpt>
      <trkpt lat="45.66808" lon="4.50108">
        <ele>775</ele>
        <time>2017-05-14T09:38:47Z</time>
      </trkpt>
      <trkpt lat="45.66808" lon="4.50122">
        <ele>776</ele>
        <time>2017-05-14T09:38:52Z</time>
      </trkpt>
      <trkpt lat="45.66809" lon="4.50135">
        <ele>776</ele>
        <time>2017-05-14T09:38:55Z</time>
      </trkpt>
      <trkpt lat="45.6681" lon="4.50148">
        <ele>778</ele>
        <time>2017-05-14T09:38:59Z</time>
      </trkpt>
      <trkpt lat="45.6681" lon="4.50158">
        <ele>779</ele>
        <time>2017-05-14T09:39:03Z</time>
      </trkpt>
      <trkpt lat="45.66809" lon="4.50166">
        <ele>780</ele>
        <time>2017-05-14T09:39:07Z</time>
      </trkpt>
      <trkpt lat="45.66809" lon="4.50175">
        <ele>781</ele>
        <time>2017-05-14T09:39:11Z</time>
      </trkpt>
      <trkpt lat="45.6681" lon="4.50184">
        <ele>781</ele>
        <time>2017-05-14T09:39:15Z</time>
      </trkpt>
      <trkpt lat="45.66812" lon="4.50195">
        <ele>783</ele>
        <time>2017-05-14T09:39:19Z</time>
      </trkpt>
      <trkpt lat="45.66814" lon="4.50203">
        <ele>784</ele>
        <time>2017-05-14T09:39:23Z</time>
      </trkpt>
      <trkpt lat="45.66816" lon="4.50212">
        <ele>784</ele>
        <time>2017-05-14T09:39:27Z</time>
      </trkpt>
      <trkpt lat="45.66816" lon="4.50221">
        <ele>785</ele>
        <time>2017-05-14T09:39:31Z</time>
      </trkpt>
      <trkpt lat="45.66818" lon="4.5023">
        <ele>787</ele>
        <time>2017-05-14T09:39:35Z</time>
      </trkpt>
      <trkpt lat="45.66819" lon="4.50239">
        <ele>788</ele>
        <time>2017-05-14T09:39:41Z</time>
      </trkpt>
      <trkpt lat="45.66822" lon="4.50246">
        <ele>789</ele>
        <time>2017-05-14T09:39:43Z</time>
      </trkpt>
      <trkpt lat="45.66825" lon="4.50254">
        <ele>790</ele>
        <time>2017-05-14T09:39:47Z</time>
      </trkpt>
      <trkpt lat="45.66826" lon="4.50262">
        <ele>791</ele>
        <time>2017-05-14T09:39:51Z</time>
      </trkpt>
      <trkpt lat="45.66827" lon="4.50271">
        <ele>791</ele>
        <time>2017-05-14T09:39:55Z</time>
      </trkpt>
      <trkpt lat="45.66828" lon="4.50282">
        <ele>793</ele>
        <time>2017-05-14T09:40:03Z</time>
      </trkpt>
      <trkpt lat="45.66842" lon="4.50347">
        <ele>800</ele>
        <time>2017-05-14T09:40:39Z</time>
      </trkpt>
      <trkpt lat="45.66843" lon="4.50358">
        <ele>801</ele>
        <time>2017-05-14T09:40:43Z</time>
      </trkpt>
      <trkpt lat="45.66846" lon="4.50369">
        <ele>802</ele>
        <time>2017-05-14T09:40:47Z</time>
      </trkpt>
      <trkpt lat="45.66848" lon="4.50381">
        <ele>804</ele>
        <time>2017-05-14T09:40:51Z</time>
      </trkpt>
      <trkpt lat="45.66849" lon="4.5039">
        <ele>805</ele>
        <time>2017-05-14T09:40:56Z</time>
      </trkpt>
      <trkpt lat="45.66852" lon="4.50398">
        <ele>806</ele>
        <time>2017-05-14T09:40:59Z</time>
      </trkpt>
      <trkpt lat="45.66855" lon="4.50407">
        <ele>807</ele>
        <time>2017-05-14T09:41:03Z</time>
      </trkpt>
      <trkpt lat="45.66859" lon="4.50415">
        <ele>808</ele>
        <time>2017-05-14T09:41:07Z</time>
      </trkpt>
      <trkpt lat="45.66862" lon="4.50423">
        <ele>809</ele>
        <time>2017-05-14T09:41:11Z</time>
      </trkpt>
      <trkpt lat="45.66864" lon="4.50431">
        <ele>810</ele>
        <time>2017-05-14T09:41:15Z</time>
      </trkpt>
      <trkpt lat="45.66866" lon="4.5044">
        <ele>811</ele>
        <time>2017-05-14T09:41:19Z</time>
      </trkpt>
      <trkpt lat="45.66869" lon="4.50449">
        <ele>812</ele>
        <time>2017-05-14T09:41:23Z</time>
      </trkpt>
      <trkpt lat="45.66871" lon="4.50457">
        <ele>813</ele>
        <time>2017-05-14T09:41:27Z</time>
      </trkpt>
      <trkpt lat="45.66873" lon="4.50465">
        <ele>814</ele>
        <time>2017-05-14T09:41:31Z</time>
      </trkpt>
      <trkpt lat="45.66875" lon="4.50473">
        <ele>815</ele>
        <time>2017-05-14T09:41:35Z</time>
      </trkpt>
      <trkpt lat="45.66876" lon="4.50481">
        <ele>816</ele>
        <time>2017-05-14T09:41:39Z</time>
      </trkpt>
      <trkpt lat="45.66877" lon="4.50489">
        <ele>817</ele>
        <time>2017-05-14T09:41:43Z</time>
      </trkpt>
      <trkpt lat="45.66879" lon="4.50497">
        <ele>818</ele>
        <time>2017-05-14T09:41:49Z</time>
      </trkpt>
      <trkpt lat="45.6688" lon="4.50505">
        <ele>819</ele>
        <time>2017-05-14T09:41:51Z</time>
      </trkpt>
      <trkpt lat="45.66881" lon="4.50513">
        <ele>820</ele>
        <time>2017-05-14T09:41:55Z</time>
      </trkpt>
      <trkpt lat="45.66883" lon="4.5052">
        <ele>821</ele>
        <time>2017-05-14T09:41:59Z</time>
      </trkpt>
      <trkpt lat="45.66885" lon="4.50527">
        <ele>822</ele>
        <time>2017-05-14T09:42:03Z</time>
      </trkpt>
      <trkpt lat="45.66887" lon="4.50535">
        <ele>822</ele>
        <time>2017-05-14T09:42:07Z</time>
      </trkpt>
      <trkpt lat="45.66889" lon="4.50543">
        <ele>824</ele>
        <time>2017-05-14T09:42:12Z</time>
      </trkpt>
      <trkpt lat="45.66889" lon="4.50549">
        <ele>826</ele>
        <time>2017-05-14T09:42:15Z</time>
      </trkpt>
      <trkpt lat="45.6689" lon="4.50554">
        <ele>827</ele>
        <time>2017-05-14T09:42:20Z</time>
      </trkpt>
      <trkpt lat="45.66893" lon="4.5056">
        <ele>828</ele>
        <time>2017-05-14T09:42:23Z</time>
      </trkpt>
      <trkpt lat="45.66894" lon="4.50568">
        <ele>829</ele>
        <time>2017-05-14T09:42:27Z</time>
      </trkpt>
      <trkpt lat="45.66895" lon="4.50575">
        <ele>831</ele>
        <time>2017-05-14T09:42:31Z</time>
      </trkpt>
      <trkpt lat="45.66898" lon="4.50582">
        <ele>832</ele>
        <time>2017-05-14T09:42:35Z</time>
      </trkpt>
      <trkpt lat="45.669" lon="4.50587">
        <ele>833</ele>
        <time>2017-05-14T09:42:41Z</time>
      </trkpt>
      <trkpt lat="45.66913" lon="4.50606">
        <ele>835</ele>
        <time>2017-05-14T09:42:51Z</time>
      </trkpt>
      <trkpt lat="45.66917" lon="4.50617">
        <ele>836</ele>
        <time>2017-05-14T09:42:55Z</time>
      </trkpt>
      <trkpt lat="45.66919" lon="4.50642">
        <ele>836</ele>
        <time>2017-05-14T09:43:00Z</time>
      </trkpt>
      <trkpt lat="45.66915" lon="4.50674">
        <ele>837</ele>
        <time>2017-05-14T09:43:07Z</time>
      </trkpt>
      <trkpt lat="45.66912" lon="4.50688">
        <ele>838</ele>
        <time>2017-05-14T09:43:12Z</time>
      </trkpt>
      <trkpt lat="45.669" lon="4.50698">
        <ele>838</ele>
        <time>2017-05-14T09:43:19Z</time>
      </trkpt>
      <trkpt lat="45.66904" lon="4.50707">
        <ele>840</ele>
        <time>2017-05-14T09:43:27Z</time>
      </trkpt>
      <trkpt lat="45.66906" lon="4.50721">
        <ele>840</ele>
        <time>2017-05-14T09:43:31Z</time>
      </trkpt>
      <trkpt lat="45.66905" lon="4.50732">
        <ele>840</ele>
        <time>2017-05-14T09:43:35Z</time>
      </trkpt>
      <trkpt lat="45.66907" lon="4.50745">
        <ele>840</ele>
        <time>2017-05-14T09:43:39Z</time>
      </trkpt>
      <trkpt lat="45.66907" lon="4.50759">
        <ele>840</ele>
        <time>2017-05-14T09:43:43Z</time>
      </trkpt>
      <trkpt lat="45.66904" lon="4.50773">
        <ele>840</ele>
        <time>2017-05-14T09:43:47Z</time>
      </trkpt>
      <trkpt lat="45.66901" lon="4.50783">
        <ele>840</ele>
        <time>2017-05-14T09:43:51Z</time>
      </trkpt>
      <trkpt lat="45.66898" lon="4.50793">
        <ele>841</ele>
        <time>2017-05-14T09:43:55Z</time>
      </trkpt>
      <trkpt lat="45.66894" lon="4.50814">
        <ele>842</ele>
        <time>2017-05-14T09:43:59Z</time>
      </trkpt>
      <trkpt lat="45.66883" lon="4.50832">
        <ele>844</ele>
        <time>2017-05-14T09:44:07Z</time>
      </trkpt>
      <trkpt lat="45.66873" lon="4.50848">
        <ele>844</ele>
        <time>2017-05-14T09:44:13Z</time>
      </trkpt>
      <trkpt lat="45.66863" lon="4.50868">
        <ele>843</ele>
        <time>2017-05-14T09:44:15Z</time>
      </trkpt>
      <trkpt lat="45.66844" lon="4.50899">
        <ele>842</ele>
        <time>2017-05-14T09:44:19Z</time>
      </trkpt>
      <trkpt lat="45.6683" lon="4.50934">
        <ele>841</ele>
        <time>2017-05-14T09:44:23Z</time>
      </trkpt>
      <trkpt lat="45.66817" lon="4.50963">
        <ele>841</ele>
        <time>2017-05-14T09:44:27Z</time>
      </trkpt>
      <trkpt lat="45.66801" lon="4.50998">
        <ele>841</ele>
        <time>2017-05-14T09:44:31Z</time>
      </trkpt>
      <trkpt lat="45.66778" lon="4.51027">
        <ele>838</ele>
        <time>2017-05-14T09:44:35Z</time>
      </trkpt>
      <trkpt lat="45.66758" lon="4.5106">
        <ele>835</ele>
        <time>2017-05-14T09:44:39Z</time>
      </trkpt>
      <trkpt lat="45.66746" lon="4.51104">
        <ele>835</ele>
        <time>2017-05-14T09:44:43Z</time>
      </trkpt>
      <trkpt lat="45.66731" lon="4.51148">
        <ele>831</ele>
        <time>2017-05-14T09:44:47Z</time>
      </trkpt>
      <trkpt lat="45.66705" lon="4.51189">
        <ele>827</ele>
        <time>2017-05-14T09:44:51Z</time>
      </trkpt>
      <trkpt lat="45.66677" lon="4.51222">
        <ele>826</ele>
        <time>2017-05-14T09:44:55Z</time>
      </trkpt>
      <trkpt lat="45.6666" lon="4.51218">
        <ele>816</ele>
        <time>2017-05-14T09:44:59Z</time>
      </trkpt>
      <trkpt lat="45.6665" lon="4.51238">
        <ele>813</ele>
        <time>2017-05-14T09:45:04Z</time>
      </trkpt>
      <trkpt lat="45.66645" lon="4.51275">
        <ele>810</ele>
        <time>2017-05-14T09:45:07Z</time>
      </trkpt>
      <trkpt lat="45.66644" lon="4.51306">
        <ele>809</ele>
        <time>2017-05-14T09:45:11Z</time>
      </trkpt>
      <trkpt lat="45.66657" lon="4.51347">
        <ele>802</ele>
        <time>2017-05-14T09:45:15Z</time>
      </trkpt>
      <trkpt lat="45.66671" lon="4.51385">
        <ele>798</ele>
        <time>2017-05-14T09:45:19Z</time>
      </trkpt>
      <trkpt lat="45.66683" lon="4.5142">
        <ele>796</ele>
        <time>2017-05-14T09:45:23Z</time>
      </trkpt>
      <trkpt lat="45.66695" lon="4.51457">
        <ele>793</ele>
        <time>2017-05-14T09:45:27Z</time>
      </trkpt>
      <trkpt lat="45.66714" lon="4.51482">
        <ele>790</ele>
        <time>2017-05-14T09:45:31Z</time>
      </trkpt>
      <trkpt lat="45.66736" lon="4.51492">
        <ele>789</ele>
        <time>2017-05-14T09:45:35Z</time>
      </trkpt>
      <trkpt lat="45.66737" lon="4.51506">
        <ele>786</ele>
        <time>2017-05-14T09:45:39Z</time>
      </trkpt>
      <trkpt lat="45.66724" lon="4.51519">
        <ele>785</ele>
        <time>2017-05-14T09:45:43Z</time>
      </trkpt>
      <trkpt lat="45.66734" lon="4.51529">
        <ele>785</ele>
        <time>2017-05-14T09:45:47Z</time>
      </trkpt>
      <trkpt lat="45.66754" lon="4.51533">
        <ele>780</ele>
        <time>2017-05-14T09:45:51Z</time>
      </trkpt>
      <trkpt lat="45.66751" lon="4.51542">
        <ele>778</ele>
        <time>2017-05-14T09:45:56Z</time>
      </trkpt>
      <trkpt lat="45.6674" lon="4.51559">
        <ele>776</ele>
        <time>2017-05-14T09:46:00Z</time>
      </trkpt>
      <trkpt lat="45.66727" lon="4.51591">
        <ele>773</ele>
        <time>2017-05-14T09:46:03Z</time>
      </trkpt>
      <trkpt lat="45.66712" lon="4.51619">
        <ele>769</ele>
        <time>2017-05-14T09:46:07Z</time>
      </trkpt>
      <trkpt lat="45.66692" lon="4.51643">
        <ele>767</ele>
        <time>2017-05-14T09:46:11Z</time>
      </trkpt>
      <trkpt lat="45.66676" lon="4.51669">
        <ele>766</ele>
        <time>2017-05-14T09:46:15Z</time>
      </trkpt>
      <trkpt lat="45.66674" lon="4.51697">
        <ele>763</ele>
        <time>2017-05-14T09:46:19Z</time>
      </trkpt>
      <trkpt lat="45.66688" lon="4.51725">
        <ele>761</ele>
        <time>2017-05-14T09:46:23Z</time>
      </trkpt>
      <trkpt lat="45.66706" lon="4.51765">
        <ele>760</ele>
        <time>2017-05-14T09:46:27Z</time>
      </trkpt>
      <trkpt lat="45.66728" lon="4.5181">
        <ele>755</ele>
        <time>2017-05-14T09:46:32Z</time>
      </trkpt>
      <trkpt lat="45.66746" lon="4.51862">
        <ele>754</ele>
        <time>2017-05-14T09:46:35Z</time>
      </trkpt>
      <trkpt lat="45.66758" lon="4.51911">
        <ele>748</ele>
        <time>2017-05-14T09:46:39Z</time>
      </trkpt>
      <trkpt lat="45.66762" lon="4.51955">
        <ele>746</ele>
        <time>2017-05-14T09:46:43Z</time>
      </trkpt>
      <trkpt lat="45.6677" lon="4.52">
        <ele>738</ele>
        <time>2017-05-14T09:46:51Z</time>
      </trkpt>
      <trkpt lat="45.66782" lon="4.52034">
        <ele>738</ele>
        <time>2017-05-14T09:46:53Z</time>
      </trkpt>
      <trkpt lat="45.66792" lon="4.52057">
        <ele>735</ele>
        <time>2017-05-14T09:46:56Z</time>
      </trkpt>
      <trkpt lat="45.66798" lon="4.52075">
        <ele>735</ele>
        <time>2017-05-14T09:46:59Z</time>
      </trkpt>
      <trkpt lat="45.66807" lon="4.52093">
        <ele>733</ele>
        <time>2017-05-14T09:47:03Z</time>
      </trkpt>
      <trkpt lat="45.6681" lon="4.52109">
        <ele>733</ele>
        <time>2017-05-14T09:47:07Z</time>
      </trkpt>
      <trkpt lat="45.6681" lon="4.52124">
        <ele>732</ele>
        <time>2017-05-14T09:47:11Z</time>
      </trkpt>
      <trkpt lat="45.66813" lon="4.52139">
        <ele>732</ele>
        <time>2017-05-14T09:47:15Z</time>
      </trkpt>
      <trkpt lat="45.66816" lon="4.52152">
        <ele>732</ele>
        <time>2017-05-14T09:47:19Z</time>
      </trkpt>
      <trkpt lat="45.66822" lon="4.52164">
        <ele>732</ele>
        <time>2017-05-14T09:47:23Z</time>
      </trkpt>
      <trkpt lat="45.66827" lon="4.52178">
        <ele>732</ele>
        <time>2017-05-14T09:47:27Z</time>
      </trkpt>
      <trkpt lat="45.66842" lon="4.52204">
        <ele>731</ele>
        <time>2017-05-14T09:47:31Z</time>
      </trkpt>
      <trkpt lat="45.66861" lon="4.52233">
        <ele>730</ele>
        <time>2017-05-14T09:47:35Z</time>
      </trkpt>
      <trkpt lat="45.66878" lon="4.52259">
        <ele>730</ele>
        <time>2017-05-14T09:47:39Z</time>
      </trkpt>
      <trkpt lat="45.66888" lon="4.52279">
        <ele>730</ele>
        <time>2017-05-14T09:47:44Z</time>
      </trkpt>
      <trkpt lat="45.669" lon="4.52285">
        <ele>730</ele>
        <time>2017-05-14T09:47:47Z</time>
      </trkpt>
      <trkpt lat="45.66919" lon="4.52299">
        <ele>730</ele>
        <time>2017-05-14T09:47:51Z</time>
      </trkpt>
      <trkpt lat="45.66945" lon="4.52311">
        <ele>727</ele>
        <time>2017-05-14T09:47:55Z</time>
      </trkpt>
      <trkpt lat="45.6697" lon="4.52329">
        <ele>726</ele>
        <time>2017-05-14T09:48:00Z</time>
      </trkpt>
      <trkpt lat="45.67" lon="4.5235">
        <ele>724</ele>
        <time>2017-05-14T09:48:04Z</time>
      </trkpt>
      <trkpt lat="45.67033" lon="4.52356">
        <ele>723</ele>
        <time>2017-05-14T09:48:07Z</time>
      </trkpt>
      <trkpt lat="45.67057" lon="4.52354">
        <ele>721</ele>
        <time>2017-05-14T09:48:11Z</time>
      </trkpt>
      <trkpt lat="45.67074" lon="4.52362">
        <ele>722</ele>
        <time>2017-05-14T09:48:15Z</time>
      </trkpt>
      <trkpt lat="45.67086" lon="4.52375">
        <ele>722</ele>
        <time>2017-05-14T09:48:19Z</time>
      </trkpt>
      <trkpt lat="45.67097" lon="4.5239">
        <ele>722</ele>
        <time>2017-05-14T09:48:23Z</time>
      </trkpt>
      <trkpt lat="45.6711" lon="4.52407">
        <ele>722</ele>
        <time>2017-05-14T09:48:27Z</time>
      </trkpt>
      <trkpt lat="45.67125" lon="4.52422">
        <ele>722</ele>
        <time>2017-05-14T09:48:31Z</time>
      </trkpt>
      <trkpt lat="45.67143" lon="4.52434">
        <ele>721</ele>
        <time>2017-05-14T09:48:36Z</time>
      </trkpt>
      <trkpt lat="45.67164" lon="4.52442">
        <ele>720</ele>
        <time>2017-05-14T09:48:39Z</time>
      </trkpt>
      <trkpt lat="45.67186" lon="4.52444">
        <ele>719</ele>
        <time>2017-05-14T09:48:43Z</time>
      </trkpt>
      <trkpt lat="45.67203" lon="4.52445">
        <ele>719</ele>
        <time>2017-05-14T09:48:47Z</time>
      </trkpt>
      <trkpt lat="45.67213" lon="4.52451">
        <ele>719</ele>
        <time>2017-05-14T09:48:51Z</time>
      </trkpt>
      <trkpt lat="45.67226" lon="4.52487">
        <ele>719</ele>
        <time>2017-05-14T09:48:59Z</time>
      </trkpt>
      <trkpt lat="45.67232" lon="4.52504">
        <ele>719</ele>
        <time>2017-05-14T09:49:03Z</time>
      </trkpt>
      <trkpt lat="45.67241" lon="4.52513">
        <ele>720</ele>
        <time>2017-05-14T09:49:07Z</time>
      </trkpt>
      <trkpt lat="45.67251" lon="4.52519">
        <ele>721</ele>
        <time>2017-05-14T09:49:12Z</time>
      </trkpt>
      <trkpt lat="45.67257" lon="4.52522">
        <ele>722</ele>
        <time>2017-05-14T09:49:15Z</time>
      </trkpt>
      <trkpt lat="45.67266" lon="4.52527">
        <ele>722</ele>
        <time>2017-05-14T09:49:19Z</time>
      </trkpt>
      <trkpt lat="45.67275" lon="4.52532">
        <ele>723</ele>
        <time>2017-05-14T09:49:23Z</time>
      </trkpt>
      <trkpt lat="45.67288" lon="4.52541">
        <ele>725</ele>
        <time>2017-05-14T09:49:32Z</time>
      </trkpt>
      <trkpt lat="45.67302" lon="4.52553">
        <ele>725</ele>
        <time>2017-05-14T09:49:33Z</time>
      </trkpt>
      <trkpt lat="45.67315" lon="4.5256">
        <ele>725</ele>
        <time>2017-05-14T09:49:35Z</time>
      </trkpt>
      <trkpt lat="45.6733" lon="4.52563">
        <ele>726</ele>
        <time>2017-05-14T09:49:39Z</time>
      </trkpt>
      <trkpt lat="45.67343" lon="4.52565">
        <ele>726</ele>
        <time>2017-05-14T09:49:43Z</time>
      </trkpt>
      <trkpt lat="45.67355" lon="4.52566">
        <ele>727</ele>
        <time>2017-05-14T09:49:48Z</time>
      </trkpt>
      <trkpt lat="45.67368" lon="4.52568">
        <ele>727</ele>
        <time>2017-05-14T09:49:51Z</time>
      </trkpt>
      <trkpt lat="45.67381" lon="4.5257">
        <ele>727</ele>
        <time>2017-05-14T09:49:55Z</time>
      </trkpt>
      <trkpt lat="45.67392" lon="4.52572">
        <ele>729</ele>
        <time>2017-05-14T09:49:59Z</time>
      </trkpt>
      <trkpt lat="45.67402" lon="4.52575">
        <ele>730</ele>
        <time>2017-05-14T09:50:04Z</time>
      </trkpt>
      <trkpt lat="45.67412" lon="4.52577">
        <ele>731</ele>
        <time>2017-05-14T09:50:08Z</time>
      </trkpt>
      <trkpt lat="45.67418" lon="4.52578">
        <ele>731</ele>
        <time>2017-05-14T09:50:11Z</time>
      </trkpt>
      <trkpt lat="45.67425" lon="4.52581">
        <ele>732</ele>
        <time>2017-05-14T09:50:15Z</time>
      </trkpt>
      <trkpt lat="45.67431" lon="4.52585">
        <ele>733</ele>
        <time>2017-05-14T09:50:19Z</time>
      </trkpt>
      <trkpt lat="45.67438" lon="4.52587">
        <ele>733</ele>
        <time>2017-05-14T09:50:23Z</time>
      </trkpt>
      <trkpt lat="45.67446" lon="4.5259">
        <ele>735</ele>
        <time>2017-05-14T09:50:27Z</time>
      </trkpt>
      <trkpt lat="45.67458" lon="4.52592">
        <ele>735</ele>
        <time>2017-05-14T09:50:31Z</time>
      </trkpt>
      <trkpt lat="45.67472" lon="4.526">
        <ele>735</ele>
        <time>2017-05-14T09:50:35Z</time>
      </trkpt>
      <trkpt lat="45.67488" lon="4.52606">
        <ele>734</ele>
        <time>2017-05-14T09:50:39Z</time>
      </trkpt>
      <trkpt lat="45.67504" lon="4.52614">
        <ele>734</ele>
        <time>2017-05-14T09:50:43Z</time>
      </trkpt>
      <trkpt lat="45.67521" lon="4.52626">
        <ele>734</ele>
        <time>2017-05-14T09:50:47Z</time>
      </trkpt>
      <trkpt lat="45.67542" lon="4.52645">
        <ele>734</ele>
        <time>2017-05-14T09:50:51Z</time>
      </trkpt>
      <trkpt lat="45.67565" lon="4.52654">
        <ele>734</ele>
        <time>2017-05-14T09:50:55Z</time>
      </trkpt>
      <trkpt lat="45.67585" lon="4.52656">
        <ele>734</ele>
        <time>2017-05-14T09:51:00Z</time>
      </trkpt>
      <trkpt lat="45.676" lon="4.52658">
        <ele>735</ele>
        <time>2017-05-14T09:51:03Z</time>
      </trkpt>
      <trkpt lat="45.6761" lon="4.52665">
        <ele>735</ele>
        <time>2017-05-14T09:51:07Z</time>
      </trkpt>
      <trkpt lat="45.67618" lon="4.52674">
        <ele>736</ele>
        <time>2017-05-14T09:51:11Z</time>
      </trkpt>
      <trkpt lat="45.67627" lon="4.52681">
        <ele>736</ele>
        <time>2017-05-14T09:51:16Z</time>
      </trkpt>
      <trkpt lat="45.67635" lon="4.52688">
        <ele>737</ele>
        <time>2017-05-14T09:51:19Z</time>
      </trkpt>
      <trkpt lat="45.67642" lon="4.52693">
        <ele>737</ele>
        <time>2017-05-14T09:51:23Z</time>
      </trkpt>
      <trkpt lat="45.6765" lon="4.52698">
        <ele>738</ele>
        <time>2017-05-14T09:51:27Z</time>
      </trkpt>
      <trkpt lat="45.67656" lon="4.52702">
        <ele>740</ele>
        <time>2017-05-14T09:51:31Z</time>
      </trkpt>
      <trkpt lat="45.67663" lon="4.52706">
        <ele>741</ele>
        <time>2017-05-14T09:51:35Z</time>
      </trkpt>
      <trkpt lat="45.6767" lon="4.52711">
        <ele>741</ele>
        <time>2017-05-14T09:51:39Z</time>
      </trkpt>
      <trkpt lat="45.67676" lon="4.52715">
        <ele>742</ele>
        <time>2017-05-14T09:51:43Z</time>
      </trkpt>
      <trkpt lat="45.67682" lon="4.5272">
        <ele>743</ele>
        <time>2017-05-14T09:51:47Z</time>
      </trkpt>
      <trkpt lat="45.67688" lon="4.52724">
        <ele>744</ele>
        <time>2017-05-14T09:51:52Z</time>
      </trkpt>
      <trkpt lat="45.67692" lon="4.52726">
        <ele>745</ele>
        <time>2017-05-14T09:51:55Z</time>
      </trkpt>
      <trkpt lat="45.67698" lon="4.52729">
        <ele>746</ele>
        <time>2017-05-14T09:51:59Z</time>
      </trkpt>
      <trkpt lat="45.67705" lon="4.52733">
        <ele>747</ele>
        <time>2017-05-14T09:52:03Z</time>
      </trkpt>
      <trkpt lat="45.6771" lon="4.52735">
        <ele>748</ele>
        <time>2017-05-14T09:52:08Z</time>
      </trkpt>
      <trkpt lat="45.67715" lon="4.52737">
        <ele>748</ele>
        <time>2017-05-14T09:52:12Z</time>
      </trkpt>
      <trkpt lat="45.6772" lon="4.52742">
        <ele>748</ele>
        <time>2017-05-14T09:52:15Z</time>
      </trkpt>
      <trkpt lat="45.67726" lon="4.52746">
        <ele>749</ele>
        <time>2017-05-14T09:52:19Z</time>
      </trkpt>
      <trkpt lat="45.67733" lon="4.5275">
        <ele>750</ele>
        <time>2017-05-14T09:52:23Z</time>
      </trkpt>
      <trkpt lat="45.67741" lon="4.5276">
        <ele>750</ele>
        <time>2017-05-14T09:52:27Z</time>
      </trkpt>
      <trkpt lat="45.67749" lon="4.52769">
        <ele>750</ele>
        <time>2017-05-14T09:52:32Z</time>
      </trkpt>
      <trkpt lat="45.67758" lon="4.5278">
        <ele>750</ele>
        <time>2017-05-14T09:52:35Z</time>
      </trkpt>
      <trkpt lat="45.67766" lon="4.52791">
        <ele>751</ele>
        <time>2017-05-14T09:52:39Z</time>
      </trkpt>
      <trkpt lat="45.67774" lon="4.52801">
        <ele>751</ele>
        <time>2017-05-14T09:52:43Z</time>
      </trkpt>
      <trkpt lat="45.67783" lon="4.52811">
        <ele>751</ele>
        <time>2017-05-14T09:52:47Z</time>
      </trkpt>
      <trkpt lat="45.67792" lon="4.52822">
        <ele>752</ele>
        <time>2017-05-14T09:52:51Z</time>
      </trkpt>
      <trkpt lat="45.67801" lon="4.52832">
        <ele>752</ele>
        <time>2017-05-14T09:52:56Z</time>
      </trkpt>
      <trkpt lat="45.6781" lon="4.52844">
        <ele>752</ele>
        <time>2017-05-14T09:52:59Z</time>
      </trkpt>
      <trkpt lat="45.6782" lon="4.52856">
        <ele>752</ele>
        <time>2017-05-14T09:53:04Z</time>
      </trkpt>
      <trkpt lat="45.6783" lon="4.5287">
        <ele>752</ele>
        <time>2017-05-14T09:53:07Z</time>
      </trkpt>
      <trkpt lat="45.67841" lon="4.52887">
        <ele>752</ele>
        <time>2017-05-14T09:53:11Z</time>
      </trkpt>
      <trkpt lat="45.67852" lon="4.52907">
        <ele>751</ele>
        <time>2017-05-14T09:53:15Z</time>
      </trkpt>
      <trkpt lat="45.67866" lon="4.52927">
        <ele>751</ele>
        <time>2017-05-14T09:53:19Z</time>
      </trkpt>
      <trkpt lat="45.67878" lon="4.52945">
        <ele>750</ele>
        <time>2017-05-14T09:53:28Z</time>
      </trkpt>
      <trkpt lat="45.67887" lon="4.52965">
        <ele>750</ele>
        <time>2017-05-14T09:53:29Z</time>
      </trkpt>
      <trkpt lat="45.67892" lon="4.52983">
        <ele>751</ele>
        <time>2017-05-14T09:53:32Z</time>
      </trkpt>
      <trkpt lat="45.67895" lon="4.52998">
        <ele>751</ele>
        <time>2017-05-14T09:53:35Z</time>
      </trkpt>
      <trkpt lat="45.67897" lon="4.53013">
        <ele>752</ele>
        <time>2017-05-14T09:53:39Z</time>
      </trkpt>
      <trkpt lat="45.67901" lon="4.53028">
        <ele>752</ele>
        <time>2017-05-14T09:53:43Z</time>
      </trkpt>
      <trkpt lat="45.67911" lon="4.53041">
        <ele>753</ele>
        <time>2017-05-14T09:53:48Z</time>
      </trkpt>
      <trkpt lat="45.67923" lon="4.53053">
        <ele>753</ele>
        <time>2017-05-14T09:53:51Z</time>
      </trkpt>
      <trkpt lat="45.67935" lon="4.53064">
        <ele>752</ele>
        <time>2017-05-14T09:53:56Z</time>
      </trkpt>
      <trkpt lat="45.67947" lon="4.53073">
        <ele>753</ele>
        <time>2017-05-14T09:53:59Z</time>
      </trkpt>
      <trkpt lat="45.67959" lon="4.53082">
        <ele>754</ele>
        <time>2017-05-14T09:54:03Z</time>
      </trkpt>
      <trkpt lat="45.6797" lon="4.53091">
        <ele>754</ele>
        <time>2017-05-14T09:54:07Z</time>
      </trkpt>
      <trkpt lat="45.67982" lon="4.531">
        <ele>754</ele>
        <time>2017-05-14T09:54:11Z</time>
      </trkpt>
      <trkpt lat="45.67994" lon="4.53108">
        <ele>755</ele>
        <time>2017-05-14T09:54:15Z</time>
      </trkpt>
      <trkpt lat="45.68004" lon="4.53118">
        <ele>756</ele>
        <time>2017-05-14T09:54:19Z</time>
      </trkpt>
      <trkpt lat="45.68012" lon="4.53129">
        <ele>756</ele>
        <time>2017-05-14T09:54:23Z</time>
      </trkpt>
      <trkpt lat="45.68021" lon="4.53142">
        <ele>757</ele>
        <time>2017-05-14T09:54:27Z</time>
      </trkpt>
      <trkpt lat="45.68032" lon="4.53156">
        <ele>758</ele>
        <time>2017-05-14T09:54:31Z</time>
      </trkpt>
      <trkpt lat="45.68042" lon="4.53171">
        <ele>758</ele>
        <time>2017-05-14T09:54:35Z</time>
      </trkpt>
      <trkpt lat="45.68053" lon="4.53186">
        <ele>757</ele>
        <time>2017-05-14T09:54:39Z</time>
      </trkpt>
      <trkpt lat="45.68064" lon="4.53201">
        <ele>758</ele>
        <time>2017-05-14T09:54:45Z</time>
      </trkpt>
      <trkpt lat="45.68075" lon="4.53214">
        <ele>758</ele>
        <time>2017-05-14T09:54:49Z</time>
      </trkpt>
      <trkpt lat="45.68084" lon="4.53222">
        <ele>758</ele>
        <time>2017-05-14T09:54:51Z</time>
      </trkpt>
      <trkpt lat="45.68094" lon="4.53229">
        <ele>759</ele>
        <time>2017-05-14T09:54:55Z</time>
      </trkpt>
      <trkpt lat="45.68105" lon="4.53235">
        <ele>760</ele>
        <time>2017-05-14T09:55:00Z</time>
      </trkpt>
      <trkpt lat="45.68118" lon="4.53241">
        <ele>759</ele>
        <time>2017-05-14T09:55:03Z</time>
      </trkpt>
      <trkpt lat="45.6813" lon="4.53244">
        <ele>760</ele>
        <time>2017-05-14T09:55:08Z</time>
      </trkpt>
      <trkpt lat="45.68143" lon="4.53245">
        <ele>760</ele>
        <time>2017-05-14T09:55:11Z</time>
      </trkpt>
      <trkpt lat="45.68155" lon="4.53244">
        <ele>760</ele>
        <time>2017-05-14T09:55:15Z</time>
      </trkpt>
      <trkpt lat="45.68166" lon="4.53242">
        <ele>761</ele>
        <time>2017-05-14T09:55:20Z</time>
      </trkpt>
      <trkpt lat="45.68177" lon="4.5324">
        <ele>761</ele>
        <time>2017-05-14T09:55:23Z</time>
      </trkpt>
      <trkpt lat="45.68188" lon="4.53239">
        <ele>761</ele>
        <time>2017-05-14T09:55:27Z</time>
      </trkpt>
      <trkpt lat="45.68198" lon="4.53238">
        <ele>762</ele>
        <time>2017-05-14T09:55:31Z</time>
      </trkpt>
      <trkpt lat="45.68207" lon="4.53239">
        <ele>763</ele>
        <time>2017-05-14T09:55:35Z</time>
      </trkpt>
      <trkpt lat="45.68217" lon="4.5324">
        <ele>764</ele>
        <time>2017-05-14T09:55:39Z</time>
      </trkpt>
      <trkpt lat="45.68226" lon="4.53241">
        <ele>765</ele>
        <time>2017-05-14T09:55:43Z</time>
      </trkpt>
      <trkpt lat="45.68236" lon="4.53243">
        <ele>765</ele>
        <time>2017-05-14T09:55:47Z</time>
      </trkpt>
      <trkpt lat="45.68245" lon="4.53244">
        <ele>766</ele>
        <time>2017-05-14T09:55:51Z</time>
      </trkpt>
      <trkpt lat="45.68252" lon="4.53245">
        <ele>766</ele>
        <time>2017-05-14T09:55:55Z</time>
      </trkpt>
      <trkpt lat="45.68258" lon="4.53246">
        <ele>767</ele>
        <time>2017-05-14T09:56:00Z</time>
      </trkpt>
      <trkpt lat="45.68262" lon="4.53246">
        <ele>768</ele>
        <time>2017-05-14T09:56:03Z</time>
      </trkpt>
      <trkpt lat="45.68268" lon="4.53246">
        <ele>768</ele>
        <time>2017-05-14T09:56:07Z</time>
      </trkpt>
      <trkpt lat="45.68275" lon="4.53243">
        <ele>769</ele>
        <time>2017-05-14T09:56:11Z</time>
      </trkpt>
      <trkpt lat="45.68282" lon="4.5324">
        <ele>769</ele>
        <time>2017-05-14T09:56:15Z</time>
      </trkpt>
      <trkpt lat="45.68289" lon="4.53239">
        <ele>769</ele>
        <time>2017-05-14T09:56:19Z</time>
      </trkpt>
      <trkpt lat="45.68299" lon="4.53237">
        <ele>770</ele>
        <time>2017-05-14T09:56:23Z</time>
      </trkpt>
      <trkpt lat="45.68309" lon="4.53235">
        <ele>771</ele>
        <time>2017-05-14T09:56:27Z</time>
      </trkpt>
      <trkpt lat="45.6832" lon="4.53233">
        <ele>772</ele>
        <time>2017-05-14T09:56:31Z</time>
      </trkpt>
      <trkpt lat="45.68328" lon="4.53227">
        <ele>773</ele>
        <time>2017-05-14T09:56:35Z</time>
      </trkpt>
      <trkpt lat="45.68335" lon="4.53217">
        <ele>773</ele>
        <time>2017-05-14T09:56:39Z</time>
      </trkpt>
      <trkpt lat="45.68345" lon="4.53213">
        <ele>773</ele>
        <time>2017-05-14T09:56:43Z</time>
      </trkpt>
      <trkpt lat="45.68355" lon="4.53213">
        <ele>775</ele>
        <time>2017-05-14T09:56:47Z</time>
      </trkpt>
      <trkpt lat="45.68364" lon="4.53212">
        <ele>776</ele>
        <time>2017-05-14T09:56:51Z</time>
      </trkpt>
      <trkpt lat="45.68374" lon="4.53213">
        <ele>778</ele>
        <time>2017-05-14T09:56:55Z</time>
      </trkpt>
      <trkpt lat="45.68384" lon="4.53213">
        <ele>779</ele>
        <time>2017-05-14T09:56:59Z</time>
      </trkpt>
      <trkpt lat="45.68394" lon="4.53214">
        <ele>780</ele>
        <time>2017-05-14T09:57:03Z</time>
      </trkpt>
      <trkpt lat="45.68402" lon="4.53215">
        <ele>780</ele>
        <time>2017-05-14T09:57:07Z</time>
      </trkpt>
      <trkpt lat="45.68412" lon="4.53218">
        <ele>782</ele>
        <time>2017-05-14T09:57:12Z</time>
      </trkpt>
      <trkpt lat="45.6842" lon="4.53219">
        <ele>782</ele>
        <time>2017-05-14T09:57:15Z</time>
      </trkpt>
      <trkpt lat="45.68428" lon="4.5322">
        <ele>784</ele>
        <time>2017-05-14T09:57:24Z</time>
      </trkpt>
      <trkpt lat="45.6844" lon="4.5322">
        <ele>784</ele>
        <time>2017-05-14T09:57:25Z</time>
      </trkpt>
      <trkpt lat="45.68452" lon="4.53217">
        <ele>784</ele>
        <time>2017-05-14T09:57:28Z</time>
      </trkpt>
      <trkpt lat="45.68464" lon="4.53217">
        <ele>784</ele>
        <time>2017-05-14T09:57:31Z</time>
      </trkpt>
      <trkpt lat="45.68476" lon="4.53217">
        <ele>785</ele>
        <time>2017-05-14T09:57:35Z</time>
      </trkpt>
      <trkpt lat="45.68491" lon="4.53215">
        <ele>785</ele>
        <time>2017-05-14T09:57:39Z</time>
      </trkpt>
      <trkpt lat="45.68506" lon="4.53215">
        <ele>785</ele>
        <time>2017-05-14T09:57:43Z</time>
      </trkpt>
      <trkpt lat="45.68519" lon="4.53219">
        <ele>786</ele>
        <time>2017-05-14T09:57:47Z</time>
      </trkpt>
      <trkpt lat="45.68523" lon="4.53231">
        <ele>786</ele>
        <time>2017-05-14T09:57:51Z</time>
      </trkpt>
      <trkpt lat="45.68525" lon="4.53247">
        <ele>786</ele>
        <time>2017-05-14T09:57:55Z</time>
      </trkpt>
      <trkpt lat="45.68526" lon="4.53262">
        <ele>787</ele>
        <time>2017-05-14T09:57:59Z</time>
      </trkpt>
      <trkpt lat="45.68533" lon="4.53275">
        <ele>788</ele>
        <time>2017-05-14T09:58:04Z</time>
      </trkpt>
      <trkpt lat="45.68545" lon="4.5328">
        <ele>788</ele>
        <time>2017-05-14T09:58:07Z</time>
      </trkpt>
      <trkpt lat="45.68555" lon="4.53279">
        <ele>789</ele>
        <time>2017-05-14T09:58:11Z</time>
      </trkpt>
      <trkpt lat="45.68561" lon="4.53267">
        <ele>789</ele>
        <time>2017-05-14T09:58:15Z</time>
      </trkpt>
      <trkpt lat="45.68565" lon="4.53252">
        <ele>789</ele>
        <time>2017-05-14T09:58:19Z</time>
      </trkpt>
      <trkpt lat="45.68569" lon="4.53236">
        <ele>789</ele>
        <time>2017-05-14T09:58:23Z</time>
      </trkpt>
      <trkpt lat="45.68575" lon="4.53212">
        <ele>789</ele>
        <time>2017-05-14T09:58:27Z</time>
      </trkpt>
      <trkpt lat="45.68578" lon="4.53191">
        <ele>787</ele>
        <time>2017-05-14T09:58:31Z</time>
      </trkpt>
      <trkpt lat="45.68576" lon="4.53177">
        <ele>785</ele>
        <time>2017-05-14T09:58:35Z</time>
      </trkpt>
      <trkpt lat="45.68573" lon="4.53163">
        <ele>785</ele>
        <time>2017-05-14T09:58:39Z</time>
      </trkpt>
      <trkpt lat="45.68565" lon="4.53144">
        <ele>785</ele>
        <time>2017-05-14T09:58:43Z</time>
      </trkpt>
      <trkpt lat="45.68557" lon="4.53123">
        <ele>785</ele>
        <time>2017-05-14T09:58:47Z</time>
      </trkpt>
      <trkpt lat="45.6855" lon="4.531">
        <ele>783</ele>
        <time>2017-05-14T09:58:51Z</time>
      </trkpt>
      <trkpt lat="45.68559" lon="4.53089">
        <ele>784</ele>
        <time>2017-05-14T09:58:55Z</time>
      </trkpt>
      <trkpt lat="45.68574" lon="4.53084">
        <ele>783</ele>
        <time>2017-05-14T09:58:59Z</time>
      </trkpt>
      <trkpt lat="45.68584" lon="4.53067">
        <ele>784</ele>
        <time>2017-05-14T09:59:03Z</time>
      </trkpt>
      <trkpt lat="45.68591" lon="4.5304">
        <ele>783</ele>
        <time>2017-05-14T09:59:07Z</time>
      </trkpt>
      <trkpt lat="45.68594" lon="4.53012">
        <ele>783</ele>
        <time>2017-05-14T09:59:11Z</time>
      </trkpt>
      <trkpt lat="45.68599" lon="4.52982">
        <ele>783</ele>
        <time>2017-05-14T09:59:15Z</time>
      </trkpt>
      <trkpt lat="45.68606" lon="4.52953">
        <ele>782</ele>
        <time>2017-05-14T09:59:20Z</time>
      </trkpt>
      <trkpt lat="45.68613" lon="4.52927">
        <ele>781</ele>
        <time>2017-05-14T09:59:23Z</time>
      </trkpt>
      <trkpt lat="45.68622" lon="4.52905">
        <ele>781</ele>
        <time>2017-05-14T09:59:28Z</time>
      </trkpt>
      <trkpt lat="45.68632" lon="4.52881">
        <ele>782</ele>
        <time>2017-05-14T09:59:31Z</time>
      </trkpt>
      <trkpt lat="45.68644" lon="4.52856">
        <ele>782</ele>
        <time>2017-05-14T09:59:35Z</time>
      </trkpt>
      <trkpt lat="45.68659" lon="4.52829">
        <ele>782</ele>
        <time>2017-05-14T09:59:39Z</time>
      </trkpt>
      <trkpt lat="45.6867" lon="4.52808">
        <ele>782</ele>
        <time>2017-05-14T09:59:44Z</time>
      </trkpt>
      <trkpt lat="45.68679" lon="4.52792">
        <ele>783</ele>
        <time>2017-05-14T09:59:47Z</time>
      </trkpt>
      <trkpt lat="45.68686" lon="4.52778">
        <ele>785</ele>
        <time>2017-05-14T09:59:51Z</time>
      </trkpt>
      <trkpt lat="45.68693" lon="4.52762">
        <ele>785</ele>
        <time>2017-05-14T09:59:55Z</time>
      </trkpt>
      <trkpt lat="45.687" lon="4.52747">
        <ele>787</ele>
        <time>2017-05-14T09:59:59Z</time>
      </trkpt>
      <trkpt lat="45.68708" lon="4.52731">
        <ele>790</ele>
        <time>2017-05-14T10:00:03Z</time>
      </trkpt>
      <trkpt lat="45.68714" lon="4.5271">
        <ele>792</ele>
        <time>2017-05-14T10:00:08Z</time>
      </trkpt>
      <trkpt lat="45.68719" lon="4.52692">
        <ele>793</ele>
        <time>2017-05-14T10:00:11Z</time>
      </trkpt>
      <trkpt lat="45.6872" lon="4.5267">
        <ele>793</ele>
        <time>2017-05-14T10:00:15Z</time>
      </trkpt>
      <trkpt lat="45.6872" lon="4.52648">
        <ele>794</ele>
        <time>2017-05-14T10:00:19Z</time>
      </trkpt>
      <trkpt lat="45.68719" lon="4.52626">
        <ele>794</ele>
        <time>2017-05-14T10:00:23Z</time>
      </trkpt>
      <trkpt lat="45.6872" lon="4.52604">
        <ele>794</ele>
        <time>2017-05-14T10:00:27Z</time>
      </trkpt>
      <trkpt lat="45.68723" lon="4.52584">
        <ele>795</ele>
        <time>2017-05-14T10:00:31Z</time>
      </trkpt>
      <trkpt lat="45.68726" lon="4.52567">
        <ele>796</ele>
        <time>2017-05-14T10:00:35Z</time>
      </trkpt>
      <trkpt lat="45.68727" lon="4.52552">
        <ele>797</ele>
        <time>2017-05-14T10:00:39Z</time>
      </trkpt>
      <trkpt lat="45.68727" lon="4.52537">
        <ele>798</ele>
        <time>2017-05-14T10:00:43Z</time>
      </trkpt>
      <trkpt lat="45.68726" lon="4.5252">
        <ele>799</ele>
        <time>2017-05-14T10:00:47Z</time>
      </trkpt>
      <trkpt lat="45.68724" lon="4.525">
        <ele>799</ele>
        <time>2017-05-14T10:00:51Z</time>
      </trkpt>
      <trkpt lat="45.68725" lon="4.52471">
        <ele>798</ele>
        <time>2017-05-14T10:00:55Z</time>
      </trkpt>
      <trkpt lat="45.6874" lon="4.52465">
        <ele>797</ele>
        <time>2017-05-14T10:01:01Z</time>
      </trkpt>
      <trkpt lat="45.68753" lon="4.5247">
        <ele>798</ele>
        <time>2017-05-14T10:01:03Z</time>
      </trkpt>
      <trkpt lat="45.68763" lon="4.52477">
        <ele>799</ele>
        <time>2017-05-14T10:01:07Z</time>
      </trkpt>
      <trkpt lat="45.68772" lon="4.52485">
        <ele>800</ele>
        <time>2017-05-14T10:01:11Z</time>
      </trkpt>
      <trkpt lat="45.68784" lon="4.52494">
        <ele>799</ele>
        <time>2017-05-14T10:01:19Z</time>
      </trkpt>
      <trkpt lat="45.68805" lon="4.52501">
        <ele>799</ele>
        <time>2017-05-14T10:01:21Z</time>
      </trkpt>
      <trkpt lat="45.68831" lon="4.52494">
        <ele>798</ele>
        <time>2017-05-14T10:01:23Z</time>
      </trkpt>
      <trkpt lat="45.68861" lon="4.52495">
        <ele>796</ele>
        <time>2017-05-14T10:01:27Z</time>
      </trkpt>
      <trkpt lat="45.68894" lon="4.52507">
        <ele>793</ele>
        <time>2017-05-14T10:01:31Z</time>
      </trkpt>
      <trkpt lat="45.6892" lon="4.52529">
        <ele>793</ele>
        <time>2017-05-14T10:01:35Z</time>
      </trkpt>
      <trkpt lat="45.68946" lon="4.5255">
        <ele>792</ele>
        <time>2017-05-14T10:01:39Z</time>
      </trkpt>
      <trkpt lat="45.68972" lon="4.52567">
        <ele>790</ele>
        <time>2017-05-14T10:01:43Z</time>
      </trkpt>
      <trkpt lat="45.68995" lon="4.52588">
        <ele>789</ele>
        <time>2017-05-14T10:01:47Z</time>
      </trkpt>
      <trkpt lat="45.69021" lon="4.52606">
        <ele>789</ele>
        <time>2017-05-14T10:01:51Z</time>
      </trkpt>
      <trkpt lat="45.69052" lon="4.52627">
        <ele>782</ele>
        <time>2017-05-14T10:01:55Z</time>
      </trkpt>
      <trkpt lat="45.69086" lon="4.52657">
        <ele>781</ele>
        <time>2017-05-14T10:01:59Z</time>
      </trkpt>
      <trkpt lat="45.69121" lon="4.52684">
        <ele>776</ele>
        <time>2017-05-14T10:02:03Z</time>
      </trkpt>
      <trkpt lat="45.69151" lon="4.5271">
        <ele>766</ele>
        <time>2017-05-14T10:02:07Z</time>
      </trkpt>
      <trkpt lat="45.69178" lon="4.52713">
        <ele>761</ele>
        <time>2017-05-14T10:02:12Z</time>
      </trkpt>
      <trkpt lat="45.692" lon="4.5268">
        <ele>758</ele>
        <time>2017-05-14T10:02:15Z</time>
      </trkpt>
      <trkpt lat="45.69211" lon="4.52635">
        <ele>757</ele>
        <time>2017-05-14T10:02:19Z</time>
      </trkpt>
      <trkpt lat="45.69216" lon="4.52585">
        <ele>749</ele>
        <time>2017-05-14T10:02:23Z</time>
      </trkpt>
      <trkpt lat="45.69227" lon="4.5256">
        <ele>748</ele>
        <time>2017-05-14T10:02:27Z</time>
      </trkpt>
      <trkpt lat="45.69247" lon="4.52558">
        <ele>746</ele>
        <time>2017-05-14T10:02:31Z</time>
      </trkpt>
      <trkpt lat="45.69267" lon="4.52569">
        <ele>746</ele>
        <time>2017-05-14T10:02:35Z</time>
      </trkpt>
      <trkpt lat="45.69287" lon="4.52581">
        <ele>745</ele>
        <time>2017-05-14T10:02:39Z</time>
      </trkpt>
      <trkpt lat="45.69306" lon="4.52593">
        <ele>745</ele>
        <time>2017-05-14T10:02:43Z</time>
      </trkpt>
      <trkpt lat="45.69321" lon="4.52603">
        <ele>746</ele>
        <time>2017-05-14T10:02:47Z</time>
      </trkpt>
      <trkpt lat="45.69335" lon="4.52614">
        <ele>746</ele>
        <time>2017-05-14T10:02:51Z</time>
      </trkpt>
      <trkpt lat="45.69348" lon="4.52625">
        <ele>746</ele>
        <time>2017-05-14T10:02:55Z</time>
      </trkpt>
      <trkpt lat="45.69365" lon="4.52629">
        <ele>747</ele>
        <time>2017-05-14T10:02:59Z</time>
      </trkpt>
      <trkpt lat="45.69386" lon="4.52625">
        <ele>746</ele>
        <time>2017-05-14T10:03:04Z</time>
      </trkpt>
      <trkpt lat="45.69402" lon="4.52636">
        <ele>744</ele>
        <time>2017-05-14T10:03:08Z</time>
      </trkpt>
      <trkpt lat="45.69418" lon="4.52644">
        <ele>745</ele>
        <time>2017-05-14T10:03:11Z</time>
      </trkpt>
      <trkpt lat="45.69429" lon="4.52651">
        <ele>745</ele>
        <time>2017-05-14T10:03:15Z</time>
      </trkpt>
      <trkpt lat="45.69438" lon="4.52665">
        <ele>744</ele>
        <time>2017-05-14T10:03:19Z</time>
      </trkpt>
      <trkpt lat="45.6945" lon="4.52676">
        <ele>744</ele>
        <time>2017-05-14T10:03:23Z</time>
      </trkpt>
      <trkpt lat="45.69466" lon="4.52688">
        <ele>743</ele>
        <time>2017-05-14T10:03:27Z</time>
      </trkpt>
      <trkpt lat="45.69484" lon="4.52695">
        <ele>742</ele>
        <time>2017-05-14T10:03:31Z</time>
      </trkpt>
      <trkpt lat="45.69505" lon="4.52714">
        <ele>740</ele>
        <time>2017-05-14T10:03:35Z</time>
      </trkpt>
      <trkpt lat="45.69532" lon="4.52728">
        <ele>739</ele>
        <time>2017-05-14T10:03:39Z</time>
      </trkpt>
      <trkpt lat="45.69564" lon="4.52732">
        <ele>739</ele>
        <time>2017-05-14T10:03:43Z</time>
      </trkpt>
      <trkpt lat="45.69594" lon="4.52737">
        <ele>737</ele>
        <time>2017-05-14T10:03:47Z</time>
      </trkpt>
      <trkpt lat="45.69629" lon="4.52736">
        <ele>736</ele>
        <time>2017-05-14T10:03:51Z</time>
      </trkpt>
      <trkpt lat="45.69653" lon="4.5274">
        <ele>736</ele>
        <time>2017-05-14T10:03:58Z</time>
      </trkpt>
      <trkpt lat="45.69668" lon="4.52735">
        <ele>736</ele>
        <time>2017-05-14T10:03:59Z</time>
      </trkpt>
      <trkpt lat="45.69681" lon="4.52723">
        <ele>737</ele>
        <time>2017-05-14T10:04:03Z</time>
      </trkpt>
      <trkpt lat="45.69694" lon="4.5271">
        <ele>738</ele>
        <time>2017-05-14T10:04:07Z</time>
      </trkpt>
      <trkpt lat="45.69706" lon="4.527">
        <ele>740</ele>
        <time>2017-05-14T10:04:11Z</time>
      </trkpt>
      <trkpt lat="45.69717" lon="4.52685">
        <ele>742</ele>
        <time>2017-05-14T10:04:16Z</time>
      </trkpt>
      <trkpt lat="45.69723" lon="4.52678">
        <ele>742</ele>
        <time>2017-05-14T10:04:19Z</time>
      </trkpt>
      <trkpt lat="45.69728" lon="4.52669">
        <ele>742</ele>
        <time>2017-05-14T10:04:23Z</time>
      </trkpt>
      <trkpt lat="45.69732" lon="4.52655">
        <ele>739</ele>
        <time>2017-05-14T10:04:27Z</time>
      </trkpt>
      <trkpt lat="45.69734" lon="4.52639">
        <ele>738</ele>
        <time>2017-05-14T10:04:31Z</time>
      </trkpt>
      <trkpt lat="45.6974" lon="4.52625">
        <ele>737</ele>
        <time>2017-05-14T10:04:35Z</time>
      </trkpt>
      <trkpt lat="45.69746" lon="4.52614">
        <ele>738</ele>
        <time>2017-05-14T10:04:39Z</time>
      </trkpt>
      <trkpt lat="45.69769" lon="4.52538">
        <ele>750</ele>
        <time>2017-05-14T10:05:35Z</time>
      </trkpt>
      <trkpt lat="45.69773" lon="4.52529">
        <ele>750</ele>
        <time>2017-05-14T10:05:39Z</time>
      </trkpt>
      <trkpt lat="45.69776" lon="4.5252">
        <ele>751</ele>
        <time>2017-05-14T10:05:43Z</time>
      </trkpt>
      <trkpt lat="45.69779" lon="4.52512">
        <ele>751</ele>
        <time>2017-05-14T10:05:47Z</time>
      </trkpt>
      <trkpt lat="45.69787" lon="4.52505">
        <ele>750</ele>
        <time>2017-05-14T10:05:51Z</time>
      </trkpt>
      <trkpt lat="45.69802" lon="4.5248">
        <ele>747</ele>
        <time>2017-05-14T10:05:55Z</time>
      </trkpt>
      <trkpt lat="45.69818" lon="4.52457">
        <ele>746</ele>
        <time>2017-05-14T10:05:59Z</time>
      </trkpt>
      <trkpt lat="45.69831" lon="4.5243">
        <ele>745</ele>
        <time>2017-05-14T10:06:04Z</time>
      </trkpt>
      <trkpt lat="45.69836" lon="4.524">
        <ele>745</ele>
        <time>2017-05-14T10:06:07Z</time>
      </trkpt>
      <trkpt lat="45.69841" lon="4.52377">
        <ele>745</ele>
        <time>2017-05-14T10:06:11Z</time>
      </trkpt>
      <trkpt lat="45.69847" lon="4.52356">
        <ele>746</ele>
        <time>2017-05-14T10:06:15Z</time>
      </trkpt>
      <trkpt lat="45.6985" lon="4.52339">
        <ele>748</ele>
        <time>2017-05-14T10:06:20Z</time>
      </trkpt>
      <trkpt lat="45.69854" lon="4.52321">
        <ele>748</ele>
        <time>2017-05-14T10:06:23Z</time>
      </trkpt>
      <trkpt lat="45.69856" lon="4.52309">
        <ele>749</ele>
        <time>2017-05-14T10:06:27Z</time>
      </trkpt>
      <trkpt lat="45.69859" lon="4.52297">
        <ele>750</ele>
        <time>2017-05-14T10:06:31Z</time>
      </trkpt>
      <trkpt lat="45.69859" lon="4.52285">
        <ele>751</ele>
        <time>2017-05-14T10:06:35Z</time>
      </trkpt>
      <trkpt lat="45.69856" lon="4.52238">
        <ele>756</ele>
        <time>2017-05-14T10:06:56Z</time>
      </trkpt>
      <trkpt lat="45.69852" lon="4.52222">
        <ele>757</ele>
        <time>2017-05-14T10:07:03Z</time>
      </trkpt>
      <trkpt lat="45.69851" lon="4.52214">
        <ele>758</ele>
        <time>2017-05-14T10:07:07Z</time>
      </trkpt>
      <trkpt lat="45.69847" lon="4.52207">
        <ele>759</ele>
        <time>2017-05-14T10:07:12Z</time>
      </trkpt>
      <trkpt lat="45.69844" lon="4.522">
        <ele>760</ele>
        <time>2017-05-14T10:07:16Z</time>
      </trkpt>
      <trkpt lat="45.69817" lon="4.52164">
        <ele>766</ele>
        <time>2017-05-14T10:07:39Z</time>
      </trkpt>
      <trkpt lat="45.69817" lon="4.52158">
        <ele>766</ele>
        <time>2017-05-14T10:07:43Z</time>
      </trkpt>
      <trkpt lat="45.69813" lon="4.52152">
        <ele>767</ele>
        <time>2017-05-14T10:07:48Z</time>
      </trkpt>
      <trkpt lat="45.69809" lon="4.52143">
        <ele>767</ele>
        <time>2017-05-14T10:07:51Z</time>
      </trkpt>
      <trkpt lat="45.69807" lon="4.52132">
        <ele>767</ele>
        <time>2017-05-14T10:07:55Z</time>
      </trkpt>
      <trkpt lat="45.69806" lon="4.52121">
        <ele>767</ele>
        <time>2017-05-14T10:07:59Z</time>
      </trkpt>
      <trkpt lat="45.69802" lon="4.5211">
        <ele>767</ele>
        <time>2017-05-14T10:08:03Z</time>
      </trkpt>
      <trkpt lat="45.69797" lon="4.521">
        <ele>768</ele>
        <time>2017-05-14T10:08:08Z</time>
      </trkpt>
      <trkpt lat="45.69792" lon="4.52091">
        <ele>769</ele>
        <time>2017-05-14T10:08:11Z</time>
      </trkpt>
      <trkpt lat="45.69786" lon="4.52082">
        <ele>770</ele>
        <time>2017-05-14T10:08:15Z</time>
      </trkpt>
      <trkpt lat="45.69778" lon="4.52073">
        <ele>770</ele>
        <time>2017-05-14T10:08:19Z</time>
      </trkpt>
      <trkpt lat="45.69772" lon="4.52066">
        <ele>772</ele>
        <time>2017-05-14T10:08:24Z</time>
      </trkpt>
      <trkpt lat="45.69765" lon="4.52059">
        <ele>773</ele>
        <time>2017-05-14T10:08:27Z</time>
      </trkpt>
      <trkpt lat="45.69757" lon="4.52053">
        <ele>773</ele>
        <time>2017-05-14T10:08:31Z</time>
      </trkpt>
      <trkpt lat="45.6975" lon="4.52046">
        <ele>773</ele>
        <time>2017-05-14T10:08:35Z</time>
      </trkpt>
      <trkpt lat="45.69742" lon="4.5204">
        <ele>775</ele>
        <time>2017-05-14T10:08:39Z</time>
      </trkpt>
      <trkpt lat="45.69735" lon="4.52033">
        <ele>777</ele>
        <time>2017-05-14T10:08:47Z</time>
      </trkpt>
      <trkpt lat="45.69728" lon="4.52025">
        <ele>777</ele>
        <time>2017-05-14T10:08:48Z</time>
      </trkpt>
      <trkpt lat="45.69723" lon="4.52018">
        <ele>778</ele>
        <time>2017-05-14T10:08:51Z</time>
      </trkpt>
      <trkpt lat="45.69718" lon="4.5201">
        <ele>778</ele>
        <time>2017-05-14T10:08:55Z</time>
      </trkpt>
      <trkpt lat="45.69714" lon="4.52002">
        <ele>779</ele>
        <time>2017-05-14T10:09:00Z</time>
      </trkpt>
      <trkpt lat="45.69709" lon="4.51993">
        <ele>779</ele>
        <time>2017-05-14T10:09:03Z</time>
      </trkpt>
      <trkpt lat="45.69707" lon="4.51983">
        <ele>780</ele>
        <time>2017-05-14T10:09:07Z</time>
      </trkpt>
      <trkpt lat="45.69705" lon="4.51973">
        <ele>781</ele>
        <time>2017-05-14T10:09:11Z</time>
      </trkpt>
      <trkpt lat="45.69704" lon="4.51962">
        <ele>781</ele>
        <time>2017-05-14T10:09:16Z</time>
      </trkpt>
      <trkpt lat="45.69703" lon="4.51952">
        <ele>781</ele>
        <time>2017-05-14T10:09:19Z</time>
      </trkpt>
      <trkpt lat="45.697" lon="4.51943">
        <ele>782</ele>
        <time>2017-05-14T10:09:23Z</time>
      </trkpt>
      <trkpt lat="45.69697" lon="4.51933">
        <ele>782</ele>
        <time>2017-05-14T10:09:27Z</time>
      </trkpt>
      <trkpt lat="45.69693" lon="4.51925">
        <ele>783</ele>
        <time>2017-05-14T10:09:31Z</time>
      </trkpt>
      <trkpt lat="45.69688" lon="4.51917">
        <ele>784</ele>
        <time>2017-05-14T10:09:35Z</time>
      </trkpt>
      <trkpt lat="45.69682" lon="4.51911">
        <ele>785</ele>
        <time>2017-05-14T10:09:39Z</time>
      </trkpt>
      <trkpt lat="45.69676" lon="4.51906">
        <ele>786</ele>
        <time>2017-05-14T10:09:43Z</time>
      </trkpt>
      <trkpt lat="45.6967" lon="4.51902">
        <ele>788</ele>
        <time>2017-05-14T10:09:47Z</time>
      </trkpt>
      <trkpt lat="45.69665" lon="4.51896">
        <ele>788</ele>
        <time>2017-05-14T10:09:51Z</time>
      </trkpt>
      <trkpt lat="45.69663" lon="4.51881">
        <ele>788</ele>
        <time>2017-05-14T10:09:55Z</time>
      </trkpt>
      <trkpt lat="45.69656" lon="4.51858">
        <ele>787</ele>
        <time>2017-05-14T10:09:59Z</time>
      </trkpt>
      <trkpt lat="45.69647" lon="4.51836">
        <ele>786</ele>
        <time>2017-05-14T10:10:04Z</time>
      </trkpt>
      <trkpt lat="45.69638" lon="4.51814">
        <ele>786</ele>
        <time>2017-05-14T10:10:07Z</time>
      </trkpt>
      <trkpt lat="45.6963" lon="4.51785">
        <ele>784</ele>
        <time>2017-05-14T10:10:12Z</time>
      </trkpt>
      <trkpt lat="45.69629" lon="4.51744">
        <ele>784</ele>
        <time>2017-05-14T10:10:15Z</time>
      </trkpt>
      <trkpt lat="45.69637" lon="4.51699">
        <ele>781</ele>
        <time>2017-05-14T10:10:19Z</time>
      </trkpt>
      <trkpt lat="45.69645" lon="4.51656">
        <ele>779</ele>
        <time>2017-05-14T10:10:23Z</time>
      </trkpt>
      <trkpt lat="45.69658" lon="4.51622">
        <ele>775</ele>
        <time>2017-05-14T10:10:28Z</time>
      </trkpt>
      <trkpt lat="45.69679" lon="4.51593">
        <ele>771</ele>
        <time>2017-05-14T10:10:31Z</time>
      </trkpt>
      <trkpt lat="45.69698" lon="4.51548">
        <ele>770</ele>
        <time>2017-05-14T10:10:35Z</time>
      </trkpt>
      <trkpt lat="45.69714" lon="4.51504">
        <ele>767</ele>
        <time>2017-05-14T10:10:39Z</time>
      </trkpt>
      <trkpt lat="45.69732" lon="4.51469">
        <ele>764</ele>
        <time>2017-05-14T10:10:43Z</time>
      </trkpt>
      <trkpt lat="45.69744" lon="4.51438">
        <ele>763</ele>
        <time>2017-05-14T10:10:47Z</time>
      </trkpt>
      <trkpt lat="45.69748" lon="4.51423">
        <ele>763</ele>
        <time>2017-05-14T10:10:51Z</time>
      </trkpt>
      <trkpt lat="45.69749" lon="4.51397">
        <ele>763</ele>
        <time>2017-05-14T10:10:56Z</time>
      </trkpt>
      <trkpt lat="45.69755" lon="4.51373">
        <ele>763</ele>
        <time>2017-05-14T10:10:59Z</time>
      </trkpt>
      <trkpt lat="45.69757" lon="4.51341">
        <ele>762</ele>
        <time>2017-05-14T10:11:04Z</time>
      </trkpt>
      <trkpt lat="45.69757" lon="4.51318">
        <ele>762</ele>
        <time>2017-05-14T10:11:07Z</time>
      </trkpt>
      <trkpt lat="45.69755" lon="4.51297">
        <ele>763</ele>
        <time>2017-05-14T10:11:11Z</time>
      </trkpt>
      <trkpt lat="45.69758" lon="4.51271">
        <ele>763</ele>
        <time>2017-05-14T10:11:15Z</time>
      </trkpt>
      <trkpt lat="45.69761" lon="4.51244">
        <ele>764</ele>
        <time>2017-05-14T10:11:24Z</time>
      </trkpt>
      <trkpt lat="45.69762" lon="4.51224">
        <ele>764</ele>
        <time>2017-05-14T10:11:25Z</time>
      </trkpt>
      <trkpt lat="45.69762" lon="4.51203">
        <ele>764</ele>
        <time>2017-05-14T10:11:27Z</time>
      </trkpt>
      <trkpt lat="45.69758" lon="4.51177">
        <ele>764</ele>
        <time>2017-05-14T10:11:31Z</time>
      </trkpt>
      <trkpt lat="45.69754" lon="4.51154">
        <ele>765</ele>
        <time>2017-05-14T10:11:35Z</time>
      </trkpt>
      <trkpt lat="45.69751" lon="4.51134">
        <ele>765</ele>
        <time>2017-05-14T10:11:39Z</time>
      </trkpt>
      <trkpt lat="45.69748" lon="4.51107">
        <ele>766</ele>
        <time>2017-05-14T10:11:43Z</time>
      </trkpt>
      <trkpt lat="45.69748" lon="4.5108">
        <ele>765</ele>
        <time>2017-05-14T10:11:47Z</time>
      </trkpt>
      <trkpt lat="45.6975" lon="4.51052">
        <ele>765</ele>
        <time>2017-05-14T10:11:51Z</time>
      </trkpt>
      <trkpt lat="45.69748" lon="4.51018">
        <ele>758</ele>
        <time>2017-05-14T10:11:55Z</time>
      </trkpt>
      <trkpt lat="45.69746" lon="4.50964">
        <ele>757</ele>
        <time>2017-05-14T10:11:59Z</time>
      </trkpt>
      <trkpt lat="45.69749" lon="4.50907">
        <ele>750</ele>
        <time>2017-05-14T10:12:03Z</time>
      </trkpt>
      <trkpt lat="45.69762" lon="4.50867">
        <ele>746</ele>
        <time>2017-05-14T10:12:08Z</time>
      </trkpt>
      <trkpt lat="45.69782" lon="4.50823">
        <ele>745</ele>
        <time>2017-05-14T10:12:11Z</time>
      </trkpt>
      <trkpt lat="45.69796" lon="4.50797">
        <ele>740</ele>
        <time>2017-05-14T10:12:16Z</time>
      </trkpt>
      <trkpt lat="45.69803" lon="4.50794">
        <ele>740</ele>
        <time>2017-05-14T10:12:19Z</time>
      </trkpt>
      <trkpt lat="45.69815" lon="4.50794">
        <ele>737</ele>
        <time>2017-05-14T10:12:32Z</time>
      </trkpt>
      <trkpt lat="45.69836" lon="4.50802">
        <ele>736</ele>
        <time>2017-05-14T10:12:35Z</time>
      </trkpt>
      <trkpt lat="45.69863" lon="4.5081">
        <ele>736</ele>
        <time>2017-05-14T10:12:39Z</time>
      </trkpt>
      <trkpt lat="45.69894" lon="4.50819">
        <ele>731</ele>
        <time>2017-05-14T10:12:47Z</time>
      </trkpt>
      <trkpt lat="45.69927" lon="4.50831">
        <ele>729</ele>
        <time>2017-05-14T10:12:48Z</time>
      </trkpt>
      <trkpt lat="45.69961" lon="4.5084">
        <ele>729</ele>
        <time>2017-05-14T10:12:51Z</time>
      </trkpt>
      <trkpt lat="45.69992" lon="4.50846">
        <ele>727</ele>
        <time>2017-05-14T10:12:55Z</time>
      </trkpt>
      <trkpt lat="45.70021" lon="4.50853">
        <ele>726</ele>
        <time>2017-05-14T10:12:59Z</time>
      </trkpt>
      <trkpt lat="45.70053" lon="4.50864">
        <ele>722</ele>
        <time>2017-05-14T10:13:03Z</time>
      </trkpt>
      <trkpt lat="45.70078" lon="4.50888">
        <ele>719</ele>
        <time>2017-05-14T10:13:08Z</time>
      </trkpt>
      <trkpt lat="45.7009" lon="4.50921">
        <ele>718</ele>
        <time>2017-05-14T10:13:11Z</time>
      </trkpt>
      <trkpt lat="45.70097" lon="4.50954">
        <ele>715</ele>
        <time>2017-05-14T10:13:15Z</time>
      </trkpt>
      <trkpt lat="45.70113" lon="4.50973">
        <ele>714</ele>
        <time>2017-05-14T10:13:19Z</time>
      </trkpt>
      <trkpt lat="45.70119" lon="4.50967">
        <ele>714</ele>
        <time>2017-05-14T10:13:23Z</time>
      </trkpt>
      <trkpt lat="45.70123" lon="4.50956">
        <ele>714</ele>
        <time>2017-05-14T10:13:27Z</time>
      </trkpt>
      <trkpt lat="45.70129" lon="4.50942">
        <ele>714</ele>
        <time>2017-05-14T10:13:31Z</time>
      </trkpt>
      <trkpt lat="45.70135" lon="4.50929">
        <ele>716</ele>
        <time>2017-05-14T10:13:35Z</time>
      </trkpt>
      <trkpt lat="45.70138" lon="4.50914">
        <ele>717</ele>
        <time>2017-05-14T10:13:39Z</time>
      </trkpt>
      <trkpt lat="45.7014" lon="4.509">
        <ele>718</ele>
        <time>2017-05-14T10:13:43Z</time>
      </trkpt>
      <trkpt lat="45.70146" lon="4.50888">
        <ele>718</ele>
        <time>2017-05-14T10:13:47Z</time>
      </trkpt>
      <trkpt lat="45.70152" lon="4.50877">
        <ele>719</ele>
        <time>2017-05-14T10:13:51Z</time>
      </trkpt>
      <trkpt lat="45.70158" lon="4.50866">
        <ele>720</ele>
        <time>2017-05-14T10:13:55Z</time>
      </trkpt>
      <trkpt lat="45.70165" lon="4.50857">
        <ele>721</ele>
        <time>2017-05-14T10:13:59Z</time>
      </trkpt>
      <trkpt lat="45.70171" lon="4.50848">
        <ele>721</ele>
        <time>2017-05-14T10:14:03Z</time>
      </trkpt>
      <trkpt lat="45.70175" lon="4.50838">
        <ele>722</ele>
        <time>2017-05-14T10:14:07Z</time>
      </trkpt>
      <trkpt lat="45.70176" lon="4.50823">
        <ele>721</ele>
        <time>2017-05-14T10:14:12Z</time>
      </trkpt>
      <trkpt lat="45.7017" lon="4.50806">
        <ele>721</ele>
        <time>2017-05-14T10:14:15Z</time>
      </trkpt>
      <trkpt lat="45.70163" lon="4.50778">
        <ele>721</ele>
        <time>2017-05-14T10:14:20Z</time>
      </trkpt>
      <trkpt lat="45.70154" lon="4.50754">
        <ele>721</ele>
        <time>2017-05-14T10:14:23Z</time>
      </trkpt>
      <trkpt lat="45.70146" lon="4.50729">
        <ele>721</ele>
        <time>2017-05-14T10:14:27Z</time>
      </trkpt>
      <trkpt lat="45.70137" lon="4.50705">
        <ele>720</ele>
        <time>2017-05-14T10:14:31Z</time>
      </trkpt>
      <trkpt lat="45.70128" lon="4.50684">
        <ele>720</ele>
        <time>2017-05-14T10:14:35Z</time>
      </trkpt>
      <trkpt lat="45.70122" lon="4.50667">
        <ele>721</ele>
        <time>2017-05-14T10:14:39Z</time>
      </trkpt>
      <trkpt lat="45.70119" lon="4.50652">
        <ele>721</ele>
        <time>2017-05-14T10:14:43Z</time>
      </trkpt>
      <trkpt lat="45.70116" lon="4.5064">
        <ele>721</ele>
        <time>2017-05-14T10:14:47Z</time>
      </trkpt>
      <trkpt lat="45.70112" lon="4.50625">
        <ele>723</ele>
        <time>2017-05-14T10:14:51Z</time>
      </trkpt>
      <trkpt lat="45.70112" lon="4.50608">
        <ele>723</ele>
        <time>2017-05-14T10:14:55Z</time>
      </trkpt>
      <trkpt lat="45.70111" lon="4.50591">
        <ele>723</ele>
        <time>2017-05-14T10:14:59Z</time>
      </trkpt>
      <trkpt lat="45.70112" lon="4.50575">
        <ele>724</ele>
        <time>2017-05-14T10:15:03Z</time>
      </trkpt>
      <trkpt lat="45.70112" lon="4.50557">
        <ele>724</ele>
        <time>2017-05-14T10:15:07Z</time>
      </trkpt>
      <trkpt lat="45.70115" lon="4.50539">
        <ele>724</ele>
        <time>2017-05-14T10:15:12Z</time>
      </trkpt>
      <trkpt lat="45.70117" lon="4.50522">
        <ele>724</ele>
        <time>2017-05-14T10:15:15Z</time>
      </trkpt>
      <trkpt lat="45.70112" lon="4.50506">
        <ele>723</ele>
        <time>2017-05-14T10:15:19Z</time>
      </trkpt>
      <trkpt lat="45.70112" lon="4.5049">
        <ele>722</ele>
        <time>2017-05-14T10:15:25Z</time>
      </trkpt>
      <trkpt lat="45.70113" lon="4.50481">
        <ele>721</ele>
        <time>2017-05-14T10:15:28Z</time>
      </trkpt>
      <trkpt lat="45.70112" lon="4.5046">
        <ele>721</ele>
        <time>2017-05-14T10:15:32Z</time>
      </trkpt>
      <trkpt lat="45.701" lon="4.50438">
        <ele>720</ele>
        <time>2017-05-14T10:15:35Z</time>
      </trkpt>
      <trkpt lat="45.70092" lon="4.50413">
        <ele>718</ele>
        <time>2017-05-14T10:15:39Z</time>
      </trkpt>
      <trkpt lat="45.70066" lon="4.50402">
        <ele>709</ele>
        <time>2017-05-14T10:15:43Z</time>
      </trkpt>
      <trkpt lat="45.70048" lon="4.5039">
        <ele>708</ele>
        <time>2017-05-14T10:15:47Z</time>
      </trkpt>
      <trkpt lat="45.70016" lon="4.50385">
        <ele>705</ele>
        <time>2017-05-14T10:15:51Z</time>
      </trkpt>
      <trkpt lat="45.69985" lon="4.50388">
        <ele>700</ele>
        <time>2017-05-14T10:15:55Z</time>
      </trkpt>
      <trkpt lat="45.69961" lon="4.50396">
        <ele>696</ele>
        <time>2017-05-14T10:15:59Z</time>
      </trkpt>
      <trkpt lat="45.69961" lon="4.50387">
        <ele>692</ele>
        <time>2017-05-14T10:16:03Z</time>
      </trkpt>
      <trkpt lat="45.69964" lon="4.50372">
        <ele>690</ele>
        <time>2017-05-14T10:16:07Z</time>
      </trkpt>
      <trkpt lat="45.69973" lon="4.50347">
        <ele>685</ele>
        <time>2017-05-14T10:16:11Z</time>
      </trkpt>
      <trkpt lat="45.69983" lon="4.50315">
        <ele>680</ele>
        <time>2017-05-14T10:16:15Z</time>
      </trkpt>
      <trkpt lat="45.7" lon="4.50288">
        <ele>679</ele>
        <time>2017-05-14T10:16:19Z</time>
      </trkpt>
      <trkpt lat="45.70018" lon="4.50256">
        <ele>672</ele>
        <time>2017-05-14T10:16:24Z</time>
      </trkpt>
      <trkpt lat="45.70034" lon="4.50234">
        <ele>671</ele>
        <time>2017-05-14T10:16:27Z</time>
      </trkpt>
      <trkpt lat="45.70043" lon="4.50211">
        <ele>667</ele>
        <time>2017-05-14T10:16:31Z</time>
      </trkpt>
      <trkpt lat="45.70047" lon="4.50188">
        <ele>665</ele>
        <time>2017-05-14T10:16:35Z</time>
      </trkpt>
      <trkpt lat="45.70051" lon="4.50167">
        <ele>665</ele>
        <time>2017-05-14T10:16:43Z</time>
      </trkpt>
      <trkpt lat="45.70053" lon="4.50148">
        <ele>665</ele>
        <time>2017-05-14T10:16:45Z</time>
      </trkpt>
      <trkpt lat="45.70054" lon="4.50135">
        <ele>665</ele>
        <time>2017-05-14T10:16:47Z</time>
      </trkpt>
      <trkpt lat="45.70055" lon="4.50125">
        <ele>666</ele>
        <time>2017-05-14T10:16:51Z</time>
      </trkpt>
      <trkpt lat="45.70052" lon="4.50115">
        <ele>669</ele>
        <time>2017-05-14T10:16:55Z</time>
      </trkpt>
      <trkpt lat="45.70048" lon="4.50106">
        <ele>669</ele>
        <time>2017-05-14T10:16:59Z</time>
      </trkpt>
      <trkpt lat="45.70045" lon="4.50098">
        <ele>671</ele>
        <time>2017-05-14T10:17:03Z</time>
      </trkpt>
      <trkpt lat="45.70043" lon="4.50091">
        <ele>672</ele>
        <time>2017-05-14T10:17:07Z</time>
      </trkpt>
      <trkpt lat="45.7004" lon="4.50082">
        <ele>673</ele>
        <time>2017-05-14T10:17:11Z</time>
      </trkpt>
      <trkpt lat="45.70038" lon="4.50074">
        <ele>675</ele>
        <time>2017-05-14T10:17:15Z</time>
      </trkpt>
      <trkpt lat="45.70036" lon="4.50067">
        <ele>675</ele>
        <time>2017-05-14T10:17:19Z</time>
      </trkpt>
      <trkpt lat="45.70036" lon="4.50059">
        <ele>676</ele>
        <time>2017-05-14T10:17:23Z</time>
      </trkpt>
      <trkpt lat="45.70035" lon="4.50052">
        <ele>677</ele>
        <time>2017-05-14T10:17:27Z</time>
      </trkpt>
      <trkpt lat="45.70035" lon="4.50045">
        <ele>677</ele>
        <time>2017-05-14T10:17:31Z</time>
      </trkpt>
      <trkpt lat="45.70034" lon="4.5004">
        <ele>678</ele>
        <time>2017-05-14T10:17:35Z</time>
      </trkpt>
      <trkpt lat="45.70033" lon="4.50033">
        <ele>678</ele>
        <time>2017-05-14T10:17:39Z</time>
      </trkpt>
      <trkpt lat="45.70032" lon="4.50027">
        <ele>679</ele>
        <time>2017-05-14T10:17:43Z</time>
      </trkpt>
      <trkpt lat="45.7003" lon="4.5002">
        <ele>681</ele>
        <time>2017-05-14T10:17:47Z</time>
      </trkpt>
      <trkpt lat="45.70028" lon="4.50013">
        <ele>681</ele>
        <time>2017-05-14T10:17:51Z</time>
      </trkpt>
      <trkpt lat="45.70026" lon="4.50006">
        <ele>682</ele>
        <time>2017-05-14T10:17:55Z</time>
      </trkpt>
      <trkpt lat="45.70025" lon="4.5">
        <ele>683</ele>
        <time>2017-05-14T10:17:59Z</time>
      </trkpt>
      <trkpt lat="45.70024" lon="4.49994">
        <ele>684</ele>
        <time>2017-05-14T10:18:03Z</time>
      </trkpt>
      <trkpt lat="45.70023" lon="4.49989">
        <ele>685</ele>
        <time>2017-05-14T10:18:07Z</time>
      </trkpt>
      <trkpt lat="45.70022" lon="4.49983">
        <ele>686</ele>
        <time>2017-05-14T10:18:11Z</time>
      </trkpt>
      <trkpt lat="45.70021" lon="4.49976">
        <ele>688</ele>
        <time>2017-05-14T10:18:15Z</time>
      </trkpt>
      <trkpt lat="45.70014" lon="4.49959">
        <ele>691</ele>
        <time>2017-05-14T10:18:32Z</time>
      </trkpt>
      <trkpt lat="45.70014" lon="4.49954">
        <ele>691</ele>
        <time>2017-05-14T10:18:35Z</time>
      </trkpt>
      <trkpt lat="45.70013" lon="4.49939">
        <ele>694</ele>
        <time>2017-05-14T10:18:51Z</time>
      </trkpt>
      <trkpt lat="45.70013" lon="4.49933">
        <ele>695</ele>
        <time>2017-05-14T10:18:56Z</time>
      </trkpt>
      <trkpt lat="45.70012" lon="4.49927">
        <ele>696</ele>
        <time>2017-05-14T10:18:59Z</time>
      </trkpt>
      <trkpt lat="45.70012" lon="4.49922">
        <ele>696</ele>
        <time>2017-05-14T10:19:03Z</time>
      </trkpt>
      <trkpt lat="45.70013" lon="4.49916">
        <ele>697</ele>
        <time>2017-05-14T10:19:07Z</time>
      </trkpt>
      <trkpt lat="45.70014" lon="4.49911">
        <ele>698</ele>
        <time>2017-05-14T10:19:11Z</time>
      </trkpt>
      <trkpt lat="45.70013" lon="4.49904">
        <ele>699</ele>
        <time>2017-05-14T10:19:15Z</time>
      </trkpt>
      <trkpt lat="45.70015" lon="4.49896">
        <ele>700</ele>
        <time>2017-05-14T10:19:20Z</time>
      </trkpt>
      <trkpt lat="45.70018" lon="4.49887">
        <ele>700</ele>
        <time>2017-05-14T10:19:23Z</time>
      </trkpt>
      <trkpt lat="45.70019" lon="4.49878">
        <ele>702</ele>
        <time>2017-05-14T10:19:27Z</time>
      </trkpt>
      <trkpt lat="45.7002" lon="4.4987">
        <ele>702</ele>
        <time>2017-05-14T10:19:35Z</time>
      </trkpt>
      <trkpt lat="45.7002" lon="4.49863">
        <ele>703</ele>
        <time>2017-05-14T10:19:36Z</time>
      </trkpt>
      <trkpt lat="45.70022" lon="4.49858">
        <ele>704</ele>
        <time>2017-05-14T10:19:39Z</time>
      </trkpt>
      <trkpt lat="45.70022" lon="4.49852">
        <ele>704</ele>
        <time>2017-05-14T10:19:43Z</time>
      </trkpt>
      <trkpt lat="45.70023" lon="4.49845">
        <ele>705</ele>
        <time>2017-05-14T10:19:47Z</time>
      </trkpt>
      <trkpt lat="45.70032" lon="4.49817">
        <ele>710</ele>
        <time>2017-05-14T10:20:23Z</time>
      </trkpt>
      <trkpt lat="45.70036" lon="4.49812">
        <ele>711</ele>
        <time>2017-05-14T10:20:27Z</time>
      </trkpt>
      <trkpt lat="45.70037" lon="4.49806">
        <ele>712</ele>
        <time>2017-05-14T10:20:31Z</time>
      </trkpt>
      <trkpt lat="45.70039" lon="4.498">
        <ele>713</ele>
        <time>2017-05-14T10:20:36Z</time>
      </trkpt>
      <trkpt lat="45.70042" lon="4.49773">
        <ele>714</ele>
        <time>2017-05-14T10:20:47Z</time>
      </trkpt>
      <trkpt lat="45.70043" lon="4.49765">
        <ele>714</ele>
        <time>2017-05-14T10:20:51Z</time>
      </trkpt>
      <trkpt lat="45.70044" lon="4.49755">
        <ele>714</ele>
        <time>2017-05-14T10:20:55Z</time>
      </trkpt>
      <trkpt lat="45.70046" lon="4.49742">
        <ele>715</ele>
        <time>2017-05-14T10:20:59Z</time>
      </trkpt>
      <trkpt lat="45.70047" lon="4.49726">
        <ele>716</ele>
        <time>2017-05-14T10:21:03Z</time>
      </trkpt>
      <trkpt lat="45.70045" lon="4.49713">
        <ele>716</ele>
        <time>2017-05-14T10:21:07Z</time>
      </trkpt>
      <trkpt lat="45.70045" lon="4.49694">
        <ele>716</ele>
        <time>2017-05-14T10:21:11Z</time>
      </trkpt>
      <trkpt lat="45.7004" lon="4.49681">
        <ele>716</ele>
        <time>2017-05-14T10:21:15Z</time>
      </trkpt>
      <trkpt lat="45.70036" lon="4.49666">
        <ele>715</ele>
        <time>2017-05-14T10:21:19Z</time>
      </trkpt>
      <trkpt lat="45.70032" lon="4.49648">
        <ele>715</ele>
        <time>2017-05-14T10:21:24Z</time>
      </trkpt>
      <trkpt lat="45.70027" lon="4.49634">
        <ele>715</ele>
        <time>2017-05-14T10:21:27Z</time>
      </trkpt>
      <trkpt lat="45.7002" lon="4.49623">
        <ele>716</ele>
        <time>2017-05-14T10:21:31Z</time>
      </trkpt>
      <trkpt lat="45.70013" lon="4.49611">
        <ele>716</ele>
        <time>2017-05-14T10:21:36Z</time>
      </trkpt>
      <trkpt lat="45.70005" lon="4.49602">
        <ele>716</ele>
        <time>2017-05-14T10:21:39Z</time>
      </trkpt>
      <trkpt lat="45.69996" lon="4.49592">
        <ele>717</ele>
        <time>2017-05-14T10:21:43Z</time>
      </trkpt>
      <trkpt lat="45.69985" lon="4.4958">
        <ele>717</ele>
        <time>2017-05-14T10:21:47Z</time>
      </trkpt>
      <trkpt lat="45.69976" lon="4.49574">
        <ele>718</ele>
        <time>2017-05-14T10:21:51Z</time>
      </trkpt>
      <trkpt lat="45.69966" lon="4.49569">
        <ele>719</ele>
        <time>2017-05-14T10:21:55Z</time>
      </trkpt>
      <trkpt lat="45.69957" lon="4.4956">
        <ele>719</ele>
        <time>2017-05-14T10:21:59Z</time>
      </trkpt>
      <trkpt lat="45.69948" lon="4.49556">
        <ele>720</ele>
        <time>2017-05-14T10:22:03Z</time>
      </trkpt>
      <trkpt lat="45.69941" lon="4.49553">
        <ele>720</ele>
        <time>2017-05-14T10:22:07Z</time>
      </trkpt>
      <trkpt lat="45.69914" lon="4.49553">
        <ele>721</ele>
        <time>2017-05-14T10:22:23Z</time>
      </trkpt>
      <trkpt lat="45.69906" lon="4.4955">
        <ele>722</ele>
        <time>2017-05-14T10:22:27Z</time>
      </trkpt>
      <trkpt lat="45.69899" lon="4.49548">
        <ele>722</ele>
        <time>2017-05-14T10:22:31Z</time>
      </trkpt>
      <trkpt lat="45.69892" lon="4.49545">
        <ele>723</ele>
        <time>2017-05-14T10:22:35Z</time>
      </trkpt>
      <trkpt lat="45.69884" lon="4.49542">
        <ele>725</ele>
        <time>2017-05-14T10:22:43Z</time>
      </trkpt>
      <trkpt lat="45.69878" lon="4.4954">
        <ele>725</ele>
        <time>2017-05-14T10:22:45Z</time>
      </trkpt>
      <trkpt lat="45.69872" lon="4.49538">
        <ele>726</ele>
        <time>2017-05-14T10:22:47Z</time>
      </trkpt>
      <trkpt lat="45.69866" lon="4.49537">
        <ele>726</ele>
        <time>2017-05-14T10:22:51Z</time>
      </trkpt>
      <trkpt lat="45.69859" lon="4.49535">
        <ele>727</ele>
        <time>2017-05-14T10:22:55Z</time>
      </trkpt>
      <trkpt lat="45.69852" lon="4.49534">
        <ele>728</ele>
        <time>2017-05-14T10:22:59Z</time>
      </trkpt>
      <trkpt lat="45.69846" lon="4.49533">
        <ele>728</ele>
        <time>2017-05-14T10:23:03Z</time>
      </trkpt>
      <trkpt lat="45.6984" lon="4.49533">
        <ele>729</ele>
        <time>2017-05-14T10:23:07Z</time>
      </trkpt>
      <trkpt lat="45.69834" lon="4.49532">
        <ele>731</ele>
        <time>2017-05-14T10:23:11Z</time>
      </trkpt>
      <trkpt lat="45.69829" lon="4.49533">
        <ele>731</ele>
        <time>2017-05-14T10:23:15Z</time>
      </trkpt>
      <trkpt lat="45.69822" lon="4.49535">
        <ele>732</ele>
        <time>2017-05-14T10:23:19Z</time>
      </trkpt>
      <trkpt lat="45.69816" lon="4.49537">
        <ele>733</ele>
        <time>2017-05-14T10:23:23Z</time>
      </trkpt>
      <trkpt lat="45.6981" lon="4.49538">
        <ele>735</ele>
        <time>2017-05-14T10:23:28Z</time>
      </trkpt>
      <trkpt lat="45.69804" lon="4.49541">
        <ele>735</ele>
        <time>2017-05-14T10:23:31Z</time>
      </trkpt>
      <trkpt lat="45.69798" lon="4.49544">
        <ele>736</ele>
        <time>2017-05-14T10:23:35Z</time>
      </trkpt>
      <trkpt lat="45.69792" lon="4.49547">
        <ele>737</ele>
        <time>2017-05-14T10:23:39Z</time>
      </trkpt>
      <trkpt lat="45.69784" lon="4.4955">
        <ele>737</ele>
        <time>2017-05-14T10:23:43Z</time>
      </trkpt>
      <trkpt lat="45.69775" lon="4.49553">
        <ele>738</ele>
        <time>2017-05-14T10:23:47Z</time>
      </trkpt>
      <trkpt lat="45.69768" lon="4.49558">
        <ele>738</ele>
        <time>2017-05-14T10:23:51Z</time>
      </trkpt>
      <trkpt lat="45.69761" lon="4.49563">
        <ele>739</ele>
        <time>2017-05-14T10:23:55Z</time>
      </trkpt>
      <trkpt lat="45.69754" lon="4.49569">
        <ele>740</ele>
        <time>2017-05-14T10:24:01Z</time>
      </trkpt>
      <trkpt lat="45.69746" lon="4.49577">
        <ele>740</ele>
        <time>2017-05-14T10:24:03Z</time>
      </trkpt>
      <trkpt lat="45.69739" lon="4.49587">
        <ele>740</ele>
        <time>2017-05-14T10:24:07Z</time>
      </trkpt>
      <trkpt lat="45.69731" lon="4.49598">
        <ele>740</ele>
        <time>2017-05-14T10:24:11Z</time>
      </trkpt>
      <trkpt lat="45.69724" lon="4.49609">
        <ele>740</ele>
        <time>2017-05-14T10:24:15Z</time>
      </trkpt>
      <trkpt lat="45.69719" lon="4.49621">
        <ele>740</ele>
        <time>2017-05-14T10:24:19Z</time>
      </trkpt>
      <trkpt lat="45.69713" lon="4.49632">
        <ele>739</ele>
        <time>2017-05-14T10:24:24Z</time>
      </trkpt>
      <trkpt lat="45.69704" lon="4.49637">
        <ele>737</ele>
        <time>2017-05-14T10:24:27Z</time>
      </trkpt>
      <trkpt lat="45.69694" lon="4.49622">
        <ele>736</ele>
        <time>2017-05-14T10:24:31Z</time>
      </trkpt>
      <trkpt lat="45.69691" lon="4.49592">
        <ele>735</ele>
        <time>2017-05-14T10:24:35Z</time>
      </trkpt>
      <trkpt lat="45.69692" lon="4.49557">
        <ele>732</ele>
        <time>2017-05-14T10:24:39Z</time>
      </trkpt>
      <trkpt lat="45.697" lon="4.49527">
        <ele>726</ele>
        <time>2017-05-14T10:24:43Z</time>
      </trkpt>
      <trkpt lat="45.69709" lon="4.49489">
        <ele>724</ele>
        <time>2017-05-14T10:24:47Z</time>
      </trkpt>
      <trkpt lat="45.69717" lon="4.49447">
        <ele>723</ele>
        <time>2017-05-14T10:24:51Z</time>
      </trkpt>
      <trkpt lat="45.69729" lon="4.49407">
        <ele>719</ele>
        <time>2017-05-14T10:24:56Z</time>
      </trkpt>
      <trkpt lat="45.69743" lon="4.49367">
        <ele>718</ele>
        <time>2017-05-14T10:24:59Z</time>
      </trkpt>
      <trkpt lat="45.69751" lon="4.49319">
        <ele>715</ele>
        <time>2017-05-14T10:25:03Z</time>
      </trkpt>
      <trkpt lat="45.69755" lon="4.49271">
        <ele>711</ele>
        <time>2017-05-14T10:25:07Z</time>
      </trkpt>
      <trkpt lat="45.69754" lon="4.49253">
        <ele>706</ele>
        <time>2017-05-14T10:25:11Z</time>
      </trkpt>
      <trkpt lat="45.69758" lon="4.4924">
        <ele>704</ele>
        <time>2017-05-14T10:25:16Z</time>
      </trkpt>
      <trkpt lat="45.69768" lon="4.49215">
        <ele>702</ele>
        <time>2017-05-14T10:25:20Z</time>
      </trkpt>
      <trkpt lat="45.6978" lon="4.49183">
        <ele>701</ele>
        <time>2017-05-14T10:25:23Z</time>
      </trkpt>
      <trkpt lat="45.69792" lon="4.49146">
        <ele>696</ele>
        <time>2017-05-14T10:25:27Z</time>
      </trkpt>
      <trkpt lat="45.69807" lon="4.49109">
        <ele>687</ele>
        <time>2017-05-14T10:25:32Z</time>
      </trkpt>
      <trkpt lat="45.69817" lon="4.49082">
        <ele>681</ele>
        <time>2017-05-14T10:25:35Z</time>
      </trkpt>
      <trkpt lat="45.69825" lon="4.49065">
        <ele>680</ele>
        <time>2017-05-14T10:25:39Z</time>
      </trkpt>
      <trkpt lat="45.69831" lon="4.4905">
        <ele>666</ele>
        <time>2017-05-14T10:25:43Z</time>
      </trkpt>
      <trkpt lat="45.69841" lon="4.49034">
        <ele>665</ele>
        <time>2017-05-14T10:25:47Z</time>
      </trkpt>
      <trkpt lat="45.69853" lon="4.49023">
        <ele>659</ele>
        <time>2017-05-14T10:25:51Z</time>
      </trkpt>
      <trkpt lat="45.6987" lon="4.49017">
        <ele>654</ele>
        <time>2017-05-14T10:25:55Z</time>
      </trkpt>
      <trkpt lat="45.69887" lon="4.49008">
        <ele>650</ele>
        <time>2017-05-14T10:25:59Z</time>
      </trkpt>
      <trkpt lat="45.69909" lon="4.48999">
        <ele>646</ele>
        <time>2017-05-14T10:26:03Z</time>
      </trkpt>
      <trkpt lat="45.6993" lon="4.49">
        <ele>637</ele>
        <time>2017-05-14T10:26:08Z</time>
      </trkpt>
      <trkpt lat="45.69954" lon="4.49002">
        <ele>636</ele>
        <time>2017-05-14T10:26:11Z</time>
      </trkpt>
      <trkpt lat="45.69979" lon="4.48998">
        <ele>630</ele>
        <time>2017-05-14T10:26:15Z</time>
      </trkpt>
      <trkpt lat="45.69988" lon="4.48987">
        <ele>624</ele>
        <time>2017-05-14T10:26:19Z</time>
      </trkpt>
      <trkpt lat="45.69995" lon="4.48983">
        <ele>620</ele>
        <time>2017-05-14T10:26:28Z</time>
      </trkpt>
      <trkpt lat="45.69993" lon="4.48984">
        <ele>619</ele>
        <time>2017-05-14T10:26:35Z</time>
      </trkpt>
      <trkpt lat="45.69994" lon="4.48985">
        <ele>621</ele>
        <time>2017-05-14T10:26:44Z</time>
      </trkpt>
      <trkpt lat="45.69991" lon="4.48989">
        <ele>621</ele>
        <time>2017-05-14T10:26:45Z</time>
      </trkpt>
      <trkpt lat="45.69987" lon="4.48997">
        <ele>621</ele>
        <time>2017-05-14T10:26:51Z</time>
      </trkpt>
      <trkpt lat="45.69983" lon="4.49001">
        <ele>621</ele>
        <time>2017-05-14T10:26:55Z</time>
      </trkpt>
      <trkpt lat="45.69976" lon="4.49038">
        <ele>621</ele>
        <time>2017-05-14T10:27:07Z</time>
      </trkpt>
      <trkpt lat="45.69972" lon="4.49057">
        <ele>621</ele>
        <time>2017-05-14T10:27:11Z</time>
      </trkpt>
      <trkpt lat="45.6997" lon="4.49074">
        <ele>620</ele>
        <time>2017-05-14T10:27:15Z</time>
      </trkpt>
      <trkpt lat="45.69968" lon="4.49089">
        <ele>621</ele>
        <time>2017-05-14T10:27:20Z</time>
      </trkpt>
      <trkpt lat="45.69985" lon="4.49146">
        <ele>621</ele>
        <time>2017-05-14T10:27:36Z</time>
      </trkpt>
      <trkpt lat="45.69993" lon="4.49161">
        <ele>619</ele>
        <time>2017-05-14T10:27:43Z</time>
      </trkpt>
      <trkpt lat="45.70004" lon="4.49179">
        <ele>619</ele>
        <time>2017-05-14T10:27:47Z</time>
      </trkpt>
      <trkpt lat="45.70015" lon="4.49192">
        <ele>619</ele>
        <time>2017-05-14T10:27:51Z</time>
      </trkpt>
      <trkpt lat="45.70026" lon="4.49208">
        <ele>620</ele>
        <time>2017-05-14T10:27:55Z</time>
      </trkpt>
      <trkpt lat="45.70035" lon="4.49224">
        <ele>621</ele>
        <time>2017-05-14T10:27:59Z</time>
      </trkpt>
      <trkpt lat="45.70046" lon="4.49237">
        <ele>621</ele>
        <time>2017-05-14T10:28:03Z</time>
      </trkpt>
      <trkpt lat="45.70056" lon="4.49248">
        <ele>620</ele>
        <time>2017-05-14T10:28:07Z</time>
      </trkpt>
      <trkpt lat="45.70081" lon="4.49262">
        <ele>619</ele>
        <time>2017-05-14T10:28:12Z</time>
      </trkpt>
      <trkpt lat="45.70106" lon="4.49271">
        <ele>619</ele>
        <time>2017-05-14T10:28:20Z</time>
      </trkpt>
      <trkpt lat="45.70136" lon="4.49283">
        <ele>619</ele>
        <time>2017-05-14T10:28:28Z</time>
      </trkpt>
      <trkpt lat="45.70149" lon="4.49289">
        <ele>619</ele>
        <time>2017-05-14T10:28:32Z</time>
      </trkpt>
      <trkpt lat="45.70166" lon="4.49294">
        <ele>619</ele>
        <time>2017-05-14T10:28:39Z</time>
      </trkpt>
      <trkpt lat="45.70181" lon="4.49298">
        <ele>619</ele>
        <time>2017-05-14T10:28:43Z</time>
      </trkpt>
      <trkpt lat="45.70195" lon="4.49305">
        <ele>618</ele>
        <time>2017-05-14T10:28:47Z</time>
      </trkpt>
      <trkpt lat="45.70211" lon="4.49313">
        <ele>617</ele>
        <time>2017-05-14T10:28:51Z</time>
      </trkpt>
      <trkpt lat="45.70224" lon="4.49322">
        <ele>617</ele>
        <time>2017-05-14T10:28:55Z</time>
      </trkpt>
      <trkpt lat="45.70239" lon="4.49336">
        <ele>616</ele>
        <time>2017-05-14T10:28:59Z</time>
      </trkpt>
      <trkpt lat="45.70255" lon="4.4935">
        <ele>612</ele>
        <time>2017-05-14T10:29:03Z</time>
      </trkpt>
      <trkpt lat="45.70274" lon="4.49359">
        <ele>605</ele>
        <time>2017-05-14T10:29:07Z</time>
      </trkpt>
      <trkpt lat="45.70287" lon="4.49362">
        <ele>600</ele>
        <time>2017-05-14T10:29:11Z</time>
      </trkpt>
      <trkpt lat="45.70332" lon="4.4937">
        <ele>589</ele>
        <time>2017-05-14T10:29:16Z</time>
      </trkpt>
      <trkpt lat="45.70384" lon="4.49377">
        <ele>576</ele>
        <time>2017-05-14T10:29:24Z</time>
      </trkpt>
      <trkpt lat="45.70415" lon="4.49377">
        <ele>569</ele>
        <time>2017-05-14T10:29:31Z</time>
      </trkpt>
      <trkpt lat="45.7044" lon="4.49363">
        <ele>562</ele>
        <time>2017-05-14T10:29:35Z</time>
      </trkpt>
      <trkpt lat="45.70516" lon="4.4934">
        <ele>553</ele>
        <time>2017-05-14T10:29:40Z</time>
      </trkpt>
      <trkpt lat="45.70554" lon="4.4933">
        <ele>546</ele>
        <time>2017-05-14T10:29:47Z</time>
      </trkpt>
      <trkpt lat="45.70624" lon="4.49328">
        <ele>536</ele>
        <time>2017-05-14T10:29:52Z</time>
      </trkpt>
      <trkpt lat="45.70657" lon="4.49321">
        <ele>531</ele>
        <time>2017-05-14T10:29:59Z</time>
      </trkpt>
      <trkpt lat="45.70687" lon="4.49311">
        <ele>526</ele>
        <time>2017-05-14T10:30:03Z</time>
      </trkpt>
      <trkpt lat="45.70713" lon="4.493">
        <ele>517</ele>
        <time>2017-05-14T10:30:07Z</time>
      </trkpt>
      <trkpt lat="45.70732" lon="4.49275">
        <ele>516</ele>
        <time>2017-05-14T10:30:11Z</time>
      </trkpt>
      <trkpt lat="45.70772" lon="4.49222">
        <ele>504</ele>
        <time>2017-05-14T10:30:16Z</time>
      </trkpt>
      <trkpt lat="45.70788" lon="4.49195">
        <ele>498</ele>
        <time>2017-05-14T10:30:23Z</time>
      </trkpt>
      <trkpt lat="45.70803" lon="4.49177">
        <ele>496</ele>
        <time>2017-05-14T10:30:27Z</time>
      </trkpt>
      <trkpt lat="45.70833" lon="4.49175">
        <ele>493</ele>
        <time>2017-05-14T10:30:32Z</time>
      </trkpt>
      <trkpt lat="45.70844" lon="4.49198">
        <ele>491</ele>
        <time>2017-05-14T10:30:36Z</time>
      </trkpt>
      <trkpt lat="45.70849" lon="4.49237">
        <ele>485</ele>
        <time>2017-05-14T10:30:43Z</time>
      </trkpt>
      <trkpt lat="45.70847" lon="4.49273">
        <ele>477</ele>
        <time>2017-05-14T10:30:47Z</time>
      </trkpt>
      <trkpt lat="45.70853" lon="4.49297">
        <ele>477</ele>
        <time>2017-05-14T10:30:51Z</time>
      </trkpt>
      <trkpt lat="45.70869" lon="4.49299">
        <ele>475</ele>
        <time>2017-05-14T10:30:55Z</time>
      </trkpt>
      <trkpt lat="45.70885" lon="4.49285">
        <ele>474</ele>
        <time>2017-05-14T10:30:59Z</time>
      </trkpt>
      <trkpt lat="45.70902" lon="4.49269">
        <ele>474</ele>
        <time>2017-05-14T10:31:03Z</time>
      </trkpt>
      <trkpt lat="45.70923" lon="4.49262">
        <ele>471</ele>
        <time>2017-05-14T10:31:07Z</time>
      </trkpt>
      <trkpt lat="45.70929" lon="4.49246">
        <ele>470</ele>
        <time>2017-05-14T10:31:11Z</time>
      </trkpt>
      <trkpt lat="45.70955" lon="4.49215">
        <ele>469</ele>
        <time>2017-05-14T10:31:16Z</time>
      </trkpt>
      <trkpt lat="45.70971" lon="4.49208">
        <ele>469</ele>
        <time>2017-05-14T10:31:20Z</time>
      </trkpt>
      <trkpt lat="45.70988" lon="4.49205">
        <ele>468</ele>
        <time>2017-05-14T10:31:28Z</time>
      </trkpt>
      <trkpt lat="45.70999" lon="4.492">
        <ele>468</ele>
        <time>2017-05-14T10:31:31Z</time>
      </trkpt>
      <trkpt lat="45.71009" lon="4.49192">
        <ele>469</ele>
        <time>2017-05-14T10:31:35Z</time>
      </trkpt>
      <trkpt lat="45.71017" lon="4.49182">
        <ele>469</ele>
        <time>2017-05-14T10:31:39Z</time>
      </trkpt>
      <trkpt lat="45.71034" lon="4.49146">
        <ele>469</ele>
        <time>2017-05-14T10:31:44Z</time>
      </trkpt>
      <trkpt lat="45.71045" lon="4.49125">
        <ele>468</ele>
        <time>2017-05-14T10:31:48Z</time>
      </trkpt>
      <trkpt lat="45.71054" lon="4.49109">
        <ele>468</ele>
        <time>2017-05-14T10:31:55Z</time>
      </trkpt>
      <trkpt lat="45.71053" lon="4.49098">
        <ele>467</ele>
        <time>2017-05-14T10:31:59Z</time>
      </trkpt>
      <trkpt lat="45.71049" lon="4.49089">
        <ele>465</ele>
        <time>2017-05-14T10:32:03Z</time>
      </trkpt>
      <trkpt lat="45.71049" lon="4.49079">
        <ele>465</ele>
        <time>2017-05-14T10:32:07Z</time>
      </trkpt>
      <trkpt lat="45.71052" lon="4.49079">
        <ele>465</ele>
        <time>2017-05-14T10:32:12Z</time>
      </trkpt>
      <trkpt lat="45.71062" lon="4.49083">
        <ele>467</ele>
        <time>2017-05-14T10:32:20Z</time>
      </trkpt>
      <trkpt lat="45.71059" lon="4.49089">
        <ele>468</ele>
        <time>2017-05-14T10:32:27Z</time>
      </trkpt>
      <trkpt lat="45.71058" lon="4.49094">
        <ele>468</ele>
        <time>2017-05-14T10:32:31Z</time>
      </trkpt>
    </trkseg>
  </trk>
  <rte>
      <rtept lat="45.70981" lon="4.49186">
        <ele>471.8</ele>
        <type><![CDATA[1]]></type>
      </rtept>
      <rtept lat="45.71058" lon="4.49094">
        <ele>473.4</ele>
        <type><![CDATA[2]]></type>
      </rtept>
    </rte>
</gpx>